<?xml version='1.0' encoding='UTF-8'?>
<gpx version="1.1" creator="https://www.komoot.de" xmlns="http://www.topografix.com/GPX/1/1" xmlns:xsi="http://www.w3.org/2001/XMLSchema-instance" xsi:schemaLocation="http://www.topografix.com/GPX/1/1 http://www.topografix.com/GPX/1/1/gpx.xsd">
  <metadata>
    <name>Von Schwetzingen nach Heilbronn</name>
    <author>
      <link href="https://www.komoot.de">
        <text>komoot</text>
        <type>text/html</type>
      </link>
    </author>
  </metadata>
  <trk>
    <name>Von Schwetzingen nach Heilbronn</name>
    <trkseg>
      <trkpt lat="49.383490" lon="8.577878">
        <ele>884.000000</ele>
        <time>2021-07-11T06:48:29.000Z</time>
      </trkpt>
      <trkpt lat="49.383340" lon="8.577815">
        <ele>884.000000</ele>
        <time>2021-07-11T06:48:39.000Z</time>
      </trkpt>
      <trkpt lat="49.383143" lon="8.577897">
        <ele>884.000000</ele>
        <time>2021-07-11T06:48:44.000Z</time>
      </trkpt>
      <trkpt lat="49.382933" lon="8.577970">
        <ele>884.000000</ele>
        <time>2021-07-11T06:48:49.000Z</time>
      </trkpt>
      <trkpt lat="49.382712" lon="8.578027">
        <ele>884.000000</ele>
        <time>2021-07-11T06:48:54.000Z</time>
      </trkpt>
      <trkpt lat="49.382490" lon="8.578073">
        <ele>884.000000</ele>
        <time>2021-07-11T06:48:59.000Z</time>
      </trkpt>
      <trkpt lat="49.382270" lon="8.578093">
        <ele>884.000000</ele>
        <time>2021-07-11T06:49:04.000Z</time>
      </trkpt>
      <trkpt lat="49.382065" lon="8.578147">
        <ele>884.000000</ele>
        <time>2021-07-11T06:49:09.000Z</time>
      </trkpt>
      <trkpt lat="49.381875" lon="8.578333">
        <ele>884.000000</ele>
        <time>2021-07-11T06:49:14.000Z</time>
      </trkpt>
      <trkpt lat="49.381722" lon="8.578637">
        <ele>884.000000</ele>
        <time>2021-07-11T06:49:19.000Z</time>
      </trkpt>
      <trkpt lat="49.381560" lon="8.578683">
        <ele>884.000000</ele>
        <time>2021-07-11T06:49:24.000Z</time>
      </trkpt>
      <trkpt lat="49.381375" lon="8.578813">
        <ele>884.000000</ele>
        <time>2021-07-11T06:49:29.000Z</time>
      </trkpt>
      <trkpt lat="49.381110" lon="8.578853">
        <ele>884.000000</ele>
        <time>2021-07-11T06:49:34.000Z</time>
      </trkpt>
      <trkpt lat="49.380845" lon="8.578897">
        <ele>884.000000</ele>
        <time>2021-07-11T06:49:39.000Z</time>
      </trkpt>
      <trkpt lat="49.380683" lon="8.579107">
        <ele>884.000000</ele>
        <time>2021-07-11T06:49:44.000Z</time>
      </trkpt>
      <trkpt lat="49.380393" lon="8.579300">
        <ele>884.000000</ele>
        <time>2021-07-11T06:49:49.000Z</time>
      </trkpt>
      <trkpt lat="49.380130" lon="8.579363">
        <ele>884.000000</ele>
        <time>2021-07-11T06:49:54.000Z</time>
      </trkpt>
      <trkpt lat="49.379872" lon="8.579453">
        <ele>884.000000</ele>
        <time>2021-07-11T06:49:59.000Z</time>
      </trkpt>
      <trkpt lat="49.379600" lon="8.579537">
        <ele>884.000000</ele>
        <time>2021-07-11T06:50:04.000Z</time>
      </trkpt>
      <trkpt lat="49.379320" lon="8.579605">
        <ele>884.000000</ele>
        <time>2021-07-11T06:50:09.000Z</time>
      </trkpt>
      <trkpt lat="49.379080" lon="8.579615">
        <ele>884.000000</ele>
        <time>2021-07-11T06:50:14.000Z</time>
      </trkpt>
      <trkpt lat="49.378823" lon="8.579757">
        <ele>884.000000</ele>
        <time>2021-07-11T06:50:19.000Z</time>
      </trkpt>
      <trkpt lat="49.378560" lon="8.579792">
        <ele>884.000000</ele>
        <time>2021-07-11T06:50:24.000Z</time>
      </trkpt>
      <trkpt lat="49.378287" lon="8.579910">
        <ele>884.000000</ele>
        <time>2021-07-11T06:50:29.000Z</time>
      </trkpt>
      <trkpt lat="49.378023" lon="8.579963">
        <ele>884.000000</ele>
        <time>2021-07-11T06:50:34.000Z</time>
      </trkpt>
      <trkpt lat="49.377935" lon="8.579830">
        <ele>884.000000</ele>
        <time>2021-07-11T06:50:39.000Z</time>
      </trkpt>
      <trkpt lat="49.377805" lon="8.579548">
        <ele>884.000000</ele>
        <time>2021-07-11T06:50:44.000Z</time>
      </trkpt>
      <trkpt lat="49.377700" lon="8.579223">
        <ele>884.000000</ele>
        <time>2021-07-11T06:50:49.000Z</time>
      </trkpt>
      <trkpt lat="49.377585" lon="8.578888">
        <ele>884.000000</ele>
        <time>2021-07-11T06:50:54.000Z</time>
      </trkpt>
      <trkpt lat="49.377472" lon="8.578542">
        <ele>884.000000</ele>
        <time>2021-07-11T06:50:59.000Z</time>
      </trkpt>
      <trkpt lat="49.377437" lon="8.578203">
        <ele>884.000000</ele>
        <time>2021-07-11T06:51:04.000Z</time>
      </trkpt>
      <trkpt lat="49.377453" lon="8.577858">
        <ele>884.000000</ele>
        <time>2021-07-11T06:51:09.000Z</time>
      </trkpt>
      <trkpt lat="49.377460" lon="8.577587">
        <ele>884.000000</ele>
        <time>2021-07-11T06:51:14.000Z</time>
      </trkpt>
      <trkpt lat="49.377453" lon="8.577415">
        <ele>884.000000</ele>
        <time>2021-07-11T06:51:19.000Z</time>
      </trkpt>
      <trkpt lat="49.377428" lon="8.577423">
        <ele>884.000000</ele>
        <time>2021-07-11T06:51:22.000Z</time>
      </trkpt>
      <trkpt lat="49.377408" lon="8.577425">
        <ele>884.000000</ele>
        <time>2021-07-11T06:51:24.000Z</time>
      </trkpt>
      <trkpt lat="49.377263" lon="8.577422">
        <ele>884.000000</ele>
        <time>2021-07-11T06:51:29.000Z</time>
      </trkpt>
      <trkpt lat="49.377120" lon="8.577605">
        <ele>884.000000</ele>
        <time>2021-07-11T06:51:34.000Z</time>
      </trkpt>
      <trkpt lat="49.376908" lon="8.577685">
        <ele>884.000000</ele>
        <time>2021-07-11T06:51:39.000Z</time>
      </trkpt>
      <trkpt lat="49.376653" lon="8.577905">
        <ele>884.000000</ele>
        <time>2021-07-11T06:51:44.000Z</time>
      </trkpt>
      <trkpt lat="49.376368" lon="8.578040">
        <ele>884.000000</ele>
        <time>2021-07-11T06:51:49.000Z</time>
      </trkpt>
      <trkpt lat="49.376077" lon="8.578132">
        <ele>884.000000</ele>
        <time>2021-07-11T06:51:54.000Z</time>
      </trkpt>
      <trkpt lat="49.375848" lon="8.578335">
        <ele>884.000000</ele>
        <time>2021-07-11T06:51:59.000Z</time>
      </trkpt>
      <trkpt lat="49.375623" lon="8.578477">
        <ele>884.000000</ele>
        <time>2021-07-11T06:52:04.000Z</time>
      </trkpt>
      <trkpt lat="49.375408" lon="8.578603">
        <ele>884.000000</ele>
        <time>2021-07-11T06:52:09.000Z</time>
      </trkpt>
      <trkpt lat="49.375182" lon="8.578728">
        <ele>883.955889</ele>
        <time>2021-07-11T06:52:14.000Z</time>
      </trkpt>
      <trkpt lat="49.374942" lon="8.578875">
        <ele>883.886219</ele>
        <time>2021-07-11T06:52:19.000Z</time>
      </trkpt>
      <trkpt lat="49.374712" lon="8.579013">
        <ele>883.819638</ele>
        <time>2021-07-11T06:52:24.000Z</time>
      </trkpt>
      <trkpt lat="49.374438" lon="8.579153">
        <ele>883.741775</ele>
        <time>2021-07-11T06:52:29.000Z</time>
      </trkpt>
      <trkpt lat="49.374247" lon="8.579078">
        <ele>883.688618</ele>
        <time>2021-07-11T06:52:34.000Z</time>
      </trkpt>
      <trkpt lat="49.374067" lon="8.579050">
        <ele>883.639834</ele>
        <time>2021-07-11T06:52:39.000Z</time>
      </trkpt>
      <trkpt lat="49.373948" lon="8.578958">
        <ele>883.603911</ele>
        <time>2021-07-11T06:52:44.000Z</time>
      </trkpt>
      <trkpt lat="49.373912" lon="8.578930">
        <ele>883.593030</ele>
        <time>2021-07-11T06:52:48.000Z</time>
      </trkpt>
      <trkpt lat="49.373867" lon="8.578895">
        <ele>883.579429</ele>
        <time>2021-07-11T06:52:49.000Z</time>
      </trkpt>
      <trkpt lat="49.373722" lon="8.578928">
        <ele>883.539904</ele>
        <time>2021-07-11T06:52:54.000Z</time>
      </trkpt>
      <trkpt lat="49.373608" lon="8.578965">
        <ele>883.535003</ele>
        <time>2021-07-11T06:52:59.000Z</time>
      </trkpt>
      <trkpt lat="49.373548" lon="8.579040">
        <ele>883.598874</ele>
        <time>2021-07-11T06:53:01.000Z</time>
      </trkpt>
      <trkpt lat="49.373545" lon="8.579157">
        <ele>883.661819</ele>
        <time>2021-07-11T06:53:04.000Z</time>
      </trkpt>
      <trkpt lat="49.373508" lon="8.579250">
        <ele>883.720408</ele>
        <time>2021-07-11T06:53:07.000Z</time>
      </trkpt>
      <trkpt lat="49.373445" lon="8.579607">
        <ele>883.919247</ele>
        <time>2021-07-11T06:53:09.000Z</time>
      </trkpt>
      <trkpt lat="49.373382" lon="8.579710">
        <ele>883.995216</ele>
        <time>2021-07-11T06:53:14.000Z</time>
      </trkpt>
      <trkpt lat="49.373225" lon="8.579833">
        <ele>884.140729</ele>
        <time>2021-07-11T06:53:19.000Z</time>
      </trkpt>
      <trkpt lat="49.373023" lon="8.579912">
        <ele>884.312825</ele>
        <time>2021-07-11T06:53:24.000Z</time>
      </trkpt>
      <trkpt lat="49.372877" lon="8.580040">
        <ele>884.451623</ele>
        <time>2021-07-11T06:53:29.000Z</time>
      </trkpt>
      <trkpt lat="49.372615" lon="8.580200">
        <ele>884.684408</ele>
        <time>2021-07-11T06:53:34.000Z</time>
      </trkpt>
      <trkpt lat="49.372388" lon="8.580317">
        <ele>884.882095</ele>
        <time>2021-07-11T06:53:39.000Z</time>
      </trkpt>
      <trkpt lat="49.372137" lon="8.580502">
        <ele>885.000000</ele>
        <time>2021-07-11T06:53:44.000Z</time>
      </trkpt>
      <trkpt lat="49.371913" lon="8.580638">
        <ele>885.000000</ele>
        <time>2021-07-11T06:53:49.000Z</time>
      </trkpt>
      <trkpt lat="49.371693" lon="8.580780">
        <ele>885.000000</ele>
        <time>2021-07-11T06:53:54.000Z</time>
      </trkpt>
      <trkpt lat="49.371445" lon="8.580848">
        <ele>885.000000</ele>
        <time>2021-07-11T06:53:59.000Z</time>
      </trkpt>
      <trkpt lat="49.371248" lon="8.580998">
        <ele>885.000000</ele>
        <time>2021-07-11T06:54:04.000Z</time>
      </trkpt>
      <trkpt lat="49.371005" lon="8.581223">
        <ele>885.000000</ele>
        <time>2021-07-11T06:54:09.000Z</time>
      </trkpt>
      <trkpt lat="49.370928" lon="8.581343">
        <ele>885.000000</ele>
        <time>2021-07-11T06:54:14.000Z</time>
      </trkpt>
      <trkpt lat="49.370785" lon="8.581478">
        <ele>885.000000</ele>
        <time>2021-07-11T06:54:19.000Z</time>
      </trkpt>
      <trkpt lat="49.370643" lon="8.581655">
        <ele>885.000000</ele>
        <time>2021-07-11T06:54:24.000Z</time>
      </trkpt>
      <trkpt lat="49.370595" lon="8.581925">
        <ele>885.000000</ele>
        <time>2021-07-11T06:54:29.000Z</time>
      </trkpt>
      <trkpt lat="49.370317" lon="8.582055">
        <ele>885.000000</ele>
        <time>2021-07-11T06:54:34.000Z</time>
      </trkpt>
      <trkpt lat="49.370155" lon="8.582258">
        <ele>885.000000</ele>
        <time>2021-07-11T06:54:39.000Z</time>
      </trkpt>
      <trkpt lat="49.369978" lon="8.582535">
        <ele>885.000000</ele>
        <time>2021-07-11T06:54:44.000Z</time>
      </trkpt>
      <trkpt lat="49.369807" lon="8.582810">
        <ele>885.000000</ele>
        <time>2021-07-11T06:54:49.000Z</time>
      </trkpt>
      <trkpt lat="49.369857" lon="8.583152">
        <ele>885.000000</ele>
        <time>2021-07-11T06:54:54.000Z</time>
      </trkpt>
      <trkpt lat="49.369980" lon="8.583427">
        <ele>885.000000</ele>
        <time>2021-07-11T06:54:59.000Z</time>
      </trkpt>
      <trkpt lat="49.370147" lon="8.583687">
        <ele>885.000000</ele>
        <time>2021-07-11T06:55:04.000Z</time>
      </trkpt>
      <trkpt lat="49.370302" lon="8.583920">
        <ele>885.000000</ele>
        <time>2021-07-11T06:55:09.000Z</time>
      </trkpt>
      <trkpt lat="49.370167" lon="8.584223">
        <ele>885.000000</ele>
        <time>2021-07-11T06:55:14.000Z</time>
      </trkpt>
      <trkpt lat="49.369957" lon="8.584497">
        <ele>885.000000</ele>
        <time>2021-07-11T06:55:19.000Z</time>
      </trkpt>
      <trkpt lat="49.369773" lon="8.584760">
        <ele>885.000000</ele>
        <time>2021-07-11T06:55:24.000Z</time>
      </trkpt>
      <trkpt lat="49.369597" lon="8.585020">
        <ele>885.000000</ele>
        <time>2021-07-11T06:55:29.000Z</time>
      </trkpt>
      <trkpt lat="49.369467" lon="8.585265">
        <ele>885.000000</ele>
        <time>2021-07-11T06:55:34.000Z</time>
      </trkpt>
      <trkpt lat="49.369260" lon="8.585473">
        <ele>885.000000</ele>
        <time>2021-07-11T06:55:39.000Z</time>
      </trkpt>
      <trkpt lat="49.369133" lon="8.585603">
        <ele>885.000000</ele>
        <time>2021-07-11T06:55:44.000Z</time>
      </trkpt>
      <trkpt lat="49.369093" lon="8.585795">
        <ele>885.000000</ele>
        <time>2021-07-11T06:55:49.000Z</time>
      </trkpt>
      <trkpt lat="49.368938" lon="8.586092">
        <ele>885.000000</ele>
        <time>2021-07-11T06:55:54.000Z</time>
      </trkpt>
      <trkpt lat="49.368808" lon="8.586347">
        <ele>885.000000</ele>
        <time>2021-07-11T06:55:59.000Z</time>
      </trkpt>
      <trkpt lat="49.368662" lon="8.586695">
        <ele>885.000000</ele>
        <time>2021-07-11T06:56:04.000Z</time>
      </trkpt>
      <trkpt lat="49.368542" lon="8.587078">
        <ele>885.000000</ele>
        <time>2021-07-11T06:56:09.000Z</time>
      </trkpt>
      <trkpt lat="49.368460" lon="8.587470">
        <ele>885.000000</ele>
        <time>2021-07-11T06:56:14.000Z</time>
      </trkpt>
      <trkpt lat="49.368410" lon="8.587910">
        <ele>884.978615</ele>
        <time>2021-07-11T06:56:19.000Z</time>
      </trkpt>
      <trkpt lat="49.368337" lon="8.588343">
        <ele>884.773261</ele>
        <time>2021-07-11T06:56:24.000Z</time>
      </trkpt>
      <trkpt lat="49.368265" lon="8.588762">
        <ele>884.574304</ele>
        <time>2021-07-11T06:56:29.000Z</time>
      </trkpt>
      <trkpt lat="49.368135" lon="8.589113">
        <ele>884.388910</ele>
        <time>2021-07-11T06:56:34.000Z</time>
      </trkpt>
      <trkpt lat="49.367955" lon="8.589462">
        <ele>884.184506</ele>
        <time>2021-07-11T06:56:39.000Z</time>
      </trkpt>
      <trkpt lat="49.367757" lon="8.589768">
        <ele>883.986450</ele>
        <time>2021-07-11T06:56:44.000Z</time>
      </trkpt>
      <trkpt lat="49.367605" lon="8.590053">
        <ele>883.817315</ele>
        <time>2021-07-11T06:56:49.000Z</time>
      </trkpt>
      <trkpt lat="49.367387" lon="8.589915">
        <ele>883.736885</ele>
        <time>2021-07-11T06:56:54.000Z</time>
      </trkpt>
      <trkpt lat="49.367215" lon="8.589667">
        <ele>883.747203</ele>
        <time>2021-07-11T06:56:59.000Z</time>
      </trkpt>
      <trkpt lat="49.367058" lon="8.589392">
        <ele>883.757619</ele>
        <time>2021-07-11T06:57:04.000Z</time>
      </trkpt>
      <trkpt lat="49.366867" lon="8.589152">
        <ele>883.768412</ele>
        <time>2021-07-11T06:57:09.000Z</time>
      </trkpt>
      <trkpt lat="49.366630" lon="8.588903">
        <ele>883.780970</ele>
        <time>2021-07-11T06:57:14.000Z</time>
      </trkpt>
      <trkpt lat="49.366475" lon="8.588632">
        <ele>883.791242</ele>
        <time>2021-07-11T06:57:19.000Z</time>
      </trkpt>
      <trkpt lat="49.366345" lon="8.588385">
        <ele>883.800287</ele>
        <time>2021-07-11T06:57:24.000Z</time>
      </trkpt>
      <trkpt lat="49.366260" lon="8.588492">
        <ele>883.805094</ele>
        <time>2021-07-11T06:57:29.000Z</time>
      </trkpt>
      <trkpt lat="49.366165" lon="8.588802">
        <ele>883.820935</ele>
        <time>2021-07-11T06:57:34.000Z</time>
      </trkpt>
      <trkpt lat="49.365968" lon="8.589122">
        <ele>883.851143</ele>
        <time>2021-07-11T06:57:39.000Z</time>
      </trkpt>
      <trkpt lat="49.365758" lon="8.589455">
        <ele>883.882942</ele>
        <time>2021-07-11T06:57:44.000Z</time>
      </trkpt>
      <trkpt lat="49.365560" lon="8.589700">
        <ele>883.909728</ele>
        <time>2021-07-11T06:57:49.000Z</time>
      </trkpt>
      <trkpt lat="49.365380" lon="8.590035">
        <ele>883.939521</ele>
        <time>2021-07-11T06:57:54.000Z</time>
      </trkpt>
      <trkpt lat="49.365197" lon="8.590342">
        <ele>883.968072</ele>
        <time>2021-07-11T06:57:59.000Z</time>
      </trkpt>
      <trkpt lat="49.365012" lon="8.590635">
        <ele>883.996068</ele>
        <time>2021-07-11T06:58:04.000Z</time>
      </trkpt>
      <trkpt lat="49.364818" lon="8.590920">
        <ele>884.000000</ele>
        <time>2021-07-11T06:58:09.000Z</time>
      </trkpt>
      <trkpt lat="49.364615" lon="8.591213">
        <ele>884.000000</ele>
        <time>2021-07-11T06:58:14.000Z</time>
      </trkpt>
      <trkpt lat="49.364413" lon="8.591492">
        <ele>884.000000</ele>
        <time>2021-07-11T06:58:19.000Z</time>
      </trkpt>
      <trkpt lat="49.364218" lon="8.591773">
        <ele>884.000000</ele>
        <time>2021-07-11T06:58:24.000Z</time>
      </trkpt>
      <trkpt lat="49.364027" lon="8.592052">
        <ele>884.000000</ele>
        <time>2021-07-11T06:58:29.000Z</time>
      </trkpt>
      <trkpt lat="49.363875" lon="8.592395">
        <ele>884.000000</ele>
        <time>2021-07-11T06:58:34.000Z</time>
      </trkpt>
      <trkpt lat="49.363772" lon="8.592832">
        <ele>884.001039</ele>
        <time>2021-07-11T06:58:39.000Z</time>
      </trkpt>
      <trkpt lat="49.363638" lon="8.593198">
        <ele>884.004314</ele>
        <time>2021-07-11T06:58:44.000Z</time>
      </trkpt>
      <trkpt lat="49.363513" lon="8.593543">
        <ele>884.007393</ele>
        <time>2021-07-11T06:58:49.000Z</time>
      </trkpt>
      <trkpt lat="49.363383" lon="8.593858">
        <ele>884.010303</ele>
        <time>2021-07-11T06:58:54.000Z</time>
      </trkpt>
      <trkpt lat="49.363245" lon="8.594185">
        <ele>884.013342</ele>
        <time>2021-07-11T06:58:59.000Z</time>
      </trkpt>
      <trkpt lat="49.363190" lon="8.594515">
        <ele>884.015999</ele>
        <time>2021-07-11T06:59:04.000Z</time>
      </trkpt>
      <trkpt lat="49.363202" lon="8.595012">
        <ele>884.019879</ele>
        <time>2021-07-11T06:59:09.000Z</time>
      </trkpt>
      <trkpt lat="49.363160" lon="8.595445">
        <ele>884.099659</ele>
        <time>2021-07-11T06:59:14.000Z</time>
      </trkpt>
      <trkpt lat="49.363180" lon="8.595925">
        <ele>884.267142</ele>
        <time>2021-07-11T06:59:19.000Z</time>
      </trkpt>
      <trkpt lat="49.363217" lon="8.596373">
        <ele>884.424391</ele>
        <time>2021-07-11T06:59:24.000Z</time>
      </trkpt>
      <trkpt lat="49.363193" lon="8.596793">
        <ele>884.571202</ele>
        <time>2021-07-11T06:59:29.000Z</time>
      </trkpt>
      <trkpt lat="49.363138" lon="8.597205">
        <ele>884.717648</ele>
        <time>2021-07-11T06:59:34.000Z</time>
      </trkpt>
      <trkpt lat="49.363070" lon="8.597623">
        <ele>884.867673</ele>
        <time>2021-07-11T06:59:39.000Z</time>
      </trkpt>
      <trkpt lat="49.362998" lon="8.598027">
        <ele>884.983758</ele>
        <time>2021-07-11T06:59:44.000Z</time>
      </trkpt>
      <trkpt lat="49.362897" lon="8.598443">
        <ele>884.986454</ele>
        <time>2021-07-11T06:59:49.000Z</time>
      </trkpt>
      <trkpt lat="49.362772" lon="8.598838">
        <ele>884.989121</ele>
        <time>2021-07-11T06:59:54.000Z</time>
      </trkpt>
      <trkpt lat="49.362623" lon="8.599208">
        <ele>884.991762</ele>
        <time>2021-07-11T06:59:59.000Z</time>
      </trkpt>
      <trkpt lat="49.362418" lon="8.599477">
        <ele>884.994276</ele>
        <time>2021-07-11T07:00:04.000Z</time>
      </trkpt>
      <trkpt lat="49.362172" lon="8.599680">
        <ele>884.996880</ele>
        <time>2021-07-11T07:00:09.000Z</time>
      </trkpt>
      <trkpt lat="49.361907" lon="8.599852">
        <ele>884.999563</ele>
        <time>2021-07-11T07:00:14.000Z</time>
      </trkpt>
      <trkpt lat="49.361650" lon="8.600043">
        <ele>885.000000</ele>
        <time>2021-07-11T07:00:19.000Z</time>
      </trkpt>
      <trkpt lat="49.361413" lon="8.600255">
        <ele>885.000000</ele>
        <time>2021-07-11T07:00:24.000Z</time>
      </trkpt>
      <trkpt lat="49.361205" lon="8.600532">
        <ele>885.000000</ele>
        <time>2021-07-11T07:00:29.000Z</time>
      </trkpt>
      <trkpt lat="49.361073" lon="8.600983">
        <ele>885.000000</ele>
        <time>2021-07-11T07:00:34.000Z</time>
      </trkpt>
      <trkpt lat="49.360922" lon="8.601360">
        <ele>885.000000</ele>
        <time>2021-07-11T07:00:39.000Z</time>
      </trkpt>
      <trkpt lat="49.360780" lon="8.601713">
        <ele>885.000000</ele>
        <time>2021-07-11T07:00:44.000Z</time>
      </trkpt>
      <trkpt lat="49.360637" lon="8.602085">
        <ele>885.000000</ele>
        <time>2021-07-11T07:00:49.000Z</time>
      </trkpt>
      <trkpt lat="49.360507" lon="8.602472">
        <ele>885.000000</ele>
        <time>2021-07-11T07:00:54.000Z</time>
      </trkpt>
      <trkpt lat="49.360393" lon="8.602848">
        <ele>885.000000</ele>
        <time>2021-07-11T07:00:59.000Z</time>
      </trkpt>
      <trkpt lat="49.360277" lon="8.603208">
        <ele>885.000000</ele>
        <time>2021-07-11T07:01:04.000Z</time>
      </trkpt>
      <trkpt lat="49.360175" lon="8.603603">
        <ele>885.000000</ele>
        <time>2021-07-11T07:01:09.000Z</time>
      </trkpt>
      <trkpt lat="49.360135" lon="8.604045">
        <ele>885.000000</ele>
        <time>2021-07-11T07:01:14.000Z</time>
      </trkpt>
      <trkpt lat="49.360102" lon="8.604478">
        <ele>884.999829</ele>
        <time>2021-07-11T07:01:19.000Z</time>
      </trkpt>
      <trkpt lat="49.360070" lon="8.604912">
        <ele>884.997330</ele>
        <time>2021-07-11T07:01:24.000Z</time>
      </trkpt>
      <trkpt lat="49.360043" lon="8.605362">
        <ele>884.994744</ele>
        <time>2021-07-11T07:01:29.000Z</time>
      </trkpt>
      <trkpt lat="49.360010" lon="8.605815">
        <ele>884.992135</ele>
        <time>2021-07-11T07:01:34.000Z</time>
      </trkpt>
      <trkpt lat="49.359982" lon="8.606268">
        <ele>884.989531</ele>
        <time>2021-07-11T07:01:39.000Z</time>
      </trkpt>
      <trkpt lat="49.359945" lon="8.606722">
        <ele>884.986913</ele>
        <time>2021-07-11T07:01:44.000Z</time>
      </trkpt>
      <trkpt lat="49.359907" lon="8.607175">
        <ele>884.984300</ele>
        <time>2021-07-11T07:01:49.000Z</time>
      </trkpt>
      <trkpt lat="49.359877" lon="8.607637">
        <ele>884.708070</ele>
        <time>2021-07-11T07:01:54.000Z</time>
      </trkpt>
      <trkpt lat="49.359870" lon="8.608032">
        <ele>884.463644</ele>
        <time>2021-07-11T07:01:59.000Z</time>
      </trkpt>
      <trkpt lat="49.359700" lon="8.608247">
        <ele>884.254466</ele>
        <time>2021-07-11T07:02:04.000Z</time>
      </trkpt>
      <trkpt lat="49.359403" lon="8.608165">
        <ele>883.967868</ele>
        <time>2021-07-11T07:02:09.000Z</time>
      </trkpt>
      <trkpt lat="49.359123" lon="8.608052">
        <ele>883.692907</ele>
        <time>2021-07-11T07:02:14.000Z</time>
      </trkpt>
      <trkpt lat="49.358837" lon="8.607942">
        <ele>883.412888</ele>
        <time>2021-07-11T07:02:19.000Z</time>
      </trkpt>
      <trkpt lat="49.358553" lon="8.607832">
        <ele>883.335815</ele>
        <time>2021-07-11T07:02:24.000Z</time>
      </trkpt>
      <trkpt lat="49.358317" lon="8.607705">
        <ele>883.436484</ele>
        <time>2021-07-11T07:02:29.000Z</time>
      </trkpt>
      <trkpt lat="49.358083" lon="8.607630">
        <ele>883.532712</ele>
        <time>2021-07-11T07:02:34.000Z</time>
      </trkpt>
      <trkpt lat="49.357832" lon="8.607722">
        <ele>883.636593</ele>
        <time>2021-07-11T07:02:39.000Z</time>
      </trkpt>
      <trkpt lat="49.357643" lon="8.607960">
        <ele>883.734993</ele>
        <time>2021-07-11T07:02:44.000Z</time>
      </trkpt>
      <trkpt lat="49.357475" lon="8.608348">
        <ele>883.857154</ele>
        <time>2021-07-11T07:02:49.000Z</time>
      </trkpt>
      <trkpt lat="49.357278" lon="8.608710">
        <ele>883.980839</ele>
        <time>2021-07-11T07:02:54.000Z</time>
      </trkpt>
      <trkpt lat="49.357112" lon="8.609027">
        <ele>884.082595</ele>
        <time>2021-07-11T07:02:59.000Z</time>
      </trkpt>
      <trkpt lat="49.356947" lon="8.609385">
        <ele>884.191154</ele>
        <time>2021-07-11T07:03:04.000Z</time>
      </trkpt>
      <trkpt lat="49.356777" lon="8.609750">
        <ele>884.302228</ele>
        <time>2021-07-11T07:03:09.000Z</time>
      </trkpt>
      <trkpt lat="49.356612" lon="8.610063">
        <ele>884.401903</ele>
        <time>2021-07-11T07:03:14.000Z</time>
      </trkpt>
      <trkpt lat="49.356468" lon="8.610423">
        <ele>884.506479</ele>
        <time>2021-07-11T07:03:19.000Z</time>
      </trkpt>
      <trkpt lat="49.356385" lon="8.610820">
        <ele>884.609691</ele>
        <time>2021-07-11T07:03:24.000Z</time>
      </trkpt>
      <trkpt lat="49.356320" lon="8.611228">
        <ele>884.697494</ele>
        <time>2021-07-11T07:03:29.000Z</time>
      </trkpt>
      <trkpt lat="49.356255" lon="8.611613">
        <ele>884.743071</ele>
        <time>2021-07-11T07:03:34.000Z</time>
      </trkpt>
      <trkpt lat="49.356185" lon="8.612047">
        <ele>884.794308</ele>
        <time>2021-07-11T07:03:39.000Z</time>
      </trkpt>
      <trkpt lat="49.356115" lon="8.612512">
        <ele>884.849000</ele>
        <time>2021-07-11T07:03:44.000Z</time>
      </trkpt>
      <trkpt lat="49.356052" lon="8.612943">
        <ele>884.899619</ele>
        <time>2021-07-11T07:03:49.000Z</time>
      </trkpt>
      <trkpt lat="49.355967" lon="8.613320">
        <ele>884.945337</ele>
        <time>2021-07-11T07:03:54.000Z</time>
      </trkpt>
      <trkpt lat="49.355907" lon="8.613725">
        <ele>884.992935</ele>
        <time>2021-07-11T07:03:59.000Z</time>
      </trkpt>
      <trkpt lat="49.355845" lon="8.614135">
        <ele>885.000000</ele>
        <time>2021-07-11T07:04:04.000Z</time>
      </trkpt>
      <trkpt lat="49.355783" lon="8.614535">
        <ele>885.000000</ele>
        <time>2021-07-11T07:04:09.000Z</time>
      </trkpt>
      <trkpt lat="49.355708" lon="8.614942">
        <ele>885.000000</ele>
        <time>2021-07-11T07:04:14.000Z</time>
      </trkpt>
      <trkpt lat="49.355650" lon="8.615333">
        <ele>885.000000</ele>
        <time>2021-07-11T07:04:19.000Z</time>
      </trkpt>
      <trkpt lat="49.355590" lon="8.615742">
        <ele>885.000000</ele>
        <time>2021-07-11T07:04:24.000Z</time>
      </trkpt>
      <trkpt lat="49.355515" lon="8.616118">
        <ele>885.000000</ele>
        <time>2021-07-11T07:04:29.000Z</time>
      </trkpt>
      <trkpt lat="49.355473" lon="8.616503">
        <ele>885.000000</ele>
        <time>2021-07-11T07:04:34.000Z</time>
      </trkpt>
      <trkpt lat="49.355335" lon="8.616797">
        <ele>885.000000</ele>
        <time>2021-07-11T07:04:39.000Z</time>
      </trkpt>
      <trkpt lat="49.355090" lon="8.616992">
        <ele>885.000000</ele>
        <time>2021-07-11T07:04:44.000Z</time>
      </trkpt>
      <trkpt lat="49.354810" lon="8.617183">
        <ele>885.000000</ele>
        <time>2021-07-11T07:04:49.000Z</time>
      </trkpt>
      <trkpt lat="49.354497" lon="8.617410">
        <ele>885.000000</ele>
        <time>2021-07-11T07:04:54.000Z</time>
      </trkpt>
      <trkpt lat="49.354258" lon="8.617705">
        <ele>885.000000</ele>
        <time>2021-07-11T07:04:59.000Z</time>
      </trkpt>
      <trkpt lat="49.354150" lon="8.618053">
        <ele>885.000000</ele>
        <time>2021-07-11T07:05:04.000Z</time>
      </trkpt>
      <trkpt lat="49.354083" lon="8.618460">
        <ele>885.075176</ele>
        <time>2021-07-11T07:05:09.000Z</time>
      </trkpt>
      <trkpt lat="49.354058" lon="8.618873">
        <ele>885.167283</ele>
        <time>2021-07-11T07:05:14.000Z</time>
      </trkpt>
      <trkpt lat="49.353990" lon="8.619250">
        <ele>885.254152</ele>
        <time>2021-07-11T07:05:19.000Z</time>
      </trkpt>
      <trkpt lat="49.354022" lon="8.619630">
        <ele>885.339238</ele>
        <time>2021-07-11T07:05:24.000Z</time>
      </trkpt>
      <trkpt lat="49.354052" lon="8.620007">
        <ele>885.423578</ele>
        <time>2021-07-11T07:05:29.000Z</time>
      </trkpt>
      <trkpt lat="49.354047" lon="8.620372">
        <ele>885.504649</ele>
        <time>2021-07-11T07:05:34.000Z</time>
      </trkpt>
      <trkpt lat="49.353982" lon="8.620710">
        <ele>885.582909</ele>
        <time>2021-07-11T07:05:39.000Z</time>
      </trkpt>
      <trkpt lat="49.353867" lon="8.621067">
        <ele>885.649875</ele>
        <time>2021-07-11T07:05:44.000Z</time>
      </trkpt>
      <trkpt lat="49.353730" lon="8.621410">
        <ele>885.706240</ele>
        <time>2021-07-11T07:05:49.000Z</time>
      </trkpt>
      <trkpt lat="49.353570" lon="8.621727">
        <ele>885.762420</ele>
        <time>2021-07-11T07:05:54.000Z</time>
      </trkpt>
      <trkpt lat="49.353435" lon="8.622083">
        <ele>885.820128</ele>
        <time>2021-07-11T07:05:59.000Z</time>
      </trkpt>
      <trkpt lat="49.353303" lon="8.622442">
        <ele>885.877880</ele>
        <time>2021-07-11T07:06:04.000Z</time>
      </trkpt>
      <trkpt lat="49.353102" lon="8.622740">
        <ele>885.937976</ele>
        <time>2021-07-11T07:06:09.000Z</time>
      </trkpt>
      <trkpt lat="49.352903" lon="8.623098">
        <ele>886.008246</ele>
        <time>2021-07-11T07:06:14.000Z</time>
      </trkpt>
      <trkpt lat="49.352762" lon="8.623448">
        <ele>886.129920</ele>
        <time>2021-07-11T07:06:19.000Z</time>
      </trkpt>
      <trkpt lat="49.352603" lon="8.623785">
        <ele>886.252951</ele>
        <time>2021-07-11T07:06:24.000Z</time>
      </trkpt>
      <trkpt lat="49.352453" lon="8.624127">
        <ele>886.374854</ele>
        <time>2021-07-11T07:06:29.000Z</time>
      </trkpt>
      <trkpt lat="49.352305" lon="8.624480">
        <ele>886.498974</ele>
        <time>2021-07-11T07:06:34.000Z</time>
      </trkpt>
      <trkpt lat="49.352170" lon="8.624822">
        <ele>886.617210</ele>
        <time>2021-07-11T07:06:39.000Z</time>
      </trkpt>
      <trkpt lat="49.352015" lon="8.625152">
        <ele>886.737500</ele>
        <time>2021-07-11T07:06:44.000Z</time>
      </trkpt>
      <trkpt lat="49.351947" lon="8.625513">
        <ele>886.790928</ele>
        <time>2021-07-11T07:06:49.000Z</time>
      </trkpt>
      <trkpt lat="49.351947" lon="8.626053">
        <ele>886.664735</ele>
        <time>2021-07-11T07:06:54.000Z</time>
      </trkpt>
      <trkpt lat="49.351972" lon="8.626537">
        <ele>886.551275</ele>
        <time>2021-07-11T07:06:59.000Z</time>
      </trkpt>
      <trkpt lat="49.352010" lon="8.627008">
        <ele>886.440366</ele>
        <time>2021-07-11T07:07:04.000Z</time>
      </trkpt>
      <trkpt lat="49.352060" lon="8.627490">
        <ele>886.326309</ele>
        <time>2021-07-11T07:07:09.000Z</time>
      </trkpt>
      <trkpt lat="49.352130" lon="8.627985">
        <ele>886.207939</ele>
        <time>2021-07-11T07:07:14.000Z</time>
      </trkpt>
      <trkpt lat="49.352153" lon="8.628450">
        <ele>886.151996</ele>
        <time>2021-07-11T07:07:19.000Z</time>
      </trkpt>
      <trkpt lat="49.352158" lon="8.628922">
        <ele>886.122737</ele>
        <time>2021-07-11T07:07:24.000Z</time>
      </trkpt>
      <trkpt lat="49.352130" lon="8.629387">
        <ele>886.093793</ele>
        <time>2021-07-11T07:07:29.000Z</time>
      </trkpt>
      <trkpt lat="49.352115" lon="8.629855">
        <ele>886.064751</ele>
        <time>2021-07-11T07:07:34.000Z</time>
      </trkpt>
      <trkpt lat="49.352087" lon="8.630302">
        <ele>886.036917</ele>
        <time>2021-07-11T07:07:39.000Z</time>
      </trkpt>
      <trkpt lat="49.352060" lon="8.630702">
        <ele>886.011992</ele>
        <time>2021-07-11T07:07:44.000Z</time>
      </trkpt>
      <trkpt lat="49.351790" lon="8.630707">
        <ele>886.040284</ele>
        <time>2021-07-11T07:07:49.000Z</time>
      </trkpt>
      <trkpt lat="49.351568" lon="8.630537">
        <ele>886.109692</ele>
        <time>2021-07-11T07:07:54.000Z</time>
      </trkpt>
      <trkpt lat="49.351377" lon="8.630287">
        <ele>886.179916</ele>
        <time>2021-07-11T07:07:59.000Z</time>
      </trkpt>
      <trkpt lat="49.351170" lon="8.630065">
        <ele>886.250561</ele>
        <time>2021-07-11T07:08:04.000Z</time>
      </trkpt>
      <trkpt lat="49.350925" lon="8.629955">
        <ele>886.321977</ele>
        <time>2021-07-11T07:08:09.000Z</time>
      </trkpt>
      <trkpt lat="49.350660" lon="8.629943">
        <ele>886.396149</ele>
        <time>2021-07-11T07:08:14.000Z</time>
      </trkpt>
      <trkpt lat="49.350405" lon="8.629930">
        <ele>886.467530</ele>
        <time>2021-07-11T07:08:19.000Z</time>
      </trkpt>
      <trkpt lat="49.350170" lon="8.629832">
        <ele>886.535245</ele>
        <time>2021-07-11T07:08:24.000Z</time>
      </trkpt>
      <trkpt lat="49.349923" lon="8.629678">
        <ele>886.608880</ele>
        <time>2021-07-11T07:08:29.000Z</time>
      </trkpt>
      <trkpt lat="49.349713" lon="8.629583">
        <ele>886.669349</ele>
        <time>2021-07-11T07:08:34.000Z</time>
      </trkpt>
      <trkpt lat="49.349613" lon="8.629438">
        <ele>886.707343</ele>
        <time>2021-07-11T07:08:39.000Z</time>
      </trkpt>
      <trkpt lat="49.349493" lon="8.629227">
        <ele>886.757740</ele>
        <time>2021-07-11T07:08:44.000Z</time>
      </trkpt>
      <trkpt lat="49.349305" lon="8.628927">
        <ele>886.832641</ele>
        <time>2021-07-11T07:08:49.000Z</time>
      </trkpt>
      <trkpt lat="49.349138" lon="8.628630">
        <ele>886.903234</ele>
        <time>2021-07-11T07:08:54.000Z</time>
      </trkpt>
      <trkpt lat="49.348995" lon="8.628318">
        <ele>886.971875</ele>
        <time>2021-07-11T07:08:59.000Z</time>
      </trkpt>
      <trkpt lat="49.348850" lon="8.627948">
        <ele>886.846939</ele>
        <time>2021-07-11T07:09:04.000Z</time>
      </trkpt>
      <trkpt lat="49.348710" lon="8.627638">
        <ele>886.637357</ele>
        <time>2021-07-11T07:09:09.000Z</time>
      </trkpt>
      <trkpt lat="49.348523" lon="8.627400">
        <ele>886.430176</ele>
        <time>2021-07-11T07:09:14.000Z</time>
      </trkpt>
      <trkpt lat="49.348327" lon="8.627045">
        <ele>886.171621</ele>
        <time>2021-07-11T07:09:19.000Z</time>
      </trkpt>
      <trkpt lat="49.348148" lon="8.626738">
        <ele>885.942702</ele>
        <time>2021-07-11T07:09:24.000Z</time>
      </trkpt>
      <trkpt lat="49.348003" lon="8.626832">
        <ele>885.808457</ele>
        <time>2021-07-11T07:09:29.000Z</time>
      </trkpt>
      <trkpt lat="49.347832" lon="8.626957">
        <ele>885.646919</ele>
        <time>2021-07-11T07:09:34.000Z</time>
      </trkpt>
      <trkpt lat="49.347628" lon="8.627295">
        <ele>885.443159</ele>
        <time>2021-07-11T07:09:39.000Z</time>
      </trkpt>
      <trkpt lat="49.347408" lon="8.627562">
        <ele>885.370505</ele>
        <time>2021-07-11T07:09:44.000Z</time>
      </trkpt>
      <trkpt lat="49.347208" lon="8.627812">
        <ele>885.303687</ele>
        <time>2021-07-11T07:09:49.000Z</time>
      </trkpt>
      <trkpt lat="49.347078" lon="8.628080">
        <ele>885.247295</ele>
        <time>2021-07-11T07:09:54.000Z</time>
      </trkpt>
      <trkpt lat="49.346842" lon="8.628360">
        <ele>885.170023</ele>
        <time>2021-07-11T07:09:59.000Z</time>
      </trkpt>
      <trkpt lat="49.346620" lon="8.628633">
        <ele>885.096332</ele>
        <time>2021-07-11T07:10:04.000Z</time>
      </trkpt>
      <trkpt lat="49.346398" lon="8.628908">
        <ele>885.022429</ele>
        <time>2021-07-11T07:10:09.000Z</time>
      </trkpt>
      <trkpt lat="49.346183" lon="8.629160">
        <ele>885.000000</ele>
        <time>2021-07-11T07:10:14.000Z</time>
      </trkpt>
      <trkpt lat="49.345965" lon="8.629468">
        <ele>885.000000</ele>
        <time>2021-07-11T07:10:19.000Z</time>
      </trkpt>
      <trkpt lat="49.345825" lon="8.629728">
        <ele>885.000000</ele>
        <time>2021-07-11T07:10:24.000Z</time>
      </trkpt>
      <trkpt lat="49.345657" lon="8.629990">
        <ele>885.000000</ele>
        <time>2021-07-11T07:10:29.000Z</time>
      </trkpt>
      <trkpt lat="49.345372" lon="8.630310">
        <ele>885.000000</ele>
        <time>2021-07-11T07:10:34.000Z</time>
      </trkpt>
      <trkpt lat="49.345068" lon="8.630465">
        <ele>885.000000</ele>
        <time>2021-07-11T07:10:39.000Z</time>
      </trkpt>
      <trkpt lat="49.344748" lon="8.630497">
        <ele>885.000000</ele>
        <time>2021-07-11T07:10:44.000Z</time>
      </trkpt>
      <trkpt lat="49.344438" lon="8.630513">
        <ele>885.000000</ele>
        <time>2021-07-11T07:10:49.000Z</time>
      </trkpt>
      <trkpt lat="49.344163" lon="8.630558">
        <ele>885.000000</ele>
        <time>2021-07-11T07:10:54.000Z</time>
      </trkpt>
      <trkpt lat="49.343863" lon="8.630575">
        <ele>885.000000</ele>
        <time>2021-07-11T07:10:59.000Z</time>
      </trkpt>
      <trkpt lat="49.343595" lon="8.630573">
        <ele>885.000000</ele>
        <time>2021-07-11T07:11:04.000Z</time>
      </trkpt>
      <trkpt lat="49.343313" lon="8.630558">
        <ele>885.000000</ele>
        <time>2021-07-11T07:11:09.000Z</time>
      </trkpt>
      <trkpt lat="49.343023" lon="8.630487">
        <ele>885.000000</ele>
        <time>2021-07-11T07:11:14.000Z</time>
      </trkpt>
      <trkpt lat="49.342758" lon="8.630378">
        <ele>885.000000</ele>
        <time>2021-07-11T07:11:19.000Z</time>
      </trkpt>
      <trkpt lat="49.342503" lon="8.630182">
        <ele>885.000000</ele>
        <time>2021-07-11T07:11:24.000Z</time>
      </trkpt>
      <trkpt lat="49.342267" lon="8.629985">
        <ele>885.000000</ele>
        <time>2021-07-11T07:11:29.000Z</time>
      </trkpt>
      <trkpt lat="49.341993" lon="8.629762">
        <ele>885.000000</ele>
        <time>2021-07-11T07:11:34.000Z</time>
      </trkpt>
      <trkpt lat="49.341782" lon="8.629570">
        <ele>885.000000</ele>
        <time>2021-07-11T07:11:39.000Z</time>
      </trkpt>
      <trkpt lat="49.341563" lon="8.629368">
        <ele>885.000000</ele>
        <time>2021-07-11T07:11:44.000Z</time>
      </trkpt>
      <trkpt lat="49.341335" lon="8.629185">
        <ele>885.000000</ele>
        <time>2021-07-11T07:11:49.000Z</time>
      </trkpt>
      <trkpt lat="49.341088" lon="8.628978">
        <ele>885.000000</ele>
        <time>2021-07-11T07:11:54.000Z</time>
      </trkpt>
      <trkpt lat="49.340800" lon="8.628832">
        <ele>885.000000</ele>
        <time>2021-07-11T07:11:59.000Z</time>
      </trkpt>
      <trkpt lat="49.340508" lon="8.628625">
        <ele>885.000000</ele>
        <time>2021-07-11T07:12:04.000Z</time>
      </trkpt>
      <trkpt lat="49.340287" lon="8.628437">
        <ele>885.000000</ele>
        <time>2021-07-11T07:12:09.000Z</time>
      </trkpt>
      <trkpt lat="49.339997" lon="8.628197">
        <ele>885.000000</ele>
        <time>2021-07-11T07:12:14.000Z</time>
      </trkpt>
      <trkpt lat="49.339740" lon="8.627992">
        <ele>885.000000</ele>
        <time>2021-07-11T07:12:19.000Z</time>
      </trkpt>
      <trkpt lat="49.339497" lon="8.627767">
        <ele>885.000000</ele>
        <time>2021-07-11T07:12:24.000Z</time>
      </trkpt>
      <trkpt lat="49.339268" lon="8.627540">
        <ele>885.000000</ele>
        <time>2021-07-11T07:12:29.000Z</time>
      </trkpt>
      <trkpt lat="49.339032" lon="8.627342">
        <ele>885.000000</ele>
        <time>2021-07-11T07:12:34.000Z</time>
      </trkpt>
      <trkpt lat="49.338728" lon="8.627127">
        <ele>885.000000</ele>
        <time>2021-07-11T07:12:39.000Z</time>
      </trkpt>
      <trkpt lat="49.338425" lon="8.626938">
        <ele>885.000000</ele>
        <time>2021-07-11T07:12:44.000Z</time>
      </trkpt>
      <trkpt lat="49.338202" lon="8.626810">
        <ele>885.000000</ele>
        <time>2021-07-11T07:12:49.000Z</time>
      </trkpt>
      <trkpt lat="49.337903" lon="8.626573">
        <ele>885.000000</ele>
        <time>2021-07-11T07:12:54.000Z</time>
      </trkpt>
      <trkpt lat="49.337652" lon="8.626408">
        <ele>885.000000</ele>
        <time>2021-07-11T07:12:59.000Z</time>
      </trkpt>
      <trkpt lat="49.337412" lon="8.626237">
        <ele>885.000000</ele>
        <time>2021-07-11T07:13:04.000Z</time>
      </trkpt>
      <trkpt lat="49.337208" lon="8.626052">
        <ele>885.000000</ele>
        <time>2021-07-11T07:13:09.000Z</time>
      </trkpt>
      <trkpt lat="49.336980" lon="8.625858">
        <ele>885.000000</ele>
        <time>2021-07-11T07:13:14.000Z</time>
      </trkpt>
      <trkpt lat="49.336725" lon="8.625710">
        <ele>885.000000</ele>
        <time>2021-07-11T07:13:19.000Z</time>
      </trkpt>
      <trkpt lat="49.336450" lon="8.625525">
        <ele>885.000000</ele>
        <time>2021-07-11T07:13:24.000Z</time>
      </trkpt>
      <trkpt lat="49.336177" lon="8.625365">
        <ele>885.000000</ele>
        <time>2021-07-11T07:13:29.000Z</time>
      </trkpt>
      <trkpt lat="49.335945" lon="8.625195">
        <ele>885.000000</ele>
        <time>2021-07-11T07:13:34.000Z</time>
      </trkpt>
      <trkpt lat="49.335703" lon="8.625065">
        <ele>885.000000</ele>
        <time>2021-07-11T07:13:39.000Z</time>
      </trkpt>
      <trkpt lat="49.335462" lon="8.624933">
        <ele>885.000000</ele>
        <time>2021-07-11T07:13:44.000Z</time>
      </trkpt>
      <trkpt lat="49.335225" lon="8.624775">
        <ele>885.000000</ele>
        <time>2021-07-11T07:13:49.000Z</time>
      </trkpt>
      <trkpt lat="49.334940" lon="8.624665">
        <ele>885.006084</ele>
        <time>2021-07-11T07:13:54.000Z</time>
      </trkpt>
      <trkpt lat="49.334573" lon="8.624483">
        <ele>885.078678</ele>
        <time>2021-07-11T07:13:59.000Z</time>
      </trkpt>
      <trkpt lat="49.334287" lon="8.624295">
        <ele>885.137239</ele>
        <time>2021-07-11T07:14:04.000Z</time>
      </trkpt>
      <trkpt lat="49.333982" lon="8.624123">
        <ele>885.198399</ele>
        <time>2021-07-11T07:14:09.000Z</time>
      </trkpt>
      <trkpt lat="49.333708" lon="8.623957">
        <ele>885.253845</ele>
        <time>2021-07-11T07:14:14.000Z</time>
      </trkpt>
      <trkpt lat="49.333383" lon="8.623775">
        <ele>885.318962</ele>
        <time>2021-07-11T07:14:19.000Z</time>
      </trkpt>
      <trkpt lat="49.333142" lon="8.623580">
        <ele>885.400483</ele>
        <time>2021-07-11T07:14:24.000Z</time>
      </trkpt>
      <trkpt lat="49.332903" lon="8.623505">
        <ele>885.490195</ele>
        <time>2021-07-11T07:14:29.000Z</time>
      </trkpt>
      <trkpt lat="49.332623" lon="8.623433">
        <ele>885.594603</ele>
        <time>2021-07-11T07:14:34.000Z</time>
      </trkpt>
      <trkpt lat="49.332380" lon="8.623360">
        <ele>885.685664</ele>
        <time>2021-07-11T07:14:39.000Z</time>
      </trkpt>
      <trkpt lat="49.332092" lon="8.623237">
        <ele>885.795603</ele>
        <time>2021-07-11T07:14:44.000Z</time>
      </trkpt>
      <trkpt lat="49.331852" lon="8.623178">
        <ele>885.884990</ele>
        <time>2021-07-11T07:14:49.000Z</time>
      </trkpt>
      <trkpt lat="49.331622" lon="8.623152">
        <ele>885.969803</ele>
        <time>2021-07-11T07:14:54.000Z</time>
      </trkpt>
      <trkpt lat="49.331337" lon="8.623138">
        <ele>886.000000</ele>
        <time>2021-07-11T07:14:59.000Z</time>
      </trkpt>
      <trkpt lat="49.331067" lon="8.623085">
        <ele>886.000000</ele>
        <time>2021-07-11T07:15:04.000Z</time>
      </trkpt>
      <trkpt lat="49.330785" lon="8.623047">
        <ele>886.000000</ele>
        <time>2021-07-11T07:15:09.000Z</time>
      </trkpt>
      <trkpt lat="49.330487" lon="8.623030">
        <ele>886.000000</ele>
        <time>2021-07-11T07:15:14.000Z</time>
      </trkpt>
      <trkpt lat="49.330225" lon="8.622905">
        <ele>886.000000</ele>
        <time>2021-07-11T07:15:19.000Z</time>
      </trkpt>
      <trkpt lat="49.329920" lon="8.622885">
        <ele>886.000000</ele>
        <time>2021-07-11T07:15:24.000Z</time>
      </trkpt>
      <trkpt lat="49.329613" lon="8.622898">
        <ele>886.032439</ele>
        <time>2021-07-11T07:15:29.000Z</time>
      </trkpt>
      <trkpt lat="49.329315" lon="8.622833">
        <ele>886.099940</ele>
        <time>2021-07-11T07:15:34.000Z</time>
      </trkpt>
      <trkpt lat="49.329073" lon="8.622832">
        <ele>886.154211</ele>
        <time>2021-07-11T07:15:39.000Z</time>
      </trkpt>
      <trkpt lat="49.328750" lon="8.622788">
        <ele>886.226932</ele>
        <time>2021-07-11T07:15:44.000Z</time>
      </trkpt>
      <trkpt lat="49.328472" lon="8.622633">
        <ele>886.293264</ele>
        <time>2021-07-11T07:15:49.000Z</time>
      </trkpt>
      <trkpt lat="49.328103" lon="8.622557">
        <ele>886.376758</ele>
        <time>2021-07-11T07:15:54.000Z</time>
      </trkpt>
      <trkpt lat="49.327818" lon="8.622488">
        <ele>886.452609</ele>
        <time>2021-07-11T07:15:59.000Z</time>
      </trkpt>
      <trkpt lat="49.327550" lon="8.622425">
        <ele>886.531201</ele>
        <time>2021-07-11T07:16:04.000Z</time>
      </trkpt>
      <trkpt lat="49.327295" lon="8.622300">
        <ele>886.608799</ele>
        <time>2021-07-11T07:16:09.000Z</time>
      </trkpt>
      <trkpt lat="49.327142" lon="8.622022">
        <ele>886.677540</ele>
        <time>2021-07-11T07:16:14.000Z</time>
      </trkpt>
      <trkpt lat="49.326930" lon="8.621878">
        <ele>886.744745</ele>
        <time>2021-07-11T07:16:19.000Z</time>
      </trkpt>
      <trkpt lat="49.326690" lon="8.622012">
        <ele>886.818777</ele>
        <time>2021-07-11T07:16:24.000Z</time>
      </trkpt>
      <trkpt lat="49.326340" lon="8.622095">
        <ele>886.921437</ele>
        <time>2021-07-11T07:16:29.000Z</time>
      </trkpt>
      <trkpt lat="49.325955" lon="8.622150">
        <ele>886.314505</ele>
        <time>2021-07-11T07:16:34.000Z</time>
      </trkpt>
      <trkpt lat="49.325630" lon="8.622172">
        <ele>885.785515</ele>
        <time>2021-07-11T07:16:39.000Z</time>
      </trkpt>
      <trkpt lat="49.325347" lon="8.622073">
        <ele>885.313525</ele>
        <time>2021-07-11T07:16:44.000Z</time>
      </trkpt>
      <trkpt lat="49.325035" lon="8.621850">
        <ele>884.753840</ele>
        <time>2021-07-11T07:16:49.000Z</time>
      </trkpt>
      <trkpt lat="49.324800" lon="8.621582">
        <ele>884.277712</ele>
        <time>2021-07-11T07:16:54.000Z</time>
      </trkpt>
      <trkpt lat="49.324583" lon="8.621252">
        <ele>884.043355</ele>
        <time>2021-07-11T07:16:59.000Z</time>
      </trkpt>
      <trkpt lat="49.324407" lon="8.620890">
        <ele>884.138064</ele>
        <time>2021-07-11T07:17:04.000Z</time>
      </trkpt>
      <trkpt lat="49.324207" lon="8.620585">
        <ele>884.228795</ele>
        <time>2021-07-11T07:17:09.000Z</time>
      </trkpt>
      <trkpt lat="49.324067" lon="8.620228">
        <ele>884.316169</ele>
        <time>2021-07-11T07:17:14.000Z</time>
      </trkpt>
      <trkpt lat="49.323897" lon="8.619932">
        <ele>884.398904</ele>
        <time>2021-07-11T07:17:19.000Z</time>
      </trkpt>
      <trkpt lat="49.323740" lon="8.619573">
        <ele>884.489568</ele>
        <time>2021-07-11T07:17:24.000Z</time>
      </trkpt>
      <trkpt lat="49.323567" lon="8.619253">
        <ele>884.576757</ele>
        <time>2021-07-11T07:17:29.000Z</time>
      </trkpt>
      <trkpt lat="49.323348" lon="8.618928">
        <ele>884.648654</ele>
        <time>2021-07-11T07:17:34.000Z</time>
      </trkpt>
      <trkpt lat="49.323187" lon="8.618603">
        <ele>884.710974</ele>
        <time>2021-07-11T07:17:39.000Z</time>
      </trkpt>
      <trkpt lat="49.323007" lon="8.618273">
        <ele>884.776667</ele>
        <time>2021-07-11T07:17:44.000Z</time>
      </trkpt>
      <trkpt lat="49.322870" lon="8.617963">
        <ele>884.833846</ele>
        <time>2021-07-11T07:17:49.000Z</time>
      </trkpt>
      <trkpt lat="49.322655" lon="8.617648">
        <ele>884.903477</ele>
        <time>2021-07-11T07:17:54.000Z</time>
      </trkpt>
      <trkpt lat="49.322450" lon="8.617328">
        <ele>884.971976</ele>
        <time>2021-07-11T07:17:59.000Z</time>
      </trkpt>
      <trkpt lat="49.322272" lon="8.616973">
        <ele>885.000000</ele>
        <time>2021-07-11T07:18:04.000Z</time>
      </trkpt>
      <trkpt lat="49.322077" lon="8.616632">
        <ele>885.000000</ele>
        <time>2021-07-11T07:18:09.000Z</time>
      </trkpt>
      <trkpt lat="49.321912" lon="8.616253">
        <ele>885.000000</ele>
        <time>2021-07-11T07:18:14.000Z</time>
      </trkpt>
      <trkpt lat="49.321782" lon="8.615840">
        <ele>885.000000</ele>
        <time>2021-07-11T07:18:19.000Z</time>
      </trkpt>
      <trkpt lat="49.321658" lon="8.615423">
        <ele>885.000000</ele>
        <time>2021-07-11T07:18:24.000Z</time>
      </trkpt>
      <trkpt lat="49.321542" lon="8.615017">
        <ele>885.000000</ele>
        <time>2021-07-11T07:18:29.000Z</time>
      </trkpt>
      <trkpt lat="49.321455" lon="8.614625">
        <ele>885.035962</ele>
        <time>2021-07-11T07:18:34.000Z</time>
      </trkpt>
      <trkpt lat="49.321335" lon="8.614228">
        <ele>885.119391</ele>
        <time>2021-07-11T07:18:39.000Z</time>
      </trkpt>
      <trkpt lat="49.321220" lon="8.613778">
        <ele>885.211541</ele>
        <time>2021-07-11T07:18:44.000Z</time>
      </trkpt>
      <trkpt lat="49.321118" lon="8.613395">
        <ele>885.290419</ele>
        <time>2021-07-11T07:18:49.000Z</time>
      </trkpt>
      <trkpt lat="49.320953" lon="8.612968">
        <ele>885.385055</ele>
        <time>2021-07-11T07:18:54.000Z</time>
      </trkpt>
      <trkpt lat="49.320777" lon="8.612592">
        <ele>885.473308</ele>
        <time>2021-07-11T07:18:59.000Z</time>
      </trkpt>
      <trkpt lat="49.320630" lon="8.612250">
        <ele>885.485348</ele>
        <time>2021-07-11T07:19:04.000Z</time>
      </trkpt>
      <trkpt lat="49.320458" lon="8.611892">
        <ele>885.349014</ele>
        <time>2021-07-11T07:19:09.000Z</time>
      </trkpt>
      <trkpt lat="49.320257" lon="8.611535">
        <ele>885.204403</ele>
        <time>2021-07-11T07:19:14.000Z</time>
      </trkpt>
      <trkpt lat="49.320068" lon="8.611132">
        <ele>885.052210</ele>
        <time>2021-07-11T07:19:19.000Z</time>
      </trkpt>
      <trkpt lat="49.319857" lon="8.610735">
        <ele>884.895181</ele>
        <time>2021-07-11T07:19:24.000Z</time>
      </trkpt>
      <trkpt lat="49.319605" lon="8.610387">
        <ele>884.735725</ele>
        <time>2021-07-11T07:19:29.000Z</time>
      </trkpt>
      <trkpt lat="49.319353" lon="8.610043">
        <ele>884.597283</ele>
        <time>2021-07-11T07:19:34.000Z</time>
      </trkpt>
      <trkpt lat="49.319157" lon="8.609718">
        <ele>884.488139</ele>
        <time>2021-07-11T07:19:39.000Z</time>
      </trkpt>
      <trkpt lat="49.318927" lon="8.609433">
        <ele>884.376331</ele>
        <time>2021-07-11T07:19:44.000Z</time>
      </trkpt>
      <trkpt lat="49.318712" lon="8.609185">
        <ele>884.274605</ele>
        <time>2021-07-11T07:19:49.000Z</time>
      </trkpt>
      <trkpt lat="49.318445" lon="8.608848">
        <ele>884.143851</ele>
        <time>2021-07-11T07:19:54.000Z</time>
      </trkpt>
      <trkpt lat="49.318185" lon="8.608578">
        <ele>884.025118</ele>
        <time>2021-07-11T07:19:59.000Z</time>
      </trkpt>
      <trkpt lat="49.317975" lon="8.608292">
        <ele>884.000000</ele>
        <time>2021-07-11T07:20:04.000Z</time>
      </trkpt>
      <trkpt lat="49.317750" lon="8.607983">
        <ele>884.000000</ele>
        <time>2021-07-11T07:20:09.000Z</time>
      </trkpt>
      <trkpt lat="49.317538" lon="8.607690">
        <ele>884.000000</ele>
        <time>2021-07-11T07:20:14.000Z</time>
      </trkpt>
      <trkpt lat="49.317328" lon="8.607353">
        <ele>884.000000</ele>
        <time>2021-07-11T07:20:19.000Z</time>
      </trkpt>
      <trkpt lat="49.317122" lon="8.607052">
        <ele>884.000000</ele>
        <time>2021-07-11T07:20:24.000Z</time>
      </trkpt>
      <trkpt lat="49.316937" lon="8.606765">
        <ele>884.000000</ele>
        <time>2021-07-11T07:20:29.000Z</time>
      </trkpt>
      <trkpt lat="49.316745" lon="8.606460">
        <ele>884.000000</ele>
        <time>2021-07-11T07:20:34.000Z</time>
      </trkpt>
      <trkpt lat="49.316547" lon="8.606193">
        <ele>884.000000</ele>
        <time>2021-07-11T07:20:39.000Z</time>
      </trkpt>
      <trkpt lat="49.316332" lon="8.605920">
        <ele>884.000000</ele>
        <time>2021-07-11T07:20:44.000Z</time>
      </trkpt>
      <trkpt lat="49.316075" lon="8.605550">
        <ele>884.000000</ele>
        <time>2021-07-11T07:20:49.000Z</time>
      </trkpt>
      <trkpt lat="49.315900" lon="8.605240">
        <ele>884.000000</ele>
        <time>2021-07-11T07:20:54.000Z</time>
      </trkpt>
      <trkpt lat="49.315678" lon="8.604907">
        <ele>884.000000</ele>
        <time>2021-07-11T07:20:59.000Z</time>
      </trkpt>
      <trkpt lat="49.315395" lon="8.604630">
        <ele>884.000000</ele>
        <time>2021-07-11T07:21:04.000Z</time>
      </trkpt>
      <trkpt lat="49.315178" lon="8.604385">
        <ele>884.000000</ele>
        <time>2021-07-11T07:21:09.000Z</time>
      </trkpt>
      <trkpt lat="49.314865" lon="8.604297">
        <ele>884.000000</ele>
        <time>2021-07-11T07:21:14.000Z</time>
      </trkpt>
      <trkpt lat="49.314567" lon="8.604193">
        <ele>884.000000</ele>
        <time>2021-07-11T07:21:19.000Z</time>
      </trkpt>
      <trkpt lat="49.314292" lon="8.604110">
        <ele>884.000000</ele>
        <time>2021-07-11T07:21:24.000Z</time>
      </trkpt>
      <trkpt lat="49.314003" lon="8.604047">
        <ele>884.000000</ele>
        <time>2021-07-11T07:21:29.000Z</time>
      </trkpt>
      <trkpt lat="49.313705" lon="8.603985">
        <ele>884.000000</ele>
        <time>2021-07-11T07:21:34.000Z</time>
      </trkpt>
      <trkpt lat="49.313442" lon="8.603868">
        <ele>884.000000</ele>
        <time>2021-07-11T07:21:39.000Z</time>
      </trkpt>
      <trkpt lat="49.313137" lon="8.603787">
        <ele>884.000000</ele>
        <time>2021-07-11T07:21:44.000Z</time>
      </trkpt>
      <trkpt lat="49.312848" lon="8.603722">
        <ele>884.000000</ele>
        <time>2021-07-11T07:21:49.000Z</time>
      </trkpt>
      <trkpt lat="49.312580" lon="8.603668">
        <ele>884.000000</ele>
        <time>2021-07-11T07:21:54.000Z</time>
      </trkpt>
      <trkpt lat="49.312295" lon="8.603605">
        <ele>884.000000</ele>
        <time>2021-07-11T07:21:59.000Z</time>
      </trkpt>
      <trkpt lat="49.312030" lon="8.603493">
        <ele>884.000000</ele>
        <time>2021-07-11T07:22:04.000Z</time>
      </trkpt>
      <trkpt lat="49.311757" lon="8.603412">
        <ele>884.000000</ele>
        <time>2021-07-11T07:22:09.000Z</time>
      </trkpt>
      <trkpt lat="49.311490" lon="8.603337">
        <ele>884.000000</ele>
        <time>2021-07-11T07:22:14.000Z</time>
      </trkpt>
      <trkpt lat="49.311227" lon="8.603262">
        <ele>884.000000</ele>
        <time>2021-07-11T07:22:19.000Z</time>
      </trkpt>
      <trkpt lat="49.310980" lon="8.603160">
        <ele>884.000000</ele>
        <time>2021-07-11T07:22:24.000Z</time>
      </trkpt>
      <trkpt lat="49.310740" lon="8.603032">
        <ele>884.000000</ele>
        <time>2021-07-11T07:22:29.000Z</time>
      </trkpt>
      <trkpt lat="49.310468" lon="8.602935">
        <ele>884.000000</ele>
        <time>2021-07-11T07:22:34.000Z</time>
      </trkpt>
      <trkpt lat="49.310210" lon="8.602850">
        <ele>884.000000</ele>
        <time>2021-07-11T07:22:39.000Z</time>
      </trkpt>
      <trkpt lat="49.309962" lon="8.602777">
        <ele>884.000000</ele>
        <time>2021-07-11T07:22:44.000Z</time>
      </trkpt>
      <trkpt lat="49.309743" lon="8.602632">
        <ele>884.000000</ele>
        <time>2021-07-11T07:22:49.000Z</time>
      </trkpt>
      <trkpt lat="49.309530" lon="8.602462">
        <ele>884.000000</ele>
        <time>2021-07-11T07:22:54.000Z</time>
      </trkpt>
      <trkpt lat="49.309348" lon="8.602263">
        <ele>884.000000</ele>
        <time>2021-07-11T07:22:59.000Z</time>
      </trkpt>
      <trkpt lat="49.309142" lon="8.601985">
        <ele>884.000000</ele>
        <time>2021-07-11T07:23:04.000Z</time>
      </trkpt>
      <trkpt lat="49.308988" lon="8.601692">
        <ele>884.000000</ele>
        <time>2021-07-11T07:23:09.000Z</time>
      </trkpt>
      <trkpt lat="49.308850" lon="8.601458">
        <ele>884.000000</ele>
        <time>2021-07-11T07:23:14.000Z</time>
      </trkpt>
      <trkpt lat="49.308698" lon="8.601227">
        <ele>884.081131</ele>
        <time>2021-07-11T07:23:19.000Z</time>
      </trkpt>
      <trkpt lat="49.308470" lon="8.600953">
        <ele>884.207876</ele>
        <time>2021-07-11T07:23:24.000Z</time>
      </trkpt>
      <trkpt lat="49.308255" lon="8.600673">
        <ele>884.331294</ele>
        <time>2021-07-11T07:23:29.000Z</time>
      </trkpt>
      <trkpt lat="49.308100" lon="8.600472">
        <ele>884.420112</ele>
        <time>2021-07-11T07:23:34.000Z</time>
      </trkpt>
      <trkpt lat="49.307930" lon="8.600235">
        <ele>884.520638</ele>
        <time>2021-07-11T07:23:39.000Z</time>
      </trkpt>
      <trkpt lat="49.307802" lon="8.600030">
        <ele>884.601618</ele>
        <time>2021-07-11T07:23:44.000Z</time>
      </trkpt>
      <trkpt lat="49.307628" lon="8.599765">
        <ele>884.708916</ele>
        <time>2021-07-11T07:23:49.000Z</time>
      </trkpt>
      <trkpt lat="49.307478" lon="8.599535">
        <ele>884.791018</ele>
        <time>2021-07-11T07:23:54.000Z</time>
      </trkpt>
      <trkpt lat="49.307323" lon="8.599283">
        <ele>884.817762</ele>
        <time>2021-07-11T07:23:59.000Z</time>
      </trkpt>
      <trkpt lat="49.307040" lon="8.598995">
        <ele>884.857973</ele>
        <time>2021-07-11T07:24:04.000Z</time>
      </trkpt>
      <trkpt lat="49.306852" lon="8.598733">
        <ele>884.888048</ele>
        <time>2021-07-11T07:24:09.000Z</time>
      </trkpt>
      <trkpt lat="49.306680" lon="8.598465">
        <ele>884.917078</ele>
        <time>2021-07-11T07:24:14.000Z</time>
      </trkpt>
      <trkpt lat="49.306518" lon="8.598200">
        <ele>884.945120</ele>
        <time>2021-07-11T07:24:19.000Z</time>
      </trkpt>
      <trkpt lat="49.306333" lon="8.597918">
        <ele>884.976002</ele>
        <time>2021-07-11T07:24:24.000Z</time>
      </trkpt>
      <trkpt lat="49.306142" lon="8.597712">
        <ele>885.000000</ele>
        <time>2021-07-11T07:24:29.000Z</time>
      </trkpt>
      <trkpt lat="49.305950" lon="8.597423">
        <ele>885.000000</ele>
        <time>2021-07-11T07:24:34.000Z</time>
      </trkpt>
      <trkpt lat="49.305770" lon="8.597103">
        <ele>885.000000</ele>
        <time>2021-07-11T07:24:39.000Z</time>
      </trkpt>
      <trkpt lat="49.305605" lon="8.596830">
        <ele>885.000000</ele>
        <time>2021-07-11T07:24:44.000Z</time>
      </trkpt>
      <trkpt lat="49.305460" lon="8.596567">
        <ele>885.000000</ele>
        <time>2021-07-11T07:24:49.000Z</time>
      </trkpt>
      <trkpt lat="49.305277" lon="8.596310">
        <ele>885.000000</ele>
        <time>2021-07-11T07:24:54.000Z</time>
      </trkpt>
      <trkpt lat="49.305078" lon="8.595975">
        <ele>885.000000</ele>
        <time>2021-07-11T07:24:59.000Z</time>
      </trkpt>
      <trkpt lat="49.304863" lon="8.595703">
        <ele>885.000000</ele>
        <time>2021-07-11T07:25:04.000Z</time>
      </trkpt>
      <trkpt lat="49.304618" lon="8.595490">
        <ele>885.000000</ele>
        <time>2021-07-11T07:25:09.000Z</time>
      </trkpt>
      <trkpt lat="49.304412" lon="8.595163">
        <ele>885.000000</ele>
        <time>2021-07-11T07:25:14.000Z</time>
      </trkpt>
      <trkpt lat="49.304235" lon="8.594897">
        <ele>885.000000</ele>
        <time>2021-07-11T07:25:19.000Z</time>
      </trkpt>
      <trkpt lat="49.304043" lon="8.594575">
        <ele>885.000000</ele>
        <time>2021-07-11T07:25:24.000Z</time>
      </trkpt>
      <trkpt lat="49.303903" lon="8.594328">
        <ele>885.000000</ele>
        <time>2021-07-11T07:25:29.000Z</time>
      </trkpt>
      <trkpt lat="49.303735" lon="8.594015">
        <ele>885.000000</ele>
        <time>2021-07-11T07:25:34.000Z</time>
      </trkpt>
      <trkpt lat="49.303583" lon="8.593775">
        <ele>885.048499</ele>
        <time>2021-07-11T07:25:39.000Z</time>
      </trkpt>
      <trkpt lat="49.303327" lon="8.593503">
        <ele>885.252513</ele>
        <time>2021-07-11T07:25:44.000Z</time>
      </trkpt>
      <trkpt lat="49.303092" lon="8.593270">
        <ele>885.435826</ele>
        <time>2021-07-11T07:25:49.000Z</time>
      </trkpt>
      <trkpt lat="49.302835" lon="8.593077">
        <ele>885.623282</ele>
        <time>2021-07-11T07:25:54.000Z</time>
      </trkpt>
      <trkpt lat="49.302588" lon="8.592958">
        <ele>885.792882</ele>
        <time>2021-07-11T07:25:59.000Z</time>
      </trkpt>
      <trkpt lat="49.302308" lon="8.592915">
        <ele>885.977221</ele>
        <time>2021-07-11T07:26:04.000Z</time>
      </trkpt>
      <trkpt lat="49.302065" lon="8.592852">
        <ele>886.138664</ele>
        <time>2021-07-11T07:26:09.000Z</time>
      </trkpt>
      <trkpt lat="49.301813" lon="8.592752">
        <ele>886.608486</ele>
        <time>2021-07-11T07:26:14.000Z</time>
      </trkpt>
      <trkpt lat="49.301573" lon="8.592580">
        <ele>887.178734</ele>
        <time>2021-07-11T07:26:19.000Z</time>
      </trkpt>
      <trkpt lat="49.301365" lon="8.592410">
        <ele>887.686087</ele>
        <time>2021-07-11T07:26:24.000Z</time>
      </trkpt>
      <trkpt lat="49.301198" lon="8.592187">
        <ele>888.162747</ele>
        <time>2021-07-11T07:26:29.000Z</time>
      </trkpt>
      <trkpt lat="49.301047" lon="8.592023">
        <ele>888.561047</ele>
        <time>2021-07-11T07:26:34.000Z</time>
      </trkpt>
      <trkpt lat="49.300893" lon="8.591818">
        <ele>889.000013</ele>
        <time>2021-07-11T07:26:39.000Z</time>
      </trkpt>
      <trkpt lat="49.300732" lon="8.591605">
        <ele>889.457722</ele>
        <time>2021-07-11T07:26:44.000Z</time>
      </trkpt>
      <trkpt lat="49.300577" lon="8.591388">
        <ele>889.909498</ele>
        <time>2021-07-11T07:26:49.000Z</time>
      </trkpt>
      <trkpt lat="49.300388" lon="8.591105">
        <ele>889.640735</ele>
        <time>2021-07-11T07:26:54.000Z</time>
      </trkpt>
      <trkpt lat="49.300178" lon="8.590827">
        <ele>889.069928</ele>
        <time>2021-07-11T07:26:59.000Z</time>
      </trkpt>
      <trkpt lat="49.299940" lon="8.590555">
        <ele>888.459203</ele>
        <time>2021-07-11T07:27:04.000Z</time>
      </trkpt>
      <trkpt lat="49.299678" lon="8.590357">
        <ele>887.858223</ele>
        <time>2021-07-11T07:27:09.000Z</time>
      </trkpt>
      <trkpt lat="49.299515" lon="8.590217">
        <ele>887.473824</ele>
        <time>2021-07-11T07:27:14.000Z</time>
      </trkpt>
      <trkpt lat="49.299483" lon="8.590220">
        <ele>887.407860</ele>
        <time>2021-07-11T07:27:19.000Z</time>
      </trkpt>
      <trkpt lat="49.299537" lon="8.590175">
        <ele>887.281407</ele>
        <time>2021-07-11T07:27:23.000Z</time>
      </trkpt>
      <trkpt lat="49.299195" lon="8.589977">
        <ele>886.529252</ele>
        <time>2021-07-11T07:27:24.000Z</time>
      </trkpt>
      <trkpt lat="49.299072" lon="8.589947">
        <ele>886.346004</ele>
        <time>2021-07-11T07:27:29.000Z</time>
      </trkpt>
      <trkpt lat="49.298940" lon="8.589835">
        <ele>886.332992</ele>
        <time>2021-07-11T07:27:34.000Z</time>
      </trkpt>
      <trkpt lat="49.298765" lon="8.589703">
        <ele>886.316172</ele>
        <time>2021-07-11T07:27:39.000Z</time>
      </trkpt>
      <trkpt lat="49.298537" lon="8.589457">
        <ele>886.292127</ele>
        <time>2021-07-11T07:27:44.000Z</time>
      </trkpt>
      <trkpt lat="49.298308" lon="8.589208">
        <ele>886.267915</ele>
        <time>2021-07-11T07:27:49.000Z</time>
      </trkpt>
      <trkpt lat="49.298098" lon="8.588965">
        <ele>886.245224</ele>
        <time>2021-07-11T07:27:54.000Z</time>
      </trkpt>
      <trkpt lat="49.297895" lon="8.588713">
        <ele>886.222698</ele>
        <time>2021-07-11T07:27:59.000Z</time>
      </trkpt>
      <trkpt lat="49.297747" lon="8.588462">
        <ele>886.203665</ele>
        <time>2021-07-11T07:28:04.000Z</time>
      </trkpt>
      <trkpt lat="49.297603" lon="8.588222">
        <ele>886.432712</ele>
        <time>2021-07-11T07:28:09.000Z</time>
      </trkpt>
      <trkpt lat="49.297458" lon="8.587988">
        <ele>886.928151</ele>
        <time>2021-07-11T07:28:14.000Z</time>
      </trkpt>
      <trkpt lat="49.297318" lon="8.587752">
        <ele>887.417827</ele>
        <time>2021-07-11T07:28:19.000Z</time>
      </trkpt>
      <trkpt lat="49.297188" lon="8.587510">
        <ele>887.899057</ele>
        <time>2021-07-11T07:28:24.000Z</time>
      </trkpt>
      <trkpt lat="49.297053" lon="8.587258">
        <ele>888.399618</ele>
        <time>2021-07-11T07:28:29.000Z</time>
      </trkpt>
      <trkpt lat="49.296955" lon="8.587042">
        <ele>888.803493</ele>
        <time>2021-07-11T07:28:34.000Z</time>
      </trkpt>
      <trkpt lat="49.296810" lon="8.586858">
        <ele>889.246468</ele>
        <time>2021-07-11T07:28:39.000Z</time>
      </trkpt>
      <trkpt lat="49.296645" lon="8.586620">
        <ele>889.779626</ele>
        <time>2021-07-11T07:28:44.000Z</time>
      </trkpt>
      <trkpt lat="49.296535" lon="8.586363">
        <ele>890.251463</ele>
        <time>2021-07-11T07:28:49.000Z</time>
      </trkpt>
      <trkpt lat="49.296395" lon="8.586052">
        <ele>889.956497</ele>
        <time>2021-07-11T07:28:54.000Z</time>
      </trkpt>
      <trkpt lat="49.296217" lon="8.585763">
        <ele>889.245605</ele>
        <time>2021-07-11T07:28:59.000Z</time>
      </trkpt>
      <trkpt lat="49.296027" lon="8.585417">
        <ele>888.436695</ele>
        <time>2021-07-11T07:29:04.000Z</time>
      </trkpt>
      <trkpt lat="49.295818" lon="8.585008">
        <ele>887.507467</ele>
        <time>2021-07-11T07:29:09.000Z</time>
      </trkpt>
      <trkpt lat="49.295597" lon="8.584528">
        <ele>886.456686</ele>
        <time>2021-07-11T07:29:14.000Z</time>
      </trkpt>
      <trkpt lat="49.295380" lon="8.584043">
        <ele>885.435871</ele>
        <time>2021-07-11T07:29:19.000Z</time>
      </trkpt>
      <trkpt lat="49.295185" lon="8.583602">
        <ele>884.810741</ele>
        <time>2021-07-11T07:29:24.000Z</time>
      </trkpt>
      <trkpt lat="49.295022" lon="8.583180">
        <ele>884.235294</ele>
        <time>2021-07-11T07:29:29.000Z</time>
      </trkpt>
      <trkpt lat="49.294887" lon="8.582790">
        <ele>883.717254</ele>
        <time>2021-07-11T07:29:34.000Z</time>
      </trkpt>
      <trkpt lat="49.294720" lon="8.582483">
        <ele>883.248204</ele>
        <time>2021-07-11T07:29:39.000Z</time>
      </trkpt>
      <trkpt lat="49.294588" lon="8.582188">
        <ele>882.828451</ele>
        <time>2021-07-11T07:29:44.000Z</time>
      </trkpt>
      <trkpt lat="49.294515" lon="8.582103">
        <ele>882.663545</ele>
        <time>2021-07-11T07:29:49.000Z</time>
      </trkpt>
      <trkpt lat="49.294495" lon="8.582087">
        <ele>882.622961</ele>
        <time>2021-07-11T07:29:51.000Z</time>
      </trkpt>
      <trkpt lat="49.294343" lon="8.581963">
        <ele>882.313211</ele>
        <time>2021-07-11T07:29:54.000Z</time>
      </trkpt>
      <trkpt lat="49.294178" lon="8.581848">
        <ele>882.237432</ele>
        <time>2021-07-11T07:29:59.000Z</time>
      </trkpt>
      <trkpt lat="49.294103" lon="8.581790">
        <ele>882.225326</ele>
        <time>2021-07-11T07:30:04.000Z</time>
      </trkpt>
      <trkpt lat="49.293958" lon="8.581710">
        <ele>882.203116</ele>
        <time>2021-07-11T07:30:09.000Z</time>
      </trkpt>
      <trkpt lat="49.293770" lon="8.581597">
        <ele>882.174013</ele>
        <time>2021-07-11T07:30:14.000Z</time>
      </trkpt>
      <trkpt lat="49.293565" lon="8.581452">
        <ele>882.141475</ele>
        <time>2021-07-11T07:30:19.000Z</time>
      </trkpt>
      <trkpt lat="49.293337" lon="8.581328">
        <ele>882.106609</ele>
        <time>2021-07-11T07:30:24.000Z</time>
      </trkpt>
      <trkpt lat="49.293110" lon="8.581192">
        <ele>882.071484</ele>
        <time>2021-07-11T07:30:29.000Z</time>
      </trkpt>
      <trkpt lat="49.292843" lon="8.581020">
        <ele>882.029744</ele>
        <time>2021-07-11T07:30:34.000Z</time>
      </trkpt>
      <trkpt lat="49.292610" lon="8.580877">
        <ele>882.000000</ele>
        <time>2021-07-11T07:30:39.000Z</time>
      </trkpt>
      <trkpt lat="49.292382" lon="8.580723">
        <ele>882.000000</ele>
        <time>2021-07-11T07:30:44.000Z</time>
      </trkpt>
      <trkpt lat="49.292125" lon="8.580617">
        <ele>882.000000</ele>
        <time>2021-07-11T07:30:49.000Z</time>
      </trkpt>
      <trkpt lat="49.291900" lon="8.580475">
        <ele>882.000000</ele>
        <time>2021-07-11T07:30:54.000Z</time>
      </trkpt>
      <trkpt lat="49.291667" lon="8.580307">
        <ele>882.000000</ele>
        <time>2021-07-11T07:30:59.000Z</time>
      </trkpt>
      <trkpt lat="49.291400" lon="8.580212">
        <ele>882.000000</ele>
        <time>2021-07-11T07:31:04.000Z</time>
      </trkpt>
      <trkpt lat="49.291155" lon="8.580057">
        <ele>882.000000</ele>
        <time>2021-07-11T07:31:09.000Z</time>
      </trkpt>
      <trkpt lat="49.290935" lon="8.579890">
        <ele>882.000000</ele>
        <time>2021-07-11T07:31:14.000Z</time>
      </trkpt>
      <trkpt lat="49.290815" lon="8.579695">
        <ele>882.000000</ele>
        <time>2021-07-11T07:31:19.000Z</time>
      </trkpt>
      <trkpt lat="49.290835" lon="8.579420">
        <ele>882.000000</ele>
        <time>2021-07-11T07:31:24.000Z</time>
      </trkpt>
      <trkpt lat="49.290675" lon="8.579178">
        <ele>882.000000</ele>
        <time>2021-07-11T07:31:29.000Z</time>
      </trkpt>
      <trkpt lat="49.290478" lon="8.578955">
        <ele>882.000000</ele>
        <time>2021-07-11T07:31:34.000Z</time>
      </trkpt>
      <trkpt lat="49.290245" lon="8.578737">
        <ele>882.000000</ele>
        <time>2021-07-11T07:31:39.000Z</time>
      </trkpt>
      <trkpt lat="49.289993" lon="8.578577">
        <ele>882.000000</ele>
        <time>2021-07-11T07:31:44.000Z</time>
      </trkpt>
      <trkpt lat="49.289755" lon="8.578557">
        <ele>882.000000</ele>
        <time>2021-07-11T07:31:49.000Z</time>
      </trkpt>
      <trkpt lat="49.289497" lon="8.578610">
        <ele>882.000000</ele>
        <time>2021-07-11T07:31:54.000Z</time>
      </trkpt>
      <trkpt lat="49.289273" lon="8.578818">
        <ele>882.000000</ele>
        <time>2021-07-11T07:31:59.000Z</time>
      </trkpt>
      <trkpt lat="49.289142" lon="8.579143">
        <ele>882.000000</ele>
        <time>2021-07-11T07:32:04.000Z</time>
      </trkpt>
      <trkpt lat="49.288962" lon="8.579445">
        <ele>882.000000</ele>
        <time>2021-07-11T07:32:09.000Z</time>
      </trkpt>
      <trkpt lat="49.288723" lon="8.579655">
        <ele>882.000000</ele>
        <time>2021-07-11T07:32:14.000Z</time>
      </trkpt>
      <trkpt lat="49.288468" lon="8.579843">
        <ele>882.000000</ele>
        <time>2021-07-11T07:32:19.000Z</time>
      </trkpt>
      <trkpt lat="49.288217" lon="8.580052">
        <ele>882.000000</ele>
        <time>2021-07-11T07:32:24.000Z</time>
      </trkpt>
      <trkpt lat="49.287998" lon="8.580158">
        <ele>882.000000</ele>
        <time>2021-07-11T07:32:29.000Z</time>
      </trkpt>
      <trkpt lat="49.287753" lon="8.580143">
        <ele>882.000000</ele>
        <time>2021-07-11T07:32:34.000Z</time>
      </trkpt>
      <trkpt lat="49.287497" lon="8.580145">
        <ele>882.000000</ele>
        <time>2021-07-11T07:32:39.000Z</time>
      </trkpt>
      <trkpt lat="49.287233" lon="8.580143">
        <ele>882.000000</ele>
        <time>2021-07-11T07:32:44.000Z</time>
      </trkpt>
      <trkpt lat="49.286920" lon="8.580220">
        <ele>882.000000</ele>
        <time>2021-07-11T07:32:49.000Z</time>
      </trkpt>
      <trkpt lat="49.286663" lon="8.580178">
        <ele>882.000000</ele>
        <time>2021-07-11T07:32:54.000Z</time>
      </trkpt>
      <trkpt lat="49.286412" lon="8.580227">
        <ele>882.000000</ele>
        <time>2021-07-11T07:32:59.000Z</time>
      </trkpt>
      <trkpt lat="49.286120" lon="8.580277">
        <ele>882.323219</ele>
        <time>2021-07-11T07:33:04.000Z</time>
      </trkpt>
      <trkpt lat="49.285872" lon="8.580278">
        <ele>882.632528</ele>
        <time>2021-07-11T07:33:09.000Z</time>
      </trkpt>
      <trkpt lat="49.285660" lon="8.580335">
        <ele>882.900972</ele>
        <time>2021-07-11T07:33:14.000Z</time>
      </trkpt>
      <trkpt lat="49.285447" lon="8.580370">
        <ele>883.168149</ele>
        <time>2021-07-11T07:33:19.000Z</time>
      </trkpt>
      <trkpt lat="49.285240" lon="8.580448">
        <ele>883.434006</ele>
        <time>2021-07-11T07:33:24.000Z</time>
      </trkpt>
      <trkpt lat="49.285232" lon="8.580707">
        <ele>883.644951</ele>
        <time>2021-07-11T07:33:29.000Z</time>
      </trkpt>
      <trkpt lat="49.285202" lon="8.581048">
        <ele>883.924882</ele>
        <time>2021-07-11T07:33:34.000Z</time>
      </trkpt>
      <trkpt lat="49.285160" lon="8.581375">
        <ele>884.196021</ele>
        <time>2021-07-11T07:33:39.000Z</time>
      </trkpt>
      <trkpt lat="49.285112" lon="8.581645">
        <ele>884.145074</ele>
        <time>2021-07-11T07:33:44.000Z</time>
      </trkpt>
      <trkpt lat="49.284912" lon="8.581987">
        <ele>883.941646</ele>
        <time>2021-07-11T07:33:49.000Z</time>
      </trkpt>
      <trkpt lat="49.284715" lon="8.582317">
        <ele>883.743524</ele>
        <time>2021-07-11T07:33:54.000Z</time>
      </trkpt>
      <trkpt lat="49.284455" lon="8.582612">
        <ele>883.523900</ele>
        <time>2021-07-11T07:33:59.000Z</time>
      </trkpt>
      <trkpt lat="49.284123" lon="8.582915">
        <ele>883.261559</ele>
        <time>2021-07-11T07:34:04.000Z</time>
      </trkpt>
      <trkpt lat="49.283853" lon="8.583215">
        <ele>883.035149</ele>
        <time>2021-07-11T07:34:09.000Z</time>
      </trkpt>
      <trkpt lat="49.283630" lon="8.583482">
        <ele>883.113310</ele>
        <time>2021-07-11T07:34:14.000Z</time>
      </trkpt>
      <trkpt lat="49.283398" lon="8.583682">
        <ele>883.205428</ele>
        <time>2021-07-11T07:34:19.000Z</time>
      </trkpt>
      <trkpt lat="49.283170" lon="8.583963">
        <ele>883.306677</ele>
        <time>2021-07-11T07:34:24.000Z</time>
      </trkpt>
      <trkpt lat="49.282965" lon="8.584172">
        <ele>883.391883</ele>
        <time>2021-07-11T07:34:29.000Z</time>
      </trkpt>
      <trkpt lat="49.282787" lon="8.584273">
        <ele>883.457572</ele>
        <time>2021-07-11T07:34:34.000Z</time>
      </trkpt>
      <trkpt lat="49.282687" lon="8.584053">
        <ele>883.518110</ele>
        <time>2021-07-11T07:34:39.000Z</time>
      </trkpt>
      <trkpt lat="49.282562" lon="8.583793">
        <ele>883.591029</ele>
        <time>2021-07-11T07:34:44.000Z</time>
      </trkpt>
      <trkpt lat="49.282423" lon="8.583515">
        <ele>883.659145</ele>
        <time>2021-07-11T07:34:49.000Z</time>
      </trkpt>
      <trkpt lat="49.282282" lon="8.583240">
        <ele>883.704236</ele>
        <time>2021-07-11T07:34:54.000Z</time>
      </trkpt>
      <trkpt lat="49.282135" lon="8.583035">
        <ele>883.743508</ele>
        <time>2021-07-11T07:34:59.000Z</time>
      </trkpt>
      <trkpt lat="49.281865" lon="8.583217">
        <ele>883.801796</ele>
        <time>2021-07-11T07:35:04.000Z</time>
      </trkpt>
      <trkpt lat="49.281715" lon="8.583607">
        <ele>883.860161</ele>
        <time>2021-07-11T07:35:09.000Z</time>
      </trkpt>
      <trkpt lat="49.281543" lon="8.583955">
        <ele>883.916446</ele>
        <time>2021-07-11T07:35:14.000Z</time>
      </trkpt>
      <trkpt lat="49.281393" lon="8.584312">
        <ele>883.971189</ele>
        <time>2021-07-11T07:35:19.000Z</time>
      </trkpt>
      <trkpt lat="49.281228" lon="8.584657">
        <ele>884.000000</ele>
        <time>2021-07-11T07:35:24.000Z</time>
      </trkpt>
      <trkpt lat="49.281040" lon="8.585042">
        <ele>884.000000</ele>
        <time>2021-07-11T07:35:29.000Z</time>
      </trkpt>
      <trkpt lat="49.280847" lon="8.585420">
        <ele>884.000000</ele>
        <time>2021-07-11T07:35:34.000Z</time>
      </trkpt>
      <trkpt lat="49.280665" lon="8.585788">
        <ele>884.000000</ele>
        <time>2021-07-11T07:35:39.000Z</time>
      </trkpt>
      <trkpt lat="49.280475" lon="8.586157">
        <ele>884.000000</ele>
        <time>2021-07-11T07:35:44.000Z</time>
      </trkpt>
      <trkpt lat="49.280297" lon="8.586500">
        <ele>884.000000</ele>
        <time>2021-07-11T07:35:49.000Z</time>
      </trkpt>
      <trkpt lat="49.280120" lon="8.586840">
        <ele>884.000000</ele>
        <time>2021-07-11T07:35:54.000Z</time>
      </trkpt>
      <trkpt lat="49.279947" lon="8.587170">
        <ele>884.000000</ele>
        <time>2021-07-11T07:35:59.000Z</time>
      </trkpt>
      <trkpt lat="49.279768" lon="8.587492">
        <ele>884.000000</ele>
        <time>2021-07-11T07:36:04.000Z</time>
      </trkpt>
      <trkpt lat="49.279568" lon="8.587817">
        <ele>884.000000</ele>
        <time>2021-07-11T07:36:09.000Z</time>
      </trkpt>
      <trkpt lat="49.279362" lon="8.588150">
        <ele>884.000000</ele>
        <time>2021-07-11T07:36:14.000Z</time>
      </trkpt>
      <trkpt lat="49.279153" lon="8.588480">
        <ele>884.000000</ele>
        <time>2021-07-11T07:36:19.000Z</time>
      </trkpt>
      <trkpt lat="49.278937" lon="8.588828">
        <ele>884.039896</ele>
        <time>2021-07-11T07:36:24.000Z</time>
      </trkpt>
      <trkpt lat="49.278715" lon="8.589165">
        <ele>884.168553</ele>
        <time>2021-07-11T07:36:29.000Z</time>
      </trkpt>
      <trkpt lat="49.278528" lon="8.589515">
        <ele>884.290084</ele>
        <time>2021-07-11T07:36:34.000Z</time>
      </trkpt>
      <trkpt lat="49.278357" lon="8.589800">
        <ele>884.394103</ele>
        <time>2021-07-11T07:36:39.000Z</time>
      </trkpt>
      <trkpt lat="49.278162" lon="8.590085">
        <ele>884.505052</ele>
        <time>2021-07-11T07:36:44.000Z</time>
      </trkpt>
      <trkpt lat="49.277967" lon="8.590390">
        <ele>884.619774</ele>
        <time>2021-07-11T07:36:49.000Z</time>
      </trkpt>
      <trkpt lat="49.277775" lon="8.590695">
        <ele>884.733635</ele>
        <time>2021-07-11T07:36:54.000Z</time>
      </trkpt>
      <trkpt lat="49.277580" lon="8.591005">
        <ele>884.849703</ele>
        <time>2021-07-11T07:36:59.000Z</time>
      </trkpt>
      <trkpt lat="49.277380" lon="8.591320">
        <ele>884.968201</ele>
        <time>2021-07-11T07:37:04.000Z</time>
      </trkpt>
      <trkpt lat="49.277177" lon="8.591643">
        <ele>885.089112</ele>
        <time>2021-07-11T07:37:09.000Z</time>
      </trkpt>
      <trkpt lat="49.276985" lon="8.591947">
        <ele>885.203181</ele>
        <time>2021-07-11T07:37:14.000Z</time>
      </trkpt>
      <trkpt lat="49.276813" lon="8.592278">
        <ele>885.317263</ele>
        <time>2021-07-11T07:37:19.000Z</time>
      </trkpt>
      <trkpt lat="49.276617" lon="8.592613">
        <ele>885.438575</ele>
        <time>2021-07-11T07:37:24.000Z</time>
      </trkpt>
      <trkpt lat="49.276418" lon="8.592910">
        <ele>885.618722</ele>
        <time>2021-07-11T07:37:29.000Z</time>
      </trkpt>
      <trkpt lat="49.276255" lon="8.593185">
        <ele>885.813177</ele>
        <time>2021-07-11T07:37:34.000Z</time>
      </trkpt>
      <trkpt lat="49.276110" lon="8.593512">
        <ele>886.020107</ele>
        <time>2021-07-11T07:37:39.000Z</time>
      </trkpt>
      <trkpt lat="49.276203" lon="8.593817">
        <ele>886.196308</ele>
        <time>2021-07-11T07:37:44.000Z</time>
      </trkpt>
      <trkpt lat="49.276347" lon="8.594175">
        <ele>886.416423</ele>
        <time>2021-07-11T07:37:49.000Z</time>
      </trkpt>
      <trkpt lat="49.276478" lon="8.594565">
        <ele>886.646000</ele>
        <time>2021-07-11T07:37:54.000Z</time>
      </trkpt>
      <trkpt lat="49.276602" lon="8.594967">
        <ele>886.878724</ele>
        <time>2021-07-11T07:37:59.000Z</time>
      </trkpt>
      <trkpt lat="49.276725" lon="8.595383">
        <ele>886.689136</ele>
        <time>2021-07-11T07:38:04.000Z</time>
      </trkpt>
      <trkpt lat="49.276862" lon="8.595813">
        <ele>886.377475</ele>
        <time>2021-07-11T07:38:09.000Z</time>
      </trkpt>
      <trkpt lat="49.276992" lon="8.596240">
        <ele>886.070590</ele>
        <time>2021-07-11T07:38:14.000Z</time>
      </trkpt>
      <trkpt lat="49.277145" lon="8.596660">
        <ele>885.757300</ele>
        <time>2021-07-11T07:38:19.000Z</time>
      </trkpt>
      <trkpt lat="49.277210" lon="8.597043">
        <ele>885.499561</ele>
        <time>2021-07-11T07:38:24.000Z</time>
      </trkpt>
      <trkpt lat="49.277055" lon="8.597282">
        <ele>885.280083</ele>
        <time>2021-07-11T07:38:29.000Z</time>
      </trkpt>
      <trkpt lat="49.276800" lon="8.597517">
        <ele>885.184444</ele>
        <time>2021-07-11T07:38:34.000Z</time>
      </trkpt>
      <trkpt lat="49.276507" lon="8.597785">
        <ele>885.306715</ele>
        <time>2021-07-11T07:38:39.000Z</time>
      </trkpt>
      <trkpt lat="49.276220" lon="8.598072">
        <ele>885.429514</ele>
        <time>2021-07-11T07:38:44.000Z</time>
      </trkpt>
      <trkpt lat="49.275958" lon="8.598305">
        <ele>885.538061</ele>
        <time>2021-07-11T07:38:49.000Z</time>
      </trkpt>
      <trkpt lat="49.275665" lon="8.598553">
        <ele>885.658003</ele>
        <time>2021-07-11T07:38:54.000Z</time>
      </trkpt>
      <trkpt lat="49.275393" lon="8.598765">
        <ele>885.767353</ele>
        <time>2021-07-11T07:38:59.000Z</time>
      </trkpt>
      <trkpt lat="49.275137" lon="8.598980">
        <ele>885.809245</ele>
        <time>2021-07-11T07:39:04.000Z</time>
      </trkpt>
      <trkpt lat="49.274902" lon="8.599165">
        <ele>885.842177</ele>
        <time>2021-07-11T07:39:09.000Z</time>
      </trkpt>
      <trkpt lat="49.274700" lon="8.599258">
        <ele>885.868468</ele>
        <time>2021-07-11T07:39:14.000Z</time>
      </trkpt>
      <trkpt lat="49.274488" lon="8.599370">
        <ele>885.896420</ele>
        <time>2021-07-11T07:39:19.000Z</time>
      </trkpt>
      <trkpt lat="49.274223" lon="8.599497">
        <ele>885.931030</ele>
        <time>2021-07-11T07:39:24.000Z</time>
      </trkpt>
      <trkpt lat="49.273942" lon="8.599615">
        <ele>885.967349</ele>
        <time>2021-07-11T07:39:29.000Z</time>
      </trkpt>
      <trkpt lat="49.273642" lon="8.599713">
        <ele>886.000000</ele>
        <time>2021-07-11T07:39:34.000Z</time>
      </trkpt>
      <trkpt lat="49.273338" lon="8.599800">
        <ele>886.000000</ele>
        <time>2021-07-11T07:39:39.000Z</time>
      </trkpt>
      <trkpt lat="49.273047" lon="8.599883">
        <ele>886.000000</ele>
        <time>2021-07-11T07:39:44.000Z</time>
      </trkpt>
      <trkpt lat="49.272758" lon="8.600007">
        <ele>886.000000</ele>
        <time>2021-07-11T07:39:49.000Z</time>
      </trkpt>
      <trkpt lat="49.272480" lon="8.600112">
        <ele>886.000000</ele>
        <time>2021-07-11T07:39:54.000Z</time>
      </trkpt>
      <trkpt lat="49.272200" lon="8.600245">
        <ele>886.000000</ele>
        <time>2021-07-11T07:39:59.000Z</time>
      </trkpt>
      <trkpt lat="49.271918" lon="8.600320">
        <ele>886.000000</ele>
        <time>2021-07-11T07:40:04.000Z</time>
      </trkpt>
      <trkpt lat="49.271637" lon="8.600353">
        <ele>886.000000</ele>
        <time>2021-07-11T07:40:09.000Z</time>
      </trkpt>
      <trkpt lat="49.271368" lon="8.600405">
        <ele>886.000000</ele>
        <time>2021-07-11T07:40:14.000Z</time>
      </trkpt>
      <trkpt lat="49.271055" lon="8.600448">
        <ele>886.000000</ele>
        <time>2021-07-11T07:40:19.000Z</time>
      </trkpt>
      <trkpt lat="49.270742" lon="8.600467">
        <ele>886.000000</ele>
        <time>2021-07-11T07:40:24.000Z</time>
      </trkpt>
      <trkpt lat="49.270455" lon="8.600447">
        <ele>886.000000</ele>
        <time>2021-07-11T07:40:29.000Z</time>
      </trkpt>
      <trkpt lat="49.270138" lon="8.600473">
        <ele>886.000000</ele>
        <time>2021-07-11T07:40:34.000Z</time>
      </trkpt>
      <trkpt lat="49.269917" lon="8.600490">
        <ele>886.000000</ele>
        <time>2021-07-11T07:40:39.000Z</time>
      </trkpt>
      <trkpt lat="49.269663" lon="8.600513">
        <ele>886.000000</ele>
        <time>2021-07-11T07:40:44.000Z</time>
      </trkpt>
      <trkpt lat="49.269373" lon="8.600563">
        <ele>886.000000</ele>
        <time>2021-07-11T07:40:49.000Z</time>
      </trkpt>
      <trkpt lat="49.269005" lon="8.600717">
        <ele>886.000000</ele>
        <time>2021-07-11T07:40:54.000Z</time>
      </trkpt>
      <trkpt lat="49.268675" lon="8.600783">
        <ele>886.000000</ele>
        <time>2021-07-11T07:40:59.000Z</time>
      </trkpt>
      <trkpt lat="49.268368" lon="8.600913">
        <ele>886.000000</ele>
        <time>2021-07-11T07:41:04.000Z</time>
      </trkpt>
      <trkpt lat="49.268087" lon="8.601007">
        <ele>886.000000</ele>
        <time>2021-07-11T07:41:09.000Z</time>
      </trkpt>
      <trkpt lat="49.267812" lon="8.601107">
        <ele>886.000000</ele>
        <time>2021-07-11T07:41:14.000Z</time>
      </trkpt>
      <trkpt lat="49.267555" lon="8.601230">
        <ele>886.000000</ele>
        <time>2021-07-11T07:41:19.000Z</time>
      </trkpt>
      <trkpt lat="49.267270" lon="8.601375">
        <ele>886.000000</ele>
        <time>2021-07-11T07:41:24.000Z</time>
      </trkpt>
      <trkpt lat="49.267000" lon="8.601565">
        <ele>886.000000</ele>
        <time>2021-07-11T07:41:29.000Z</time>
      </trkpt>
      <trkpt lat="49.266770" lon="8.601812">
        <ele>886.000000</ele>
        <time>2021-07-11T07:41:34.000Z</time>
      </trkpt>
      <trkpt lat="49.266617" lon="8.602122">
        <ele>885.946614</ele>
        <time>2021-07-11T07:41:39.000Z</time>
      </trkpt>
      <trkpt lat="49.266447" lon="8.602462">
        <ele>885.862861</ele>
        <time>2021-07-11T07:41:44.000Z</time>
      </trkpt>
      <trkpt lat="49.266282" lon="8.602695">
        <ele>885.795630</ele>
        <time>2021-07-11T07:41:49.000Z</time>
      </trkpt>
      <trkpt lat="49.265988" lon="8.602887">
        <ele>885.699869</ele>
        <time>2021-07-11T07:41:54.000Z</time>
      </trkpt>
      <trkpt lat="49.265710" lon="8.603085">
        <ele>885.608010</ele>
        <time>2021-07-11T07:41:59.000Z</time>
      </trkpt>
      <trkpt lat="49.265437" lon="8.603263">
        <ele>885.519111</ele>
        <time>2021-07-11T07:42:04.000Z</time>
      </trkpt>
      <trkpt lat="49.265147" lon="8.603495">
        <ele>885.450187</ele>
        <time>2021-07-11T07:42:09.000Z</time>
      </trkpt>
      <trkpt lat="49.265010" lon="8.603670">
        <ele>885.435663</ele>
        <time>2021-07-11T07:42:14.000Z</time>
      </trkpt>
      <trkpt lat="49.264937" lon="8.603630">
        <ele>885.429350</ele>
        <time>2021-07-11T07:42:19.000Z</time>
      </trkpt>
      <trkpt lat="49.264905" lon="8.603360">
        <ele>885.414768</ele>
        <time>2021-07-11T07:42:24.000Z</time>
      </trkpt>
      <trkpt lat="49.264700" lon="8.603262">
        <ele>885.397281</ele>
        <time>2021-07-11T07:42:29.000Z</time>
      </trkpt>
      <trkpt lat="49.264492" lon="8.603430">
        <ele>885.378134</ele>
        <time>2021-07-11T07:42:34.000Z</time>
      </trkpt>
      <trkpt lat="49.264298" lon="8.603622">
        <ele>885.359328</ele>
        <time>2021-07-11T07:42:39.000Z</time>
      </trkpt>
      <trkpt lat="49.264060" lon="8.603822">
        <ele>885.337224</ele>
        <time>2021-07-11T07:42:44.000Z</time>
      </trkpt>
      <trkpt lat="49.263840" lon="8.604033">
        <ele>885.316090</ele>
        <time>2021-07-11T07:42:49.000Z</time>
      </trkpt>
      <trkpt lat="49.263625" lon="8.604180">
        <ele>885.397230</ele>
        <time>2021-07-11T07:42:54.000Z</time>
      </trkpt>
      <trkpt lat="49.263413" lon="8.604372">
        <ele>885.491073</ele>
        <time>2021-07-11T07:42:59.000Z</time>
      </trkpt>
      <trkpt lat="49.263245" lon="8.604480">
        <ele>885.560500</ele>
        <time>2021-07-11T07:43:04.000Z</time>
      </trkpt>
      <trkpt lat="49.263052" lon="8.604630">
        <ele>885.642966</ele>
        <time>2021-07-11T07:43:09.000Z</time>
      </trkpt>
      <trkpt lat="49.262760" lon="8.604765">
        <ele>885.759195</ele>
        <time>2021-07-11T07:43:14.000Z</time>
      </trkpt>
      <trkpt lat="49.262455" lon="8.604863">
        <ele>885.877951</ele>
        <time>2021-07-11T07:43:19.000Z</time>
      </trkpt>
      <trkpt lat="49.262125" lon="8.604970">
        <ele>886.000000</ele>
        <time>2021-07-11T07:43:24.000Z</time>
      </trkpt>
      <trkpt lat="49.261877" lon="8.604993">
        <ele>886.000000</ele>
        <time>2021-07-11T07:43:29.000Z</time>
      </trkpt>
      <trkpt lat="49.261615" lon="8.605075">
        <ele>886.000000</ele>
        <time>2021-07-11T07:43:34.000Z</time>
      </trkpt>
      <trkpt lat="49.261333" lon="8.605178">
        <ele>886.000000</ele>
        <time>2021-07-11T07:43:39.000Z</time>
      </trkpt>
      <trkpt lat="49.261078" lon="8.605240">
        <ele>886.000000</ele>
        <time>2021-07-11T07:43:44.000Z</time>
      </trkpt>
      <trkpt lat="49.260893" lon="8.605352">
        <ele>886.000000</ele>
        <time>2021-07-11T07:43:49.000Z</time>
      </trkpt>
      <trkpt lat="49.260333" lon="8.605860">
        <ele>886.000000</ele>
        <time>2021-07-11T07:43:54.000Z</time>
      </trkpt>
      <trkpt lat="49.260095" lon="8.605837">
        <ele>886.000000</ele>
        <time>2021-07-11T07:43:59.000Z</time>
      </trkpt>
      <trkpt lat="49.259850" lon="8.605965">
        <ele>886.000000</ele>
        <time>2021-07-11T07:44:04.000Z</time>
      </trkpt>
      <trkpt lat="49.259597" lon="8.606115">
        <ele>886.000000</ele>
        <time>2021-07-11T07:44:09.000Z</time>
      </trkpt>
      <trkpt lat="49.259353" lon="8.606280">
        <ele>886.000000</ele>
        <time>2021-07-11T07:44:14.000Z</time>
      </trkpt>
      <trkpt lat="49.259095" lon="8.606448">
        <ele>886.000000</ele>
        <time>2021-07-11T07:44:19.000Z</time>
      </trkpt>
      <trkpt lat="49.258830" lon="8.606595">
        <ele>886.000000</ele>
        <time>2021-07-11T07:44:24.000Z</time>
      </trkpt>
      <trkpt lat="49.258563" lon="8.606715">
        <ele>886.000000</ele>
        <time>2021-07-11T07:44:29.000Z</time>
      </trkpt>
      <trkpt lat="49.258300" lon="8.606815">
        <ele>886.000000</ele>
        <time>2021-07-11T07:44:34.000Z</time>
      </trkpt>
      <trkpt lat="49.258037" lon="8.606902">
        <ele>886.000000</ele>
        <time>2021-07-11T07:44:39.000Z</time>
      </trkpt>
      <trkpt lat="49.257770" lon="8.606975">
        <ele>886.000000</ele>
        <time>2021-07-11T07:44:44.000Z</time>
      </trkpt>
      <trkpt lat="49.257483" lon="8.607042">
        <ele>886.000000</ele>
        <time>2021-07-11T07:44:49.000Z</time>
      </trkpt>
      <trkpt lat="49.257212" lon="8.607137">
        <ele>886.000000</ele>
        <time>2021-07-11T07:44:54.000Z</time>
      </trkpt>
      <trkpt lat="49.256920" lon="8.607198">
        <ele>886.000000</ele>
        <time>2021-07-11T07:44:59.000Z</time>
      </trkpt>
      <trkpt lat="49.256665" lon="8.607243">
        <ele>886.000000</ele>
        <time>2021-07-11T07:45:04.000Z</time>
      </trkpt>
      <trkpt lat="49.256457" lon="8.607398">
        <ele>886.000000</ele>
        <time>2021-07-11T07:45:09.000Z</time>
      </trkpt>
      <trkpt lat="49.256247" lon="8.607668">
        <ele>886.000000</ele>
        <time>2021-07-11T07:45:14.000Z</time>
      </trkpt>
      <trkpt lat="49.256028" lon="8.607935">
        <ele>886.000000</ele>
        <time>2021-07-11T07:45:19.000Z</time>
      </trkpt>
      <trkpt lat="49.255812" lon="8.608228">
        <ele>886.000000</ele>
        <time>2021-07-11T07:45:24.000Z</time>
      </trkpt>
      <trkpt lat="49.255575" lon="8.608595">
        <ele>886.000000</ele>
        <time>2021-07-11T07:45:29.000Z</time>
      </trkpt>
      <trkpt lat="49.255377" lon="8.608898">
        <ele>886.000000</ele>
        <time>2021-07-11T07:45:34.000Z</time>
      </trkpt>
      <trkpt lat="49.255168" lon="8.609142">
        <ele>886.000000</ele>
        <time>2021-07-11T07:45:39.000Z</time>
      </trkpt>
      <trkpt lat="49.254927" lon="8.609392">
        <ele>886.000000</ele>
        <time>2021-07-11T07:45:44.000Z</time>
      </trkpt>
      <trkpt lat="49.254710" lon="8.609700">
        <ele>886.000000</ele>
        <time>2021-07-11T07:45:49.000Z</time>
      </trkpt>
      <trkpt lat="49.254470" lon="8.609973">
        <ele>886.000000</ele>
        <time>2021-07-11T07:45:54.000Z</time>
      </trkpt>
      <trkpt lat="49.254245" lon="8.610257">
        <ele>886.000000</ele>
        <time>2021-07-11T07:45:59.000Z</time>
      </trkpt>
      <trkpt lat="49.254010" lon="8.610530">
        <ele>886.000000</ele>
        <time>2021-07-11T07:46:04.000Z</time>
      </trkpt>
      <trkpt lat="49.253785" lon="8.610820">
        <ele>886.000000</ele>
        <time>2021-07-11T07:46:09.000Z</time>
      </trkpt>
      <trkpt lat="49.253552" lon="8.611097">
        <ele>886.000000</ele>
        <time>2021-07-11T07:46:14.000Z</time>
      </trkpt>
      <trkpt lat="49.253315" lon="8.611388">
        <ele>886.000000</ele>
        <time>2021-07-11T07:46:19.000Z</time>
      </trkpt>
      <trkpt lat="49.253072" lon="8.611680">
        <ele>886.000000</ele>
        <time>2021-07-11T07:46:24.000Z</time>
      </trkpt>
      <trkpt lat="49.252835" lon="8.611970">
        <ele>886.000000</ele>
        <time>2021-07-11T07:46:29.000Z</time>
      </trkpt>
      <trkpt lat="49.252603" lon="8.612253">
        <ele>886.000000</ele>
        <time>2021-07-11T07:46:34.000Z</time>
      </trkpt>
      <trkpt lat="49.252382" lon="8.612502">
        <ele>886.000000</ele>
        <time>2021-07-11T07:46:39.000Z</time>
      </trkpt>
      <trkpt lat="49.252140" lon="8.612770">
        <ele>886.000000</ele>
        <time>2021-07-11T07:46:44.000Z</time>
      </trkpt>
      <trkpt lat="49.251917" lon="8.613063">
        <ele>886.000000</ele>
        <time>2021-07-11T07:46:49.000Z</time>
      </trkpt>
      <trkpt lat="49.251685" lon="8.613350">
        <ele>886.000000</ele>
        <time>2021-07-11T07:46:54.000Z</time>
      </trkpt>
      <trkpt lat="49.251497" lon="8.613605">
        <ele>886.000000</ele>
        <time>2021-07-11T07:46:59.000Z</time>
      </trkpt>
      <trkpt lat="49.251275" lon="8.613855">
        <ele>886.000000</ele>
        <time>2021-07-11T07:47:04.000Z</time>
      </trkpt>
      <trkpt lat="49.251063" lon="8.614125">
        <ele>886.000000</ele>
        <time>2021-07-11T07:47:09.000Z</time>
      </trkpt>
      <trkpt lat="49.250845" lon="8.614357">
        <ele>886.000000</ele>
        <time>2021-07-11T07:47:14.000Z</time>
      </trkpt>
      <trkpt lat="49.250632" lon="8.614637">
        <ele>886.000000</ele>
        <time>2021-07-11T07:47:19.000Z</time>
      </trkpt>
      <trkpt lat="49.250438" lon="8.614868">
        <ele>886.000000</ele>
        <time>2021-07-11T07:47:24.000Z</time>
      </trkpt>
      <trkpt lat="49.250265" lon="8.614917">
        <ele>886.000000</ele>
        <time>2021-07-11T07:47:29.000Z</time>
      </trkpt>
      <trkpt lat="49.250115" lon="8.614758">
        <ele>886.000000</ele>
        <time>2021-07-11T07:47:34.000Z</time>
      </trkpt>
      <trkpt lat="49.249928" lon="8.614447">
        <ele>886.000000</ele>
        <time>2021-07-11T07:47:39.000Z</time>
      </trkpt>
      <trkpt lat="49.249755" lon="8.614167">
        <ele>886.000000</ele>
        <time>2021-07-11T07:47:44.000Z</time>
      </trkpt>
      <trkpt lat="49.249523" lon="8.613828">
        <ele>886.000000</ele>
        <time>2021-07-11T07:47:49.000Z</time>
      </trkpt>
      <trkpt lat="49.249302" lon="8.613553">
        <ele>886.000000</ele>
        <time>2021-07-11T07:47:54.000Z</time>
      </trkpt>
      <trkpt lat="49.249087" lon="8.613325">
        <ele>886.000000</ele>
        <time>2021-07-11T07:47:59.000Z</time>
      </trkpt>
      <trkpt lat="49.248887" lon="8.613075">
        <ele>886.000000</ele>
        <time>2021-07-11T07:48:04.000Z</time>
      </trkpt>
      <trkpt lat="49.248682" lon="8.612820">
        <ele>886.000000</ele>
        <time>2021-07-11T07:48:09.000Z</time>
      </trkpt>
      <trkpt lat="49.248482" lon="8.612550">
        <ele>886.000000</ele>
        <time>2021-07-11T07:48:14.000Z</time>
      </trkpt>
      <trkpt lat="49.248285" lon="8.612278">
        <ele>886.000000</ele>
        <time>2021-07-11T07:48:19.000Z</time>
      </trkpt>
      <trkpt lat="49.248087" lon="8.612007">
        <ele>886.000000</ele>
        <time>2021-07-11T07:48:24.000Z</time>
      </trkpt>
      <trkpt lat="49.247892" lon="8.611723">
        <ele>886.000000</ele>
        <time>2021-07-11T07:48:29.000Z</time>
      </trkpt>
      <trkpt lat="49.247677" lon="8.611583">
        <ele>886.000000</ele>
        <time>2021-07-11T07:48:34.000Z</time>
      </trkpt>
      <trkpt lat="49.247415" lon="8.611702">
        <ele>886.000000</ele>
        <time>2021-07-11T07:48:39.000Z</time>
      </trkpt>
      <trkpt lat="49.247145" lon="8.611592">
        <ele>886.000000</ele>
        <time>2021-07-11T07:48:44.000Z</time>
      </trkpt>
      <trkpt lat="49.246900" lon="8.611473">
        <ele>886.000000</ele>
        <time>2021-07-11T07:48:49.000Z</time>
      </trkpt>
      <trkpt lat="49.246642" lon="8.611332">
        <ele>886.000000</ele>
        <time>2021-07-11T07:48:54.000Z</time>
      </trkpt>
      <trkpt lat="49.246385" lon="8.611170">
        <ele>886.000000</ele>
        <time>2021-07-11T07:48:59.000Z</time>
      </trkpt>
      <trkpt lat="49.246132" lon="8.610988">
        <ele>886.000000</ele>
        <time>2021-07-11T07:49:04.000Z</time>
      </trkpt>
      <trkpt lat="49.245882" lon="8.610827">
        <ele>886.000000</ele>
        <time>2021-07-11T07:49:09.000Z</time>
      </trkpt>
      <trkpt lat="49.245633" lon="8.610655">
        <ele>886.000000</ele>
        <time>2021-07-11T07:49:14.000Z</time>
      </trkpt>
      <trkpt lat="49.245388" lon="8.610518">
        <ele>886.000000</ele>
        <time>2021-07-11T07:49:19.000Z</time>
      </trkpt>
      <trkpt lat="49.245148" lon="8.610367">
        <ele>886.000000</ele>
        <time>2021-07-11T07:49:24.000Z</time>
      </trkpt>
      <trkpt lat="49.244893" lon="8.610240">
        <ele>886.000000</ele>
        <time>2021-07-11T07:49:29.000Z</time>
      </trkpt>
      <trkpt lat="49.244653" lon="8.610028">
        <ele>886.000000</ele>
        <time>2021-07-11T07:49:34.000Z</time>
      </trkpt>
      <trkpt lat="49.244415" lon="8.609917">
        <ele>886.000000</ele>
        <time>2021-07-11T07:49:39.000Z</time>
      </trkpt>
      <trkpt lat="49.244175" lon="8.609817">
        <ele>886.000000</ele>
        <time>2021-07-11T07:49:44.000Z</time>
      </trkpt>
      <trkpt lat="49.243972" lon="8.609782">
        <ele>886.000000</ele>
        <time>2021-07-11T07:49:49.000Z</time>
      </trkpt>
      <trkpt lat="49.243737" lon="8.609892">
        <ele>886.000000</ele>
        <time>2021-07-11T07:49:54.000Z</time>
      </trkpt>
      <trkpt lat="49.243572" lon="8.610215">
        <ele>886.000000</ele>
        <time>2021-07-11T07:49:59.000Z</time>
      </trkpt>
      <trkpt lat="49.243423" lon="8.610680">
        <ele>886.000000</ele>
        <time>2021-07-11T07:50:04.000Z</time>
      </trkpt>
      <trkpt lat="49.243273" lon="8.611043">
        <ele>886.000000</ele>
        <time>2021-07-11T07:50:09.000Z</time>
      </trkpt>
      <trkpt lat="49.243158" lon="8.611428">
        <ele>886.000000</ele>
        <time>2021-07-11T07:50:14.000Z</time>
      </trkpt>
      <trkpt lat="49.243010" lon="8.611865">
        <ele>886.000000</ele>
        <time>2021-07-11T07:50:19.000Z</time>
      </trkpt>
      <trkpt lat="49.242907" lon="8.612255">
        <ele>886.000000</ele>
        <time>2021-07-11T07:50:24.000Z</time>
      </trkpt>
      <trkpt lat="49.242813" lon="8.612520">
        <ele>886.000000</ele>
        <time>2021-07-11T07:50:29.000Z</time>
      </trkpt>
      <trkpt lat="49.242633" lon="8.612543">
        <ele>886.000000</ele>
        <time>2021-07-11T07:50:34.000Z</time>
      </trkpt>
      <trkpt lat="49.242525" lon="8.612368">
        <ele>886.000000</ele>
        <time>2021-07-11T07:50:39.000Z</time>
      </trkpt>
      <trkpt lat="49.242403" lon="8.612155">
        <ele>886.000000</ele>
        <time>2021-07-11T07:50:44.000Z</time>
      </trkpt>
      <trkpt lat="49.242168" lon="8.612035">
        <ele>886.000000</ele>
        <time>2021-07-11T07:50:49.000Z</time>
      </trkpt>
      <trkpt lat="49.241915" lon="8.611878">
        <ele>886.000000</ele>
        <time>2021-07-11T07:50:54.000Z</time>
      </trkpt>
      <trkpt lat="49.241678" lon="8.611705">
        <ele>886.000000</ele>
        <time>2021-07-11T07:50:59.000Z</time>
      </trkpt>
      <trkpt lat="49.241420" lon="8.611565">
        <ele>886.000000</ele>
        <time>2021-07-11T07:51:04.000Z</time>
      </trkpt>
      <trkpt lat="49.241205" lon="8.611402">
        <ele>886.000000</ele>
        <time>2021-07-11T07:51:09.000Z</time>
      </trkpt>
      <trkpt lat="49.240982" lon="8.611262">
        <ele>886.000000</ele>
        <time>2021-07-11T07:51:14.000Z</time>
      </trkpt>
      <trkpt lat="49.240715" lon="8.611117">
        <ele>886.000000</ele>
        <time>2021-07-11T07:51:19.000Z</time>
      </trkpt>
      <trkpt lat="49.240472" lon="8.610960">
        <ele>886.000000</ele>
        <time>2021-07-11T07:51:24.000Z</time>
      </trkpt>
      <trkpt lat="49.240270" lon="8.610778">
        <ele>886.000000</ele>
        <time>2021-07-11T07:51:29.000Z</time>
      </trkpt>
      <trkpt lat="49.240032" lon="8.610610">
        <ele>886.000000</ele>
        <time>2021-07-11T07:51:34.000Z</time>
      </trkpt>
      <trkpt lat="49.239787" lon="8.610457">
        <ele>886.000000</ele>
        <time>2021-07-11T07:51:39.000Z</time>
      </trkpt>
      <trkpt lat="49.239542" lon="8.610322">
        <ele>886.010774</ele>
        <time>2021-07-11T07:51:44.000Z</time>
      </trkpt>
      <trkpt lat="49.239390" lon="8.610185">
        <ele>886.029430</ele>
        <time>2021-07-11T07:51:49.000Z</time>
      </trkpt>
      <trkpt lat="49.239178" lon="8.610070">
        <ele>886.053220</ele>
        <time>2021-07-11T07:51:54.000Z</time>
      </trkpt>
      <trkpt lat="49.238990" lon="8.609930">
        <ele>886.075332</ele>
        <time>2021-07-11T07:51:59.000Z</time>
      </trkpt>
      <trkpt lat="49.238773" lon="8.609773">
        <ele>886.100718</ele>
        <time>2021-07-11T07:52:04.000Z</time>
      </trkpt>
      <trkpt lat="49.238643" lon="8.609645">
        <ele>886.117066</ele>
        <time>2021-07-11T07:52:09.000Z</time>
      </trkpt>
      <trkpt lat="49.238413" lon="8.609538">
        <ele>886.142493</ele>
        <time>2021-07-11T07:52:14.000Z</time>
      </trkpt>
      <trkpt lat="49.238127" lon="8.609575">
        <ele>886.172853</ele>
        <time>2021-07-11T07:52:19.000Z</time>
      </trkpt>
      <trkpt lat="49.237882" lon="8.609683">
        <ele>886.230957</ele>
        <time>2021-07-11T07:52:24.000Z</time>
      </trkpt>
      <trkpt lat="49.237693" lon="8.609805">
        <ele>886.323293</ele>
        <time>2021-07-11T07:52:29.000Z</time>
      </trkpt>
      <trkpt lat="49.237513" lon="8.609830">
        <ele>886.404661</ele>
        <time>2021-07-11T07:52:34.000Z</time>
      </trkpt>
      <trkpt lat="49.237355" lon="8.609777">
        <ele>886.477478</ele>
        <time>2021-07-11T07:52:39.000Z</time>
      </trkpt>
      <trkpt lat="49.237155" lon="8.609717">
        <ele>886.569228</ele>
        <time>2021-07-11T07:52:44.000Z</time>
      </trkpt>
      <trkpt lat="49.236895" lon="8.609645">
        <ele>886.688177</ele>
        <time>2021-07-11T07:52:49.000Z</time>
      </trkpt>
      <trkpt lat="49.236637" lon="8.609565">
        <ele>886.806684</ele>
        <time>2021-07-11T07:52:54.000Z</time>
      </trkpt>
      <trkpt lat="49.236355" lon="8.609490">
        <ele>886.935539</ele>
        <time>2021-07-11T07:52:59.000Z</time>
      </trkpt>
      <trkpt lat="49.236080" lon="8.609397">
        <ele>886.884797</ele>
        <time>2021-07-11T07:53:04.000Z</time>
      </trkpt>
      <trkpt lat="49.235818" lon="8.609287">
        <ele>886.658731</ele>
        <time>2021-07-11T07:53:09.000Z</time>
      </trkpt>
      <trkpt lat="49.235540" lon="8.609190">
        <ele>886.421466</ele>
        <time>2021-07-11T07:53:14.000Z</time>
      </trkpt>
      <trkpt lat="49.235307" lon="8.609063">
        <ele>886.215662</ele>
        <time>2021-07-11T07:53:19.000Z</time>
      </trkpt>
      <trkpt lat="49.235080" lon="8.609005">
        <ele>886.024153</ele>
        <time>2021-07-11T07:53:24.000Z</time>
      </trkpt>
      <trkpt lat="49.234942" lon="8.609140">
        <ele>885.887888</ele>
        <time>2021-07-11T07:53:29.000Z</time>
      </trkpt>
      <trkpt lat="49.234860" lon="8.609462">
        <ele>885.700091</ele>
        <time>2021-07-11T07:53:34.000Z</time>
      </trkpt>
      <trkpt lat="49.234762" lon="8.609842">
        <ele>885.494800</ele>
        <time>2021-07-11T07:53:39.000Z</time>
      </trkpt>
      <trkpt lat="49.234677" lon="8.610250">
        <ele>885.416556</ele>
        <time>2021-07-11T07:53:44.000Z</time>
      </trkpt>
      <trkpt lat="49.234615" lon="8.610675">
        <ele>885.336995</ele>
        <time>2021-07-11T07:53:49.000Z</time>
      </trkpt>
      <trkpt lat="49.234585" lon="8.611125">
        <ele>885.254352</ele>
        <time>2021-07-11T07:53:54.000Z</time>
      </trkpt>
      <trkpt lat="49.234540" lon="8.611550">
        <ele>885.175690</ele>
        <time>2021-07-11T07:53:59.000Z</time>
      </trkpt>
      <trkpt lat="49.234513" lon="8.611958">
        <ele>885.100767</ele>
        <time>2021-07-11T07:54:04.000Z</time>
      </trkpt>
      <trkpt lat="49.234530" lon="8.612438">
        <ele>885.012942</ele>
        <time>2021-07-11T07:54:09.000Z</time>
      </trkpt>
      <trkpt lat="49.234570" lon="8.612910">
        <ele>884.984017</ele>
        <time>2021-07-11T07:54:14.000Z</time>
      </trkpt>
      <trkpt lat="49.234688" lon="8.613363">
        <ele>884.964776</ele>
        <time>2021-07-11T07:54:19.000Z</time>
      </trkpt>
      <trkpt lat="49.234863" lon="8.613762">
        <ele>884.945814</ele>
        <time>2021-07-11T07:54:24.000Z</time>
      </trkpt>
      <trkpt lat="49.235053" lon="8.614097">
        <ele>884.928309</ele>
        <time>2021-07-11T07:54:29.000Z</time>
      </trkpt>
      <trkpt lat="49.235280" lon="8.614423">
        <ele>884.909507</ele>
        <time>2021-07-11T07:54:34.000Z</time>
      </trkpt>
      <trkpt lat="49.235483" lon="8.614762">
        <ele>884.891361</ele>
        <time>2021-07-11T07:54:39.000Z</time>
      </trkpt>
      <trkpt lat="49.235680" lon="8.615072">
        <ele>884.918892</ele>
        <time>2021-07-11T07:54:44.000Z</time>
      </trkpt>
      <trkpt lat="49.235640" lon="8.615397">
        <ele>884.940004</ele>
        <time>2021-07-11T07:54:49.000Z</time>
      </trkpt>
      <trkpt lat="49.235523" lon="8.615665">
        <ele>884.960585</ele>
        <time>2021-07-11T07:54:54.000Z</time>
      </trkpt>
      <trkpt lat="49.235385" lon="8.615857">
        <ele>884.978813</ele>
        <time>2021-07-11T07:54:59.000Z</time>
      </trkpt>
      <trkpt lat="49.235253" lon="8.616027">
        <ele>884.995675</ele>
        <time>2021-07-11T07:55:04.000Z</time>
      </trkpt>
      <trkpt lat="49.235068" lon="8.616313">
        <ele>885.021375</ele>
        <time>2021-07-11T07:55:09.000Z</time>
      </trkpt>
      <trkpt lat="49.234843" lon="8.616525">
        <ele>885.047203</ele>
        <time>2021-07-11T07:55:14.000Z</time>
      </trkpt>
      <trkpt lat="49.234670" lon="8.616782">
        <ele>885.086210</ele>
        <time>2021-07-11T07:55:19.000Z</time>
      </trkpt>
      <trkpt lat="49.234493" lon="8.617063">
        <ele>885.218428</ele>
        <time>2021-07-11T07:55:24.000Z</time>
      </trkpt>
      <trkpt lat="49.234335" lon="8.617453">
        <ele>885.373855</ele>
        <time>2021-07-11T07:55:29.000Z</time>
      </trkpt>
      <trkpt lat="49.234198" lon="8.617790">
        <ele>885.508289</ele>
        <time>2021-07-11T07:55:34.000Z</time>
      </trkpt>
      <trkpt lat="49.234080" lon="8.618175">
        <ele>885.652316</ele>
        <time>2021-07-11T07:55:39.000Z</time>
      </trkpt>
      <trkpt lat="49.233938" lon="8.618498">
        <ele>885.784180</ele>
        <time>2021-07-11T07:55:44.000Z</time>
      </trkpt>
      <trkpt lat="49.233798" lon="8.618815">
        <ele>885.913780</ele>
        <time>2021-07-11T07:55:49.000Z</time>
      </trkpt>
      <trkpt lat="49.233657" lon="8.619167">
        <ele>886.000000</ele>
        <time>2021-07-11T07:55:54.000Z</time>
      </trkpt>
      <trkpt lat="49.233468" lon="8.619563">
        <ele>886.000000</ele>
        <time>2021-07-11T07:55:59.000Z</time>
      </trkpt>
      <trkpt lat="49.233290" lon="8.619880">
        <ele>886.000000</ele>
        <time>2021-07-11T07:56:04.000Z</time>
      </trkpt>
      <trkpt lat="49.233118" lon="8.620183">
        <ele>886.000000</ele>
        <time>2021-07-11T07:56:09.000Z</time>
      </trkpt>
      <trkpt lat="49.232970" lon="8.620452">
        <ele>886.000000</ele>
        <time>2021-07-11T07:56:14.000Z</time>
      </trkpt>
      <trkpt lat="49.232840" lon="8.620538">
        <ele>886.000000</ele>
        <time>2021-07-11T07:56:19.000Z</time>
      </trkpt>
      <trkpt lat="49.232748" lon="8.620787">
        <ele>886.000000</ele>
        <time>2021-07-11T07:56:24.000Z</time>
      </trkpt>
      <trkpt lat="49.232588" lon="8.621117">
        <ele>886.000000</ele>
        <time>2021-07-11T07:56:29.000Z</time>
      </trkpt>
      <trkpt lat="49.232378" lon="8.621412">
        <ele>886.000000</ele>
        <time>2021-07-11T07:56:34.000Z</time>
      </trkpt>
      <trkpt lat="49.232202" lon="8.621712">
        <ele>886.000000</ele>
        <time>2021-07-11T07:56:39.000Z</time>
      </trkpt>
      <trkpt lat="49.232007" lon="8.622010">
        <ele>886.000000</ele>
        <time>2021-07-11T07:56:44.000Z</time>
      </trkpt>
      <trkpt lat="49.231832" lon="8.622315">
        <ele>886.000000</ele>
        <time>2021-07-11T07:56:49.000Z</time>
      </trkpt>
      <trkpt lat="49.231650" lon="8.622578">
        <ele>886.000000</ele>
        <time>2021-07-11T07:56:54.000Z</time>
      </trkpt>
      <trkpt lat="49.231465" lon="8.622817">
        <ele>886.000000</ele>
        <time>2021-07-11T07:56:59.000Z</time>
      </trkpt>
      <trkpt lat="49.231237" lon="8.623115">
        <ele>886.000000</ele>
        <time>2021-07-11T07:57:04.000Z</time>
      </trkpt>
      <trkpt lat="49.230985" lon="8.623380">
        <ele>886.000000</ele>
        <time>2021-07-11T07:57:09.000Z</time>
      </trkpt>
      <trkpt lat="49.230707" lon="8.623578">
        <ele>886.000000</ele>
        <time>2021-07-11T07:57:14.000Z</time>
      </trkpt>
      <trkpt lat="49.230493" lon="8.623742">
        <ele>886.000000</ele>
        <time>2021-07-11T07:57:19.000Z</time>
      </trkpt>
      <trkpt lat="49.230252" lon="8.623918">
        <ele>886.000000</ele>
        <time>2021-07-11T07:57:24.000Z</time>
      </trkpt>
      <trkpt lat="49.230008" lon="8.624007">
        <ele>886.000000</ele>
        <time>2021-07-11T07:57:29.000Z</time>
      </trkpt>
      <trkpt lat="49.229767" lon="8.624190">
        <ele>886.000000</ele>
        <time>2021-07-11T07:57:34.000Z</time>
      </trkpt>
      <trkpt lat="49.229517" lon="8.624365">
        <ele>886.000000</ele>
        <time>2021-07-11T07:57:39.000Z</time>
      </trkpt>
      <trkpt lat="49.229310" lon="8.624543">
        <ele>886.000000</ele>
        <time>2021-07-11T07:57:44.000Z</time>
      </trkpt>
      <trkpt lat="49.229065" lon="8.624712">
        <ele>886.000000</ele>
        <time>2021-07-11T07:57:49.000Z</time>
      </trkpt>
      <trkpt lat="49.228813" lon="8.624940">
        <ele>886.000000</ele>
        <time>2021-07-11T07:57:54.000Z</time>
      </trkpt>
      <trkpt lat="49.228580" lon="8.625135">
        <ele>886.000000</ele>
        <time>2021-07-11T07:57:59.000Z</time>
      </trkpt>
      <trkpt lat="49.228353" lon="8.625310">
        <ele>886.000000</ele>
        <time>2021-07-11T07:58:04.000Z</time>
      </trkpt>
      <trkpt lat="49.228128" lon="8.625518">
        <ele>886.000000</ele>
        <time>2021-07-11T07:58:09.000Z</time>
      </trkpt>
      <trkpt lat="49.227890" lon="8.625707">
        <ele>886.000000</ele>
        <time>2021-07-11T07:58:14.000Z</time>
      </trkpt>
      <trkpt lat="49.227657" lon="8.625882">
        <ele>886.000000</ele>
        <time>2021-07-11T07:58:19.000Z</time>
      </trkpt>
      <trkpt lat="49.227442" lon="8.626050">
        <ele>886.000000</ele>
        <time>2021-07-11T07:58:24.000Z</time>
      </trkpt>
      <trkpt lat="49.227210" lon="8.626230">
        <ele>886.000000</ele>
        <time>2021-07-11T07:58:29.000Z</time>
      </trkpt>
      <trkpt lat="49.226985" lon="8.626418">
        <ele>886.000000</ele>
        <time>2021-07-11T07:58:34.000Z</time>
      </trkpt>
      <trkpt lat="49.226757" lon="8.626612">
        <ele>886.000000</ele>
        <time>2021-07-11T07:58:39.000Z</time>
      </trkpt>
      <trkpt lat="49.226522" lon="8.626795">
        <ele>886.000000</ele>
        <time>2021-07-11T07:58:44.000Z</time>
      </trkpt>
      <trkpt lat="49.226288" lon="8.626953">
        <ele>886.011760</ele>
        <time>2021-07-11T07:58:49.000Z</time>
      </trkpt>
      <trkpt lat="49.226043" lon="8.627160">
        <ele>886.025863</ele>
        <time>2021-07-11T07:58:54.000Z</time>
      </trkpt>
      <trkpt lat="49.225817" lon="8.627348">
        <ele>886.038826</ele>
        <time>2021-07-11T07:58:59.000Z</time>
      </trkpt>
      <trkpt lat="49.225600" lon="8.627603">
        <ele>886.052612</ele>
        <time>2021-07-11T07:59:04.000Z</time>
      </trkpt>
      <trkpt lat="49.225373" lon="8.627852">
        <ele>886.066686</ele>
        <time>2021-07-11T07:59:09.000Z</time>
      </trkpt>
      <trkpt lat="49.225197" lon="8.628157">
        <ele>886.080083</ele>
        <time>2021-07-11T07:59:14.000Z</time>
      </trkpt>
      <trkpt lat="49.225008" lon="8.628497">
        <ele>886.115981</ele>
        <time>2021-07-11T07:59:19.000Z</time>
      </trkpt>
      <trkpt lat="49.224838" lon="8.628747">
        <ele>886.188887</ele>
        <time>2021-07-11T07:59:24.000Z</time>
      </trkpt>
      <trkpt lat="49.224650" lon="8.629060">
        <ele>886.274790</ele>
        <time>2021-07-11T07:59:29.000Z</time>
      </trkpt>
      <trkpt lat="49.224463" lon="8.629383">
        <ele>886.361985</ele>
        <time>2021-07-11T07:59:34.000Z</time>
      </trkpt>
      <trkpt lat="49.224303" lon="8.629680">
        <ele>886.439760</ele>
        <time>2021-07-11T07:59:39.000Z</time>
      </trkpt>
      <trkpt lat="49.224147" lon="8.630005">
        <ele>886.521237</ele>
        <time>2021-07-11T07:59:44.000Z</time>
      </trkpt>
      <trkpt lat="49.224042" lon="8.630410">
        <ele>886.609262</ele>
        <time>2021-07-11T07:59:49.000Z</time>
      </trkpt>
      <trkpt lat="49.223960" lon="8.630808">
        <ele>886.592821</ele>
        <time>2021-07-11T07:59:54.000Z</time>
      </trkpt>
      <trkpt lat="49.223873" lon="8.631130">
        <ele>886.510957</ele>
        <time>2021-07-11T07:59:59.000Z</time>
      </trkpt>
      <trkpt lat="49.223745" lon="8.631543">
        <ele>886.403561</ele>
        <time>2021-07-11T08:00:04.000Z</time>
      </trkpt>
      <trkpt lat="49.223593" lon="8.631887">
        <ele>886.305987</ele>
        <time>2021-07-11T08:00:09.000Z</time>
      </trkpt>
      <trkpt lat="49.223388" lon="8.632182">
        <ele>886.204790</ele>
        <time>2021-07-11T08:00:14.000Z</time>
      </trkpt>
      <trkpt lat="49.223190" lon="8.632463">
        <ele>886.107678</ele>
        <time>2021-07-11T08:00:19.000Z</time>
      </trkpt>
      <trkpt lat="49.222997" lon="8.632742">
        <ele>886.012201</ele>
        <time>2021-07-11T08:00:24.000Z</time>
      </trkpt>
      <trkpt lat="49.222808" lon="8.633025">
        <ele>886.000000</ele>
        <time>2021-07-11T08:00:29.000Z</time>
      </trkpt>
      <trkpt lat="49.222630" lon="8.633330">
        <ele>886.000000</ele>
        <time>2021-07-11T08:00:34.000Z</time>
      </trkpt>
      <trkpt lat="49.222442" lon="8.633615">
        <ele>886.000000</ele>
        <time>2021-07-11T08:00:39.000Z</time>
      </trkpt>
      <trkpt lat="49.222212" lon="8.633807">
        <ele>886.000000</ele>
        <time>2021-07-11T08:00:44.000Z</time>
      </trkpt>
      <trkpt lat="49.221972" lon="8.633927">
        <ele>886.000000</ele>
        <time>2021-07-11T08:00:49.000Z</time>
      </trkpt>
      <trkpt lat="49.221740" lon="8.634063">
        <ele>886.000000</ele>
        <time>2021-07-11T08:00:54.000Z</time>
      </trkpt>
      <trkpt lat="49.221532" lon="8.634145">
        <ele>886.000000</ele>
        <time>2021-07-11T08:00:59.000Z</time>
      </trkpt>
      <trkpt lat="49.221322" lon="8.634222">
        <ele>886.000000</ele>
        <time>2021-07-11T08:01:04.000Z</time>
      </trkpt>
      <trkpt lat="49.221143" lon="8.634270">
        <ele>886.000000</ele>
        <time>2021-07-11T08:01:08.000Z</time>
      </trkpt>
      <trkpt lat="49.221095" lon="8.634325">
        <ele>886.000000</ele>
        <time>2021-07-11T08:01:09.000Z</time>
      </trkpt>
      <trkpt lat="49.221035" lon="8.634497">
        <ele>886.000000</ele>
        <time>2021-07-11T08:01:14.000Z</time>
      </trkpt>
      <trkpt lat="49.221087" lon="8.634820">
        <ele>886.000000</ele>
        <time>2021-07-11T08:01:19.000Z</time>
      </trkpt>
      <trkpt lat="49.221095" lon="8.635243">
        <ele>886.000000</ele>
        <time>2021-07-11T08:01:24.000Z</time>
      </trkpt>
      <trkpt lat="49.221117" lon="8.635658">
        <ele>886.000000</ele>
        <time>2021-07-11T08:01:29.000Z</time>
      </trkpt>
      <trkpt lat="49.221100" lon="8.636103">
        <ele>886.000000</ele>
        <time>2021-07-11T08:01:34.000Z</time>
      </trkpt>
      <trkpt lat="49.221102" lon="8.636510">
        <ele>886.000000</ele>
        <time>2021-07-11T08:01:39.000Z</time>
      </trkpt>
      <trkpt lat="49.221043" lon="8.636952">
        <ele>886.000000</ele>
        <time>2021-07-11T08:01:44.000Z</time>
      </trkpt>
      <trkpt lat="49.221032" lon="8.637367">
        <ele>886.000000</ele>
        <time>2021-07-11T08:01:49.000Z</time>
      </trkpt>
      <trkpt lat="49.221042" lon="8.637752">
        <ele>886.000000</ele>
        <time>2021-07-11T08:01:54.000Z</time>
      </trkpt>
      <trkpt lat="49.221042" lon="8.638153">
        <ele>886.000000</ele>
        <time>2021-07-11T08:01:59.000Z</time>
      </trkpt>
      <trkpt lat="49.221017" lon="8.638507">
        <ele>886.000000</ele>
        <time>2021-07-11T08:02:04.000Z</time>
      </trkpt>
      <trkpt lat="49.221042" lon="8.638900">
        <ele>886.000000</ele>
        <time>2021-07-11T08:02:09.000Z</time>
      </trkpt>
      <trkpt lat="49.221055" lon="8.639275">
        <ele>886.000000</ele>
        <time>2021-07-11T08:02:14.000Z</time>
      </trkpt>
      <trkpt lat="49.221077" lon="8.639670">
        <ele>886.000000</ele>
        <time>2021-07-11T08:02:19.000Z</time>
      </trkpt>
      <trkpt lat="49.221092" lon="8.640067">
        <ele>886.000000</ele>
        <time>2021-07-11T08:02:24.000Z</time>
      </trkpt>
      <trkpt lat="49.221102" lon="8.640468">
        <ele>886.000000</ele>
        <time>2021-07-11T08:02:29.000Z</time>
      </trkpt>
      <trkpt lat="49.221112" lon="8.640873">
        <ele>886.000000</ele>
        <time>2021-07-11T08:02:34.000Z</time>
      </trkpt>
      <trkpt lat="49.221127" lon="8.641273">
        <ele>886.000000</ele>
        <time>2021-07-11T08:02:39.000Z</time>
      </trkpt>
      <trkpt lat="49.221140" lon="8.641660">
        <ele>886.000000</ele>
        <time>2021-07-11T08:02:44.000Z</time>
      </trkpt>
      <trkpt lat="49.221163" lon="8.642063">
        <ele>886.064183</ele>
        <time>2021-07-11T08:02:49.000Z</time>
      </trkpt>
      <trkpt lat="49.221182" lon="8.642467">
        <ele>886.247750</ele>
        <time>2021-07-11T08:02:54.000Z</time>
      </trkpt>
      <trkpt lat="49.221172" lon="8.642827">
        <ele>886.411049</ele>
        <time>2021-07-11T08:02:59.000Z</time>
      </trkpt>
      <trkpt lat="49.221102" lon="8.643155">
        <ele>886.567433</ele>
        <time>2021-07-11T08:03:04.000Z</time>
      </trkpt>
      <trkpt lat="49.220853" lon="8.643310">
        <ele>886.753942</ele>
        <time>2021-07-11T08:03:09.000Z</time>
      </trkpt>
      <trkpt lat="49.220605" lon="8.643388">
        <ele>886.929617</ele>
        <time>2021-07-11T08:03:14.000Z</time>
      </trkpt>
      <trkpt lat="49.220417" lon="8.643603">
        <ele>887.092440</ele>
        <time>2021-07-11T08:03:19.000Z</time>
      </trkpt>
      <trkpt lat="49.220332" lon="8.643940">
        <ele>887.245707</ele>
        <time>2021-07-11T08:03:24.000Z</time>
      </trkpt>
      <trkpt lat="49.220315" lon="8.644330">
        <ele>887.194915</ele>
        <time>2021-07-11T08:03:29.000Z</time>
      </trkpt>
      <trkpt lat="49.220297" lon="8.644778">
        <ele>887.136589</ele>
        <time>2021-07-11T08:03:34.000Z</time>
      </trkpt>
      <trkpt lat="49.220292" lon="8.645180">
        <ele>887.084341</ele>
        <time>2021-07-11T08:03:39.000Z</time>
      </trkpt>
      <trkpt lat="49.220280" lon="8.645618">
        <ele>887.027375</ele>
        <time>2021-07-11T08:03:44.000Z</time>
      </trkpt>
      <trkpt lat="49.220278" lon="8.646077">
        <ele>886.967729</ele>
        <time>2021-07-11T08:03:49.000Z</time>
      </trkpt>
      <trkpt lat="49.220243" lon="8.646482">
        <ele>886.914642</ele>
        <time>2021-07-11T08:03:54.000Z</time>
      </trkpt>
      <trkpt lat="49.220265" lon="8.646727">
        <ele>886.883890</ele>
        <time>2021-07-11T08:03:59.000Z</time>
      </trkpt>
      <trkpt lat="49.220280" lon="8.646840">
        <ele>886.871604</ele>
        <time>2021-07-11T08:04:04.000Z</time>
      </trkpt>
      <trkpt lat="49.220187" lon="8.646762">
        <ele>886.854306</ele>
        <time>2021-07-11T08:04:09.000Z</time>
      </trkpt>
      <trkpt lat="49.220025" lon="8.646735">
        <ele>886.827723</ele>
        <time>2021-07-11T08:04:14.000Z</time>
      </trkpt>
      <trkpt lat="49.219897" lon="8.646725">
        <ele>886.806816</ele>
        <time>2021-07-11T08:04:19.000Z</time>
      </trkpt>
      <trkpt lat="49.219818" lon="8.646705">
        <ele>886.793754</ele>
        <time>2021-07-11T08:04:24.000Z</time>
      </trkpt>
      <trkpt lat="49.219778" lon="8.647038">
        <ele>886.757678</ele>
        <time>2021-07-11T08:04:29.000Z</time>
      </trkpt>
      <trkpt lat="49.219732" lon="8.647312">
        <ele>886.727535</ele>
        <time>2021-07-11T08:04:34.000Z</time>
      </trkpt>
      <trkpt lat="49.219712" lon="8.647478">
        <ele>886.709550</ele>
        <time>2021-07-11T08:04:39.000Z</time>
      </trkpt>
      <trkpt lat="49.219667" lon="8.647707">
        <ele>886.684070</ele>
        <time>2021-07-11T08:04:44.000Z</time>
      </trkpt>
      <trkpt lat="49.219648" lon="8.648002">
        <ele>886.652486</ele>
        <time>2021-07-11T08:04:49.000Z</time>
      </trkpt>
      <trkpt lat="49.219625" lon="8.648317">
        <ele>886.618714</ele>
        <time>2021-07-11T08:04:54.000Z</time>
      </trkpt>
      <trkpt lat="49.219607" lon="8.648680">
        <ele>886.633849</ele>
        <time>2021-07-11T08:04:59.000Z</time>
      </trkpt>
      <trkpt lat="49.219595" lon="8.649062">
        <ele>886.723427</ele>
        <time>2021-07-11T08:05:04.000Z</time>
      </trkpt>
      <trkpt lat="49.219547" lon="8.649427">
        <ele>886.810635</ele>
        <time>2021-07-11T08:05:09.000Z</time>
      </trkpt>
      <trkpt lat="49.219508" lon="8.649810">
        <ele>886.901428</ele>
        <time>2021-07-11T08:05:14.000Z</time>
      </trkpt>
      <trkpt lat="49.219475" lon="8.650185">
        <ele>886.990056</ele>
        <time>2021-07-11T08:05:19.000Z</time>
      </trkpt>
      <trkpt lat="49.219427" lon="8.650523">
        <ele>887.071075</ele>
        <time>2021-07-11T08:05:24.000Z</time>
      </trkpt>
      <trkpt lat="49.219375" lon="8.650882">
        <ele>887.157205</ele>
        <time>2021-07-11T08:05:29.000Z</time>
      </trkpt>
      <trkpt lat="49.219318" lon="8.651222">
        <ele>887.239424</ele>
        <time>2021-07-11T08:05:34.000Z</time>
      </trkpt>
      <trkpt lat="49.219305" lon="8.651537">
        <ele>887.870353</ele>
        <time>2021-07-11T08:05:39.000Z</time>
      </trkpt>
      <trkpt lat="49.219250" lon="8.651918">
        <ele>888.673066</ele>
        <time>2021-07-11T08:05:44.000Z</time>
      </trkpt>
      <trkpt lat="49.219238" lon="8.652257">
        <ele>889.371486</ele>
        <time>2021-07-11T08:05:49.000Z</time>
      </trkpt>
      <trkpt lat="49.219163" lon="8.652617">
        <ele>890.148844</ele>
        <time>2021-07-11T08:05:54.000Z</time>
      </trkpt>
      <trkpt lat="49.219170" lon="8.652750">
        <ele>890.423341</ele>
        <time>2021-07-11T08:05:59.000Z</time>
      </trkpt>
      <trkpt lat="49.219160" lon="8.652755">
        <ele>890.456474</ele>
        <time>2021-07-11T08:06:00.000Z</time>
      </trkpt>
      <trkpt lat="49.219148" lon="8.652883">
        <ele>890.722497</ele>
        <time>2021-07-11T08:06:04.000Z</time>
      </trkpt>
      <trkpt lat="49.219113" lon="8.653142">
        <ele>891.266601</ele>
        <time>2021-07-11T08:06:09.000Z</time>
      </trkpt>
      <trkpt lat="49.219100" lon="8.653472">
        <ele>891.946717</ele>
        <time>2021-07-11T08:06:14.000Z</time>
      </trkpt>
      <trkpt lat="49.219100" lon="8.653858">
        <ele>892.740805</ele>
        <time>2021-07-11T08:06:19.000Z</time>
      </trkpt>
      <trkpt lat="49.219098" lon="8.654230">
        <ele>893.469263</ele>
        <time>2021-07-11T08:06:24.000Z</time>
      </trkpt>
      <trkpt lat="49.219062" lon="8.654562">
        <ele>894.119033</ele>
        <time>2021-07-11T08:06:29.000Z</time>
      </trkpt>
      <trkpt lat="49.219015" lon="8.654863">
        <ele>894.716554</ele>
        <time>2021-07-11T08:06:34.000Z</time>
      </trkpt>
      <trkpt lat="49.218987" lon="8.655175">
        <ele>895.324598</ele>
        <time>2021-07-11T08:06:39.000Z</time>
      </trkpt>
      <trkpt lat="49.219003" lon="8.655485">
        <ele>895.924986</ele>
        <time>2021-07-11T08:06:44.000Z</time>
      </trkpt>
      <trkpt lat="49.218932" lon="8.655810">
        <ele>896.586637</ele>
        <time>2021-07-11T08:06:49.000Z</time>
      </trkpt>
      <trkpt lat="49.218843" lon="8.656103">
        <ele>897.210519</ele>
        <time>2021-07-11T08:06:54.000Z</time>
      </trkpt>
      <trkpt lat="49.218825" lon="8.656460">
        <ele>897.901838</ele>
        <time>2021-07-11T08:06:59.000Z</time>
      </trkpt>
      <trkpt lat="49.218807" lon="8.656807">
        <ele>898.405934</ele>
        <time>2021-07-11T08:07:04.000Z</time>
      </trkpt>
      <trkpt lat="49.218770" lon="8.657135">
        <ele>898.740564</ele>
        <time>2021-07-11T08:07:09.000Z</time>
      </trkpt>
      <trkpt lat="49.218732" lon="8.657443">
        <ele>899.055681</ele>
        <time>2021-07-11T08:07:14.000Z</time>
      </trkpt>
      <trkpt lat="49.218667" lon="8.657765">
        <ele>899.394505</ele>
        <time>2021-07-11T08:07:19.000Z</time>
      </trkpt>
      <trkpt lat="49.218648" lon="8.658137">
        <ele>899.769630</ele>
        <time>2021-07-11T08:07:24.000Z</time>
      </trkpt>
      <trkpt lat="49.218560" lon="8.658305">
        <ele>899.986128</ele>
        <time>2021-07-11T08:07:29.000Z</time>
      </trkpt>
      <trkpt lat="49.218367" lon="8.658295">
        <ele>900.283353</ele>
        <time>2021-07-11T08:07:34.000Z</time>
      </trkpt>
      <trkpt lat="49.218163" lon="8.658267">
        <ele>900.598599</ele>
        <time>2021-07-11T08:07:39.000Z</time>
      </trkpt>
      <trkpt lat="49.217958" lon="8.658233">
        <ele>900.915971</ele>
        <time>2021-07-11T08:07:44.000Z</time>
      </trkpt>
      <trkpt lat="49.217742" lon="8.658235">
        <ele>901.567714</ele>
        <time>2021-07-11T08:07:49.000Z</time>
      </trkpt>
      <trkpt lat="49.217535" lon="8.658232">
        <ele>902.282775</ele>
        <time>2021-07-11T08:07:54.000Z</time>
      </trkpt>
      <trkpt lat="49.217340" lon="8.658225">
        <ele>902.956539</ele>
        <time>2021-07-11T08:07:59.000Z</time>
      </trkpt>
      <trkpt lat="49.217147" lon="8.658213">
        <ele>903.623759</ele>
        <time>2021-07-11T08:08:04.000Z</time>
      </trkpt>
      <trkpt lat="49.216937" lon="8.658242">
        <ele>904.352096</ele>
        <time>2021-07-11T08:08:09.000Z</time>
      </trkpt>
      <trkpt lat="49.216740" lon="8.658283">
        <ele>905.038843</ele>
        <time>2021-07-11T08:08:14.000Z</time>
      </trkpt>
      <trkpt lat="49.216550" lon="8.658262">
        <ele>905.696858</ele>
        <time>2021-07-11T08:08:19.000Z</time>
      </trkpt>
      <trkpt lat="49.216407" lon="8.658263">
        <ele>906.190821</ele>
        <time>2021-07-11T08:08:24.000Z</time>
      </trkpt>
      <trkpt lat="49.216242" lon="8.658237">
        <ele>906.763784</ele>
        <time>2021-07-11T08:08:29.000Z</time>
      </trkpt>
      <trkpt lat="49.216065" lon="8.658113">
        <ele>907.292410</ele>
        <time>2021-07-11T08:08:34.000Z</time>
      </trkpt>
      <trkpt lat="49.215862" lon="8.658048">
        <ele>907.563697</ele>
        <time>2021-07-11T08:08:39.000Z</time>
      </trkpt>
      <trkpt lat="49.215703" lon="8.657868">
        <ele>907.822373</ele>
        <time>2021-07-11T08:08:44.000Z</time>
      </trkpt>
      <trkpt lat="49.215540" lon="8.657728">
        <ele>908.066856</ele>
        <time>2021-07-11T08:08:49.000Z</time>
      </trkpt>
      <trkpt lat="49.215327" lon="8.657580">
        <ele>908.372834</ele>
        <time>2021-07-11T08:08:54.000Z</time>
      </trkpt>
      <trkpt lat="49.215150" lon="8.657388">
        <ele>908.656598</ele>
        <time>2021-07-11T08:08:59.000Z</time>
      </trkpt>
      <trkpt lat="49.214932" lon="8.657265">
        <ele>908.960512</ele>
        <time>2021-07-11T08:09:04.000Z</time>
      </trkpt>
      <trkpt lat="49.214683" lon="8.657177">
        <ele>909.294792</ele>
        <time>2021-07-11T08:09:09.000Z</time>
      </trkpt>
      <trkpt lat="49.214445" lon="8.657077">
        <ele>909.552541</ele>
        <time>2021-07-11T08:09:14.000Z</time>
      </trkpt>
      <trkpt lat="49.214153" lon="8.657067">
        <ele>909.520531</ele>
        <time>2021-07-11T08:09:19.000Z</time>
      </trkpt>
      <trkpt lat="49.213932" lon="8.657027">
        <ele>909.496141</ele>
        <time>2021-07-11T08:09:24.000Z</time>
      </trkpt>
      <trkpt lat="49.213742" lon="8.657005">
        <ele>909.475258</ele>
        <time>2021-07-11T08:09:29.000Z</time>
      </trkpt>
      <trkpt lat="49.213557" lon="8.656928">
        <ele>909.454247</ele>
        <time>2021-07-11T08:09:34.000Z</time>
      </trkpt>
      <trkpt lat="49.213367" lon="8.656800">
        <ele>909.431496</ele>
        <time>2021-07-11T08:09:39.000Z</time>
      </trkpt>
      <trkpt lat="49.213152" lon="8.656653">
        <ele>909.405689</ele>
        <time>2021-07-11T08:09:44.000Z</time>
      </trkpt>
      <trkpt lat="49.212877" lon="8.656512">
        <ele>909.373905</ele>
        <time>2021-07-11T08:09:49.000Z</time>
      </trkpt>
      <trkpt lat="49.212650" lon="8.656343">
        <ele>909.542797</ele>
        <time>2021-07-11T08:09:54.000Z</time>
      </trkpt>
      <trkpt lat="49.212415" lon="8.656192">
        <ele>909.901301</ele>
        <time>2021-07-11T08:09:59.000Z</time>
      </trkpt>
      <trkpt lat="49.212172" lon="8.656043">
        <ele>910.269521</ele>
        <time>2021-07-11T08:10:04.000Z</time>
      </trkpt>
      <trkpt lat="49.211970" lon="8.655942">
        <ele>910.568439</ele>
        <time>2021-07-11T08:10:09.000Z</time>
      </trkpt>
      <trkpt lat="49.211792" lon="8.655797">
        <ele>910.852070</ele>
        <time>2021-07-11T08:10:14.000Z</time>
      </trkpt>
      <trkpt lat="49.211552" lon="8.655763">
        <ele>911.191110</ele>
        <time>2021-07-11T08:10:19.000Z</time>
      </trkpt>
      <trkpt lat="49.211305" lon="8.655668">
        <ele>911.549354</ele>
        <time>2021-07-11T08:10:24.000Z</time>
      </trkpt>
      <trkpt lat="49.211073" lon="8.655600">
        <ele>911.881627</ele>
        <time>2021-07-11T08:10:29.000Z</time>
      </trkpt>
      <trkpt lat="49.210850" lon="8.655517">
        <ele>912.110042</ele>
        <time>2021-07-11T08:10:34.000Z</time>
      </trkpt>
      <trkpt lat="49.210623" lon="8.655380">
        <ele>912.350053</ele>
        <time>2021-07-11T08:10:39.000Z</time>
      </trkpt>
      <trkpt lat="49.210415" lon="8.655228">
        <ele>912.576766</ele>
        <time>2021-07-11T08:10:44.000Z</time>
      </trkpt>
      <trkpt lat="49.210193" lon="8.655088">
        <ele>912.812936</ele>
        <time>2021-07-11T08:10:49.000Z</time>
      </trkpt>
      <trkpt lat="49.209975" lon="8.654925">
        <ele>913.051581</ele>
        <time>2021-07-11T08:10:54.000Z</time>
      </trkpt>
      <trkpt lat="49.209778" lon="8.654732">
        <ele>913.281645</ele>
        <time>2021-07-11T08:10:59.000Z</time>
      </trkpt>
      <trkpt lat="49.209613" lon="8.654523">
        <ele>913.492306</ele>
        <time>2021-07-11T08:11:04.000Z</time>
      </trkpt>
      <trkpt lat="49.209413" lon="8.654328">
        <ele>913.680914</ele>
        <time>2021-07-11T08:11:09.000Z</time>
      </trkpt>
      <trkpt lat="49.209197" lon="8.654133">
        <ele>913.760340</ele>
        <time>2021-07-11T08:11:14.000Z</time>
      </trkpt>
      <trkpt lat="49.209007" lon="8.653995">
        <ele>913.826950</ele>
        <time>2021-07-11T08:11:19.000Z</time>
      </trkpt>
      <trkpt lat="49.208875" lon="8.653902">
        <ele>913.872974</ele>
        <time>2021-07-11T08:11:24.000Z</time>
      </trkpt>
      <trkpt lat="49.208733" lon="8.653813">
        <ele>913.921574</ele>
        <time>2021-07-11T08:11:29.000Z</time>
      </trkpt>
      <trkpt lat="49.208542" lon="8.653715">
        <ele>913.985378</ele>
        <time>2021-07-11T08:11:34.000Z</time>
      </trkpt>
      <trkpt lat="49.208290" lon="8.653628">
        <ele>914.067199</ele>
        <time>2021-07-11T08:11:39.000Z</time>
      </trkpt>
      <trkpt lat="49.207952" lon="8.653512">
        <ele>914.176912</ele>
        <time>2021-07-11T08:11:44.000Z</time>
      </trkpt>
      <trkpt lat="49.207660" lon="8.653492">
        <ele>913.856249</ele>
        <time>2021-07-11T08:11:49.000Z</time>
      </trkpt>
      <trkpt lat="49.207362" lon="8.653415">
        <ele>912.965297</ele>
        <time>2021-07-11T08:11:54.000Z</time>
      </trkpt>
      <trkpt lat="49.207070" lon="8.653372">
        <ele>912.100488</ele>
        <time>2021-07-11T08:11:59.000Z</time>
      </trkpt>
      <trkpt lat="49.206657" lon="8.653295">
        <ele>910.873940</ele>
        <time>2021-07-11T08:12:04.000Z</time>
      </trkpt>
      <trkpt lat="49.206335" lon="8.652987">
        <ele>909.754544</ele>
        <time>2021-07-11T08:12:09.000Z</time>
      </trkpt>
      <trkpt lat="49.206168" lon="8.652562">
        <ele>908.893413</ele>
        <time>2021-07-11T08:12:14.000Z</time>
      </trkpt>
      <trkpt lat="49.206002" lon="8.652148">
        <ele>908.647915</ele>
        <time>2021-07-11T08:12:19.000Z</time>
      </trkpt>
      <trkpt lat="49.205848" lon="8.651835">
        <ele>908.449884</ele>
        <time>2021-07-11T08:12:24.000Z</time>
      </trkpt>
      <trkpt lat="49.205638" lon="8.651772">
        <ele>908.284344</ele>
        <time>2021-07-11T08:12:29.000Z</time>
      </trkpt>
      <trkpt lat="49.205397" lon="8.651842">
        <ele>908.094587</ele>
        <time>2021-07-11T08:12:34.000Z</time>
      </trkpt>
      <trkpt lat="49.205165" lon="8.651983">
        <ele>907.901489</ele>
        <time>2021-07-11T08:12:39.000Z</time>
      </trkpt>
      <trkpt lat="49.204953" lon="8.652027">
        <ele>907.735992</ele>
        <time>2021-07-11T08:12:44.000Z</time>
      </trkpt>
      <trkpt lat="49.204747" lon="8.652135">
        <ele>907.567548</ele>
        <time>2021-07-11T08:12:49.000Z</time>
      </trkpt>
      <trkpt lat="49.204528" lon="8.652215">
        <ele>906.888880</ele>
        <time>2021-07-11T08:12:54.000Z</time>
      </trkpt>
      <trkpt lat="49.204327" lon="8.652292">
        <ele>906.159705</ele>
        <time>2021-07-11T08:12:59.000Z</time>
      </trkpt>
      <trkpt lat="49.204237" lon="8.652423">
        <ele>905.722621</ele>
        <time>2021-07-11T08:13:04.000Z</time>
      </trkpt>
      <trkpt lat="49.204167" lon="8.652470">
        <ele>905.453616</ele>
        <time>2021-07-11T08:13:09.000Z</time>
      </trkpt>
      <trkpt lat="49.203970" lon="8.652542">
        <ele>904.740845</ele>
        <time>2021-07-11T08:13:14.000Z</time>
      </trkpt>
      <trkpt lat="49.203655" lon="8.652630">
        <ele>903.613988</ele>
        <time>2021-07-11T08:13:19.000Z</time>
      </trkpt>
      <trkpt lat="49.203398" lon="8.652732">
        <ele>902.679644</ele>
        <time>2021-07-11T08:13:24.000Z</time>
      </trkpt>
      <trkpt lat="49.203230" lon="8.652790">
        <ele>902.073567</ele>
        <time>2021-07-11T08:13:29.000Z</time>
      </trkpt>
      <trkpt lat="49.203178" lon="8.652798">
        <ele>901.889647</ele>
        <time>2021-07-11T08:13:34.000Z</time>
      </trkpt>
      <trkpt lat="49.203175" lon="8.652830">
        <ele>901.815314</ele>
        <time>2021-07-11T08:13:38.000Z</time>
      </trkpt>
      <trkpt lat="49.203120" lon="8.652892">
        <ele>901.574925</ele>
        <time>2021-07-11T08:13:39.000Z</time>
      </trkpt>
      <trkpt lat="49.203088" lon="8.652895">
        <ele>901.462100</ele>
        <time>2021-07-11T08:13:44.000Z</time>
      </trkpt>
      <trkpt lat="49.202990" lon="8.652967">
        <ele>901.322054</ele>
        <time>2021-07-11T08:13:49.000Z</time>
      </trkpt>
      <trkpt lat="49.202853" lon="8.653020">
        <ele>901.780193</ele>
        <time>2021-07-11T08:13:54.000Z</time>
      </trkpt>
      <trkpt lat="49.202705" lon="8.653080">
        <ele>902.276574</ele>
        <time>2021-07-11T08:13:59.000Z</time>
      </trkpt>
      <trkpt lat="49.202565" lon="8.653030">
        <ele>902.742664</ele>
        <time>2021-07-11T08:14:04.000Z</time>
      </trkpt>
      <trkpt lat="49.202272" lon="8.653012">
        <ele>903.693369</ele>
        <time>2021-07-11T08:14:09.000Z</time>
      </trkpt>
      <trkpt lat="49.202133" lon="8.653092">
        <ele>904.174834</ele>
        <time>2021-07-11T08:14:14.000Z</time>
      </trkpt>
      <trkpt lat="49.201988" lon="8.653132">
        <ele>904.652517</ele>
        <time>2021-07-11T08:14:19.000Z</time>
      </trkpt>
      <trkpt lat="49.201863" lon="8.653212">
        <ele>905.091788</ele>
        <time>2021-07-11T08:14:24.000Z</time>
      </trkpt>
      <trkpt lat="49.201737" lon="8.653283">
        <ele>905.527103</ele>
        <time>2021-07-11T08:14:29.000Z</time>
      </trkpt>
      <trkpt lat="49.201617" lon="8.653185">
        <ele>905.968081</ele>
        <time>2021-07-11T08:14:34.000Z</time>
      </trkpt>
      <trkpt lat="49.201545" lon="8.653028">
        <ele>906.374413</ele>
        <time>2021-07-11T08:14:39.000Z</time>
      </trkpt>
      <trkpt lat="49.201448" lon="8.652808">
        <ele>906.936642</ele>
        <time>2021-07-11T08:14:44.000Z</time>
      </trkpt>
      <trkpt lat="49.201303" lon="8.652642">
        <ele>907.436385</ele>
        <time>2021-07-11T08:14:49.000Z</time>
      </trkpt>
      <trkpt lat="49.201233" lon="8.652405">
        <ele>907.888459</ele>
        <time>2021-07-11T08:14:54.000Z</time>
      </trkpt>
      <trkpt lat="49.201152" lon="8.652257">
        <ele>908.224024</ele>
        <time>2021-07-11T08:14:59.000Z</time>
      </trkpt>
      <trkpt lat="49.201050" lon="8.652167">
        <ele>908.537225</ele>
        <time>2021-07-11T08:15:04.000Z</time>
      </trkpt>
      <trkpt lat="49.200853" lon="8.652272">
        <ele>909.092145</ele>
        <time>2021-07-11T08:15:09.000Z</time>
      </trkpt>
      <trkpt lat="49.200710" lon="8.652393">
        <ele>909.526816</ele>
        <time>2021-07-11T08:15:14.000Z</time>
      </trkpt>
      <trkpt lat="49.200543" lon="8.652508">
        <ele>910.013961</ele>
        <time>2021-07-11T08:15:19.000Z</time>
      </trkpt>
      <trkpt lat="49.200370" lon="8.652640">
        <ele>910.528190</ele>
        <time>2021-07-11T08:15:24.000Z</time>
      </trkpt>
      <trkpt lat="49.200167" lon="8.652783">
        <ele>911.122659</ele>
        <time>2021-07-11T08:15:29.000Z</time>
      </trkpt>
      <trkpt lat="49.199950" lon="8.652932">
        <ele>911.755349</ele>
        <time>2021-07-11T08:15:34.000Z</time>
      </trkpt>
      <trkpt lat="49.199715" lon="8.653072">
        <ele>911.814261</ele>
        <time>2021-07-11T08:15:39.000Z</time>
      </trkpt>
      <trkpt lat="49.199487" lon="8.653248">
        <ele>911.805748</ele>
        <time>2021-07-11T08:15:44.000Z</time>
      </trkpt>
      <trkpt lat="49.199248" lon="8.653408">
        <ele>911.797052</ele>
        <time>2021-07-11T08:15:49.000Z</time>
      </trkpt>
      <trkpt lat="49.199018" lon="8.653573">
        <ele>911.788585</ele>
        <time>2021-07-11T08:15:54.000Z</time>
      </trkpt>
      <trkpt lat="49.198792" lon="8.653703">
        <ele>911.780536</ele>
        <time>2021-07-11T08:15:59.000Z</time>
      </trkpt>
      <trkpt lat="49.198522" lon="8.653887">
        <ele>911.770684</ele>
        <time>2021-07-11T08:16:04.000Z</time>
      </trkpt>
      <trkpt lat="49.198275" lon="8.654043">
        <ele>911.757233</ele>
        <time>2021-07-11T08:16:09.000Z</time>
      </trkpt>
      <trkpt lat="49.198045" lon="8.654252">
        <ele>911.342059</ele>
        <time>2021-07-11T08:16:14.000Z</time>
      </trkpt>
      <trkpt lat="49.197797" lon="8.654443">
        <ele>910.911140</ele>
        <time>2021-07-11T08:16:19.000Z</time>
      </trkpt>
      <trkpt lat="49.197555" lon="8.654640">
        <ele>910.485695</ele>
        <time>2021-07-11T08:16:24.000Z</time>
      </trkpt>
      <trkpt lat="49.197263" lon="8.654873">
        <ele>909.974570</ele>
        <time>2021-07-11T08:16:29.000Z</time>
      </trkpt>
      <trkpt lat="49.197018" lon="8.655130">
        <ele>909.513544</ele>
        <time>2021-07-11T08:16:34.000Z</time>
      </trkpt>
      <trkpt lat="49.196713" lon="8.655373">
        <ele>908.979837</ele>
        <time>2021-07-11T08:16:39.000Z</time>
      </trkpt>
      <trkpt lat="49.196403" lon="8.655647">
        <ele>908.573900</ele>
        <time>2021-07-11T08:16:44.000Z</time>
      </trkpt>
      <trkpt lat="49.196123" lon="8.655885">
        <ele>908.213076</ele>
        <time>2021-07-11T08:16:49.000Z</time>
      </trkpt>
      <trkpt lat="49.195925" lon="8.655877">
        <ele>907.989944</ele>
        <time>2021-07-11T08:16:54.000Z</time>
      </trkpt>
      <trkpt lat="49.195832" lon="8.655695">
        <ele>907.819863</ele>
        <time>2021-07-11T08:16:59.000Z</time>
      </trkpt>
      <trkpt lat="49.195727" lon="8.655335">
        <ele>907.529644</ele>
        <time>2021-07-11T08:17:04.000Z</time>
      </trkpt>
      <trkpt lat="49.195650" lon="8.654878">
        <ele>907.182212</ele>
        <time>2021-07-11T08:17:09.000Z</time>
      </trkpt>
      <trkpt lat="49.195593" lon="8.654432">
        <ele>906.856618</ele>
        <time>2021-07-11T08:17:14.000Z</time>
      </trkpt>
      <trkpt lat="49.195522" lon="8.654017">
        <ele>906.570187</ele>
        <time>2021-07-11T08:17:19.000Z</time>
      </trkpt>
      <trkpt lat="49.195435" lon="8.653590">
        <ele>906.271546</ele>
        <time>2021-07-11T08:17:24.000Z</time>
      </trkpt>
      <trkpt lat="49.195352" lon="8.653167">
        <ele>905.976655</ele>
        <time>2021-07-11T08:17:29.000Z</time>
      </trkpt>
      <trkpt lat="49.195282" lon="8.652753">
        <ele>905.691127</ele>
        <time>2021-07-11T08:17:34.000Z</time>
      </trkpt>
      <trkpt lat="49.195238" lon="8.652367">
        <ele>905.429505</ele>
        <time>2021-07-11T08:17:39.000Z</time>
      </trkpt>
      <trkpt lat="49.195170" lon="8.652035">
        <ele>905.197197</ele>
        <time>2021-07-11T08:17:44.000Z</time>
      </trkpt>
      <trkpt lat="49.194987" lon="8.652220">
        <ele>905.090319</ele>
        <time>2021-07-11T08:17:49.000Z</time>
      </trkpt>
      <trkpt lat="49.194673" lon="8.652455">
        <ele>905.047726</ele>
        <time>2021-07-11T08:17:54.000Z</time>
      </trkpt>
      <trkpt lat="49.194380" lon="8.652662">
        <ele>905.008400</ele>
        <time>2021-07-11T08:17:59.000Z</time>
      </trkpt>
      <trkpt lat="49.194125" lon="8.652815">
        <ele>904.975024</ele>
        <time>2021-07-11T08:18:04.000Z</time>
      </trkpt>
      <trkpt lat="49.193848" lon="8.652872">
        <ele>904.940966</ele>
        <time>2021-07-11T08:18:09.000Z</time>
      </trkpt>
      <trkpt lat="49.193587" lon="8.652908">
        <ele>904.909033</ele>
        <time>2021-07-11T08:18:14.000Z</time>
      </trkpt>
      <trkpt lat="49.193325" lon="8.652988">
        <ele>904.796430</ele>
        <time>2021-07-11T08:18:19.000Z</time>
      </trkpt>
      <trkpt lat="49.193040" lon="8.652962">
        <ele>904.497422</ele>
        <time>2021-07-11T08:18:24.000Z</time>
      </trkpt>
      <trkpt lat="49.192752" lon="8.652920">
        <ele>904.194435</ele>
        <time>2021-07-11T08:18:29.000Z</time>
      </trkpt>
      <trkpt lat="49.192475" lon="8.652872">
        <ele>903.902481</ele>
        <time>2021-07-11T08:18:34.000Z</time>
      </trkpt>
      <trkpt lat="49.192118" lon="8.652845">
        <ele>903.528141</ele>
        <time>2021-07-11T08:18:39.000Z</time>
      </trkpt>
      <trkpt lat="49.191792" lon="8.652832">
        <ele>903.186608</ele>
        <time>2021-07-11T08:18:44.000Z</time>
      </trkpt>
      <trkpt lat="49.191490" lon="8.652768">
        <ele>903.003074</ele>
        <time>2021-07-11T08:18:49.000Z</time>
      </trkpt>
      <trkpt lat="49.191230" lon="8.652707">
        <ele>903.002589</ele>
        <time>2021-07-11T08:18:54.000Z</time>
      </trkpt>
      <trkpt lat="49.190948" lon="8.652637">
        <ele>903.002063</ele>
        <time>2021-07-11T08:18:59.000Z</time>
      </trkpt>
      <trkpt lat="49.190677" lon="8.652617">
        <ele>903.001563</ele>
        <time>2021-07-11T08:19:04.000Z</time>
      </trkpt>
      <trkpt lat="49.190385" lon="8.652592">
        <ele>903.001025</ele>
        <time>2021-07-11T08:19:09.000Z</time>
      </trkpt>
      <trkpt lat="49.190127" lon="8.652512">
        <ele>903.000540</ele>
        <time>2021-07-11T08:19:14.000Z</time>
      </trkpt>
      <trkpt lat="49.189912" lon="8.652530">
        <ele>903.000143</ele>
        <time>2021-07-11T08:19:19.000Z</time>
      </trkpt>
      <trkpt lat="49.189673" lon="8.652597">
        <ele>903.064359</ele>
        <time>2021-07-11T08:19:24.000Z</time>
      </trkpt>
      <trkpt lat="49.189398" lon="8.652632">
        <ele>903.171823</ele>
        <time>2021-07-11T08:19:29.000Z</time>
      </trkpt>
      <trkpt lat="49.189135" lon="8.652683">
        <ele>903.275063</ele>
        <time>2021-07-11T08:19:34.000Z</time>
      </trkpt>
      <trkpt lat="49.188815" lon="8.652820">
        <ele>903.404469</ele>
        <time>2021-07-11T08:19:39.000Z</time>
      </trkpt>
      <trkpt lat="49.188550" lon="8.652878">
        <ele>903.508719</ele>
        <time>2021-07-11T08:19:44.000Z</time>
      </trkpt>
      <trkpt lat="49.188267" lon="8.652907">
        <ele>903.619176</ele>
        <time>2021-07-11T08:19:49.000Z</time>
      </trkpt>
      <trkpt lat="49.187993" lon="8.653017">
        <ele>903.753016</ele>
        <time>2021-07-11T08:19:54.000Z</time>
      </trkpt>
      <trkpt lat="49.187732" lon="8.653028">
        <ele>903.937060</ele>
        <time>2021-07-11T08:19:59.000Z</time>
      </trkpt>
      <trkpt lat="49.187478" lon="8.653072">
        <ele>904.117244</ele>
        <time>2021-07-11T08:20:04.000Z</time>
      </trkpt>
      <trkpt lat="49.187238" lon="8.653058">
        <ele>904.286540</ele>
        <time>2021-07-11T08:20:09.000Z</time>
      </trkpt>
      <trkpt lat="49.187038" lon="8.652885">
        <ele>904.448487</ele>
        <time>2021-07-11T08:20:14.000Z</time>
      </trkpt>
      <trkpt lat="49.186833" lon="8.652638">
        <ele>904.632416</ele>
        <time>2021-07-11T08:20:19.000Z</time>
      </trkpt>
      <trkpt lat="49.186592" lon="8.652455">
        <ele>904.822063</ele>
        <time>2021-07-11T08:20:24.000Z</time>
      </trkpt>
      <trkpt lat="49.186323" lon="8.652282">
        <ele>904.882387</ele>
        <time>2021-07-11T08:20:29.000Z</time>
      </trkpt>
      <trkpt lat="49.186003" lon="8.652170">
        <ele>904.548104</ele>
        <time>2021-07-11T08:20:34.000Z</time>
      </trkpt>
      <trkpt lat="49.185750" lon="8.652005">
        <ele>904.268037</ele>
        <time>2021-07-11T08:20:39.000Z</time>
      </trkpt>
      <trkpt lat="49.185450" lon="8.651822">
        <ele>903.939153</ele>
        <time>2021-07-11T08:20:44.000Z</time>
      </trkpt>
      <trkpt lat="49.185168" lon="8.651660">
        <ele>903.632408</ele>
        <time>2021-07-11T08:20:49.000Z</time>
      </trkpt>
      <trkpt lat="49.184882" lon="8.651548">
        <ele>903.331777</ele>
        <time>2021-07-11T08:20:54.000Z</time>
      </trkpt>
      <trkpt lat="49.184550" lon="8.651407">
        <ele>902.471339</ele>
        <time>2021-07-11T08:20:59.000Z</time>
      </trkpt>
      <trkpt lat="49.184245" lon="8.651335">
        <ele>901.129030</ele>
        <time>2021-07-11T08:21:04.000Z</time>
      </trkpt>
      <trkpt lat="49.183912" lon="8.651247">
        <ele>899.659184</ele>
        <time>2021-07-11T08:21:09.000Z</time>
      </trkpt>
      <trkpt lat="49.183687" lon="8.651167">
        <ele>898.654455</ele>
        <time>2021-07-11T08:21:14.000Z</time>
      </trkpt>
      <trkpt lat="49.183553" lon="8.651257">
        <ele>898.017925</ele>
        <time>2021-07-11T08:21:19.000Z</time>
      </trkpt>
      <trkpt lat="49.183447" lon="8.651415">
        <ele>897.374226</ele>
        <time>2021-07-11T08:21:24.000Z</time>
      </trkpt>
      <trkpt lat="49.183372" lon="8.651623">
        <ele>896.698865</ele>
        <time>2021-07-11T08:21:29.000Z</time>
      </trkpt>
      <trkpt lat="49.183330" lon="8.652075">
        <ele>895.400892</ele>
        <time>2021-07-11T08:21:34.000Z</time>
      </trkpt>
      <trkpt lat="49.183272" lon="8.652497">
        <ele>895.480468</ele>
        <time>2021-07-11T08:21:39.000Z</time>
      </trkpt>
      <trkpt lat="49.183255" lon="8.652908">
        <ele>895.652272</ele>
        <time>2021-07-11T08:21:44.000Z</time>
      </trkpt>
      <trkpt lat="49.183195" lon="8.653250">
        <ele>895.799997</ele>
        <time>2021-07-11T08:21:49.000Z</time>
      </trkpt>
      <trkpt lat="49.183163" lon="8.653578">
        <ele>895.938348</ele>
        <time>2021-07-11T08:21:54.000Z</time>
      </trkpt>
      <trkpt lat="49.183107" lon="8.653988">
        <ele>896.113087</ele>
        <time>2021-07-11T08:21:59.000Z</time>
      </trkpt>
      <trkpt lat="49.183028" lon="8.654342">
        <ele>896.269139</ele>
        <time>2021-07-11T08:22:04.000Z</time>
      </trkpt>
      <trkpt lat="49.182965" lon="8.654703">
        <ele>896.425017</ele>
        <time>2021-07-11T08:22:09.000Z</time>
      </trkpt>
      <trkpt lat="49.182875" lon="8.655023">
        <ele>896.604762</ele>
        <time>2021-07-11T08:22:14.000Z</time>
      </trkpt>
      <trkpt lat="49.182817" lon="8.655398">
        <ele>896.816292</ele>
        <time>2021-07-11T08:22:19.000Z</time>
      </trkpt>
      <trkpt lat="49.182705" lon="8.655745">
        <ele>897.028725</ele>
        <time>2021-07-11T08:22:24.000Z</time>
      </trkpt>
      <trkpt lat="49.182702" lon="8.656045">
        <ele>897.193421</ele>
        <time>2021-07-11T08:22:29.000Z</time>
      </trkpt>
      <trkpt lat="49.182810" lon="8.656265">
        <ele>897.344450</ele>
        <time>2021-07-11T08:22:34.000Z</time>
      </trkpt>
      <trkpt lat="49.182815" lon="8.656528">
        <ele>897.488877</ele>
        <time>2021-07-11T08:22:39.000Z</time>
      </trkpt>
      <trkpt lat="49.182763" lon="8.656840">
        <ele>897.665621</ele>
        <time>2021-07-11T08:22:44.000Z</time>
      </trkpt>
      <trkpt lat="49.182657" lon="8.657060">
        <ele>897.815646</ele>
        <time>2021-07-11T08:22:49.000Z</time>
      </trkpt>
      <trkpt lat="49.182403" lon="8.656938">
        <ele>897.928491</ele>
        <time>2021-07-11T08:22:54.000Z</time>
      </trkpt>
      <trkpt lat="49.182158" lon="8.656722">
        <ele>897.775704</ele>
        <time>2021-07-11T08:22:59.000Z</time>
      </trkpt>
      <trkpt lat="49.181893" lon="8.656658">
        <ele>897.630747</ele>
        <time>2021-07-11T08:23:04.000Z</time>
      </trkpt>
      <trkpt lat="49.181748" lon="8.656877">
        <ele>897.520652</ele>
        <time>2021-07-11T08:23:09.000Z</time>
      </trkpt>
      <trkpt lat="49.181682" lon="8.657250">
        <ele>897.384173</ele>
        <time>2021-07-11T08:23:14.000Z</time>
      </trkpt>
      <trkpt lat="49.181617" lon="8.657642">
        <ele>897.241338</ele>
        <time>2021-07-11T08:23:19.000Z</time>
      </trkpt>
      <trkpt lat="49.181568" lon="8.658033">
        <ele>897.100727</ele>
        <time>2021-07-11T08:23:24.000Z</time>
      </trkpt>
      <trkpt lat="49.181542" lon="8.658515">
        <ele>897.026129</ele>
        <time>2021-07-11T08:23:29.000Z</time>
      </trkpt>
      <trkpt lat="49.181478" lon="8.658903">
        <ele>897.078819</ele>
        <time>2021-07-11T08:23:34.000Z</time>
      </trkpt>
      <trkpt lat="49.181405" lon="8.659258">
        <ele>897.127820</ele>
        <time>2021-07-11T08:23:39.000Z</time>
      </trkpt>
      <trkpt lat="49.181328" lon="8.659668">
        <ele>897.183989</ele>
        <time>2021-07-11T08:23:44.000Z</time>
      </trkpt>
      <trkpt lat="49.181275" lon="8.659993">
        <ele>897.228094</ele>
        <time>2021-07-11T08:23:49.000Z</time>
      </trkpt>
      <trkpt lat="49.181168" lon="8.660397">
        <ele>897.285490</ele>
        <time>2021-07-11T08:23:54.000Z</time>
      </trkpt>
      <trkpt lat="49.181092" lon="8.660750">
        <ele>897.334426</ele>
        <time>2021-07-11T08:23:59.000Z</time>
      </trkpt>
      <trkpt lat="49.180998" lon="8.661113">
        <ele>897.403721</ele>
        <time>2021-07-11T08:24:04.000Z</time>
      </trkpt>
      <trkpt lat="49.180877" lon="8.661468">
        <ele>897.496506</ele>
        <time>2021-07-11T08:24:09.000Z</time>
      </trkpt>
      <trkpt lat="49.180720" lon="8.661892">
        <ele>897.609440</ele>
        <time>2021-07-11T08:24:14.000Z</time>
      </trkpt>
      <trkpt lat="49.180652" lon="8.662243">
        <ele>897.694283</ele>
        <time>2021-07-11T08:24:19.000Z</time>
      </trkpt>
      <trkpt lat="49.180545" lon="8.662660">
        <ele>897.798104</ele>
        <time>2021-07-11T08:24:24.000Z</time>
      </trkpt>
      <trkpt lat="49.180445" lon="8.663067">
        <ele>897.898871</ele>
        <time>2021-07-11T08:24:29.000Z</time>
      </trkpt>
      <trkpt lat="49.180322" lon="8.663435">
        <ele>897.994660</ele>
        <time>2021-07-11T08:24:34.000Z</time>
      </trkpt>
      <trkpt lat="49.180228" lon="8.663813">
        <ele>898.022033</ele>
        <time>2021-07-11T08:24:39.000Z</time>
      </trkpt>
      <trkpt lat="49.180150" lon="8.664210">
        <ele>898.045982</ele>
        <time>2021-07-11T08:24:44.000Z</time>
      </trkpt>
      <trkpt lat="49.180035" lon="8.664683">
        <ele>898.075137</ele>
        <time>2021-07-11T08:24:49.000Z</time>
      </trkpt>
      <trkpt lat="49.179928" lon="8.665080">
        <ele>898.099946</ele>
        <time>2021-07-11T08:24:54.000Z</time>
      </trkpt>
      <trkpt lat="49.179817" lon="8.665508">
        <ele>898.126547</ele>
        <time>2021-07-11T08:24:59.000Z</time>
      </trkpt>
      <trkpt lat="49.179708" lon="8.665958">
        <ele>898.154272</ele>
        <time>2021-07-11T08:25:04.000Z</time>
      </trkpt>
      <trkpt lat="49.179617" lon="8.666360">
        <ele>898.376461</ele>
        <time>2021-07-11T08:25:09.000Z</time>
      </trkpt>
      <trkpt lat="49.179567" lon="8.666745">
        <ele>898.624467</ele>
        <time>2021-07-11T08:25:14.000Z</time>
      </trkpt>
      <trkpt lat="49.179493" lon="8.667132">
        <ele>898.879229</ele>
        <time>2021-07-11T08:25:19.000Z</time>
      </trkpt>
      <trkpt lat="49.179422" lon="8.667515">
        <ele>899.130760</ele>
        <time>2021-07-11T08:25:24.000Z</time>
      </trkpt>
      <trkpt lat="49.179342" lon="8.667915">
        <ele>899.395055</ele>
        <time>2021-07-11T08:25:29.000Z</time>
      </trkpt>
      <trkpt lat="49.179217" lon="8.668232">
        <ele>899.628963</ele>
        <time>2021-07-11T08:25:34.000Z</time>
      </trkpt>
      <trkpt lat="49.179093" lon="8.668503">
        <ele>899.837967</ele>
        <time>2021-07-11T08:25:39.000Z</time>
      </trkpt>
      <trkpt lat="49.178997" lon="8.668823">
        <ele>900.019877</ele>
        <time>2021-07-11T08:25:44.000Z</time>
      </trkpt>
      <trkpt lat="49.178957" lon="8.669108">
        <ele>900.158231</ele>
        <time>2021-07-11T08:25:49.000Z</time>
      </trkpt>
      <trkpt lat="49.178928" lon="8.669385">
        <ele>900.291381</ele>
        <time>2021-07-11T08:25:54.000Z</time>
      </trkpt>
      <trkpt lat="49.178903" lon="8.669687">
        <ele>900.435866</ele>
        <time>2021-07-11T08:25:59.000Z</time>
      </trkpt>
      <trkpt lat="49.178865" lon="8.670008">
        <ele>900.590702</ele>
        <time>2021-07-11T08:26:04.000Z</time>
      </trkpt>
      <trkpt lat="49.178838" lon="8.670330">
        <ele>900.744788</ele>
        <time>2021-07-11T08:26:09.000Z</time>
      </trkpt>
      <trkpt lat="49.178828" lon="8.670733">
        <ele>900.936204</ele>
        <time>2021-07-11T08:26:14.000Z</time>
      </trkpt>
      <trkpt lat="49.178807" lon="8.671120">
        <ele>901.120521</ele>
        <time>2021-07-11T08:26:19.000Z</time>
      </trkpt>
      <trkpt lat="49.178837" lon="8.671513">
        <ele>901.267397</ele>
        <time>2021-07-11T08:26:24.000Z</time>
      </trkpt>
      <trkpt lat="49.178827" lon="8.671890">
        <ele>901.376636</ele>
        <time>2021-07-11T08:26:29.000Z</time>
      </trkpt>
      <trkpt lat="49.178805" lon="8.672302">
        <ele>901.496315</ele>
        <time>2021-07-11T08:26:34.000Z</time>
      </trkpt>
      <trkpt lat="49.178790" lon="8.672713">
        <ele>901.615493</ele>
        <time>2021-07-11T08:26:39.000Z</time>
      </trkpt>
      <trkpt lat="49.178733" lon="8.673068">
        <ele>901.721327</ele>
        <time>2021-07-11T08:26:44.000Z</time>
      </trkpt>
      <trkpt lat="49.178715" lon="8.673407">
        <ele>901.819798</ele>
        <time>2021-07-11T08:26:49.000Z</time>
      </trkpt>
      <trkpt lat="49.178703" lon="8.673822">
        <ele>901.940066</ele>
        <time>2021-07-11T08:26:54.000Z</time>
      </trkpt>
      <trkpt lat="49.178760" lon="8.674173">
        <ele>902.000116</ele>
        <time>2021-07-11T08:26:59.000Z</time>
      </trkpt>
      <trkpt lat="49.178723" lon="8.674450">
        <ele>902.000327</ele>
        <time>2021-07-11T08:27:04.000Z</time>
      </trkpt>
      <trkpt lat="49.178522" lon="8.674607">
        <ele>902.000585</ele>
        <time>2021-07-11T08:27:09.000Z</time>
      </trkpt>
      <trkpt lat="49.178345" lon="8.674767">
        <ele>902.000820</ele>
        <time>2021-07-11T08:27:14.000Z</time>
      </trkpt>
      <trkpt lat="49.178202" lon="8.674980">
        <ele>902.001048</ele>
        <time>2021-07-11T08:27:19.000Z</time>
      </trkpt>
      <trkpt lat="49.178033" lon="8.675247">
        <ele>902.001326</ele>
        <time>2021-07-11T08:27:24.000Z</time>
      </trkpt>
      <trkpt lat="49.177930" lon="8.675572">
        <ele>902.001596</ele>
        <time>2021-07-11T08:27:29.000Z</time>
      </trkpt>
      <trkpt lat="49.177755" lon="8.675905">
        <ele>902.001915</ele>
        <time>2021-07-11T08:27:34.000Z</time>
      </trkpt>
      <trkpt lat="49.177517" lon="8.675968">
        <ele>902.066865</ele>
        <time>2021-07-11T08:27:39.000Z</time>
      </trkpt>
      <trkpt lat="49.177322" lon="8.675992">
        <ele>902.174268</ele>
        <time>2021-07-11T08:27:44.000Z</time>
      </trkpt>
      <trkpt lat="49.177280" lon="8.676170">
        <ele>902.242186</ele>
        <time>2021-07-11T08:27:49.000Z</time>
      </trkpt>
      <trkpt lat="49.177277" lon="8.676482">
        <ele>902.354175</ele>
        <time>2021-07-11T08:27:54.000Z</time>
      </trkpt>
      <trkpt lat="49.177237" lon="8.676813">
        <ele>902.474983</ele>
        <time>2021-07-11T08:27:59.000Z</time>
      </trkpt>
      <trkpt lat="49.177192" lon="8.677102">
        <ele>902.581607</ele>
        <time>2021-07-11T08:28:04.000Z</time>
      </trkpt>
      <trkpt lat="49.177030" lon="8.677412">
        <ele>902.724046</ele>
        <time>2021-07-11T08:28:09.000Z</time>
      </trkpt>
      <trkpt lat="49.176897" lon="8.677618">
        <ele>902.827959</ele>
        <time>2021-07-11T08:28:14.000Z</time>
      </trkpt>
      <trkpt lat="49.176850" lon="8.677943">
        <ele>902.947422</ele>
        <time>2021-07-11T08:28:19.000Z</time>
      </trkpt>
      <trkpt lat="49.176718" lon="8.678325">
        <ele>903.103674</ele>
        <time>2021-07-11T08:28:24.000Z</time>
      </trkpt>
      <trkpt lat="49.176647" lon="8.678745">
        <ele>903.260993</ele>
        <time>2021-07-11T08:28:29.000Z</time>
      </trkpt>
      <trkpt lat="49.176598" lon="8.679133">
        <ele>903.404300</ele>
        <time>2021-07-11T08:28:34.000Z</time>
      </trkpt>
      <trkpt lat="49.176598" lon="8.679532">
        <ele>903.548994</ele>
        <time>2021-07-11T08:28:39.000Z</time>
      </trkpt>
      <trkpt lat="49.176555" lon="8.679928">
        <ele>903.694568</ele>
        <time>2021-07-11T08:28:44.000Z</time>
      </trkpt>
      <trkpt lat="49.176550" lon="8.680340">
        <ele>903.844003</ele>
        <time>2021-07-11T08:28:49.000Z</time>
      </trkpt>
      <trkpt lat="49.176477" lon="8.680742">
        <ele>903.992329</ele>
        <time>2021-07-11T08:28:54.000Z</time>
      </trkpt>
      <trkpt lat="49.176508" lon="8.681155">
        <ele>904.087127</ele>
        <time>2021-07-11T08:28:59.000Z</time>
      </trkpt>
      <trkpt lat="49.176528" lon="8.681512">
        <ele>904.168834</ele>
        <time>2021-07-11T08:29:04.000Z</time>
      </trkpt>
      <trkpt lat="49.176533" lon="8.681855">
        <ele>904.247070</ele>
        <time>2021-07-11T08:29:09.000Z</time>
      </trkpt>
      <trkpt lat="49.176483" lon="8.682230">
        <ele>904.334344</ele>
        <time>2021-07-11T08:29:14.000Z</time>
      </trkpt>
      <trkpt lat="49.176437" lon="8.682600">
        <ele>904.420230</ele>
        <time>2021-07-11T08:29:19.000Z</time>
      </trkpt>
      <trkpt lat="49.176467" lon="8.682938">
        <ele>904.498013</ele>
        <time>2021-07-11T08:29:24.000Z</time>
      </trkpt>
      <trkpt lat="49.176418" lon="8.683323">
        <ele>904.587456</ele>
        <time>2021-07-11T08:29:29.000Z</time>
      </trkpt>
      <trkpt lat="49.176407" lon="8.683715">
        <ele>904.703725</ele>
        <time>2021-07-11T08:29:34.000Z</time>
      </trkpt>
      <trkpt lat="49.176342" lon="8.684107">
        <ele>904.835654</ele>
        <time>2021-07-11T08:29:39.000Z</time>
      </trkpt>
      <trkpt lat="49.176320" lon="8.684478">
        <ele>904.957181</ele>
        <time>2021-07-11T08:29:44.000Z</time>
      </trkpt>
      <trkpt lat="49.176290" lon="8.684835">
        <ele>905.074601</ele>
        <time>2021-07-11T08:29:49.000Z</time>
      </trkpt>
      <trkpt lat="49.176233" lon="8.685200">
        <ele>905.197024</ele>
        <time>2021-07-11T08:29:54.000Z</time>
      </trkpt>
      <trkpt lat="49.176193" lon="8.685570">
        <ele>905.319367</ele>
        <time>2021-07-11T08:29:59.000Z</time>
      </trkpt>
      <trkpt lat="49.176137" lon="8.685930">
        <ele>905.440087</ele>
        <time>2021-07-11T08:30:04.000Z</time>
      </trkpt>
      <trkpt lat="49.176073" lon="8.686292">
        <ele>905.554388</ele>
        <time>2021-07-11T08:30:09.000Z</time>
      </trkpt>
      <trkpt lat="49.176050" lon="8.686685">
        <ele>905.662492</ele>
        <time>2021-07-11T08:30:14.000Z</time>
      </trkpt>
      <trkpt lat="49.176012" lon="8.687042">
        <ele>905.761591</ele>
        <time>2021-07-11T08:30:19.000Z</time>
      </trkpt>
      <trkpt lat="49.175940" lon="8.687463">
        <ele>905.880818</ele>
        <time>2021-07-11T08:30:24.000Z</time>
      </trkpt>
      <trkpt lat="49.175858" lon="8.687857">
        <ele>905.994105</ele>
        <time>2021-07-11T08:30:29.000Z</time>
      </trkpt>
      <trkpt lat="49.175807" lon="8.688198">
        <ele>906.089946</ele>
        <time>2021-07-11T08:30:34.000Z</time>
      </trkpt>
      <trkpt lat="49.175747" lon="8.688523">
        <ele>906.182472</ele>
        <time>2021-07-11T08:30:39.000Z</time>
      </trkpt>
      <trkpt lat="49.175690" lon="8.688860">
        <ele>906.277533</ele>
        <time>2021-07-11T08:30:44.000Z</time>
      </trkpt>
      <trkpt lat="49.175665" lon="8.689243">
        <ele>906.380211</ele>
        <time>2021-07-11T08:30:49.000Z</time>
      </trkpt>
      <trkpt lat="49.175543" lon="8.689632">
        <ele>906.495305</ele>
        <time>2021-07-11T08:30:54.000Z</time>
      </trkpt>
      <trkpt lat="49.175462" lon="8.690172">
        <ele>906.643100</ele>
        <time>2021-07-11T08:30:59.000Z</time>
      </trkpt>
      <trkpt lat="49.175497" lon="8.690603">
        <ele>906.758958</ele>
        <time>2021-07-11T08:31:04.000Z</time>
      </trkpt>
      <trkpt lat="49.175582" lon="8.691010">
        <ele>906.872936</ele>
        <time>2021-07-11T08:31:09.000Z</time>
      </trkpt>
      <trkpt lat="49.175732" lon="8.691310">
        <ele>906.973688</ele>
        <time>2021-07-11T08:31:14.000Z</time>
      </trkpt>
      <trkpt lat="49.175938" lon="8.691610">
        <ele>907.039752</ele>
        <time>2021-07-11T08:31:19.000Z</time>
      </trkpt>
      <trkpt lat="49.176150" lon="8.691917">
        <ele>907.092514</ele>
        <time>2021-07-11T08:31:24.000Z</time>
      </trkpt>
      <trkpt lat="49.176332" lon="8.692243">
        <ele>907.143166</ele>
        <time>2021-07-11T08:31:29.000Z</time>
      </trkpt>
      <trkpt lat="49.176510" lon="8.692565">
        <ele>907.192990</ele>
        <time>2021-07-11T08:31:34.000Z</time>
      </trkpt>
      <trkpt lat="49.176665" lon="8.692880">
        <ele>907.239573</ele>
        <time>2021-07-11T08:31:39.000Z</time>
      </trkpt>
      <trkpt lat="49.176800" lon="8.693203">
        <ele>907.284869</ele>
        <time>2021-07-11T08:31:44.000Z</time>
      </trkpt>
      <trkpt lat="49.176898" lon="8.693518">
        <ele>907.327171</ele>
        <time>2021-07-11T08:31:49.000Z</time>
      </trkpt>
      <trkpt lat="49.176872" lon="8.693852">
        <ele>907.409681</ele>
        <time>2021-07-11T08:31:54.000Z</time>
      </trkpt>
      <trkpt lat="49.176953" lon="8.694095">
        <ele>907.476592</ele>
        <time>2021-07-11T08:31:59.000Z</time>
      </trkpt>
      <trkpt lat="49.177040" lon="8.694327">
        <ele>907.542201</ele>
        <time>2021-07-11T08:32:04.000Z</time>
      </trkpt>
      <trkpt lat="49.177123" lon="8.694638">
        <ele>907.624603</ele>
        <time>2021-07-11T08:32:09.000Z</time>
      </trkpt>
      <trkpt lat="49.177183" lon="8.694990">
        <ele>907.713836</ele>
        <time>2021-07-11T08:32:14.000Z</time>
      </trkpt>
      <trkpt lat="49.177195" lon="8.695347">
        <ele>907.801525</ele>
        <time>2021-07-11T08:32:19.000Z</time>
      </trkpt>
      <trkpt lat="49.177255" lon="8.695715">
        <ele>907.894561</ele>
        <time>2021-07-11T08:32:24.000Z</time>
      </trkpt>
      <trkpt lat="49.177293" lon="8.696078">
        <ele>907.984740</ele>
        <time>2021-07-11T08:32:29.000Z</time>
      </trkpt>
      <trkpt lat="49.177280" lon="8.696452">
        <ele>908.000000</ele>
        <time>2021-07-11T08:32:34.000Z</time>
      </trkpt>
      <trkpt lat="49.177352" lon="8.696805">
        <ele>908.000000</ele>
        <time>2021-07-11T08:32:39.000Z</time>
      </trkpt>
      <trkpt lat="49.177392" lon="8.697145">
        <ele>908.000000</ele>
        <time>2021-07-11T08:32:44.000Z</time>
      </trkpt>
      <trkpt lat="49.177413" lon="8.697570">
        <ele>908.000000</ele>
        <time>2021-07-11T08:32:49.000Z</time>
      </trkpt>
      <trkpt lat="49.177497" lon="8.697933">
        <ele>908.000000</ele>
        <time>2021-07-11T08:32:54.000Z</time>
      </trkpt>
      <trkpt lat="49.177568" lon="8.698302">
        <ele>908.000000</ele>
        <time>2021-07-11T08:32:59.000Z</time>
      </trkpt>
      <trkpt lat="49.177617" lon="8.698645">
        <ele>908.000000</ele>
        <time>2021-07-11T08:33:04.000Z</time>
      </trkpt>
      <trkpt lat="49.177705" lon="8.698968">
        <ele>908.041748</ele>
        <time>2021-07-11T08:33:09.000Z</time>
      </trkpt>
      <trkpt lat="49.177770" lon="8.699362">
        <ele>908.139740</ele>
        <time>2021-07-11T08:33:14.000Z</time>
      </trkpt>
      <trkpt lat="49.177835" lon="8.699713">
        <ele>908.227714</ele>
        <time>2021-07-11T08:33:19.000Z</time>
      </trkpt>
      <trkpt lat="49.177892" lon="8.700067">
        <ele>908.315632</ele>
        <time>2021-07-11T08:33:24.000Z</time>
      </trkpt>
      <trkpt lat="49.177953" lon="8.700483">
        <ele>908.418443</ele>
        <time>2021-07-11T08:33:29.000Z</time>
      </trkpt>
      <trkpt lat="49.178002" lon="8.700858">
        <ele>908.510662</ele>
        <time>2021-07-11T08:33:34.000Z</time>
      </trkpt>
      <trkpt lat="49.178032" lon="8.701223">
        <ele>908.599374</ele>
        <time>2021-07-11T08:33:39.000Z</time>
      </trkpt>
      <trkpt lat="49.178047" lon="8.701600">
        <ele>908.704071</ele>
        <time>2021-07-11T08:33:44.000Z</time>
      </trkpt>
      <trkpt lat="49.178073" lon="8.701982">
        <ele>908.843473</ele>
        <time>2021-07-11T08:33:49.000Z</time>
      </trkpt>
      <trkpt lat="49.178113" lon="8.702362">
        <ele>908.983177</ele>
        <time>2021-07-11T08:33:54.000Z</time>
      </trkpt>
      <trkpt lat="49.178158" lon="8.702737">
        <ele>909.121563</ele>
        <time>2021-07-11T08:33:59.000Z</time>
      </trkpt>
      <trkpt lat="49.178198" lon="8.703095">
        <ele>909.253389</ele>
        <time>2021-07-11T08:34:04.000Z</time>
      </trkpt>
      <trkpt lat="49.178293" lon="8.703463">
        <ele>909.396999</ele>
        <time>2021-07-11T08:34:09.000Z</time>
      </trkpt>
      <trkpt lat="49.178385" lon="8.703798">
        <ele>909.528886</ele>
        <time>2021-07-11T08:34:14.000Z</time>
      </trkpt>
      <trkpt lat="49.178473" lon="8.703967">
        <ele>909.607309</ele>
        <time>2021-07-11T08:34:19.000Z</time>
      </trkpt>
      <trkpt lat="49.178632" lon="8.703923">
        <ele>909.708856</ele>
        <time>2021-07-11T08:34:24.000Z</time>
      </trkpt>
      <trkpt lat="49.178805" lon="8.703862">
        <ele>909.840906</ele>
        <time>2021-07-11T08:34:29.000Z</time>
      </trkpt>
      <trkpt lat="49.178955" lon="8.703828">
        <ele>909.953693</ele>
        <time>2021-07-11T08:34:34.000Z</time>
      </trkpt>
      <trkpt lat="49.179050" lon="8.703960">
        <ele>910.049150</ele>
        <time>2021-07-11T08:34:39.000Z</time>
      </trkpt>
      <trkpt lat="49.179117" lon="8.704192">
        <ele>910.172470</ele>
        <time>2021-07-11T08:34:44.000Z</time>
      </trkpt>
      <trkpt lat="49.179152" lon="8.704572">
        <ele>910.359056</ele>
        <time>2021-07-11T08:34:49.000Z</time>
      </trkpt>
      <trkpt lat="49.179168" lon="8.705045">
        <ele>910.589343</ele>
        <time>2021-07-11T08:34:54.000Z</time>
      </trkpt>
      <trkpt lat="49.179172" lon="8.705448">
        <ele>910.785310</ele>
        <time>2021-07-11T08:34:59.000Z</time>
      </trkpt>
      <trkpt lat="49.179223" lon="8.705888">
        <ele>911.006282</ele>
        <time>2021-07-11T08:35:04.000Z</time>
      </trkpt>
      <trkpt lat="49.179257" lon="8.706305">
        <ele>911.503591</ele>
        <time>2021-07-11T08:35:09.000Z</time>
      </trkpt>
      <trkpt lat="49.179270" lon="8.706680">
        <ele>911.947995</ele>
        <time>2021-07-11T08:35:14.000Z</time>
      </trkpt>
      <trkpt lat="49.179248" lon="8.706992">
        <ele>912.319363</ele>
        <time>2021-07-11T08:35:19.000Z</time>
      </trkpt>
      <trkpt lat="49.179332" lon="8.707243">
        <ele>912.653064</ele>
        <time>2021-07-11T08:35:24.000Z</time>
      </trkpt>
      <trkpt lat="49.179383" lon="8.707418">
        <ele>912.879810</ele>
        <time>2021-07-11T08:35:29.000Z</time>
      </trkpt>
      <trkpt lat="49.179418" lon="8.707627">
        <ele>913.135131</ele>
        <time>2021-07-11T08:35:34.000Z</time>
      </trkpt>
      <trkpt lat="49.179457" lon="8.707880">
        <ele>913.442746</ele>
        <time>2021-07-11T08:35:39.000Z</time>
      </trkpt>
      <trkpt lat="49.179530" lon="8.708177">
        <ele>913.818244</ele>
        <time>2021-07-11T08:35:44.000Z</time>
      </trkpt>
      <trkpt lat="49.179605" lon="8.708502">
        <ele>914.226114</ele>
        <time>2021-07-11T08:35:49.000Z</time>
      </trkpt>
      <trkpt lat="49.179683" lon="8.708803">
        <ele>914.336839</ele>
        <time>2021-07-11T08:35:54.000Z</time>
      </trkpt>
      <trkpt lat="49.179748" lon="8.709145">
        <ele>914.433120</ele>
        <time>2021-07-11T08:35:59.000Z</time>
      </trkpt>
      <trkpt lat="49.179845" lon="8.709488">
        <ele>914.534149</ele>
        <time>2021-07-11T08:36:04.000Z</time>
      </trkpt>
      <trkpt lat="49.179932" lon="8.709857">
        <ele>914.640191</ele>
        <time>2021-07-11T08:36:09.000Z</time>
      </trkpt>
      <trkpt lat="49.180017" lon="8.710213">
        <ele>914.742647</ele>
        <time>2021-07-11T08:36:14.000Z</time>
      </trkpt>
      <trkpt lat="49.180102" lon="8.710578">
        <ele>914.847392</ele>
        <time>2021-07-11T08:36:19.000Z</time>
      </trkpt>
      <trkpt lat="49.180182" lon="8.710950">
        <ele>914.953257</ele>
        <time>2021-07-11T08:36:24.000Z</time>
      </trkpt>
      <trkpt lat="49.180253" lon="8.711328">
        <ele>915.000000</ele>
        <time>2021-07-11T08:36:29.000Z</time>
      </trkpt>
      <trkpt lat="49.180332" lon="8.711715">
        <ele>915.000000</ele>
        <time>2021-07-11T08:36:34.000Z</time>
      </trkpt>
      <trkpt lat="49.180408" lon="8.712105">
        <ele>915.000000</ele>
        <time>2021-07-11T08:36:39.000Z</time>
      </trkpt>
      <trkpt lat="49.180468" lon="8.712483">
        <ele>915.000000</ele>
        <time>2021-07-11T08:36:44.000Z</time>
      </trkpt>
      <trkpt lat="49.180555" lon="8.712873">
        <ele>915.000000</ele>
        <time>2021-07-11T08:36:49.000Z</time>
      </trkpt>
      <trkpt lat="49.180610" lon="8.713300">
        <ele>915.000000</ele>
        <time>2021-07-11T08:36:54.000Z</time>
      </trkpt>
      <trkpt lat="49.180688" lon="8.713698">
        <ele>915.000000</ele>
        <time>2021-07-11T08:36:59.000Z</time>
      </trkpt>
      <trkpt lat="49.180762" lon="8.714107">
        <ele>915.000000</ele>
        <time>2021-07-11T08:37:04.000Z</time>
      </trkpt>
      <trkpt lat="49.180832" lon="8.714557">
        <ele>915.000000</ele>
        <time>2021-07-11T08:37:09.000Z</time>
      </trkpt>
      <trkpt lat="49.180892" lon="8.714958">
        <ele>915.000000</ele>
        <time>2021-07-11T08:37:14.000Z</time>
      </trkpt>
      <trkpt lat="49.180960" lon="8.715373">
        <ele>915.000000</ele>
        <time>2021-07-11T08:37:19.000Z</time>
      </trkpt>
      <trkpt lat="49.181057" lon="8.715765">
        <ele>915.000000</ele>
        <time>2021-07-11T08:37:24.000Z</time>
      </trkpt>
      <trkpt lat="49.181147" lon="8.716172">
        <ele>915.000000</ele>
        <time>2021-07-11T08:37:29.000Z</time>
      </trkpt>
      <trkpt lat="49.181252" lon="8.716553">
        <ele>915.000000</ele>
        <time>2021-07-11T08:37:34.000Z</time>
      </trkpt>
      <trkpt lat="49.181337" lon="8.716955">
        <ele>915.000000</ele>
        <time>2021-07-11T08:37:39.000Z</time>
      </trkpt>
      <trkpt lat="49.181420" lon="8.717330">
        <ele>915.000000</ele>
        <time>2021-07-11T08:37:44.000Z</time>
      </trkpt>
      <trkpt lat="49.181538" lon="8.717717">
        <ele>915.000000</ele>
        <time>2021-07-11T08:37:49.000Z</time>
      </trkpt>
      <trkpt lat="49.181632" lon="8.718163">
        <ele>915.000000</ele>
        <time>2021-07-11T08:37:54.000Z</time>
      </trkpt>
      <trkpt lat="49.181692" lon="8.718612">
        <ele>915.000000</ele>
        <time>2021-07-11T08:37:59.000Z</time>
      </trkpt>
      <trkpt lat="49.181772" lon="8.718973">
        <ele>915.000000</ele>
        <time>2021-07-11T08:38:04.000Z</time>
      </trkpt>
      <trkpt lat="49.181880" lon="8.719332">
        <ele>915.000000</ele>
        <time>2021-07-11T08:38:09.000Z</time>
      </trkpt>
      <trkpt lat="49.182005" lon="8.719697">
        <ele>915.000000</ele>
        <time>2021-07-11T08:38:14.000Z</time>
      </trkpt>
      <trkpt lat="49.182075" lon="8.720047">
        <ele>915.000000</ele>
        <time>2021-07-11T08:38:19.000Z</time>
      </trkpt>
      <trkpt lat="49.181898" lon="8.720230">
        <ele>915.000000</ele>
        <time>2021-07-11T08:38:24.000Z</time>
      </trkpt>
      <trkpt lat="49.181867" lon="8.720483">
        <ele>915.000000</ele>
        <time>2021-07-11T08:38:29.000Z</time>
      </trkpt>
      <trkpt lat="49.181997" lon="8.720793">
        <ele>915.000000</ele>
        <time>2021-07-11T08:38:34.000Z</time>
      </trkpt>
      <trkpt lat="49.182130" lon="8.721105">
        <ele>915.000000</ele>
        <time>2021-07-11T08:38:39.000Z</time>
      </trkpt>
      <trkpt lat="49.182275" lon="8.721462">
        <ele>915.027098</ele>
        <time>2021-07-11T08:38:44.000Z</time>
      </trkpt>
      <trkpt lat="49.182387" lon="8.721845">
        <ele>915.109083</ele>
        <time>2021-07-11T08:38:49.000Z</time>
      </trkpt>
      <trkpt lat="49.182547" lon="8.722228">
        <ele>915.197898</ele>
        <time>2021-07-11T08:38:54.000Z</time>
      </trkpt>
      <trkpt lat="49.182650" lon="8.722608">
        <ele>915.278279</ele>
        <time>2021-07-11T08:38:59.000Z</time>
      </trkpt>
      <trkpt lat="49.182780" lon="8.722973">
        <ele>915.359499</ele>
        <time>2021-07-11T08:39:04.000Z</time>
      </trkpt>
      <trkpt lat="49.182890" lon="8.723342">
        <ele>915.438744</ele>
        <time>2021-07-11T08:39:09.000Z</time>
      </trkpt>
      <trkpt lat="49.182980" lon="8.723627">
        <ele>915.500590</ele>
        <time>2021-07-11T08:39:14.000Z</time>
      </trkpt>
      <trkpt lat="49.183045" lon="8.723977">
        <ele>915.741013</ele>
        <time>2021-07-11T08:39:19.000Z</time>
      </trkpt>
      <trkpt lat="49.183020" lon="8.724287">
        <ele>916.105859</ele>
        <time>2021-07-11T08:39:24.000Z</time>
      </trkpt>
      <trkpt lat="49.182920" lon="8.724552">
        <ele>916.463276</ele>
        <time>2021-07-11T08:39:29.000Z</time>
      </trkpt>
      <trkpt lat="49.182725" lon="8.724717">
        <ele>916.861489</ele>
        <time>2021-07-11T08:39:34.000Z</time>
      </trkpt>
      <trkpt lat="49.182672" lon="8.725013">
        <ele>917.219976</ele>
        <time>2021-07-11T08:39:39.000Z</time>
      </trkpt>
      <trkpt lat="49.182655" lon="8.725278">
        <ele>917.531002</ele>
        <time>2021-07-11T08:39:44.000Z</time>
      </trkpt>
      <trkpt lat="49.182693" lon="8.725568">
        <ele>917.876483</ele>
        <time>2021-07-11T08:39:49.000Z</time>
      </trkpt>
      <trkpt lat="49.182737" lon="8.725927">
        <ele>918.303129</ele>
        <time>2021-07-11T08:39:54.000Z</time>
      </trkpt>
      <trkpt lat="49.182812" lon="8.726388">
        <ele>918.760046</ele>
        <time>2021-07-11T08:39:59.000Z</time>
      </trkpt>
      <trkpt lat="49.182872" lon="8.726925">
        <ele>918.809176</ele>
        <time>2021-07-11T08:40:04.000Z</time>
      </trkpt>
      <trkpt lat="49.182930" lon="8.727370">
        <ele>918.850096</ele>
        <time>2021-07-11T08:40:09.000Z</time>
      </trkpt>
      <trkpt lat="49.182982" lon="8.727788">
        <ele>918.888469</ele>
        <time>2021-07-11T08:40:14.000Z</time>
      </trkpt>
      <trkpt lat="49.183017" lon="8.728202">
        <ele>918.926115</ele>
        <time>2021-07-11T08:40:19.000Z</time>
      </trkpt>
      <trkpt lat="49.183032" lon="8.728603">
        <ele>918.962337</ele>
        <time>2021-07-11T08:40:24.000Z</time>
      </trkpt>
      <trkpt lat="49.183028" lon="8.729018">
        <ele>918.999766</ele>
        <time>2021-07-11T08:40:29.000Z</time>
      </trkpt>
      <trkpt lat="49.183017" lon="8.729448">
        <ele>919.000000</ele>
        <time>2021-07-11T08:40:34.000Z</time>
      </trkpt>
      <trkpt lat="49.183012" lon="8.729875">
        <ele>919.000000</ele>
        <time>2021-07-11T08:40:39.000Z</time>
      </trkpt>
      <trkpt lat="49.183032" lon="8.730290">
        <ele>919.000000</ele>
        <time>2021-07-11T08:40:44.000Z</time>
      </trkpt>
      <trkpt lat="49.183055" lon="8.730685">
        <ele>919.000000</ele>
        <time>2021-07-11T08:40:49.000Z</time>
      </trkpt>
      <trkpt lat="49.183030" lon="8.731087">
        <ele>919.000000</ele>
        <time>2021-07-11T08:40:54.000Z</time>
      </trkpt>
      <trkpt lat="49.182980" lon="8.731447">
        <ele>919.000000</ele>
        <time>2021-07-11T08:40:59.000Z</time>
      </trkpt>
      <trkpt lat="49.182887" lon="8.731832">
        <ele>919.011930</ele>
        <time>2021-07-11T08:41:04.000Z</time>
      </trkpt>
      <trkpt lat="49.182700" lon="8.732187">
        <ele>919.067385</ele>
        <time>2021-07-11T08:41:09.000Z</time>
      </trkpt>
      <trkpt lat="49.182485" lon="8.732428">
        <ele>919.116982</ele>
        <time>2021-07-11T08:41:14.000Z</time>
      </trkpt>
      <trkpt lat="49.182250" lon="8.732695">
        <ele>919.171451</ele>
        <time>2021-07-11T08:41:19.000Z</time>
      </trkpt>
      <trkpt lat="49.182048" lon="8.732957">
        <ele>919.220730</ele>
        <time>2021-07-11T08:41:24.000Z</time>
      </trkpt>
      <trkpt lat="49.181838" lon="8.733257">
        <ele>919.274195</ele>
        <time>2021-07-11T08:41:29.000Z</time>
      </trkpt>
      <trkpt lat="49.181632" lon="8.733550">
        <ele>919.326536</ele>
        <time>2021-07-11T08:41:34.000Z</time>
      </trkpt>
      <trkpt lat="49.181487" lon="8.733787">
        <ele>919.485346</ele>
        <time>2021-07-11T08:41:39.000Z</time>
      </trkpt>
      <trkpt lat="49.181302" lon="8.734062">
        <ele>919.716176</ele>
        <time>2021-07-11T08:41:44.000Z</time>
      </trkpt>
      <trkpt lat="49.181100" lon="8.734295">
        <ele>919.942561</ele>
        <time>2021-07-11T08:41:49.000Z</time>
      </trkpt>
      <trkpt lat="49.180962" lon="8.734565">
        <ele>920.143045</ele>
        <time>2021-07-11T08:41:54.000Z</time>
      </trkpt>
      <trkpt lat="49.180902" lon="8.734845">
        <ele>920.315406</ele>
        <time>2021-07-11T08:41:59.000Z</time>
      </trkpt>
      <trkpt lat="49.180907" lon="8.735270">
        <ele>920.564048</ele>
        <time>2021-07-11T08:42:04.000Z</time>
      </trkpt>
      <trkpt lat="49.180883" lon="8.735672">
        <ele>920.800176</ele>
        <time>2021-07-11T08:42:09.000Z</time>
      </trkpt>
      <trkpt lat="49.180838" lon="8.736047">
        <ele>920.946966</ele>
        <time>2021-07-11T08:42:14.000Z</time>
      </trkpt>
      <trkpt lat="49.180772" lon="8.736420">
        <ele>920.954798</ele>
        <time>2021-07-11T08:42:19.000Z</time>
      </trkpt>
      <trkpt lat="49.180685" lon="8.736785">
        <ele>920.962673</ele>
        <time>2021-07-11T08:42:24.000Z</time>
      </trkpt>
      <trkpt lat="49.180610" lon="8.737143">
        <ele>920.970292</ele>
        <time>2021-07-11T08:42:29.000Z</time>
      </trkpt>
      <trkpt lat="49.180537" lon="8.737502">
        <ele>920.977913</ele>
        <time>2021-07-11T08:42:34.000Z</time>
      </trkpt>
      <trkpt lat="49.180450" lon="8.737860">
        <ele>920.985654</ele>
        <time>2021-07-11T08:42:39.000Z</time>
      </trkpt>
      <trkpt lat="49.180342" lon="8.738257">
        <ele>920.994370</ele>
        <time>2021-07-11T08:42:44.000Z</time>
      </trkpt>
      <trkpt lat="49.180218" lon="8.738592">
        <ele>921.036143</ele>
        <time>2021-07-11T08:42:49.000Z</time>
      </trkpt>
      <trkpt lat="49.179977" lon="8.738977">
        <ele>921.215894</ele>
        <time>2021-07-11T08:42:54.000Z</time>
      </trkpt>
      <trkpt lat="49.179828" lon="8.739265">
        <ele>921.339747</ele>
        <time>2021-07-11T08:42:59.000Z</time>
      </trkpt>
      <trkpt lat="49.179707" lon="8.739617">
        <ele>921.473857</ele>
        <time>2021-07-11T08:43:04.000Z</time>
      </trkpt>
      <trkpt lat="49.179605" lon="8.739917">
        <ele>921.587886</ele>
        <time>2021-07-11T08:43:09.000Z</time>
      </trkpt>
      <trkpt lat="49.179580" lon="8.740305">
        <ele>921.719358</ele>
        <time>2021-07-11T08:43:14.000Z</time>
      </trkpt>
      <trkpt lat="49.179577" lon="8.740690">
        <ele>921.849193</ele>
        <time>2021-07-11T08:43:19.000Z</time>
      </trkpt>
      <trkpt lat="49.179647" lon="8.741132">
        <ele>921.949491</ele>
        <time>2021-07-11T08:43:24.000Z</time>
      </trkpt>
      <trkpt lat="49.179765" lon="8.741572">
        <ele>921.995956</ele>
        <time>2021-07-11T08:43:29.000Z</time>
      </trkpt>
      <trkpt lat="49.179828" lon="8.741977">
        <ele>922.036630</ele>
        <time>2021-07-11T08:43:34.000Z</time>
      </trkpt>
      <trkpt lat="49.179763" lon="8.742327">
        <ele>922.072179</ele>
        <time>2021-07-11T08:43:39.000Z</time>
      </trkpt>
      <trkpt lat="49.179683" lon="8.742623">
        <ele>922.103473</ele>
        <time>2021-07-11T08:43:44.000Z</time>
      </trkpt>
      <trkpt lat="49.179492" lon="8.742907">
        <ele>922.143283</ele>
        <time>2021-07-11T08:43:49.000Z</time>
      </trkpt>
      <trkpt lat="49.179310" lon="8.743205">
        <ele>922.183128</ele>
        <time>2021-07-11T08:43:54.000Z</time>
      </trkpt>
      <trkpt lat="49.179098" lon="8.743473">
        <ele>922.377479</ele>
        <time>2021-07-11T08:43:59.000Z</time>
      </trkpt>
      <trkpt lat="49.178913" lon="8.743717">
        <ele>922.616993</ele>
        <time>2021-07-11T08:44:04.000Z</time>
      </trkpt>
      <trkpt lat="49.178735" lon="8.743957">
        <ele>922.849649</ele>
        <time>2021-07-11T08:44:09.000Z</time>
      </trkpt>
      <trkpt lat="49.178605" lon="8.744205">
        <ele>923.053410</ele>
        <time>2021-07-11T08:44:14.000Z</time>
      </trkpt>
      <trkpt lat="49.178548" lon="8.744483">
        <ele>923.240164</ele>
        <time>2021-07-11T08:44:19.000Z</time>
      </trkpt>
      <trkpt lat="49.178520" lon="8.744853">
        <ele>923.478913</ele>
        <time>2021-07-11T08:44:24.000Z</time>
      </trkpt>
      <trkpt lat="49.178510" lon="8.745270">
        <ele>923.746384</ele>
        <time>2021-07-11T08:44:29.000Z</time>
      </trkpt>
      <trkpt lat="49.178492" lon="8.745670">
        <ele>923.922726</ele>
        <time>2021-07-11T08:44:34.000Z</time>
      </trkpt>
      <trkpt lat="49.178490" lon="8.746088">
        <ele>923.688776</ele>
        <time>2021-07-11T08:44:39.000Z</time>
      </trkpt>
      <trkpt lat="49.178447" lon="8.746485">
        <ele>923.463556</ele>
        <time>2021-07-11T08:44:44.000Z</time>
      </trkpt>
      <trkpt lat="49.178392" lon="8.746913">
        <ele>923.219431</ele>
        <time>2021-07-11T08:44:49.000Z</time>
      </trkpt>
      <trkpt lat="49.178383" lon="8.747157">
        <ele>923.082653</ele>
        <time>2021-07-11T08:44:54.000Z</time>
      </trkpt>
      <trkpt lat="49.178413" lon="8.747210">
        <ele>923.043415</ele>
        <time>2021-07-11T08:44:58.000Z</time>
      </trkpt>
      <trkpt lat="49.178422" lon="8.747188">
        <ele>923.028890</ele>
        <time>2021-07-11T08:44:59.000Z</time>
      </trkpt>
      <trkpt lat="49.178463" lon="8.747070">
        <ele>922.954099</ele>
        <time>2021-07-11T08:45:04.000Z</time>
      </trkpt>
      <trkpt lat="49.178667" lon="8.747055">
        <ele>922.779241</ele>
        <time>2021-07-11T08:45:09.000Z</time>
      </trkpt>
      <trkpt lat="49.178828" lon="8.747065">
        <ele>922.641286</ele>
        <time>2021-07-11T08:45:14.000Z</time>
      </trkpt>
      <trkpt lat="49.178908" lon="8.747050">
        <ele>922.572281</ele>
        <time>2021-07-11T08:45:20.000Z</time>
      </trkpt>
      <trkpt lat="49.178892" lon="8.747077">
        <ele>922.551885</ele>
        <time>2021-07-11T08:45:21.000Z</time>
      </trkpt>
      <trkpt lat="49.178900" lon="8.747063">
        <ele>922.541478</ele>
        <time>2021-07-11T08:45:22.000Z</time>
      </trkpt>
      <trkpt lat="49.178890" lon="8.747222">
        <ele>922.452080</ele>
        <time>2021-07-11T08:45:26.000Z</time>
      </trkpt>
      <trkpt lat="49.178833" lon="8.747433">
        <ele>922.429120</ele>
        <time>2021-07-11T08:45:31.000Z</time>
      </trkpt>
      <trkpt lat="49.178808" lon="8.747618">
        <ele>922.438711</ele>
        <time>2021-07-11T08:45:36.000Z</time>
      </trkpt>
      <trkpt lat="49.178720" lon="8.748028">
        <ele>922.460619</ele>
        <time>2021-07-11T08:45:41.000Z</time>
      </trkpt>
      <trkpt lat="49.178642" lon="8.748327">
        <ele>922.476964</ele>
        <time>2021-07-11T08:45:46.000Z</time>
      </trkpt>
      <trkpt lat="49.178582" lon="8.748637">
        <ele>922.493378</ele>
        <time>2021-07-11T08:45:51.000Z</time>
      </trkpt>
      <trkpt lat="49.178507" lon="8.748928">
        <ele>922.509258</ele>
        <time>2021-07-11T08:45:56.000Z</time>
      </trkpt>
      <trkpt lat="49.178453" lon="8.749125">
        <ele>922.520104</ele>
        <time>2021-07-11T08:46:01.000Z</time>
      </trkpt>
      <trkpt lat="49.178403" lon="8.749317">
        <ele>922.530596</ele>
        <time>2021-07-11T08:46:06.000Z</time>
      </trkpt>
      <trkpt lat="49.178328" lon="8.749563">
        <ele>922.544377</ele>
        <time>2021-07-11T08:46:11.000Z</time>
      </trkpt>
      <trkpt lat="49.178260" lon="8.749832">
        <ele>922.559020</ele>
        <time>2021-07-11T08:46:16.000Z</time>
      </trkpt>
      <trkpt lat="49.178162" lon="8.750110">
        <ele>922.607212</ele>
        <time>2021-07-11T08:46:21.000Z</time>
      </trkpt>
      <trkpt lat="49.178058" lon="8.750430">
        <ele>922.664348</ele>
        <time>2021-07-11T08:46:26.000Z</time>
      </trkpt>
      <trkpt lat="49.177945" lon="8.750757">
        <ele>922.723485</ele>
        <time>2021-07-11T08:46:31.000Z</time>
      </trkpt>
      <trkpt lat="49.177893" lon="8.751040">
        <ele>922.770486</ele>
        <time>2021-07-11T08:46:36.000Z</time>
      </trkpt>
      <trkpt lat="49.177798" lon="8.751300">
        <ele>922.818108</ele>
        <time>2021-07-11T08:46:41.000Z</time>
      </trkpt>
      <trkpt lat="49.177747" lon="8.751530">
        <ele>922.856939</ele>
        <time>2021-07-11T08:46:46.000Z</time>
      </trkpt>
      <trkpt lat="49.177738" lon="8.751565">
        <ele>922.862952</ele>
        <time>2021-07-11T08:46:51.000Z</time>
      </trkpt>
      <trkpt lat="49.177687" lon="8.751665">
        <ele>922.883231</ele>
        <time>2021-07-11T08:46:56.000Z</time>
      </trkpt>
      <trkpt lat="49.177615" lon="8.751785">
        <ele>922.909273</ele>
        <time>2021-07-11T08:47:01.000Z</time>
      </trkpt>
      <trkpt lat="49.177567" lon="8.752067">
        <ele>922.955864</ele>
        <time>2021-07-11T08:47:06.000Z</time>
      </trkpt>
      <trkpt lat="49.177492" lon="8.752375">
        <ele>923.013379</ele>
        <time>2021-07-11T08:47:11.000Z</time>
      </trkpt>
      <trkpt lat="49.177405" lon="8.752662">
        <ele>923.093812</ele>
        <time>2021-07-11T08:47:16.000Z</time>
      </trkpt>
      <trkpt lat="49.177280" lon="8.753005">
        <ele>923.193655</ele>
        <time>2021-07-11T08:47:21.000Z</time>
      </trkpt>
      <trkpt lat="49.177130" lon="8.753420">
        <ele>923.314224</ele>
        <time>2021-07-11T08:47:26.000Z</time>
      </trkpt>
      <trkpt lat="49.177040" lon="8.753790">
        <ele>923.414598</ele>
        <time>2021-07-11T08:47:31.000Z</time>
      </trkpt>
      <trkpt lat="49.176935" lon="8.754132">
        <ele>923.510664</ele>
        <time>2021-07-11T08:47:36.000Z</time>
      </trkpt>
      <trkpt lat="49.176803" lon="8.754463">
        <ele>923.609244</ele>
        <time>2021-07-11T08:47:41.000Z</time>
      </trkpt>
      <trkpt lat="49.176653" lon="8.754768">
        <ele>923.703851</ele>
        <time>2021-07-11T08:47:46.000Z</time>
      </trkpt>
      <trkpt lat="49.176518" lon="8.755082">
        <ele>923.764914</ele>
        <time>2021-07-11T08:47:51.000Z</time>
      </trkpt>
      <trkpt lat="49.176403" lon="8.755373">
        <ele>923.820163</ele>
        <time>2021-07-11T08:47:56.000Z</time>
      </trkpt>
      <trkpt lat="49.176318" lon="8.755640">
        <ele>923.868415</ele>
        <time>2021-07-11T08:48:01.000Z</time>
      </trkpt>
      <trkpt lat="49.176280" lon="8.755792">
        <ele>923.894856</ele>
        <time>2021-07-11T08:48:06.000Z</time>
      </trkpt>
      <trkpt lat="49.176213" lon="8.755938">
        <ele>923.923839</ele>
        <time>2021-07-11T08:48:11.000Z</time>
      </trkpt>
      <trkpt lat="49.176107" lon="8.756177">
        <ele>923.970764</ele>
        <time>2021-07-11T08:48:16.000Z</time>
      </trkpt>
      <trkpt lat="49.175970" lon="8.756393">
        <ele>924.019663</ele>
        <time>2021-07-11T08:48:21.000Z</time>
      </trkpt>
      <trkpt lat="49.175865" lon="8.756697">
        <ele>924.075527</ele>
        <time>2021-07-11T08:48:26.000Z</time>
      </trkpt>
      <trkpt lat="49.175675" lon="8.757022">
        <ele>924.146368</ele>
        <time>2021-07-11T08:48:31.000Z</time>
      </trkpt>
      <trkpt lat="49.175528" lon="8.757327">
        <ele>924.332795</ele>
        <time>2021-07-11T08:48:36.000Z</time>
      </trkpt>
      <trkpt lat="49.175357" lon="8.757615">
        <ele>924.524637</ele>
        <time>2021-07-11T08:48:41.000Z</time>
      </trkpt>
      <trkpt lat="49.175153" lon="8.757883">
        <ele>924.727467</ele>
        <time>2021-07-11T08:48:46.000Z</time>
      </trkpt>
      <trkpt lat="49.174983" lon="8.758170">
        <ele>924.918437</ele>
        <time>2021-07-11T08:48:51.000Z</time>
      </trkpt>
      <trkpt lat="49.174808" lon="8.758422">
        <ele>925.099722</ele>
        <time>2021-07-11T08:48:56.000Z</time>
      </trkpt>
      <trkpt lat="49.174630" lon="8.758712">
        <ele>925.295872</ele>
        <time>2021-07-11T08:49:01.000Z</time>
      </trkpt>
      <trkpt lat="49.174485" lon="8.758918">
        <ele>925.445137</ele>
        <time>2021-07-11T08:49:06.000Z</time>
      </trkpt>
      <trkpt lat="49.174377" lon="8.759060">
        <ele>925.553454</ele>
        <time>2021-07-11T08:49:11.000Z</time>
      </trkpt>
      <trkpt lat="49.174302" lon="8.759185">
        <ele>925.638639</ele>
        <time>2021-07-11T08:49:16.000Z</time>
      </trkpt>
      <trkpt lat="49.174220" lon="8.759372">
        <ele>925.751692</ele>
        <time>2021-07-11T08:49:21.000Z</time>
      </trkpt>
      <trkpt lat="49.174055" lon="8.759628">
        <ele>925.932186</ele>
        <time>2021-07-11T08:49:26.000Z</time>
      </trkpt>
      <trkpt lat="49.173895" lon="8.759897">
        <ele>926.114779</ele>
        <time>2021-07-11T08:49:31.000Z</time>
      </trkpt>
      <trkpt lat="49.173730" lon="8.760165">
        <ele>926.299613</ele>
        <time>2021-07-11T08:49:36.000Z</time>
      </trkpt>
      <trkpt lat="49.173567" lon="8.760432">
        <ele>926.483030</ele>
        <time>2021-07-11T08:49:41.000Z</time>
      </trkpt>
      <trkpt lat="49.173452" lon="8.760578">
        <ele>926.597807</ele>
        <time>2021-07-11T08:49:46.000Z</time>
      </trkpt>
      <trkpt lat="49.173355" lon="8.760797">
        <ele>926.730623</ele>
        <time>2021-07-11T08:49:51.000Z</time>
      </trkpt>
      <trkpt lat="49.173293" lon="8.761008">
        <ele>926.846773</ele>
        <time>2021-07-11T08:49:56.000Z</time>
      </trkpt>
      <trkpt lat="49.173265" lon="8.761160">
        <ele>926.942170</ele>
        <time>2021-07-11T08:49:59.000Z</time>
      </trkpt>
      <trkpt lat="49.173273" lon="8.761210">
        <ele>926.978048</ele>
        <time>2021-07-11T08:50:01.000Z</time>
      </trkpt>
      <trkpt lat="49.173263" lon="8.761337">
        <ele>927.067208</ele>
        <time>2021-07-11T08:50:06.000Z</time>
      </trkpt>
      <trkpt lat="49.173243" lon="8.761560">
        <ele>927.224095</ele>
        <time>2021-07-11T08:50:11.000Z</time>
      </trkpt>
      <trkpt lat="49.173227" lon="8.761733">
        <ele>927.345877</ele>
        <time>2021-07-11T08:50:16.000Z</time>
      </trkpt>
      <trkpt lat="49.173210" lon="8.761767">
        <ele>927.375711</ele>
        <time>2021-07-11T08:50:21.000Z</time>
      </trkpt>
      <trkpt lat="49.173237" lon="8.761862">
        <ele>927.447913</ele>
        <time>2021-07-11T08:50:24.000Z</time>
      </trkpt>
      <trkpt lat="49.173242" lon="8.761950">
        <ele>927.509481</ele>
        <time>2021-07-11T08:50:26.000Z</time>
      </trkpt>
      <trkpt lat="49.173233" lon="8.762088">
        <ele>927.606144</ele>
        <time>2021-07-11T08:50:31.000Z</time>
      </trkpt>
      <trkpt lat="49.173207" lon="8.762305">
        <ele>927.759913</ele>
        <time>2021-07-11T08:50:36.000Z</time>
      </trkpt>
      <trkpt lat="49.173133" lon="8.762603">
        <ele>927.982099</ele>
        <time>2021-07-11T08:50:41.000Z</time>
      </trkpt>
      <trkpt lat="49.173062" lon="8.762940">
        <ele>928.228885</ele>
        <time>2021-07-11T08:50:46.000Z</time>
      </trkpt>
      <trkpt lat="49.173012" lon="8.763160">
        <ele>928.391228</ele>
        <time>2021-07-11T08:50:51.000Z</time>
      </trkpt>
      <trkpt lat="49.173018" lon="8.763237">
        <ele>928.445277</ele>
        <time>2021-07-11T08:50:53.000Z</time>
      </trkpt>
      <trkpt lat="49.172983" lon="8.763297">
        <ele>928.501324</ele>
        <time>2021-07-11T08:50:56.000Z</time>
      </trkpt>
      <trkpt lat="49.172953" lon="8.763497">
        <ele>928.644348</ele>
        <time>2021-07-11T08:51:01.000Z</time>
      </trkpt>
      <trkpt lat="49.172885" lon="8.763768">
        <ele>928.841316</ele>
        <time>2021-07-11T08:51:06.000Z</time>
      </trkpt>
      <trkpt lat="49.172828" lon="8.764083">
        <ele>929.041732</ele>
        <time>2021-07-11T08:51:11.000Z</time>
      </trkpt>
      <trkpt lat="49.172810" lon="8.764400">
        <ele>929.236844</ele>
        <time>2021-07-11T08:51:16.000Z</time>
      </trkpt>
      <trkpt lat="49.172723" lon="8.764718">
        <ele>929.448222</ele>
        <time>2021-07-11T08:51:21.000Z</time>
      </trkpt>
      <trkpt lat="49.172592" lon="8.765080">
        <ele>929.701932</ele>
        <time>2021-07-11T08:51:26.000Z</time>
      </trkpt>
      <trkpt lat="49.172513" lon="8.765405">
        <ele>929.914547</ele>
        <time>2021-07-11T08:51:31.000Z</time>
      </trkpt>
      <trkpt lat="49.172427" lon="8.765758">
        <ele>930.145544</ele>
        <time>2021-07-11T08:51:36.000Z</time>
      </trkpt>
      <trkpt lat="49.172295" lon="8.766115">
        <ele>930.397037</ele>
        <time>2021-07-11T08:51:41.000Z</time>
      </trkpt>
      <trkpt lat="49.172187" lon="8.766412">
        <ele>930.599067</ele>
        <time>2021-07-11T08:51:46.000Z</time>
      </trkpt>
      <trkpt lat="49.172065" lon="8.766710">
        <ele>930.802875</ele>
        <time>2021-07-11T08:51:51.000Z</time>
      </trkpt>
      <trkpt lat="49.171937" lon="8.766817">
        <ele>930.932204</ele>
        <time>2021-07-11T08:51:56.000Z</time>
      </trkpt>
      <trkpt lat="49.171780" lon="8.766697">
        <ele>931.087813</ele>
        <time>2021-07-11T08:52:01.000Z</time>
      </trkpt>
      <trkpt lat="49.171547" lon="8.766477">
        <ele>931.330583</ele>
        <time>2021-07-11T08:52:06.000Z</time>
      </trkpt>
      <trkpt lat="49.171315" lon="8.766253">
        <ele>931.573830</ele>
        <time>2021-07-11T08:52:11.000Z</time>
      </trkpt>
      <trkpt lat="49.171293" lon="8.766217">
        <ele>931.602394</ele>
        <time>2021-07-11T08:52:12.000Z</time>
      </trkpt>
      <trkpt lat="49.171183" lon="8.766258">
        <ele>931.702775</ele>
        <time>2021-07-11T08:52:16.000Z</time>
      </trkpt>
      <trkpt lat="49.171057" lon="8.766263">
        <ele>931.814524</ele>
        <time>2021-07-11T08:52:21.000Z</time>
      </trkpt>
      <trkpt lat="49.170923" lon="8.766482">
        <ele>931.988393</ele>
        <time>2021-07-11T08:52:26.000Z</time>
      </trkpt>
      <trkpt lat="49.170853" lon="8.766698">
        <ele>932.173024</ele>
        <time>2021-07-11T08:52:31.000Z</time>
      </trkpt>
      <trkpt lat="49.170775" lon="8.767018">
        <ele>932.571383</ele>
        <time>2021-07-11T08:52:36.000Z</time>
      </trkpt>
      <trkpt lat="49.170678" lon="8.767335">
        <ele>932.979640</ele>
        <time>2021-07-11T08:52:41.000Z</time>
      </trkpt>
      <trkpt lat="49.170560" lon="8.767632">
        <ele>933.385025</ele>
        <time>2021-07-11T08:52:46.000Z</time>
      </trkpt>
      <trkpt lat="49.170418" lon="8.767897">
        <ele>933.784688</ele>
        <time>2021-07-11T08:52:51.000Z</time>
      </trkpt>
      <trkpt lat="49.170290" lon="8.768140">
        <ele>934.148683</ele>
        <time>2021-07-11T08:52:56.000Z</time>
      </trkpt>
      <trkpt lat="49.170163" lon="8.768360">
        <ele>934.491017</ele>
        <time>2021-07-11T08:53:01.000Z</time>
      </trkpt>
      <trkpt lat="49.170027" lon="8.768582">
        <ele>934.845882</ele>
        <time>2021-07-11T08:53:06.000Z</time>
      </trkpt>
      <trkpt lat="49.169893" lon="8.768792">
        <ele>935.188165</ele>
        <time>2021-07-11T08:53:11.000Z</time>
      </trkpt>
      <trkpt lat="49.169735" lon="8.769077">
        <ele>935.527046</ele>
        <time>2021-07-11T08:53:16.000Z</time>
      </trkpt>
      <trkpt lat="49.169563" lon="8.769352">
        <ele>935.841016</ele>
        <time>2021-07-11T08:53:21.000Z</time>
      </trkpt>
      <trkpt lat="49.169402" lon="8.769752">
        <ele>936.228540</ele>
        <time>2021-07-11T08:53:26.000Z</time>
      </trkpt>
      <trkpt lat="49.169223" lon="8.770077">
        <ele>936.579124</ele>
        <time>2021-07-11T08:53:31.000Z</time>
      </trkpt>
      <trkpt lat="49.169035" lon="8.770413">
        <ele>936.943977</ele>
        <time>2021-07-11T08:53:36.000Z</time>
      </trkpt>
      <trkpt lat="49.168917" lon="8.770727">
        <ele>937.242774</ele>
        <time>2021-07-11T08:53:41.000Z</time>
      </trkpt>
      <trkpt lat="49.168828" lon="8.771052">
        <ele>937.533474</ele>
        <time>2021-07-11T08:53:46.000Z</time>
      </trkpt>
      <trkpt lat="49.168748" lon="8.771293">
        <ele>937.599745</ele>
        <time>2021-07-11T08:53:51.000Z</time>
      </trkpt>
      <trkpt lat="49.168677" lon="8.771590">
        <ele>937.650060</ele>
        <time>2021-07-11T08:53:56.000Z</time>
      </trkpt>
      <trkpt lat="49.168608" lon="8.771917">
        <ele>937.704732</ele>
        <time>2021-07-11T08:54:01.000Z</time>
      </trkpt>
      <trkpt lat="49.168532" lon="8.772282">
        <ele>937.765681</ele>
        <time>2021-07-11T08:54:06.000Z</time>
      </trkpt>
      <trkpt lat="49.168493" lon="8.772717">
        <ele>937.835542</ele>
        <time>2021-07-11T08:54:11.000Z</time>
      </trkpt>
      <trkpt lat="49.168465" lon="8.773157">
        <ele>937.905882</ele>
        <time>2021-07-11T08:54:16.000Z</time>
      </trkpt>
      <trkpt lat="49.168425" lon="8.773587">
        <ele>937.974989</ele>
        <time>2021-07-11T08:54:21.000Z</time>
      </trkpt>
      <trkpt lat="49.168368" lon="8.774025">
        <ele>937.850622</ele>
        <time>2021-07-11T08:54:26.000Z</time>
      </trkpt>
      <trkpt lat="49.168442" lon="8.774532">
        <ele>937.582487</ele>
        <time>2021-07-11T08:54:31.000Z</time>
      </trkpt>
      <trkpt lat="49.168688" lon="8.774752">
        <ele>937.357523</ele>
        <time>2021-07-11T08:54:36.000Z</time>
      </trkpt>
      <trkpt lat="49.168997" lon="8.774737">
        <ele>937.113465</ele>
        <time>2021-07-11T08:54:41.000Z</time>
      </trkpt>
      <trkpt lat="49.169307" lon="8.774702">
        <ele>936.868075</ele>
        <time>2021-07-11T08:54:46.000Z</time>
      </trkpt>
      <trkpt lat="49.169563" lon="8.774767">
        <ele>936.663214</ele>
        <time>2021-07-11T08:54:51.000Z</time>
      </trkpt>
      <trkpt lat="49.169548" lon="8.774718">
        <ele>936.635288</ele>
        <time>2021-07-11T08:54:56.000Z</time>
      </trkpt>
      <trkpt lat="49.169505" lon="8.774752">
        <ele>936.597074</ele>
        <time>2021-07-11T08:55:01.000Z</time>
      </trkpt>
      <trkpt lat="49.169445" lon="8.775023">
        <ele>936.526696</ele>
        <time>2021-07-11T08:55:06.000Z</time>
      </trkpt>
      <trkpt lat="49.169383" lon="8.775355">
        <ele>936.453888</ele>
        <time>2021-07-11T08:55:11.000Z</time>
      </trkpt>
      <trkpt lat="49.169293" lon="8.775755">
        <ele>936.364686</ele>
        <time>2021-07-11T08:55:16.000Z</time>
      </trkpt>
      <trkpt lat="49.169228" lon="8.776108">
        <ele>936.287353</ele>
        <time>2021-07-11T08:55:21.000Z</time>
      </trkpt>
      <trkpt lat="49.169192" lon="8.776475">
        <ele>936.209098</ele>
        <time>2021-07-11T08:55:26.000Z</time>
      </trkpt>
      <trkpt lat="49.169158" lon="8.776903">
        <ele>936.118182</ele>
        <time>2021-07-11T08:55:31.000Z</time>
      </trkpt>
      <trkpt lat="49.169125" lon="8.777343">
        <ele>936.024791</ele>
        <time>2021-07-11T08:55:36.000Z</time>
      </trkpt>
      <trkpt lat="49.169127" lon="8.777732">
        <ele>936.030151</ele>
        <time>2021-07-11T08:55:41.000Z</time>
      </trkpt>
      <trkpt lat="49.169175" lon="8.778165">
        <ele>936.078934</ele>
        <time>2021-07-11T08:55:46.000Z</time>
      </trkpt>
      <trkpt lat="49.169273" lon="8.778590">
        <ele>936.128991</ele>
        <time>2021-07-11T08:55:51.000Z</time>
      </trkpt>
      <trkpt lat="49.169393" lon="8.778918">
        <ele>936.170740</ele>
        <time>2021-07-11T08:55:56.000Z</time>
      </trkpt>
      <trkpt lat="49.169555" lon="8.779213">
        <ele>936.213532</ele>
        <time>2021-07-11T08:56:01.000Z</time>
      </trkpt>
      <trkpt lat="49.169805" lon="8.779465">
        <ele>936.264398</ele>
        <time>2021-07-11T08:56:06.000Z</time>
      </trkpt>
      <trkpt lat="49.170003" lon="8.779653">
        <ele>936.303990</ele>
        <time>2021-07-11T08:56:11.000Z</time>
      </trkpt>
      <trkpt lat="49.170207" lon="8.779825">
        <ele>936.472684</ele>
        <time>2021-07-11T08:56:16.000Z</time>
      </trkpt>
      <trkpt lat="49.170447" lon="8.779943">
        <ele>936.661041</ele>
        <time>2021-07-11T08:56:21.000Z</time>
      </trkpt>
      <trkpt lat="49.170630" lon="8.779915">
        <ele>936.798455</ele>
        <time>2021-07-11T08:56:26.000Z</time>
      </trkpt>
      <trkpt lat="49.170895" lon="8.779985">
        <ele>936.999385</ele>
        <time>2021-07-11T08:56:31.000Z</time>
      </trkpt>
      <trkpt lat="49.171133" lon="8.780055">
        <ele>937.180468</ele>
        <time>2021-07-11T08:56:36.000Z</time>
      </trkpt>
      <trkpt lat="49.171360" lon="8.780170">
        <ele>937.359136</ele>
        <time>2021-07-11T08:56:41.000Z</time>
      </trkpt>
      <trkpt lat="49.171543" lon="8.780318">
        <ele>937.513805</ele>
        <time>2021-07-11T08:56:46.000Z</time>
      </trkpt>
      <trkpt lat="49.171723" lon="8.780472">
        <ele>937.680861</ele>
        <time>2021-07-11T08:56:51.000Z</time>
      </trkpt>
      <trkpt lat="49.171900" lon="8.780612">
        <ele>937.934273</ele>
        <time>2021-07-11T08:56:56.000Z</time>
      </trkpt>
      <trkpt lat="49.172055" lon="8.780812">
        <ele>938.192163</ele>
        <time>2021-07-11T08:57:01.000Z</time>
      </trkpt>
      <trkpt lat="49.172023" lon="8.781050">
        <ele>938.394187</ele>
        <time>2021-07-11T08:57:06.000Z</time>
      </trkpt>
      <trkpt lat="49.171937" lon="8.781293">
        <ele>938.623930</ele>
        <time>2021-07-11T08:57:11.000Z</time>
      </trkpt>
      <trkpt lat="49.171808" lon="8.781447">
        <ele>938.832037</ele>
        <time>2021-07-11T08:57:16.000Z</time>
      </trkpt>
      <trkpt lat="49.171642" lon="8.781440">
        <ele>939.043223</ele>
        <time>2021-07-11T08:57:21.000Z</time>
      </trkpt>
      <trkpt lat="49.171450" lon="8.781332">
        <ele>939.303383</ele>
        <time>2021-07-11T08:57:26.000Z</time>
      </trkpt>
      <trkpt lat="49.171193" lon="8.781255">
        <ele>939.636429</ele>
        <time>2021-07-11T08:57:31.000Z</time>
      </trkpt>
      <trkpt lat="49.170947" lon="8.781117">
        <ele>939.937738</ele>
        <time>2021-07-11T08:57:36.000Z</time>
      </trkpt>
      <trkpt lat="49.170687" lon="8.780900">
        <ele>939.948141</ele>
        <time>2021-07-11T08:57:41.000Z</time>
      </trkpt>
      <trkpt lat="49.170475" lon="8.780722">
        <ele>939.956634</ele>
        <time>2021-07-11T08:57:46.000Z</time>
      </trkpt>
      <trkpt lat="49.170198" lon="8.780538">
        <ele>939.967240</ele>
        <time>2021-07-11T08:57:51.000Z</time>
      </trkpt>
      <trkpt lat="49.169955" lon="8.780383">
        <ele>939.976487</ele>
        <time>2021-07-11T08:57:56.000Z</time>
      </trkpt>
      <trkpt lat="49.169638" lon="8.780202">
        <ele>939.988370</ele>
        <time>2021-07-11T08:58:01.000Z</time>
      </trkpt>
      <trkpt lat="49.169420" lon="8.780257">
        <ele>939.996130</ele>
        <time>2021-07-11T08:58:06.000Z</time>
      </trkpt>
      <trkpt lat="49.169252" lon="8.780578">
        <ele>940.069451</ele>
        <time>2021-07-11T08:58:11.000Z</time>
      </trkpt>
      <trkpt lat="49.169132" lon="8.780948">
        <ele>940.187681</ele>
        <time>2021-07-11T08:58:16.000Z</time>
      </trkpt>
      <trkpt lat="49.169015" lon="8.781298">
        <ele>940.300207</ele>
        <time>2021-07-11T08:58:21.000Z</time>
      </trkpt>
      <trkpt lat="49.168942" lon="8.781647">
        <ele>940.405099</ele>
        <time>2021-07-11T08:58:26.000Z</time>
      </trkpt>
      <trkpt lat="49.168855" lon="8.781945">
        <ele>940.498522</ele>
        <time>2021-07-11T08:58:31.000Z</time>
      </trkpt>
      <trkpt lat="49.168788" lon="8.782370">
        <ele>940.623669</ele>
        <time>2021-07-11T08:58:36.000Z</time>
      </trkpt>
      <trkpt lat="49.168662" lon="8.782648">
        <ele>940.720500</ele>
        <time>2021-07-11T08:58:41.000Z</time>
      </trkpt>
      <trkpt lat="49.168575" lon="8.783043">
        <ele>940.686318</ele>
        <time>2021-07-11T08:58:46.000Z</time>
      </trkpt>
      <trkpt lat="49.168492" lon="8.783390">
        <ele>940.481876</ele>
        <time>2021-07-11T08:58:51.000Z</time>
      </trkpt>
      <trkpt lat="49.168263" lon="8.783492">
        <ele>940.280034</ele>
        <time>2021-07-11T08:58:56.000Z</time>
      </trkpt>
      <trkpt lat="49.168043" lon="8.783478">
        <ele>940.093697</ele>
        <time>2021-07-11T08:59:01.000Z</time>
      </trkpt>
      <trkpt lat="49.167832" lon="8.783297">
        <ele>939.888970</ele>
        <time>2021-07-11T08:59:06.000Z</time>
      </trkpt>
      <trkpt lat="49.167680" lon="8.783315">
        <ele>939.759955</ele>
        <time>2021-07-11T08:59:11.000Z</time>
      </trkpt>
      <trkpt lat="49.167580" lon="8.783632">
        <ele>939.565206</ele>
        <time>2021-07-11T08:59:16.000Z</time>
      </trkpt>
      <trkpt lat="49.167487" lon="8.784023">
        <ele>939.334988</ele>
        <time>2021-07-11T08:59:21.000Z</time>
      </trkpt>
      <trkpt lat="49.167458" lon="8.784502">
        <ele>939.231106</ele>
        <time>2021-07-11T08:59:26.000Z</time>
      </trkpt>
      <trkpt lat="49.167428" lon="8.784913">
        <ele>939.191211</ele>
        <time>2021-07-11T08:59:31.000Z</time>
      </trkpt>
      <trkpt lat="49.167417" lon="8.785402">
        <ele>939.144008</ele>
        <time>2021-07-11T08:59:36.000Z</time>
      </trkpt>
      <trkpt lat="49.167315" lon="8.785807">
        <ele>939.102139</ele>
        <time>2021-07-11T08:59:41.000Z</time>
      </trkpt>
      <trkpt lat="49.167210" lon="8.786177">
        <ele>939.063228</ele>
        <time>2021-07-11T08:59:46.000Z</time>
      </trkpt>
      <trkpt lat="49.167065" lon="8.786497">
        <ele>939.025668</ele>
        <time>2021-07-11T08:59:51.000Z</time>
      </trkpt>
      <trkpt lat="49.166957" lon="8.786828">
        <ele>939.038115</ele>
        <time>2021-07-11T08:59:56.000Z</time>
      </trkpt>
      <trkpt lat="49.166858" lon="8.787190">
        <ele>939.182125</ele>
        <time>2021-07-11T09:00:01.000Z</time>
      </trkpt>
      <trkpt lat="49.166700" lon="8.787507">
        <ele>939.328414</ele>
        <time>2021-07-11T09:00:06.000Z</time>
      </trkpt>
      <trkpt lat="49.166552" lon="8.787845">
        <ele>939.477710</ele>
        <time>2021-07-11T09:00:11.000Z</time>
      </trkpt>
      <trkpt lat="49.166438" lon="8.788225">
        <ele>939.631154</ele>
        <time>2021-07-11T09:00:16.000Z</time>
      </trkpt>
      <trkpt lat="49.166275" lon="8.788538">
        <ele>939.778011</ele>
        <time>2021-07-11T09:00:21.000Z</time>
      </trkpt>
      <trkpt lat="49.166095" lon="8.788868">
        <ele>939.935734</ele>
        <time>2021-07-11T09:00:26.000Z</time>
      </trkpt>
      <trkpt lat="49.165938" lon="8.789188">
        <ele>940.148987</ele>
        <time>2021-07-11T09:00:31.000Z</time>
      </trkpt>
      <trkpt lat="49.165805" lon="8.789513">
        <ele>940.417758</ele>
        <time>2021-07-11T09:00:36.000Z</time>
      </trkpt>
      <trkpt lat="49.165750" lon="8.789873">
        <ele>940.676921</ele>
        <time>2021-07-11T09:00:41.000Z</time>
      </trkpt>
      <trkpt lat="49.165735" lon="8.790270">
        <ele>940.955689</ele>
        <time>2021-07-11T09:00:46.000Z</time>
      </trkpt>
      <trkpt lat="49.165713" lon="8.790660">
        <ele>941.230101</ele>
        <time>2021-07-11T09:00:51.000Z</time>
      </trkpt>
      <trkpt lat="49.165680" lon="8.791052">
        <ele>941.507168</ele>
        <time>2021-07-11T09:00:56.000Z</time>
      </trkpt>
      <trkpt lat="49.165633" lon="8.791433">
        <ele>941.778967</ele>
        <time>2021-07-11T09:01:01.000Z</time>
      </trkpt>
      <trkpt lat="49.165495" lon="8.791812">
        <ele>942.048360</ele>
        <time>2021-07-11T09:01:06.000Z</time>
      </trkpt>
      <trkpt lat="49.165385" lon="8.792125">
        <ele>942.237904</ele>
        <time>2021-07-11T09:01:11.000Z</time>
      </trkpt>
      <trkpt lat="49.165265" lon="8.792495">
        <ele>942.458210</ele>
        <time>2021-07-11T09:01:16.000Z</time>
      </trkpt>
      <trkpt lat="49.165145" lon="8.792838">
        <ele>942.665713</ele>
        <time>2021-07-11T09:01:21.000Z</time>
      </trkpt>
      <trkpt lat="49.165058" lon="8.793195">
        <ele>942.868938</ele>
        <time>2021-07-11T09:01:26.000Z</time>
      </trkpt>
      <trkpt lat="49.164967" lon="8.793527">
        <ele>943.060961</ele>
        <time>2021-07-11T09:01:31.000Z</time>
      </trkpt>
      <trkpt lat="49.164897" lon="8.793907">
        <ele>943.271549</ele>
        <time>2021-07-11T09:01:36.000Z</time>
      </trkpt>
      <trkpt lat="49.164788" lon="8.794173">
        <ele>943.441938</ele>
        <time>2021-07-11T09:01:41.000Z</time>
      </trkpt>
      <trkpt lat="49.164748" lon="8.794467">
        <ele>943.616048</ele>
        <time>2021-07-11T09:01:46.000Z</time>
      </trkpt>
      <trkpt lat="49.164678" lon="8.794753">
        <ele>943.793103</ele>
        <time>2021-07-11T09:01:51.000Z</time>
      </trkpt>
      <trkpt lat="49.164602" lon="8.795143">
        <ele>944.029050</ele>
        <time>2021-07-11T09:01:56.000Z</time>
      </trkpt>
      <trkpt lat="49.164518" lon="8.795517">
        <ele>944.258328</ele>
        <time>2021-07-11T09:02:01.000Z</time>
      </trkpt>
      <trkpt lat="49.164433" lon="8.795922">
        <ele>944.504944</ele>
        <time>2021-07-11T09:02:06.000Z</time>
      </trkpt>
      <trkpt lat="49.164353" lon="8.796302">
        <ele>944.736403</ele>
        <time>2021-07-11T09:02:11.000Z</time>
      </trkpt>
      <trkpt lat="49.164280" lon="8.796690">
        <ele>944.970491</ele>
        <time>2021-07-11T09:02:16.000Z</time>
      </trkpt>
      <trkpt lat="49.164210" lon="8.797077">
        <ele>945.143299</ele>
        <time>2021-07-11T09:02:21.000Z</time>
      </trkpt>
      <trkpt lat="49.164132" lon="8.797478">
        <ele>945.314278</ele>
        <time>2021-07-11T09:02:26.000Z</time>
      </trkpt>
      <trkpt lat="49.164032" lon="8.797878">
        <ele>945.489292</ele>
        <time>2021-07-11T09:02:31.000Z</time>
      </trkpt>
      <trkpt lat="49.163958" lon="8.798270">
        <ele>945.656039</ele>
        <time>2021-07-11T09:02:36.000Z</time>
      </trkpt>
      <trkpt lat="49.163917" lon="8.798673">
        <ele>945.822720</ele>
        <time>2021-07-11T09:02:41.000Z</time>
      </trkpt>
      <trkpt lat="49.163890" lon="8.799075">
        <ele>945.987876</ele>
        <time>2021-07-11T09:02:46.000Z</time>
      </trkpt>
      <trkpt lat="49.163888" lon="8.799442">
        <ele>946.154577</ele>
        <time>2021-07-11T09:02:51.000Z</time>
      </trkpt>
      <trkpt lat="49.163900" lon="8.799812">
        <ele>946.490362</ele>
        <time>2021-07-11T09:02:56.000Z</time>
      </trkpt>
      <trkpt lat="49.163948" lon="8.800197">
        <ele>946.845617</ele>
        <time>2021-07-11T09:03:01.000Z</time>
      </trkpt>
      <trkpt lat="49.163977" lon="8.800562">
        <ele>947.178891</ele>
        <time>2021-07-11T09:03:06.000Z</time>
      </trkpt>
      <trkpt lat="49.163995" lon="8.800913">
        <ele>947.498018</ele>
        <time>2021-07-11T09:03:11.000Z</time>
      </trkpt>
      <trkpt lat="49.164040" lon="8.801300">
        <ele>947.854302</ele>
        <time>2021-07-11T09:03:16.000Z</time>
      </trkpt>
      <trkpt lat="49.163973" lon="8.801658">
        <ele>948.191826</ele>
        <time>2021-07-11T09:03:21.000Z</time>
      </trkpt>
      <trkpt lat="49.163920" lon="8.802128">
        <ele>948.624791</ele>
        <time>2021-07-11T09:03:26.000Z</time>
      </trkpt>
      <trkpt lat="49.163860" lon="8.802457">
        <ele>948.964726</ele>
        <time>2021-07-11T09:03:31.000Z</time>
      </trkpt>
      <trkpt lat="49.163813" lon="8.802843">
        <ele>949.355499</ele>
        <time>2021-07-11T09:03:36.000Z</time>
      </trkpt>
      <trkpt lat="49.163772" lon="8.803248">
        <ele>949.763381</ele>
        <time>2021-07-11T09:03:41.000Z</time>
      </trkpt>
      <trkpt lat="49.163740" lon="8.803597">
        <ele>950.114124</ele>
        <time>2021-07-11T09:03:46.000Z</time>
      </trkpt>
      <trkpt lat="49.163742" lon="8.803972">
        <ele>950.487359</ele>
        <time>2021-07-11T09:03:51.000Z</time>
      </trkpt>
      <trkpt lat="49.163750" lon="8.804305">
        <ele>950.819004</ele>
        <time>2021-07-11T09:03:56.000Z</time>
      </trkpt>
      <trkpt lat="49.163775" lon="8.804622">
        <ele>951.136787</ele>
        <time>2021-07-11T09:04:01.000Z</time>
      </trkpt>
      <trkpt lat="49.163737" lon="8.804862">
        <ele>951.411620</ele>
        <time>2021-07-11T09:04:06.000Z</time>
      </trkpt>
      <trkpt lat="49.163753" lon="8.805067">
        <ele>951.833695</ele>
        <time>2021-07-11T09:04:11.000Z</time>
      </trkpt>
      <trkpt lat="49.163795" lon="8.805192">
        <ele>952.121007</ele>
        <time>2021-07-11T09:04:16.000Z</time>
      </trkpt>
      <trkpt lat="49.163820" lon="8.805192">
        <ele>952.199169</ele>
        <time>2021-07-11T09:04:19.000Z</time>
      </trkpt>
      <trkpt lat="49.163828" lon="8.805265">
        <ele>952.350491</ele>
        <time>2021-07-11T09:04:21.000Z</time>
      </trkpt>
      <trkpt lat="49.163758" lon="8.805392">
        <ele>952.690062</ele>
        <time>2021-07-11T09:04:26.000Z</time>
      </trkpt>
      <trkpt lat="49.163657" lon="8.805573">
        <ele>953.176517</ele>
        <time>2021-07-11T09:04:31.000Z</time>
      </trkpt>
      <trkpt lat="49.163535" lon="8.805723">
        <ele>953.665934</ele>
        <time>2021-07-11T09:04:36.000Z</time>
      </trkpt>
      <trkpt lat="49.163398" lon="8.805952">
        <ele>954.300477</ele>
        <time>2021-07-11T09:04:41.000Z</time>
      </trkpt>
      <trkpt lat="49.163345" lon="8.806235">
        <ele>954.902306</ele>
        <time>2021-07-11T09:04:46.000Z</time>
      </trkpt>
      <trkpt lat="49.163292" lon="8.806532">
        <ele>955.531701</ele>
        <time>2021-07-11T09:04:51.000Z</time>
      </trkpt>
      <trkpt lat="49.163225" lon="8.806873">
        <ele>956.259637</ele>
        <time>2021-07-11T09:04:56.000Z</time>
      </trkpt>
      <trkpt lat="49.163143" lon="8.807150">
        <ele>956.881268</ele>
        <time>2021-07-11T09:05:01.000Z</time>
      </trkpt>
      <trkpt lat="49.163060" lon="8.807438">
        <ele>957.183388</ele>
        <time>2021-07-11T09:05:06.000Z</time>
      </trkpt>
      <trkpt lat="49.162937" lon="8.807725">
        <ele>957.446644</ele>
        <time>2021-07-11T09:05:11.000Z</time>
      </trkpt>
      <trkpt lat="49.162800" lon="8.808015">
        <ele>957.721111</ele>
        <time>2021-07-11T09:05:16.000Z</time>
      </trkpt>
      <trkpt lat="49.162650" lon="8.808313">
        <ele>958.009620</ele>
        <time>2021-07-11T09:05:21.000Z</time>
      </trkpt>
      <trkpt lat="49.162498" lon="8.808608">
        <ele>958.297755</ele>
        <time>2021-07-11T09:05:26.000Z</time>
      </trkpt>
      <trkpt lat="49.162347" lon="8.808918">
        <ele>958.594312</ele>
        <time>2021-07-11T09:05:31.000Z</time>
      </trkpt>
      <trkpt lat="49.162173" lon="8.809220">
        <ele>958.903106</ele>
        <time>2021-07-11T09:05:36.000Z</time>
      </trkpt>
      <trkpt lat="49.161998" lon="8.809552">
        <ele>959.288784</ele>
        <time>2021-07-11T09:05:41.000Z</time>
      </trkpt>
      <trkpt lat="49.161868" lon="8.809865">
        <ele>959.690762</ele>
        <time>2021-07-11T09:05:46.000Z</time>
      </trkpt>
      <trkpt lat="49.161695" lon="8.810170">
        <ele>960.128466</ele>
        <time>2021-07-11T09:05:51.000Z</time>
      </trkpt>
      <trkpt lat="49.161573" lon="8.810460">
        <ele>960.502293</ele>
        <time>2021-07-11T09:05:56.000Z</time>
      </trkpt>
      <trkpt lat="49.161410" lon="8.810722">
        <ele>960.894335</ele>
        <time>2021-07-11T09:06:01.000Z</time>
      </trkpt>
      <trkpt lat="49.161248" lon="8.811072">
        <ele>961.359201</ele>
        <time>2021-07-11T09:06:06.000Z</time>
      </trkpt>
      <trkpt lat="49.161087" lon="8.811422">
        <ele>961.823112</ele>
        <time>2021-07-11T09:06:11.000Z</time>
      </trkpt>
      <trkpt lat="49.160907" lon="8.811690">
        <ele>962.251402</ele>
        <time>2021-07-11T09:06:16.000Z</time>
      </trkpt>
      <trkpt lat="49.160743" lon="8.812022">
        <ele>962.733940</ele>
        <time>2021-07-11T09:06:21.000Z</time>
      </trkpt>
      <trkpt lat="49.160595" lon="8.812332">
        <ele>963.179076</ele>
        <time>2021-07-11T09:06:26.000Z</time>
      </trkpt>
      <trkpt lat="49.160437" lon="8.812648">
        <ele>963.640404</ele>
        <time>2021-07-11T09:06:31.000Z</time>
      </trkpt>
      <trkpt lat="49.160288" lon="8.812952">
        <ele>964.081002</ele>
        <time>2021-07-11T09:06:36.000Z</time>
      </trkpt>
      <trkpt lat="49.160133" lon="8.813262">
        <ele>964.533572</ele>
        <time>2021-07-11T09:06:41.000Z</time>
      </trkpt>
      <trkpt lat="49.159990" lon="8.813592">
        <ele>964.992691</ele>
        <time>2021-07-11T09:06:46.000Z</time>
      </trkpt>
      <trkpt lat="49.159895" lon="8.813927">
        <ele>965.397495</ele>
        <time>2021-07-11T09:06:51.000Z</time>
      </trkpt>
      <trkpt lat="49.159852" lon="8.814222">
        <ele>965.706047</ele>
        <time>2021-07-11T09:06:56.000Z</time>
      </trkpt>
      <trkpt lat="49.159823" lon="8.814510">
        <ele>966.003527</ele>
        <time>2021-07-11T09:07:01.000Z</time>
      </trkpt>
      <trkpt lat="49.159880" lon="8.814840">
        <ele>966.351973</ele>
        <time>2021-07-11T09:07:06.000Z</time>
      </trkpt>
      <trkpt lat="49.159958" lon="8.815177">
        <ele>966.716923</ele>
        <time>2021-07-11T09:07:11.000Z</time>
      </trkpt>
      <trkpt lat="49.159995" lon="8.815517">
        <ele>967.068797</ele>
        <time>2021-07-11T09:07:16.000Z</time>
      </trkpt>
      <trkpt lat="49.160025" lon="8.815875">
        <ele>967.437261</ele>
        <time>2021-07-11T09:07:21.000Z</time>
      </trkpt>
      <trkpt lat="49.160042" lon="8.816272">
        <ele>967.843419</ele>
        <time>2021-07-11T09:07:26.000Z</time>
      </trkpt>
      <trkpt lat="49.160055" lon="8.816657">
        <ele>968.250205</ele>
        <time>2021-07-11T09:07:31.000Z</time>
      </trkpt>
      <trkpt lat="49.160045" lon="8.817028">
        <ele>968.658958</ele>
        <time>2021-07-11T09:07:36.000Z</time>
      </trkpt>
      <trkpt lat="49.160040" lon="8.817358">
        <ele>969.022327</ele>
        <time>2021-07-11T09:07:41.000Z</time>
      </trkpt>
      <trkpt lat="49.160083" lon="8.817667">
        <ele>969.370098</ele>
        <time>2021-07-11T09:07:46.000Z</time>
      </trkpt>
      <trkpt lat="49.160143" lon="8.817957">
        <ele>969.704933</ele>
        <time>2021-07-11T09:07:51.000Z</time>
      </trkpt>
      <trkpt lat="49.160258" lon="8.818278">
        <ele>970.107848</ele>
        <time>2021-07-11T09:07:56.000Z</time>
      </trkpt>
      <trkpt lat="49.160347" lon="8.818600">
        <ele>970.492672</ele>
        <time>2021-07-11T09:08:01.000Z</time>
      </trkpt>
      <trkpt lat="49.160417" lon="8.818848">
        <ele>970.790019</ele>
        <time>2021-07-11T09:08:06.000Z</time>
      </trkpt>
      <trkpt lat="49.160520" lon="8.819142">
        <ele>971.158315</ele>
        <time>2021-07-11T09:08:11.000Z</time>
      </trkpt>
      <trkpt lat="49.160633" lon="8.819393">
        <ele>971.499988</ele>
        <time>2021-07-11T09:08:16.000Z</time>
      </trkpt>
      <trkpt lat="49.160717" lon="8.819598">
        <ele>971.771236</ele>
        <time>2021-07-11T09:08:21.000Z</time>
      </trkpt>
      <trkpt lat="49.160840" lon="8.819827">
        <ele>972.103505</ele>
        <time>2021-07-11T09:08:26.000Z</time>
      </trkpt>
      <trkpt lat="49.160970" lon="8.820047">
        <ele>972.435963</ele>
        <time>2021-07-11T09:08:31.000Z</time>
      </trkpt>
      <trkpt lat="49.161148" lon="8.820310">
        <ele>972.860343</ele>
        <time>2021-07-11T09:08:36.000Z</time>
      </trkpt>
      <trkpt lat="49.161325" lon="8.820573">
        <ele>973.283492</ele>
        <time>2021-07-11T09:08:41.000Z</time>
      </trkpt>
      <trkpt lat="49.161480" lon="8.820825">
        <ele>973.671385</ele>
        <time>2021-07-11T09:08:46.000Z</time>
      </trkpt>
      <trkpt lat="49.161628" lon="8.821100">
        <ele>974.070712</ele>
        <time>2021-07-11T09:08:51.000Z</time>
      </trkpt>
      <trkpt lat="49.161763" lon="8.821388">
        <ele>974.346726</ele>
        <time>2021-07-11T09:08:56.000Z</time>
      </trkpt>
      <trkpt lat="49.161873" lon="8.821695">
        <ele>974.574066</ele>
        <time>2021-07-11T09:09:01.000Z</time>
      </trkpt>
      <trkpt lat="49.161982" lon="8.822007">
        <ele>974.803790</ele>
        <time>2021-07-11T09:09:06.000Z</time>
      </trkpt>
      <trkpt lat="49.162095" lon="8.822312">
        <ele>975.031446</ele>
        <time>2021-07-11T09:09:11.000Z</time>
      </trkpt>
      <trkpt lat="49.162207" lon="8.822628">
        <ele>975.264868</ele>
        <time>2021-07-11T09:09:16.000Z</time>
      </trkpt>
      <trkpt lat="49.162277" lon="8.822983">
        <ele>975.505665</ele>
        <time>2021-07-11T09:09:21.000Z</time>
      </trkpt>
      <trkpt lat="49.162342" lon="8.823198">
        <ele>975.659491</ele>
        <time>2021-07-11T09:09:26.000Z</time>
      </trkpt>
      <trkpt lat="49.162495" lon="8.823282">
        <ele>975.820934</ele>
        <time>2021-07-11T09:09:31.000Z</time>
      </trkpt>
      <trkpt lat="49.162582" lon="8.823102">
        <ele>975.966342</ele>
        <time>2021-07-11T09:09:36.000Z</time>
      </trkpt>
      <trkpt lat="49.162743" lon="8.822852">
        <ele>976.236742</ele>
        <time>2021-07-11T09:09:41.000Z</time>
      </trkpt>
      <trkpt lat="49.162953" lon="8.822583">
        <ele>976.559572</ele>
        <time>2021-07-11T09:09:46.000Z</time>
      </trkpt>
      <trkpt lat="49.163143" lon="8.822287">
        <ele>976.879209</ele>
        <time>2021-07-11T09:09:51.000Z</time>
      </trkpt>
      <trkpt lat="49.163340" lon="8.822168">
        <ele>977.128826</ele>
        <time>2021-07-11T09:09:56.000Z</time>
      </trkpt>
      <trkpt lat="49.163530" lon="8.822212">
        <ele>977.355290</ele>
        <time>2021-07-11T09:10:01.000Z</time>
      </trkpt>
      <trkpt lat="49.163778" lon="8.822305">
        <ele>977.656213</ele>
        <time>2021-07-11T09:10:06.000Z</time>
      </trkpt>
      <trkpt lat="49.163918" lon="8.822273">
        <ele>977.823033</ele>
        <time>2021-07-11T09:10:11.000Z</time>
      </trkpt>
      <trkpt lat="49.164023" lon="8.822145">
        <ele>977.981277</ele>
        <time>2021-07-11T09:10:16.000Z</time>
      </trkpt>
      <trkpt lat="49.164113" lon="8.822055">
        <ele>978.208369</ele>
        <time>2021-07-11T09:10:21.000Z</time>
      </trkpt>
      <trkpt lat="49.164190" lon="8.821978">
        <ele>978.804857</ele>
        <time>2021-07-11T09:10:26.000Z</time>
      </trkpt>
      <trkpt lat="49.164280" lon="8.822012">
        <ele>979.405914</ele>
        <time>2021-07-11T09:10:31.000Z</time>
      </trkpt>
      <trkpt lat="49.164332" lon="8.822167">
        <ele>980.144481</ele>
        <time>2021-07-11T09:10:36.000Z</time>
      </trkpt>
      <trkpt lat="49.164403" lon="8.822363">
        <ele>981.094415</ele>
        <time>2021-07-11T09:10:41.000Z</time>
      </trkpt>
      <trkpt lat="49.164468" lon="8.822567">
        <ele>982.056489</ele>
        <time>2021-07-11T09:10:46.000Z</time>
      </trkpt>
      <trkpt lat="49.164510" lon="8.822765">
        <ele>982.938976</ele>
        <time>2021-07-11T09:10:51.000Z</time>
      </trkpt>
      <trkpt lat="49.164528" lon="8.822782">
        <ele>983.076140</ele>
        <time>2021-07-11T09:10:54.000Z</time>
      </trkpt>
      <trkpt lat="49.164538" lon="8.822807">
        <ele>983.200386</ele>
        <time>2021-07-11T09:10:56.000Z</time>
      </trkpt>
      <trkpt lat="49.164530" lon="8.822820">
        <ele>983.276068</ele>
        <time>2021-07-11T09:10:56.000Z</time>
      </trkpt>
      <trkpt lat="49.164500" lon="8.822590">
        <ele>984.270365</ele>
        <time>2021-07-11T09:11:01.000Z</time>
      </trkpt>
      <trkpt lat="49.164495" lon="8.822433">
        <ele>984.936757</ele>
        <time>2021-07-11T09:11:06.000Z</time>
      </trkpt>
      <trkpt lat="49.164560" lon="8.822362">
        <ele>985.454643</ele>
        <time>2021-07-11T09:11:11.000Z</time>
      </trkpt>
      <trkpt lat="49.164633" lon="8.822308">
        <ele>985.980401</ele>
        <time>2021-07-11T09:11:16.000Z</time>
      </trkpt>
      <trkpt lat="49.164732" lon="8.822248">
        <ele>986.670835</ele>
        <time>2021-07-11T09:11:21.000Z</time>
      </trkpt>
      <trkpt lat="49.164772" lon="8.822213">
        <ele>986.969624</ele>
        <time>2021-07-11T09:11:26.000Z</time>
      </trkpt>
      <trkpt lat="49.164867" lon="8.822182">
        <ele>987.599424</ele>
        <time>2021-07-11T09:11:31.000Z</time>
      </trkpt>
      <trkpt lat="49.164920" lon="8.822160">
        <ele>987.955484</ele>
        <time>2021-07-11T09:11:36.000Z</time>
      </trkpt>
      <trkpt lat="49.165040" lon="8.822098">
        <ele>988.776707</ele>
        <time>2021-07-11T09:11:41.000Z</time>
      </trkpt>
      <trkpt lat="49.165137" lon="8.821993">
        <ele>989.547207</ele>
        <time>2021-07-11T09:11:46.000Z</time>
      </trkpt>
      <trkpt lat="49.165232" lon="8.821982">
        <ele>990.143877</ele>
        <time>2021-07-11T09:11:51.000Z</time>
      </trkpt>
      <trkpt lat="49.165298" lon="8.821923">
        <ele>990.614576</ele>
        <time>2021-07-11T09:11:56.000Z</time>
      </trkpt>
      <trkpt lat="49.165380" lon="8.821848">
        <ele>991.202860</ele>
        <time>2021-07-11T09:12:01.000Z</time>
      </trkpt>
      <trkpt lat="49.165538" lon="8.821815">
        <ele>992.184711</ele>
        <time>2021-07-11T09:12:06.000Z</time>
      </trkpt>
      <trkpt lat="49.165562" lon="8.821872">
        <ele>992.457653</ele>
        <time>2021-07-11T09:12:11.000Z</time>
      </trkpt>
      <trkpt lat="49.165608" lon="8.822032">
        <ele>993.161324</ele>
        <time>2021-07-11T09:12:16.000Z</time>
      </trkpt>
      <trkpt lat="49.165652" lon="8.822197">
        <ele>993.878727</ele>
        <time>2021-07-11T09:12:21.000Z</time>
      </trkpt>
      <trkpt lat="49.165697" lon="8.822360">
        <ele>994.591053</ele>
        <time>2021-07-11T09:12:26.000Z</time>
      </trkpt>
      <trkpt lat="49.165750" lon="8.822527">
        <ele>995.338397</ele>
        <time>2021-07-11T09:12:31.000Z</time>
      </trkpt>
      <trkpt lat="49.165795" lon="8.822688">
        <ele>996.043310</ele>
        <time>2021-07-11T09:12:36.000Z</time>
      </trkpt>
      <trkpt lat="49.165845" lon="8.822852">
        <ele>996.771810</ele>
        <time>2021-07-11T09:12:41.000Z</time>
      </trkpt>
      <trkpt lat="49.165893" lon="8.823013">
        <ele>997.484185</ele>
        <time>2021-07-11T09:12:46.000Z</time>
      </trkpt>
      <trkpt lat="49.165958" lon="8.823198">
        <ele>998.329700</ele>
        <time>2021-07-11T09:12:51.000Z</time>
      </trkpt>
      <trkpt lat="49.166035" lon="8.823308">
        <ele>998.978457</ele>
        <time>2021-07-11T09:12:56.000Z</time>
      </trkpt>
      <trkpt lat="49.166092" lon="8.823485">
        <ele>999.772783</ele>
        <time>2021-07-11T09:13:01.000Z</time>
      </trkpt>
      <trkpt lat="49.166197" lon="8.823658">
        <ele>1000.723070</ele>
        <time>2021-07-11T09:13:06.000Z</time>
      </trkpt>
      <trkpt lat="49.166293" lon="8.823822">
        <ele>1001.332441</ele>
        <time>2021-07-11T09:13:11.000Z</time>
      </trkpt>
      <trkpt lat="49.166387" lon="8.823957">
        <ele>1001.847348</ele>
        <time>2021-07-11T09:13:16.000Z</time>
      </trkpt>
      <trkpt lat="49.166517" lon="8.824118">
        <ele>1002.515309</ele>
        <time>2021-07-11T09:13:21.000Z</time>
      </trkpt>
      <trkpt lat="49.166592" lon="8.824287">
        <ele>1003.048591</ele>
        <time>2021-07-11T09:13:26.000Z</time>
      </trkpt>
      <trkpt lat="49.166767" lon="8.824487">
        <ele>1003.920938</ele>
        <time>2021-07-11T09:13:31.000Z</time>
      </trkpt>
      <trkpt lat="49.166965" lon="8.824648">
        <ele>1004.816373</ele>
        <time>2021-07-11T09:13:36.000Z</time>
      </trkpt>
      <trkpt lat="49.167097" lon="8.824782">
        <ele>1005.449007</ele>
        <time>2021-07-11T09:13:41.000Z</time>
      </trkpt>
      <trkpt lat="49.167218" lon="8.824905">
        <ele>1006.029163</ele>
        <time>2021-07-11T09:13:46.000Z</time>
      </trkpt>
      <trkpt lat="49.167310" lon="8.825007">
        <ele>1006.482902</ele>
        <time>2021-07-11T09:13:51.000Z</time>
      </trkpt>
      <trkpt lat="49.167395" lon="8.825112">
        <ele>1006.919200</ele>
        <time>2021-07-11T09:13:56.000Z</time>
      </trkpt>
      <trkpt lat="49.167480" lon="8.825222">
        <ele>1007.363817</ele>
        <time>2021-07-11T09:14:01.000Z</time>
      </trkpt>
      <trkpt lat="49.167582" lon="8.825325">
        <ele>1007.851883</ele>
        <time>2021-07-11T09:14:06.000Z</time>
      </trkpt>
      <trkpt lat="49.167660" lon="8.825458">
        <ele>1008.641789</ele>
        <time>2021-07-11T09:14:11.000Z</time>
      </trkpt>
      <trkpt lat="49.167757" lon="8.825587">
        <ele>1009.682919</ele>
        <time>2021-07-11T09:14:16.000Z</time>
      </trkpt>
      <trkpt lat="49.167845" lon="8.825692">
        <ele>1010.586922</ele>
        <time>2021-07-11T09:14:21.000Z</time>
      </trkpt>
      <trkpt lat="49.167962" lon="8.825833">
        <ele>1011.793401</ele>
        <time>2021-07-11T09:14:26.000Z</time>
      </trkpt>
      <trkpt lat="49.168083" lon="8.825912">
        <ele>1012.859000</ele>
        <time>2021-07-11T09:14:31.000Z</time>
      </trkpt>
      <trkpt lat="49.168173" lon="8.825965">
        <ele>1013.640122</ele>
        <time>2021-07-11T09:14:36.000Z</time>
      </trkpt>
      <trkpt lat="49.168245" lon="8.826063">
        <ele>1014.420778</ele>
        <time>2021-07-11T09:14:41.000Z</time>
      </trkpt>
      <trkpt lat="49.168328" lon="8.826140">
        <ele>1015.207040</ele>
        <time>2021-07-11T09:14:46.000Z</time>
      </trkpt>
      <trkpt lat="49.168385" lon="8.826185">
        <ele>1015.726588</ele>
        <time>2021-07-11T09:14:51.000Z</time>
      </trkpt>
      <trkpt lat="49.168430" lon="8.826292">
        <ele>1016.400330</ele>
        <time>2021-07-11T09:14:56.000Z</time>
      </trkpt>
      <trkpt lat="49.168485" lon="8.826367">
        <ele>1016.997152</ele>
        <time>2021-07-11T09:15:01.000Z</time>
      </trkpt>
      <trkpt lat="49.168595" lon="8.826445">
        <ele>1017.979192</ele>
        <time>2021-07-11T09:15:06.000Z</time>
      </trkpt>
      <trkpt lat="49.168668" lon="8.826497">
        <ele>1018.631437</ele>
        <time>2021-07-11T09:15:11.000Z</time>
      </trkpt>
      <trkpt lat="49.168727" lon="8.826588">
        <ele>1019.310109</ele>
        <time>2021-07-11T09:15:16.000Z</time>
      </trkpt>
      <trkpt lat="49.168800" lon="8.826673">
        <ele>1020.053219</ele>
        <time>2021-07-11T09:15:21.000Z</time>
      </trkpt>
      <trkpt lat="49.168877" lon="8.826718">
        <ele>1020.720857</ele>
        <time>2021-07-11T09:15:26.000Z</time>
      </trkpt>
      <trkpt lat="49.168978" lon="8.826772">
        <ele>1021.587447</ele>
        <time>2021-07-11T09:15:31.000Z</time>
      </trkpt>
      <trkpt lat="49.169068" lon="8.826842">
        <ele>1022.405242</ele>
        <time>2021-07-11T09:15:36.000Z</time>
      </trkpt>
      <trkpt lat="49.169160" lon="8.826950">
        <ele>1022.794005</ele>
        <time>2021-07-11T09:15:41.000Z</time>
      </trkpt>
      <trkpt lat="49.169237" lon="8.827010">
        <ele>1022.995203</ele>
        <time>2021-07-11T09:15:46.000Z</time>
      </trkpt>
      <trkpt lat="49.169310" lon="8.827075">
        <ele>1023.191866</ele>
        <time>2021-07-11T09:15:51.000Z</time>
      </trkpt>
      <trkpt lat="49.169367" lon="8.827063">
        <ele>1023.325826</ele>
        <time>2021-07-11T09:15:56.000Z</time>
      </trkpt>
      <trkpt lat="49.169368" lon="8.827067">
        <ele>1023.332345</ele>
        <time>2021-07-11T09:15:58.000Z</time>
      </trkpt>
      <trkpt lat="49.169410" lon="8.827153">
        <ele>1023.495747</ele>
        <time>2021-07-11T09:16:01.000Z</time>
      </trkpt>
      <trkpt lat="49.169510" lon="8.827245">
        <ele>1023.767443</ele>
        <time>2021-07-11T09:16:06.000Z</time>
      </trkpt>
      <trkpt lat="49.169648" lon="8.827382">
        <ele>1024.150485</ele>
        <time>2021-07-11T09:16:11.000Z</time>
      </trkpt>
      <trkpt lat="49.169803" lon="8.827563">
        <ele>1024.604514</ele>
        <time>2021-07-11T09:16:16.000Z</time>
      </trkpt>
      <trkpt lat="49.170007" lon="8.827782">
        <ele>1025.184788</ele>
        <time>2021-07-11T09:16:21.000Z</time>
      </trkpt>
      <trkpt lat="49.170273" lon="8.828025">
        <ele>1025.906150</ele>
        <time>2021-07-11T09:16:26.000Z</time>
      </trkpt>
      <trkpt lat="49.170523" lon="8.828245">
        <ele>1026.577667</ele>
        <time>2021-07-11T09:16:31.000Z</time>
      </trkpt>
      <trkpt lat="49.170770" lon="8.828460">
        <ele>1026.022138</ele>
        <time>2021-07-11T09:16:36.000Z</time>
      </trkpt>
      <trkpt lat="49.171015" lon="8.828745">
        <ele>1024.920817</ele>
        <time>2021-07-11T09:16:41.000Z</time>
      </trkpt>
      <trkpt lat="49.171178" lon="8.829100">
        <ele>1023.906044</ele>
        <time>2021-07-11T09:16:46.000Z</time>
      </trkpt>
      <trkpt lat="49.171397" lon="8.829570">
        <ele>1022.555938</ele>
        <time>2021-07-11T09:16:51.000Z</time>
      </trkpt>
      <trkpt lat="49.171605" lon="8.830017">
        <ele>1021.272492</ele>
        <time>2021-07-11T09:16:56.000Z</time>
      </trkpt>
      <trkpt lat="49.171855" lon="8.830482">
        <ele>1019.964621</ele>
        <time>2021-07-11T09:17:01.000Z</time>
      </trkpt>
      <trkpt lat="49.172082" lon="8.830987">
        <ele>1018.844112</ele>
        <time>2021-07-11T09:17:06.000Z</time>
      </trkpt>
      <trkpt lat="49.172305" lon="8.831397">
        <ele>1017.868986</ele>
        <time>2021-07-11T09:17:11.000Z</time>
      </trkpt>
      <trkpt lat="49.172525" lon="8.831813">
        <ele>1016.890703</ele>
        <time>2021-07-11T09:17:16.000Z</time>
      </trkpt>
      <trkpt lat="49.172755" lon="8.832200">
        <ele>1015.934469</ele>
        <time>2021-07-11T09:17:21.000Z</time>
      </trkpt>
      <trkpt lat="49.172978" lon="8.832563">
        <ele>1014.770660</ele>
        <time>2021-07-11T09:17:26.000Z</time>
      </trkpt>
      <trkpt lat="49.173158" lon="8.833028">
        <ele>1012.857365</ele>
        <time>2021-07-11T09:17:31.000Z</time>
      </trkpt>
      <trkpt lat="49.173288" lon="8.833603">
        <ele>1010.703267</ele>
        <time>2021-07-11T09:17:36.000Z</time>
      </trkpt>
      <trkpt lat="49.173515" lon="8.834305">
        <ele>1007.930424</ele>
        <time>2021-07-11T09:17:41.000Z</time>
      </trkpt>
      <trkpt lat="49.173650" lon="8.834812">
        <ele>1005.992215</ele>
        <time>2021-07-11T09:17:46.000Z</time>
      </trkpt>
      <trkpt lat="49.173720" lon="8.835115">
        <ele>1005.426441</ele>
        <time>2021-07-11T09:17:51.000Z</time>
      </trkpt>
      <trkpt lat="49.173783" lon="8.835398">
        <ele>1005.234160</ele>
        <time>2021-07-11T09:17:56.000Z</time>
      </trkpt>
      <trkpt lat="49.173912" lon="8.835767">
        <ele>1004.965030</ele>
        <time>2021-07-11T09:18:01.000Z</time>
      </trkpt>
      <trkpt lat="49.174112" lon="8.836128">
        <ele>1004.660690</ele>
        <time>2021-07-11T09:18:06.000Z</time>
      </trkpt>
      <trkpt lat="49.174335" lon="8.836408">
        <ele>1004.376857</ele>
        <time>2021-07-11T09:18:11.000Z</time>
      </trkpt>
      <trkpt lat="49.174460" lon="8.836678">
        <ele>1004.164070</ele>
        <time>2021-07-11T09:18:16.000Z</time>
      </trkpt>
      <trkpt lat="49.174480" lon="8.837018">
        <ele>1003.944512</ele>
        <time>2021-07-11T09:18:21.000Z</time>
      </trkpt>
      <trkpt lat="49.174397" lon="8.837272">
        <ele>1003.854515</ele>
        <time>2021-07-11T09:18:26.000Z</time>
      </trkpt>
      <trkpt lat="49.174222" lon="8.837610">
        <ele>1004.742194</ele>
        <time>2021-07-11T09:18:31.000Z</time>
      </trkpt>
      <trkpt lat="49.174002" lon="8.837943">
        <ele>1005.716894</ele>
        <time>2021-07-11T09:18:36.000Z</time>
      </trkpt>
      <trkpt lat="49.173850" lon="8.838083">
        <ele>1006.275656</ele>
        <time>2021-07-11T09:18:41.000Z</time>
      </trkpt>
      <trkpt lat="49.173763" lon="8.838250">
        <ele>1006.715294</ele>
        <time>2021-07-11T09:18:46.000Z</time>
      </trkpt>
      <trkpt lat="49.173703" lon="8.838440">
        <ele>1007.149719</ele>
        <time>2021-07-11T09:18:51.000Z</time>
      </trkpt>
      <trkpt lat="49.173695" lon="8.838688">
        <ele>1007.660935</ele>
        <time>2021-07-11T09:18:56.000Z</time>
      </trkpt>
      <trkpt lat="49.173688" lon="8.838888">
        <ele>1008.073294</ele>
        <time>2021-07-11T09:19:01.000Z</time>
      </trkpt>
      <trkpt lat="49.173690" lon="8.839117">
        <ele>1008.544812</ele>
        <time>2021-07-11T09:19:06.000Z</time>
      </trkpt>
      <trkpt lat="49.173683" lon="8.839335">
        <ele>1008.994182</ele>
        <time>2021-07-11T09:19:11.000Z</time>
      </trkpt>
      <trkpt lat="49.173690" lon="8.839538">
        <ele>1009.412709</ele>
        <time>2021-07-11T09:19:16.000Z</time>
      </trkpt>
      <trkpt lat="49.173670" lon="8.839717">
        <ele>1010.200171</ele>
        <time>2021-07-11T09:19:21.000Z</time>
      </trkpt>
      <trkpt lat="49.173695" lon="8.839912">
        <ele>1011.109362</ele>
        <time>2021-07-11T09:19:26.000Z</time>
      </trkpt>
      <trkpt lat="49.173652" lon="8.840110">
        <ele>1012.063960</ele>
        <time>2021-07-11T09:19:31.000Z</time>
      </trkpt>
      <trkpt lat="49.173645" lon="8.840320">
        <ele>1013.026037</ele>
        <time>2021-07-11T09:19:36.000Z</time>
      </trkpt>
      <trkpt lat="49.173648" lon="8.840500">
        <ele>1013.849872</ele>
        <time>2021-07-11T09:19:41.000Z</time>
      </trkpt>
      <trkpt lat="49.173658" lon="8.840697">
        <ele>1014.753933</ele>
        <time>2021-07-11T09:19:46.000Z</time>
      </trkpt>
      <trkpt lat="49.173673" lon="8.840880">
        <ele>1015.597782</ele>
        <time>2021-07-11T09:19:51.000Z</time>
      </trkpt>
      <trkpt lat="49.173680" lon="8.841065">
        <ele>1016.445642</ele>
        <time>2021-07-11T09:19:56.000Z</time>
      </trkpt>
      <trkpt lat="49.173708" lon="8.841230">
        <ele>1017.225595</ele>
        <time>2021-07-11T09:20:01.000Z</time>
      </trkpt>
      <trkpt lat="49.173735" lon="8.841397">
        <ele>1018.012700</ele>
        <time>2021-07-11T09:20:06.000Z</time>
      </trkpt>
      <trkpt lat="49.173777" lon="8.841555">
        <ele>1018.793080</ele>
        <time>2021-07-11T09:20:11.000Z</time>
      </trkpt>
      <trkpt lat="49.173798" lon="8.841683">
        <ele>1019.396885</ele>
        <time>2021-07-11T09:20:16.000Z</time>
      </trkpt>
      <trkpt lat="49.173805" lon="8.841858">
        <ele>1020.199071</ele>
        <time>2021-07-11T09:20:21.000Z</time>
      </trkpt>
      <trkpt lat="49.173792" lon="8.842072">
        <ele>1021.182415</ele>
        <time>2021-07-11T09:20:26.000Z</time>
      </trkpt>
      <trkpt lat="49.173835" lon="8.842210">
        <ele>1021.881863</ele>
        <time>2021-07-11T09:20:31.000Z</time>
      </trkpt>
      <trkpt lat="49.173868" lon="8.842413">
        <ele>1022.247596</ele>
        <time>2021-07-11T09:20:36.000Z</time>
      </trkpt>
      <trkpt lat="49.173908" lon="8.842572">
        <ele>1022.453045</ele>
        <time>2021-07-11T09:20:41.000Z</time>
      </trkpt>
      <trkpt lat="49.173905" lon="8.842807">
        <ele>1022.736492</ele>
        <time>2021-07-11T09:20:46.000Z</time>
      </trkpt>
      <trkpt lat="49.173912" lon="8.842988">
        <ele>1022.955146</ele>
        <time>2021-07-11T09:20:51.000Z</time>
      </trkpt>
      <trkpt lat="49.173895" lon="8.843220">
        <ele>1023.236673</ele>
        <time>2021-07-11T09:20:56.000Z</time>
      </trkpt>
      <trkpt lat="49.173917" lon="8.843360">
        <ele>1023.410312</ele>
        <time>2021-07-11T09:21:01.000Z</time>
      </trkpt>
      <trkpt lat="49.173930" lon="8.843387">
        <ele>1023.450749</ele>
        <time>2021-07-11T09:21:06.000Z</time>
      </trkpt>
      <trkpt lat="49.173932" lon="8.843385">
        <ele>1023.455157</ele>
        <time>2021-07-11T09:21:06.000Z</time>
      </trkpt>
      <trkpt lat="49.173823" lon="8.843555">
        <ele>1023.742303</ele>
        <time>2021-07-11T09:21:11.000Z</time>
      </trkpt>
      <trkpt lat="49.173693" lon="8.843770">
        <ele>1024.095469</ele>
        <time>2021-07-11T09:21:16.000Z</time>
      </trkpt>
      <trkpt lat="49.173505" lon="8.844047">
        <ele>1024.576970</ele>
        <time>2021-07-11T09:21:21.000Z</time>
      </trkpt>
      <trkpt lat="49.173323" lon="8.844287">
        <ele>1025.020221</ele>
        <time>2021-07-11T09:21:26.000Z</time>
      </trkpt>
      <trkpt lat="49.173130" lon="8.844570">
        <ele>1025.245604</ele>
        <time>2021-07-11T09:21:31.000Z</time>
      </trkpt>
      <trkpt lat="49.172918" lon="8.845003">
        <ele>1024.803958</ele>
        <time>2021-07-11T09:21:36.000Z</time>
      </trkpt>
      <trkpt lat="49.172760" lon="8.845490">
        <ele>1024.360102</ele>
        <time>2021-07-11T09:21:41.000Z</time>
      </trkpt>
      <trkpt lat="49.172595" lon="8.846000">
        <ele>1023.895538</ele>
        <time>2021-07-11T09:21:46.000Z</time>
      </trkpt>
      <trkpt lat="49.172442" lon="8.846510">
        <ele>1023.437423</ele>
        <time>2021-07-11T09:21:51.000Z</time>
      </trkpt>
      <trkpt lat="49.172220" lon="8.846908">
        <ele>1023.084118</ele>
        <time>2021-07-11T09:21:56.000Z</time>
      </trkpt>
      <trkpt lat="49.171947" lon="8.847195">
        <ele>1022.984164</ele>
        <time>2021-07-11T09:22:01.000Z</time>
      </trkpt>
      <trkpt lat="49.171717" lon="8.847500">
        <ele>1022.892314</ele>
        <time>2021-07-11T09:22:06.000Z</time>
      </trkpt>
      <trkpt lat="49.171493" lon="8.847780">
        <ele>1022.805026</ele>
        <time>2021-07-11T09:22:11.000Z</time>
      </trkpt>
      <trkpt lat="49.171302" lon="8.848123">
        <ele>1022.716144</ele>
        <time>2021-07-11T09:22:16.000Z</time>
      </trkpt>
      <trkpt lat="49.171097" lon="8.848542">
        <ele>1022.612904</ele>
        <time>2021-07-11T09:22:21.000Z</time>
      </trkpt>
      <trkpt lat="49.170913" lon="8.849060">
        <ele>1022.004954</ele>
        <time>2021-07-11T09:22:26.000Z</time>
      </trkpt>
      <trkpt lat="49.170747" lon="8.849587">
        <ele>1021.059058</ele>
        <time>2021-07-11T09:22:31.000Z</time>
      </trkpt>
      <trkpt lat="49.170610" lon="8.850095">
        <ele>1020.170487</ele>
        <time>2021-07-11T09:22:36.000Z</time>
      </trkpt>
      <trkpt lat="49.170430" lon="8.850553">
        <ele>1019.306398</ele>
        <time>2021-07-11T09:22:41.000Z</time>
      </trkpt>
      <trkpt lat="49.170238" lon="8.851020">
        <ele>1018.414363</ele>
        <time>2021-07-11T09:22:46.000Z</time>
      </trkpt>
      <trkpt lat="49.170015" lon="8.851447">
        <ele>1017.511749</ele>
        <time>2021-07-11T09:22:51.000Z</time>
      </trkpt>
      <trkpt lat="49.169785" lon="8.851995">
        <ele>1016.424754</ele>
        <time>2021-07-11T09:22:56.000Z</time>
      </trkpt>
      <trkpt lat="49.169562" lon="8.852590">
        <ele>1015.279947</ele>
        <time>2021-07-11T09:23:01.000Z</time>
      </trkpt>
      <trkpt lat="49.169327" lon="8.853212">
        <ele>1014.080792</ele>
        <time>2021-07-11T09:23:06.000Z</time>
      </trkpt>
      <trkpt lat="49.169233" lon="8.853807">
        <ele>1013.439187</ele>
        <time>2021-07-11T09:23:11.000Z</time>
      </trkpt>
      <trkpt lat="49.169245" lon="8.854375">
        <ele>1013.265350</ele>
        <time>2021-07-11T09:23:16.000Z</time>
      </trkpt>
      <trkpt lat="49.169273" lon="8.854883">
        <ele>1013.109405</ele>
        <time>2021-07-11T09:23:21.000Z</time>
      </trkpt>
      <trkpt lat="49.169373" lon="8.855360">
        <ele>1012.956178</ele>
        <time>2021-07-11T09:23:26.000Z</time>
      </trkpt>
      <trkpt lat="49.169442" lon="8.855827">
        <ele>1012.809725</ele>
        <time>2021-07-11T09:23:31.000Z</time>
      </trkpt>
      <trkpt lat="49.169448" lon="8.856283">
        <ele>1012.540566</ele>
        <time>2021-07-11T09:23:36.000Z</time>
      </trkpt>
      <trkpt lat="49.169428" lon="8.856795">
        <ele>1010.792620</ele>
        <time>2021-07-11T09:23:41.000Z</time>
      </trkpt>
      <trkpt lat="49.169395" lon="8.857413">
        <ele>1008.679535</ele>
        <time>2021-07-11T09:23:46.000Z</time>
      </trkpt>
      <trkpt lat="49.169302" lon="8.858073">
        <ele>1006.378688</ele>
        <time>2021-07-11T09:23:51.000Z</time>
      </trkpt>
      <trkpt lat="49.169248" lon="8.858680">
        <ele>1004.291036</ele>
        <time>2021-07-11T09:23:56.000Z</time>
      </trkpt>
      <trkpt lat="49.169267" lon="8.859333">
        <ele>1002.052463</ele>
        <time>2021-07-11T09:24:01.000Z</time>
      </trkpt>
      <trkpt lat="49.169193" lon="8.859927">
        <ele>999.973515</ele>
        <time>2021-07-11T09:24:06.000Z</time>
      </trkpt>
      <trkpt lat="49.169145" lon="8.860407">
        <ele>998.304054</ele>
        <time>2021-07-11T09:24:11.000Z</time>
      </trkpt>
      <trkpt lat="49.169223" lon="8.860972">
        <ele>996.318719</ele>
        <time>2021-07-11T09:24:16.000Z</time>
      </trkpt>
      <trkpt lat="49.169377" lon="8.861603">
        <ele>994.003097</ele>
        <time>2021-07-11T09:24:21.000Z</time>
      </trkpt>
      <trkpt lat="49.169502" lon="8.862215">
        <ele>992.151790</ele>
        <time>2021-07-11T09:24:26.000Z</time>
      </trkpt>
      <trkpt lat="49.169658" lon="8.862903">
        <ele>990.079094</ele>
        <time>2021-07-11T09:24:31.000Z</time>
      </trkpt>
      <trkpt lat="49.169803" lon="8.863563">
        <ele>988.097299</ele>
        <time>2021-07-11T09:24:36.000Z</time>
      </trkpt>
      <trkpt lat="49.169948" lon="8.864222">
        <ele>986.118207</ele>
        <time>2021-07-11T09:24:41.000Z</time>
      </trkpt>
      <trkpt lat="49.170020" lon="8.864858">
        <ele>984.924365</ele>
        <time>2021-07-11T09:24:46.000Z</time>
      </trkpt>
      <trkpt lat="49.170083" lon="8.865513">
        <ele>983.737128</ele>
        <time>2021-07-11T09:24:51.000Z</time>
      </trkpt>
      <trkpt lat="49.170142" lon="8.866150">
        <ele>982.583408</ele>
        <time>2021-07-11T09:24:56.000Z</time>
      </trkpt>
      <trkpt lat="49.170218" lon="8.866815">
        <ele>981.372802</ele>
        <time>2021-07-11T09:25:01.000Z</time>
      </trkpt>
      <trkpt lat="49.170230" lon="8.867490">
        <ele>980.280633</ele>
        <time>2021-07-11T09:25:06.000Z</time>
      </trkpt>
      <trkpt lat="49.170240" lon="8.868140">
        <ele>979.264385</ele>
        <time>2021-07-11T09:25:11.000Z</time>
      </trkpt>
      <trkpt lat="49.170252" lon="8.868723">
        <ele>978.352690</ele>
        <time>2021-07-11T09:25:16.000Z</time>
      </trkpt>
      <trkpt lat="49.170295" lon="8.869268">
        <ele>977.494661</ele>
        <time>2021-07-11T09:25:21.000Z</time>
      </trkpt>
      <trkpt lat="49.170415" lon="8.869615">
        <ele>976.881097</ele>
        <time>2021-07-11T09:25:26.000Z</time>
      </trkpt>
      <trkpt lat="49.170568" lon="8.869948">
        <ele>978.081707</ele>
        <time>2021-07-11T09:25:31.000Z</time>
      </trkpt>
      <trkpt lat="49.170743" lon="8.870217">
        <ele>979.499188</ele>
        <time>2021-07-11T09:25:36.000Z</time>
      </trkpt>
      <trkpt lat="49.170872" lon="8.870453">
        <ele>980.648222</ele>
        <time>2021-07-11T09:25:41.000Z</time>
      </trkpt>
      <trkpt lat="49.170920" lon="8.870688">
        <ele>981.567861</ele>
        <time>2021-07-11T09:25:46.000Z</time>
      </trkpt>
      <trkpt lat="49.170870" lon="8.870797">
        <ele>982.065226</ele>
        <time>2021-07-11T09:25:51.000Z</time>
      </trkpt>
      <trkpt lat="49.170848" lon="8.870888">
        <ele>982.427634</ele>
        <time>2021-07-11T09:25:56.000Z</time>
      </trkpt>
      <trkpt lat="49.170828" lon="8.871038">
        <ele>982.999464</ele>
        <time>2021-07-11T09:26:01.000Z</time>
      </trkpt>
      <trkpt lat="49.170820" lon="8.871243">
        <ele>983.766568</ele>
        <time>2021-07-11T09:26:06.000Z</time>
      </trkpt>
      <trkpt lat="49.170813" lon="8.871407">
        <ele>984.380465</ele>
        <time>2021-07-11T09:26:11.000Z</time>
      </trkpt>
      <trkpt lat="49.170813" lon="8.871595">
        <ele>985.082706</ele>
        <time>2021-07-11T09:26:16.000Z</time>
      </trkpt>
      <trkpt lat="49.170827" lon="8.871782">
        <ele>985.785775</ele>
        <time>2021-07-11T09:26:21.000Z</time>
      </trkpt>
      <trkpt lat="49.170842" lon="8.871965">
        <ele>986.474690</ele>
        <time>2021-07-11T09:26:26.000Z</time>
      </trkpt>
      <trkpt lat="49.170862" lon="8.872165">
        <ele>987.017172</ele>
        <time>2021-07-11T09:26:31.000Z</time>
      </trkpt>
      <trkpt lat="49.170893" lon="8.872402">
        <ele>986.771515</ele>
        <time>2021-07-11T09:26:36.000Z</time>
      </trkpt>
      <trkpt lat="49.170910" lon="8.872662">
        <ele>986.505936</ele>
        <time>2021-07-11T09:26:41.000Z</time>
      </trkpt>
      <trkpt lat="49.170937" lon="8.872878">
        <ele>986.282420</ele>
        <time>2021-07-11T09:26:46.000Z</time>
      </trkpt>
      <trkpt lat="49.170968" lon="8.873230">
        <ele>985.921421</ele>
        <time>2021-07-11T09:26:51.000Z</time>
      </trkpt>
      <trkpt lat="49.171033" lon="8.873737">
        <ele>985.396299</ele>
        <time>2021-07-11T09:26:56.000Z</time>
      </trkpt>
      <trkpt lat="49.171108" lon="8.874348">
        <ele>984.764438</ele>
        <time>2021-07-11T09:27:01.000Z</time>
      </trkpt>
      <trkpt lat="49.171183" lon="8.875120">
        <ele>983.328323</ele>
        <time>2021-07-11T09:27:06.000Z</time>
      </trkpt>
      <trkpt lat="49.171342" lon="8.875952">
        <ele>980.530640</ele>
        <time>2021-07-11T09:27:11.000Z</time>
      </trkpt>
      <trkpt lat="49.171475" lon="8.876743">
        <ele>977.894583</ele>
        <time>2021-07-11T09:27:16.000Z</time>
      </trkpt>
      <trkpt lat="49.171600" lon="8.877402">
        <ele>975.679936</ele>
        <time>2021-07-11T09:27:21.000Z</time>
      </trkpt>
      <trkpt lat="49.171722" lon="8.877977">
        <ele>977.689483</ele>
        <time>2021-07-11T09:27:26.000Z</time>
      </trkpt>
      <trkpt lat="49.171782" lon="8.878467">
        <ele>979.922517</ele>
        <time>2021-07-11T09:27:31.000Z</time>
      </trkpt>
      <trkpt lat="49.171823" lon="8.878785">
        <ele>981.374375</ele>
        <time>2021-07-11T09:27:36.000Z</time>
      </trkpt>
      <trkpt lat="49.171868" lon="8.879052">
        <ele>982.609453</ele>
        <time>2021-07-11T09:27:41.000Z</time>
      </trkpt>
      <trkpt lat="49.171918" lon="8.879245">
        <ele>983.539358</ele>
        <time>2021-07-11T09:27:46.000Z</time>
      </trkpt>
      <trkpt lat="49.171950" lon="8.879325">
        <ele>983.959451</ele>
        <time>2021-07-11T09:27:51.000Z</time>
      </trkpt>
      <trkpt lat="49.171955" lon="8.879423">
        <ele>984.399758</ele>
        <time>2021-07-11T09:27:56.000Z</time>
      </trkpt>
      <trkpt lat="49.171943" lon="8.879550">
        <ele>984.974540</ele>
        <time>2021-07-11T09:28:01.000Z</time>
      </trkpt>
      <trkpt lat="49.171943" lon="8.879723">
        <ele>985.749461</ele>
        <time>2021-07-11T09:28:06.000Z</time>
      </trkpt>
      <trkpt lat="49.171962" lon="8.879878">
        <ele>986.455852</ele>
        <time>2021-07-11T09:28:11.000Z</time>
      </trkpt>
      <trkpt lat="49.171983" lon="8.880018">
        <ele>987.099248</ele>
        <time>2021-07-11T09:28:16.000Z</time>
      </trkpt>
      <trkpt lat="49.171983" lon="8.880150">
        <ele>987.690517</ele>
        <time>2021-07-11T09:28:20.000Z</time>
      </trkpt>
      <trkpt lat="49.171985" lon="8.880237">
        <ele>987.927632</ele>
        <time>2021-07-11T09:28:21.000Z</time>
      </trkpt>
      <trkpt lat="49.171985" lon="8.880390">
        <ele>988.329853</ele>
        <time>2021-07-11T09:28:26.000Z</time>
      </trkpt>
      <trkpt lat="49.171960" lon="8.880517">
        <ele>988.678528</ele>
        <time>2021-07-11T09:28:31.000Z</time>
      </trkpt>
      <trkpt lat="49.171955" lon="8.880603">
        <ele>988.905505</ele>
        <time>2021-07-11T09:28:36.000Z</time>
      </trkpt>
      <trkpt lat="49.171987" lon="8.880810">
        <ele>989.464692</ele>
        <time>2021-07-11T09:28:41.000Z</time>
      </trkpt>
      <trkpt lat="49.171980" lon="8.881025">
        <ele>990.030604</ele>
        <time>2021-07-11T09:28:46.000Z</time>
      </trkpt>
      <trkpt lat="49.171962" lon="8.881292">
        <ele>990.736241</ele>
        <time>2021-07-11T09:28:51.000Z</time>
      </trkpt>
      <trkpt lat="49.171838" lon="8.881488">
        <ele>991.453251</ele>
        <time>2021-07-11T09:28:56.000Z</time>
      </trkpt>
      <trkpt lat="49.171797" lon="8.881688">
        <ele>992.004272</ele>
        <time>2021-07-11T09:29:01.000Z</time>
      </trkpt>
      <trkpt lat="49.171723" lon="8.881935">
        <ele>992.718541</ele>
        <time>2021-07-11T09:29:06.000Z</time>
      </trkpt>
      <trkpt lat="49.171648" lon="8.882187">
        <ele>993.446438</ele>
        <time>2021-07-11T09:29:11.000Z</time>
      </trkpt>
      <trkpt lat="49.171540" lon="8.882465">
        <ele>994.296564</ele>
        <time>2021-07-11T09:29:16.000Z</time>
      </trkpt>
      <trkpt lat="49.171438" lon="8.882800">
        <ele>994.902673</ele>
        <time>2021-07-11T09:29:21.000Z</time>
      </trkpt>
      <trkpt lat="49.171323" lon="8.883142">
        <ele>994.777732</ele>
        <time>2021-07-11T09:29:26.000Z</time>
      </trkpt>
      <trkpt lat="49.171203" lon="8.883540">
        <ele>994.635345</ele>
        <time>2021-07-11T09:29:31.000Z</time>
      </trkpt>
      <trkpt lat="49.171123" lon="8.883865">
        <ele>994.522525</ele>
        <time>2021-07-11T09:29:36.000Z</time>
      </trkpt>
      <trkpt lat="49.170922" lon="8.884102">
        <ele>994.396414</ele>
        <time>2021-07-11T09:29:41.000Z</time>
      </trkpt>
      <trkpt lat="49.170618" lon="8.884233">
        <ele>994.239474</ele>
        <time>2021-07-11T09:29:46.000Z</time>
      </trkpt>
      <trkpt lat="49.170372" lon="8.884363">
        <ele>994.110146</ele>
        <time>2021-07-11T09:29:51.000Z</time>
      </trkpt>
      <trkpt lat="49.170187" lon="8.884495">
        <ele>993.858242</ele>
        <time>2021-07-11T09:29:56.000Z</time>
      </trkpt>
      <trkpt lat="49.170233" lon="8.884820">
        <ele>993.347874</ele>
        <time>2021-07-11T09:30:01.000Z</time>
      </trkpt>
      <trkpt lat="49.170342" lon="8.885187">
        <ele>992.729205</ele>
        <time>2021-07-11T09:30:06.000Z</time>
      </trkpt>
      <trkpt lat="49.170470" lon="8.885593">
        <ele>992.037411</ele>
        <time>2021-07-11T09:30:11.000Z</time>
      </trkpt>
      <trkpt lat="49.170582" lon="8.885902">
        <ele>991.495154</ele>
        <time>2021-07-11T09:30:16.000Z</time>
      </trkpt>
      <trkpt lat="49.170672" lon="8.886160">
        <ele>991.046339</ele>
        <time>2021-07-11T09:30:21.000Z</time>
      </trkpt>
      <trkpt lat="49.170770" lon="8.886468">
        <ele>990.520615</ele>
        <time>2021-07-11T09:30:26.000Z</time>
      </trkpt>
      <trkpt lat="49.170935" lon="8.886872">
        <ele>989.799070</ele>
        <time>2021-07-11T09:30:31.000Z</time>
      </trkpt>
      <trkpt lat="49.170998" lon="8.887255">
        <ele>989.348028</ele>
        <time>2021-07-11T09:30:36.000Z</time>
      </trkpt>
      <trkpt lat="49.171137" lon="8.887682">
        <ele>988.803265</ele>
        <time>2021-07-11T09:30:41.000Z</time>
      </trkpt>
      <trkpt lat="49.170973" lon="8.887977">
        <ele>988.361025</ele>
        <time>2021-07-11T09:30:46.000Z</time>
      </trkpt>
      <trkpt lat="49.170695" lon="8.888118">
        <ele>987.849412</ele>
        <time>2021-07-11T09:30:51.000Z</time>
      </trkpt>
      <trkpt lat="49.170430" lon="8.888247">
        <ele>987.363630</ele>
        <time>2021-07-11T09:30:56.000Z</time>
      </trkpt>
      <trkpt lat="49.170155" lon="8.888390">
        <ele>986.856256</ele>
        <time>2021-07-11T09:31:01.000Z</time>
      </trkpt>
      <trkpt lat="49.169847" lon="8.888477">
        <ele>985.800963</ele>
        <time>2021-07-11T09:31:06.000Z</time>
      </trkpt>
      <trkpt lat="49.169655" lon="8.888658">
        <ele>984.874265</ele>
        <time>2021-07-11T09:31:11.000Z</time>
      </trkpt>
      <trkpt lat="49.169473" lon="8.889027">
        <ele>983.632552</ele>
        <time>2021-07-11T09:31:16.000Z</time>
      </trkpt>
      <trkpt lat="49.169273" lon="8.889478">
        <ele>982.168584</ele>
        <time>2021-07-11T09:31:21.000Z</time>
      </trkpt>
      <trkpt lat="49.168960" lon="8.889727">
        <ele>980.718971</ele>
        <time>2021-07-11T09:31:26.000Z</time>
      </trkpt>
      <trkpt lat="49.168602" lon="8.889693">
        <ele>979.286058</ele>
        <time>2021-07-11T09:31:31.000Z</time>
      </trkpt>
      <trkpt lat="49.168303" lon="8.889832">
        <ele>979.061103</ele>
        <time>2021-07-11T09:31:36.000Z</time>
      </trkpt>
      <trkpt lat="49.168102" lon="8.889995">
        <ele>978.897334</ele>
        <time>2021-07-11T09:31:41.000Z</time>
      </trkpt>
      <trkpt lat="49.167975" lon="8.890223">
        <ele>978.756361</ele>
        <time>2021-07-11T09:31:46.000Z</time>
      </trkpt>
      <trkpt lat="49.167933" lon="8.890515">
        <ele>978.615641</ele>
        <time>2021-07-11T09:31:51.000Z</time>
      </trkpt>
      <trkpt lat="49.167982" lon="8.890923">
        <ele>978.420397</ele>
        <time>2021-07-11T09:31:56.000Z</time>
      </trkpt>
      <trkpt lat="49.168100" lon="8.891312">
        <ele>978.218565</ele>
        <time>2021-07-11T09:32:01.000Z</time>
      </trkpt>
      <trkpt lat="49.168213" lon="8.891520">
        <ele>978.091284</ele>
        <time>2021-07-11T09:32:06.000Z</time>
      </trkpt>
      <trkpt lat="49.168363" lon="8.891607">
        <ele>978.000000</ele>
        <time>2021-07-11T09:32:11.000Z</time>
      </trkpt>
      <trkpt lat="49.168512" lon="8.891752">
        <ele>978.000000</ele>
        <time>2021-07-11T09:32:16.000Z</time>
      </trkpt>
      <trkpt lat="49.168558" lon="8.891677">
        <ele>978.000000</ele>
        <time>2021-07-11T09:32:21.000Z</time>
      </trkpt>
      <trkpt lat="49.168380" lon="8.891467">
        <ele>978.000000</ele>
        <time>2021-07-11T09:32:26.000Z</time>
      </trkpt>
      <trkpt lat="49.168217" lon="8.891440">
        <ele>978.000000</ele>
        <time>2021-07-11T09:32:31.000Z</time>
      </trkpt>
      <trkpt lat="49.168060" lon="8.891530">
        <ele>978.000000</ele>
        <time>2021-07-11T09:32:36.000Z</time>
      </trkpt>
      <trkpt lat="49.167823" lon="8.891603">
        <ele>978.000000</ele>
        <time>2021-07-11T09:32:41.000Z</time>
      </trkpt>
      <trkpt lat="49.167517" lon="8.891570">
        <ele>978.000000</ele>
        <time>2021-07-11T09:32:46.000Z</time>
      </trkpt>
      <trkpt lat="49.167222" lon="8.891653">
        <ele>978.000000</ele>
        <time>2021-07-11T09:32:51.000Z</time>
      </trkpt>
      <trkpt lat="49.166955" lon="8.891827">
        <ele>978.000000</ele>
        <time>2021-07-11T09:32:56.000Z</time>
      </trkpt>
      <trkpt lat="49.166722" lon="8.892132">
        <ele>978.000000</ele>
        <time>2021-07-11T09:33:01.000Z</time>
      </trkpt>
      <trkpt lat="49.166515" lon="8.892447">
        <ele>978.000000</ele>
        <time>2021-07-11T09:33:06.000Z</time>
      </trkpt>
      <trkpt lat="49.166268" lon="8.892645">
        <ele>978.000000</ele>
        <time>2021-07-11T09:33:11.000Z</time>
      </trkpt>
      <trkpt lat="49.166015" lon="8.892747">
        <ele>978.000000</ele>
        <time>2021-07-11T09:33:16.000Z</time>
      </trkpt>
      <trkpt lat="49.165772" lon="8.892800">
        <ele>978.000000</ele>
        <time>2021-07-11T09:33:21.000Z</time>
      </trkpt>
      <trkpt lat="49.165530" lon="8.892850">
        <ele>977.999408</ele>
        <time>2021-07-11T09:33:26.000Z</time>
      </trkpt>
      <trkpt lat="49.165283" lon="8.892880">
        <ele>977.964185</ele>
        <time>2021-07-11T09:33:31.000Z</time>
      </trkpt>
      <trkpt lat="49.165015" lon="8.892942">
        <ele>977.925653</ele>
        <time>2021-07-11T09:33:36.000Z</time>
      </trkpt>
      <trkpt lat="49.164755" lon="8.893012">
        <ele>977.888124</ele>
        <time>2021-07-11T09:33:41.000Z</time>
      </trkpt>
      <trkpt lat="49.164500" lon="8.893037">
        <ele>977.851800</ele>
        <time>2021-07-11T09:33:46.000Z</time>
      </trkpt>
      <trkpt lat="49.164268" lon="8.892922">
        <ele>977.817131</ele>
        <time>2021-07-11T09:33:51.000Z</time>
      </trkpt>
      <trkpt lat="49.164028" lon="8.892783">
        <ele>977.780648</ele>
        <time>2021-07-11T09:33:56.000Z</time>
      </trkpt>
      <trkpt lat="49.163792" lon="8.892613">
        <ele>977.737353</ele>
        <time>2021-07-11T09:34:01.000Z</time>
      </trkpt>
      <trkpt lat="49.163530" lon="8.892458">
        <ele>977.365566</ele>
        <time>2021-07-11T09:34:06.000Z</time>
      </trkpt>
      <trkpt lat="49.163247" lon="8.892278">
        <ele>976.959924</ele>
        <time>2021-07-11T09:34:11.000Z</time>
      </trkpt>
      <trkpt lat="49.162933" lon="8.892197">
        <ele>976.538487</ele>
        <time>2021-07-11T09:34:16.000Z</time>
      </trkpt>
      <trkpt lat="49.162610" lon="8.892265">
        <ele>976.106977</ele>
        <time>2021-07-11T09:34:21.000Z</time>
      </trkpt>
      <trkpt lat="49.162323" lon="8.892408">
        <ele>975.707492</ele>
        <time>2021-07-11T09:34:26.000Z</time>
      </trkpt>
      <trkpt lat="49.162058" lon="8.892635">
        <ele>975.312825</ele>
        <time>2021-07-11T09:34:31.000Z</time>
      </trkpt>
      <trkpt lat="49.161837" lon="8.892763">
        <ele>975.039304</ele>
        <time>2021-07-11T09:34:36.000Z</time>
      </trkpt>
      <trkpt lat="49.161645" lon="8.892658">
        <ele>974.803296</ele>
        <time>2021-07-11T09:34:41.000Z</time>
      </trkpt>
      <trkpt lat="49.161333" lon="8.892462">
        <ele>974.412898</ele>
        <time>2021-07-11T09:34:46.000Z</time>
      </trkpt>
      <trkpt lat="49.161005" lon="8.892385">
        <ele>974.028816</ele>
        <time>2021-07-11T09:34:51.000Z</time>
      </trkpt>
      <trkpt lat="49.160712" lon="8.892222">
        <ele>973.667948</ele>
        <time>2021-07-11T09:34:56.000Z</time>
      </trkpt>
      <trkpt lat="49.160413" lon="8.892058">
        <ele>973.300291</ele>
        <time>2021-07-11T09:35:01.000Z</time>
      </trkpt>
      <trkpt lat="49.160127" lon="8.891853">
        <ele>972.941972</ele>
        <time>2021-07-11T09:35:06.000Z</time>
      </trkpt>
      <trkpt lat="49.159878" lon="8.891642">
        <ele>972.619372</ele>
        <time>2021-07-11T09:35:11.000Z</time>
      </trkpt>
      <trkpt lat="49.159637" lon="8.891350">
        <ele>972.270930</ele>
        <time>2021-07-11T09:35:16.000Z</time>
      </trkpt>
      <trkpt lat="49.159402" lon="8.891047">
        <ele>971.922592</ele>
        <time>2021-07-11T09:35:21.000Z</time>
      </trkpt>
      <trkpt lat="49.159075" lon="8.890737">
        <ele>971.486594</ele>
        <time>2021-07-11T09:35:26.000Z</time>
      </trkpt>
      <trkpt lat="49.158808" lon="8.890483">
        <ele>971.118794</ele>
        <time>2021-07-11T09:35:31.000Z</time>
      </trkpt>
      <trkpt lat="49.158485" lon="8.890198">
        <ele>970.653574</ele>
        <time>2021-07-11T09:35:36.000Z</time>
      </trkpt>
      <trkpt lat="49.158243" lon="8.889913">
        <ele>970.272515</ele>
        <time>2021-07-11T09:35:41.000Z</time>
      </trkpt>
      <trkpt lat="49.157995" lon="8.889640">
        <ele>969.891299</ele>
        <time>2021-07-11T09:35:46.000Z</time>
      </trkpt>
      <trkpt lat="49.157750" lon="8.889363">
        <ele>969.511183</ele>
        <time>2021-07-11T09:35:51.000Z</time>
      </trkpt>
      <trkpt lat="49.157527" lon="8.889067">
        <ele>969.142793</ele>
        <time>2021-07-11T09:35:56.000Z</time>
      </trkpt>
      <trkpt lat="49.157350" lon="8.888758">
        <ele>969.000000</ele>
        <time>2021-07-11T09:36:01.000Z</time>
      </trkpt>
      <trkpt lat="49.157118" lon="8.888408">
        <ele>969.000000</ele>
        <time>2021-07-11T09:36:06.000Z</time>
      </trkpt>
      <trkpt lat="49.156837" lon="8.888168">
        <ele>969.000000</ele>
        <time>2021-07-11T09:36:11.000Z</time>
      </trkpt>
      <trkpt lat="49.156582" lon="8.888333">
        <ele>969.000000</ele>
        <time>2021-07-11T09:36:16.000Z</time>
      </trkpt>
      <trkpt lat="49.156340" lon="8.888683">
        <ele>969.000000</ele>
        <time>2021-07-11T09:36:21.000Z</time>
      </trkpt>
      <trkpt lat="49.156133" lon="8.889070">
        <ele>969.000000</ele>
        <time>2021-07-11T09:36:26.000Z</time>
      </trkpt>
      <trkpt lat="49.155963" lon="8.889405">
        <ele>969.000000</ele>
        <time>2021-07-11T09:36:31.000Z</time>
      </trkpt>
      <trkpt lat="49.155822" lon="8.889782">
        <ele>969.000000</ele>
        <time>2021-07-11T09:36:36.000Z</time>
      </trkpt>
      <trkpt lat="49.155650" lon="8.890188">
        <ele>969.000000</ele>
        <time>2021-07-11T09:36:41.000Z</time>
      </trkpt>
      <trkpt lat="49.155463" lon="8.890583">
        <ele>969.000000</ele>
        <time>2021-07-11T09:36:46.000Z</time>
      </trkpt>
      <trkpt lat="49.155293" lon="8.890983">
        <ele>969.000000</ele>
        <time>2021-07-11T09:36:51.000Z</time>
      </trkpt>
      <trkpt lat="49.155135" lon="8.891375">
        <ele>969.000000</ele>
        <time>2021-07-11T09:36:56.000Z</time>
      </trkpt>
      <trkpt lat="49.154982" lon="8.891745">
        <ele>969.000000</ele>
        <time>2021-07-11T09:37:01.000Z</time>
      </trkpt>
      <trkpt lat="49.154788" lon="8.892083">
        <ele>969.000000</ele>
        <time>2021-07-11T09:37:06.000Z</time>
      </trkpt>
      <trkpt lat="49.154588" lon="8.892405">
        <ele>969.000000</ele>
        <time>2021-07-11T09:37:11.000Z</time>
      </trkpt>
      <trkpt lat="49.154370" lon="8.892687">
        <ele>969.000000</ele>
        <time>2021-07-11T09:37:16.000Z</time>
      </trkpt>
      <trkpt lat="49.154158" lon="8.892933">
        <ele>969.000000</ele>
        <time>2021-07-11T09:37:21.000Z</time>
      </trkpt>
      <trkpt lat="49.153933" lon="8.893183">
        <ele>969.000000</ele>
        <time>2021-07-11T09:37:26.000Z</time>
      </trkpt>
      <trkpt lat="49.153650" lon="8.893342">
        <ele>969.001796</ele>
        <time>2021-07-11T09:37:31.000Z</time>
      </trkpt>
      <trkpt lat="49.153383" lon="8.893478">
        <ele>969.005059</ele>
        <time>2021-07-11T09:37:36.000Z</time>
      </trkpt>
      <trkpt lat="49.153135" lon="8.893595">
        <ele>969.008069</ele>
        <time>2021-07-11T09:37:41.000Z</time>
      </trkpt>
      <trkpt lat="49.152857" lon="8.893705">
        <ele>969.011398</ele>
        <time>2021-07-11T09:37:46.000Z</time>
      </trkpt>
      <trkpt lat="49.152603" lon="8.893843">
        <ele>969.014524</ele>
        <time>2021-07-11T09:37:51.000Z</time>
      </trkpt>
      <trkpt lat="49.152345" lon="8.893990">
        <ele>969.017717</ele>
        <time>2021-07-11T09:37:56.000Z</time>
      </trkpt>
      <trkpt lat="49.152098" lon="8.894123">
        <ele>969.020753</ele>
        <time>2021-07-11T09:38:01.000Z</time>
      </trkpt>
      <trkpt lat="49.151813" lon="8.894235">
        <ele>968.939598</ele>
        <time>2021-07-11T09:38:06.000Z</time>
      </trkpt>
      <trkpt lat="49.151593" lon="8.894278">
        <ele>968.876453</ele>
        <time>2021-07-11T09:38:11.000Z</time>
      </trkpt>
      <trkpt lat="49.151358" lon="8.894428">
        <ele>968.803951</ele>
        <time>2021-07-11T09:38:16.000Z</time>
      </trkpt>
      <trkpt lat="49.151135" lon="8.894607">
        <ele>968.732243</ele>
        <time>2021-07-11T09:38:21.000Z</time>
      </trkpt>
      <trkpt lat="49.150867" lon="8.894913">
        <ele>968.637013</ele>
        <time>2021-07-11T09:38:26.000Z</time>
      </trkpt>
      <trkpt lat="49.150603" lon="8.895187">
        <ele>968.546168</ele>
        <time>2021-07-11T09:38:31.000Z</time>
      </trkpt>
      <trkpt lat="49.150327" lon="8.895430">
        <ele>968.638946</ele>
        <time>2021-07-11T09:38:36.000Z</time>
      </trkpt>
      <trkpt lat="49.150075" lon="8.895578">
        <ele>968.826719</ele>
        <time>2021-07-11T09:38:41.000Z</time>
      </trkpt>
      <trkpt lat="49.149853" lon="8.895845">
        <ele>969.023190</ele>
        <time>2021-07-11T09:38:46.000Z</time>
      </trkpt>
      <trkpt lat="49.149643" lon="8.896053">
        <ele>969.197235</ele>
        <time>2021-07-11T09:38:51.000Z</time>
      </trkpt>
      <trkpt lat="49.149455" lon="8.896263">
        <ele>969.359188</ele>
        <time>2021-07-11T09:38:56.000Z</time>
      </trkpt>
      <trkpt lat="49.149195" lon="8.896465">
        <ele>969.562049</ele>
        <time>2021-07-11T09:39:01.000Z</time>
      </trkpt>
      <trkpt lat="49.148958" lon="8.896672">
        <ele>969.751906</ele>
        <time>2021-07-11T09:39:06.000Z</time>
      </trkpt>
      <trkpt lat="49.148742" lon="8.896920">
        <ele>970.102789</ele>
        <time>2021-07-11T09:39:11.000Z</time>
      </trkpt>
      <trkpt lat="49.148553" lon="8.897195">
        <ele>970.448664</ele>
        <time>2021-07-11T09:39:16.000Z</time>
      </trkpt>
      <trkpt lat="49.148365" lon="8.897413">
        <ele>970.761458</ele>
        <time>2021-07-11T09:39:21.000Z</time>
      </trkpt>
      <trkpt lat="49.148205" lon="8.897578">
        <ele>971.017301</ele>
        <time>2021-07-11T09:39:26.000Z</time>
      </trkpt>
      <trkpt lat="49.148030" lon="8.897743">
        <ele>971.289855</ele>
        <time>2021-07-11T09:39:31.000Z</time>
      </trkpt>
      <trkpt lat="49.147877" lon="8.897822">
        <ele>971.503931</ele>
        <time>2021-07-11T09:39:36.000Z</time>
      </trkpt>
      <trkpt lat="49.147695" lon="8.897840">
        <ele>971.745698</ele>
        <time>2021-07-11T09:39:41.000Z</time>
      </trkpt>
      <trkpt lat="49.147432" lon="8.897807">
        <ele>972.095509</ele>
        <time>2021-07-11T09:39:46.000Z</time>
      </trkpt>
      <trkpt lat="49.147075" lon="8.897820">
        <ele>971.587874</ele>
        <time>2021-07-11T09:39:51.000Z</time>
      </trkpt>
      <trkpt lat="49.146688" lon="8.897858">
        <ele>970.914507</ele>
        <time>2021-07-11T09:39:56.000Z</time>
      </trkpt>
      <trkpt lat="49.146333" lon="8.897870">
        <ele>970.297939</ele>
        <time>2021-07-11T09:40:01.000Z</time>
      </trkpt>
      <trkpt lat="49.146032" lon="8.898088">
        <ele>969.719600</ele>
        <time>2021-07-11T09:40:06.000Z</time>
      </trkpt>
      <trkpt lat="49.145798" lon="8.898365">
        <ele>969.205712</ele>
        <time>2021-07-11T09:40:11.000Z</time>
      </trkpt>
      <trkpt lat="49.145607" lon="8.898660">
        <ele>969.019110</ele>
        <time>2021-07-11T09:40:16.000Z</time>
      </trkpt>
      <trkpt lat="49.145427" lon="8.899068">
        <ele>969.015344</ele>
        <time>2021-07-11T09:40:21.000Z</time>
      </trkpt>
      <trkpt lat="49.145247" lon="8.899467">
        <ele>969.011635</ele>
        <time>2021-07-11T09:40:26.000Z</time>
      </trkpt>
      <trkpt lat="49.145098" lon="8.899937">
        <ele>969.007638</ele>
        <time>2021-07-11T09:40:31.000Z</time>
      </trkpt>
      <trkpt lat="49.144865" lon="8.900188">
        <ele>969.004303</ele>
        <time>2021-07-11T09:40:36.000Z</time>
      </trkpt>
      <trkpt lat="49.144597" lon="8.900235">
        <ele>969.001147</ele>
        <time>2021-07-11T09:40:41.000Z</time>
      </trkpt>
      <trkpt lat="49.144373" lon="8.900415">
        <ele>968.787448</ele>
        <time>2021-07-11T09:40:46.000Z</time>
      </trkpt>
      <trkpt lat="49.144168" lon="8.900632">
        <ele>968.445503</ele>
        <time>2021-07-11T09:40:51.000Z</time>
      </trkpt>
      <trkpt lat="49.143908" lon="8.900888">
        <ele>968.021395</ele>
        <time>2021-07-11T09:40:56.000Z</time>
      </trkpt>
      <trkpt lat="49.143670" lon="8.901165">
        <ele>967.611184</ele>
        <time>2021-07-11T09:41:01.000Z</time>
      </trkpt>
      <trkpt lat="49.143450" lon="8.901448">
        <ele>967.216883</ele>
        <time>2021-07-11T09:41:06.000Z</time>
      </trkpt>
      <trkpt lat="49.143248" lon="8.901743">
        <ele>966.833776</ele>
        <time>2021-07-11T09:41:11.000Z</time>
      </trkpt>
      <trkpt lat="49.142995" lon="8.902033">
        <ele>966.450556</ele>
        <time>2021-07-11T09:41:16.000Z</time>
      </trkpt>
      <trkpt lat="49.142675" lon="8.902367">
        <ele>966.120210</ele>
        <time>2021-07-11T09:41:21.000Z</time>
      </trkpt>
      <trkpt lat="49.142385" lon="8.902562">
        <ele>965.850107</ele>
        <time>2021-07-11T09:41:26.000Z</time>
      </trkpt>
      <trkpt lat="49.142200" lon="8.902873">
        <ele>965.615667</ele>
        <time>2021-07-11T09:41:31.000Z</time>
      </trkpt>
      <trkpt lat="49.142108" lon="8.903288">
        <ele>965.371282</ele>
        <time>2021-07-11T09:41:36.000Z</time>
      </trkpt>
      <trkpt lat="49.141963" lon="8.903718">
        <ele>965.101472</ele>
        <time>2021-07-11T09:41:41.000Z</time>
      </trkpt>
      <trkpt lat="49.141853" lon="8.904102">
        <ele>964.855219</ele>
        <time>2021-07-11T09:41:46.000Z</time>
      </trkpt>
      <trkpt lat="49.141733" lon="8.904492">
        <ele>964.592226</ele>
        <time>2021-07-11T09:41:51.000Z</time>
      </trkpt>
      <trkpt lat="49.141600" lon="8.904892">
        <ele>964.318422</ele>
        <time>2021-07-11T09:41:56.000Z</time>
      </trkpt>
      <trkpt lat="49.141477" lon="8.905333">
        <ele>964.025879</ele>
        <time>2021-07-11T09:42:01.000Z</time>
      </trkpt>
      <trkpt lat="49.141363" lon="8.905740">
        <ele>963.755712</ele>
        <time>2021-07-11T09:42:06.000Z</time>
      </trkpt>
      <trkpt lat="49.141230" lon="8.906090">
        <ele>963.508718</ele>
        <time>2021-07-11T09:42:11.000Z</time>
      </trkpt>
      <trkpt lat="49.141047" lon="8.906427">
        <ele>963.306741</ele>
        <time>2021-07-11T09:42:16.000Z</time>
      </trkpt>
      <trkpt lat="49.140862" lon="8.906757">
        <ele>963.255802</ele>
        <time>2021-07-11T09:42:21.000Z</time>
      </trkpt>
      <trkpt lat="49.140720" lon="8.907073">
        <ele>963.210866</ele>
        <time>2021-07-11T09:42:26.000Z</time>
      </trkpt>
      <trkpt lat="49.140618" lon="8.907393">
        <ele>963.169142</ele>
        <time>2021-07-11T09:42:31.000Z</time>
      </trkpt>
      <trkpt lat="49.140535" lon="8.907732">
        <ele>963.126715</ele>
        <time>2021-07-11T09:42:36.000Z</time>
      </trkpt>
      <trkpt lat="49.140455" lon="8.908135">
        <ele>963.077351</ele>
        <time>2021-07-11T09:42:41.000Z</time>
      </trkpt>
      <trkpt lat="49.140383" lon="8.908538">
        <ele>963.028384</ele>
        <time>2021-07-11T09:42:46.000Z</time>
      </trkpt>
      <trkpt lat="49.140307" lon="8.908947">
        <ele>963.000000</ele>
        <time>2021-07-11T09:42:51.000Z</time>
      </trkpt>
      <trkpt lat="49.140203" lon="8.909343">
        <ele>963.000000</ele>
        <time>2021-07-11T09:42:56.000Z</time>
      </trkpt>
      <trkpt lat="49.140095" lon="8.909733">
        <ele>963.000000</ele>
        <time>2021-07-11T09:43:01.000Z</time>
      </trkpt>
      <trkpt lat="49.139998" lon="8.910110">
        <ele>963.000000</ele>
        <time>2021-07-11T09:43:06.000Z</time>
      </trkpt>
      <trkpt lat="49.139905" lon="8.910473">
        <ele>963.000000</ele>
        <time>2021-07-11T09:43:11.000Z</time>
      </trkpt>
      <trkpt lat="49.139815" lon="8.910813">
        <ele>963.000000</ele>
        <time>2021-07-11T09:43:16.000Z</time>
      </trkpt>
      <trkpt lat="49.139688" lon="8.911165">
        <ele>963.000000</ele>
        <time>2021-07-11T09:43:21.000Z</time>
      </trkpt>
      <trkpt lat="49.139490" lon="8.911350">
        <ele>962.926050</ele>
        <time>2021-07-11T09:43:26.000Z</time>
      </trkpt>
      <trkpt lat="49.139262" lon="8.911493">
        <ele>962.788373</ele>
        <time>2021-07-11T09:43:31.000Z</time>
      </trkpt>
      <trkpt lat="49.139137" lon="8.911762">
        <ele>962.667782</ele>
        <time>2021-07-11T09:43:36.000Z</time>
      </trkpt>
      <trkpt lat="49.139007" lon="8.912055">
        <ele>962.538393</ele>
        <time>2021-07-11T09:43:41.000Z</time>
      </trkpt>
      <trkpt lat="49.138882" lon="8.912435">
        <ele>962.382942</ele>
        <time>2021-07-11T09:43:46.000Z</time>
      </trkpt>
      <trkpt lat="49.138810" lon="8.912878">
        <ele>962.216112</ele>
        <time>2021-07-11T09:43:51.000Z</time>
      </trkpt>
      <trkpt lat="49.138688" lon="8.913248">
        <ele>962.064679</ele>
        <time>2021-07-11T09:43:56.000Z</time>
      </trkpt>
      <trkpt lat="49.138462" lon="8.913372">
        <ele>961.962955</ele>
        <time>2021-07-11T09:44:01.000Z</time>
      </trkpt>
      <trkpt lat="49.138205" lon="8.913300">
        <ele>961.890176</ele>
        <time>2021-07-11T09:44:06.000Z</time>
      </trkpt>
      <trkpt lat="49.137940" lon="8.913352">
        <ele>961.815754</ele>
        <time>2021-07-11T09:44:11.000Z</time>
      </trkpt>
      <trkpt lat="49.137690" lon="8.913590">
        <ele>961.733714</ele>
        <time>2021-07-11T09:44:16.000Z</time>
      </trkpt>
      <trkpt lat="49.137492" lon="8.913922">
        <ele>961.651845</ele>
        <time>2021-07-11T09:44:21.000Z</time>
      </trkpt>
      <trkpt lat="49.137310" lon="8.914230">
        <ele>961.576210</ele>
        <time>2021-07-11T09:44:26.000Z</time>
      </trkpt>
      <trkpt lat="49.137110" lon="8.914487">
        <ele>961.503429</ele>
        <time>2021-07-11T09:44:31.000Z</time>
      </trkpt>
      <trkpt lat="49.136900" lon="8.914668">
        <ele>961.777935</ele>
        <time>2021-07-11T09:44:36.000Z</time>
      </trkpt>
      <trkpt lat="49.136743" lon="8.914697">
        <ele>961.993780</ele>
        <time>2021-07-11T09:44:41.000Z</time>
      </trkpt>
      <trkpt lat="49.136577" lon="8.914630">
        <ele>962.228117</ele>
        <time>2021-07-11T09:44:46.000Z</time>
      </trkpt>
      <trkpt lat="49.136455" lon="8.914448">
        <ele>962.460799</ele>
        <time>2021-07-11T09:44:51.000Z</time>
      </trkpt>
      <trkpt lat="49.136353" lon="8.914215">
        <ele>962.711145</ele>
        <time>2021-07-11T09:44:56.000Z</time>
      </trkpt>
      <trkpt lat="49.136270" lon="8.913940">
        <ele>962.981587</ele>
        <time>2021-07-11T09:45:01.000Z</time>
      </trkpt>
      <trkpt lat="49.136162" lon="8.913642">
        <ele>963.285797</ele>
        <time>2021-07-11T09:45:06.000Z</time>
      </trkpt>
      <trkpt lat="49.136042" lon="8.913367">
        <ele>963.580978</ele>
        <time>2021-07-11T09:45:11.000Z</time>
      </trkpt>
      <trkpt lat="49.135902" lon="8.913063">
        <ele>963.912955</ele>
        <time>2021-07-11T09:45:16.000Z</time>
      </trkpt>
      <trkpt lat="49.135807" lon="8.912728">
        <ele>963.955123</ele>
        <time>2021-07-11T09:45:21.000Z</time>
      </trkpt>
      <trkpt lat="49.135708" lon="8.912373">
        <ele>963.962266</ele>
        <time>2021-07-11T09:45:26.000Z</time>
      </trkpt>
      <trkpt lat="49.135632" lon="8.911978">
        <ele>963.969887</ele>
        <time>2021-07-11T09:45:31.000Z</time>
      </trkpt>
      <trkpt lat="49.135523" lon="8.911655">
        <ele>963.976614</ele>
        <time>2021-07-11T09:45:36.000Z</time>
      </trkpt>
      <trkpt lat="49.135352" lon="8.911503">
        <ele>963.982211</ele>
        <time>2021-07-11T09:45:41.000Z</time>
      </trkpt>
      <trkpt lat="49.135240" lon="8.911532">
        <ele>963.985425</ele>
        <time>2021-07-11T09:45:46.000Z</time>
      </trkpt>
      <trkpt lat="49.135218" lon="8.911588">
        <ele>963.986634</ele>
        <time>2021-07-11T09:45:51.000Z</time>
      </trkpt>
      <trkpt lat="49.135457" lon="8.911757">
        <ele>963.994084</ele>
        <time>2021-07-11T09:45:56.000Z</time>
      </trkpt>
      <trkpt lat="49.135523" lon="8.911980">
        <ele>963.998614</ele>
        <time>2021-07-11T09:46:01.000Z</time>
      </trkpt>
      <trkpt lat="49.135615" lon="8.912268">
        <ele>964.000000</ele>
        <time>2021-07-11T09:46:06.000Z</time>
      </trkpt>
      <trkpt lat="49.135735" lon="8.912602">
        <ele>964.000000</ele>
        <time>2021-07-11T09:46:11.000Z</time>
      </trkpt>
      <trkpt lat="49.135850" lon="8.912945">
        <ele>964.000000</ele>
        <time>2021-07-11T09:46:16.000Z</time>
      </trkpt>
      <trkpt lat="49.135968" lon="8.913295">
        <ele>964.000000</ele>
        <time>2021-07-11T09:46:21.000Z</time>
      </trkpt>
      <trkpt lat="49.136085" lon="8.913645">
        <ele>964.000000</ele>
        <time>2021-07-11T09:46:26.000Z</time>
      </trkpt>
      <trkpt lat="49.136203" lon="8.913972">
        <ele>964.000000</ele>
        <time>2021-07-11T09:46:31.000Z</time>
      </trkpt>
      <trkpt lat="49.136338" lon="8.914295">
        <ele>964.000000</ele>
        <time>2021-07-11T09:46:36.000Z</time>
      </trkpt>
      <trkpt lat="49.136453" lon="8.914623">
        <ele>964.000000</ele>
        <time>2021-07-11T09:46:41.000Z</time>
      </trkpt>
      <trkpt lat="49.136570" lon="8.914893">
        <ele>964.000000</ele>
        <time>2021-07-11T09:46:46.000Z</time>
      </trkpt>
      <trkpt lat="49.136727" lon="8.915238">
        <ele>964.000000</ele>
        <time>2021-07-11T09:46:51.000Z</time>
      </trkpt>
      <trkpt lat="49.136815" lon="8.915563">
        <ele>964.000000</ele>
        <time>2021-07-11T09:46:56.000Z</time>
      </trkpt>
      <trkpt lat="49.136927" lon="8.915927">
        <ele>964.000000</ele>
        <time>2021-07-11T09:47:01.000Z</time>
      </trkpt>
      <trkpt lat="49.137088" lon="8.916258">
        <ele>964.000000</ele>
        <time>2021-07-11T09:47:06.000Z</time>
      </trkpt>
      <trkpt lat="49.137158" lon="8.916610">
        <ele>964.000000</ele>
        <time>2021-07-11T09:47:11.000Z</time>
      </trkpt>
      <trkpt lat="49.137260" lon="8.916985">
        <ele>963.970977</ele>
        <time>2021-07-11T09:47:16.000Z</time>
      </trkpt>
      <trkpt lat="49.137392" lon="8.917332">
        <ele>963.868802</ele>
        <time>2021-07-11T09:47:21.000Z</time>
      </trkpt>
      <trkpt lat="49.137525" lon="8.917712">
        <ele>963.759100</ele>
        <time>2021-07-11T09:47:26.000Z</time>
      </trkpt>
      <trkpt lat="49.137663" lon="8.918078">
        <ele>963.651569</ele>
        <time>2021-07-11T09:47:31.000Z</time>
      </trkpt>
      <trkpt lat="49.137797" lon="8.918417">
        <ele>963.550749</ele>
        <time>2021-07-11T09:47:36.000Z</time>
      </trkpt>
      <trkpt lat="49.137928" lon="8.918683">
        <ele>963.465999</ele>
        <time>2021-07-11T09:47:41.000Z</time>
      </trkpt>
      <trkpt lat="49.138133" lon="8.918943">
        <ele>963.362355</ele>
        <time>2021-07-11T09:47:46.000Z</time>
      </trkpt>
      <trkpt lat="49.138348" lon="8.919197">
        <ele>963.219260</ele>
        <time>2021-07-11T09:47:51.000Z</time>
      </trkpt>
      <trkpt lat="49.138580" lon="8.919525">
        <ele>962.990814</ele>
        <time>2021-07-11T09:47:56.000Z</time>
      </trkpt>
      <trkpt lat="49.138735" lon="8.919878">
        <ele>962.789758</ele>
        <time>2021-07-11T09:48:01.000Z</time>
      </trkpt>
      <trkpt lat="49.138852" lon="8.920263">
        <ele>962.588998</ele>
        <time>2021-07-11T09:48:06.000Z</time>
      </trkpt>
      <trkpt lat="49.138957" lon="8.920658">
        <ele>962.387362</ele>
        <time>2021-07-11T09:48:11.000Z</time>
      </trkpt>
      <trkpt lat="49.139057" lon="8.921025">
        <ele>962.199349</ele>
        <time>2021-07-11T09:48:16.000Z</time>
      </trkpt>
      <trkpt lat="49.139153" lon="8.921400">
        <ele>962.008910</ele>
        <time>2021-07-11T09:48:21.000Z</time>
      </trkpt>
      <trkpt lat="49.139278" lon="8.921772">
        <ele>962.000000</ele>
        <time>2021-07-11T09:48:26.000Z</time>
      </trkpt>
      <trkpt lat="49.139418" lon="8.922042">
        <ele>962.000000</ele>
        <time>2021-07-11T09:48:31.000Z</time>
      </trkpt>
      <trkpt lat="49.139613" lon="8.922195">
        <ele>962.000000</ele>
        <time>2021-07-11T09:48:36.000Z</time>
      </trkpt>
      <trkpt lat="49.139852" lon="8.922342">
        <ele>962.000000</ele>
        <time>2021-07-11T09:48:41.000Z</time>
      </trkpt>
      <trkpt lat="49.140033" lon="8.922588">
        <ele>962.000000</ele>
        <time>2021-07-11T09:48:46.000Z</time>
      </trkpt>
      <trkpt lat="49.140192" lon="8.922972">
        <ele>962.000000</ele>
        <time>2021-07-11T09:48:51.000Z</time>
      </trkpt>
      <trkpt lat="49.140300" lon="8.923328">
        <ele>962.000000</ele>
        <time>2021-07-11T09:48:56.000Z</time>
      </trkpt>
      <trkpt lat="49.140458" lon="8.923667">
        <ele>961.942348</ele>
        <time>2021-07-11T09:49:01.000Z</time>
      </trkpt>
      <trkpt lat="49.140570" lon="8.924030">
        <ele>961.877482</ele>
        <time>2021-07-11T09:49:06.000Z</time>
      </trkpt>
      <trkpt lat="49.140645" lon="8.924320">
        <ele>961.827083</ele>
        <time>2021-07-11T09:49:11.000Z</time>
      </trkpt>
      <trkpt lat="49.140738" lon="8.924488">
        <ele>961.791515</ele>
        <time>2021-07-11T09:49:16.000Z</time>
      </trkpt>
      <trkpt lat="49.140935" lon="8.924430">
        <ele>961.741952</ele>
        <time>2021-07-11T09:49:21.000Z</time>
      </trkpt>
      <trkpt lat="49.141127" lon="8.924278">
        <ele>961.688534</ele>
        <time>2021-07-11T09:49:26.000Z</time>
      </trkpt>
      <trkpt lat="49.141297" lon="8.924343">
        <ele>961.645242</ele>
        <time>2021-07-11T09:49:31.000Z</time>
      </trkpt>
      <trkpt lat="49.141413" lon="8.924603">
        <ele>961.594380</ele>
        <time>2021-07-11T09:49:36.000Z</time>
      </trkpt>
      <trkpt lat="49.141553" lon="8.924895">
        <ele>961.486406</ele>
        <time>2021-07-11T09:49:41.000Z</time>
      </trkpt>
      <trkpt lat="49.141762" lon="8.925158">
        <ele>961.252270</ele>
        <time>2021-07-11T09:49:46.000Z</time>
      </trkpt>
      <trkpt lat="49.142007" lon="8.925417">
        <ele>960.994633</ele>
        <time>2021-07-11T09:49:51.000Z</time>
      </trkpt>
      <trkpt lat="49.142212" lon="8.925718">
        <ele>960.748784</ele>
        <time>2021-07-11T09:49:56.000Z</time>
      </trkpt>
      <trkpt lat="49.142430" lon="8.925993">
        <ele>960.504324</ele>
        <time>2021-07-11T09:50:01.000Z</time>
      </trkpt>
      <trkpt lat="49.142643" lon="8.926237">
        <ele>960.274112</ele>
        <time>2021-07-11T09:50:06.000Z</time>
      </trkpt>
      <trkpt lat="49.142868" lon="8.926468">
        <ele>960.039692</ele>
        <time>2021-07-11T09:50:11.000Z</time>
      </trkpt>
      <trkpt lat="49.143083" lon="8.926700">
        <ele>960.000000</ele>
        <time>2021-07-11T09:50:16.000Z</time>
      </trkpt>
      <trkpt lat="49.143298" lon="8.926915">
        <ele>960.000000</ele>
        <time>2021-07-11T09:50:21.000Z</time>
      </trkpt>
      <trkpt lat="49.143515" lon="8.927137">
        <ele>960.000000</ele>
        <time>2021-07-11T09:50:26.000Z</time>
      </trkpt>
      <trkpt lat="49.143745" lon="8.927342">
        <ele>960.000000</ele>
        <time>2021-07-11T09:50:31.000Z</time>
      </trkpt>
      <trkpt lat="49.143982" lon="8.927535">
        <ele>960.000000</ele>
        <time>2021-07-11T09:50:36.000Z</time>
      </trkpt>
      <trkpt lat="49.144218" lon="8.927747">
        <ele>960.000000</ele>
        <time>2021-07-11T09:50:41.000Z</time>
      </trkpt>
      <trkpt lat="49.144478" lon="8.927885">
        <ele>960.000000</ele>
        <time>2021-07-11T09:50:46.000Z</time>
      </trkpt>
      <trkpt lat="49.144730" lon="8.928112">
        <ele>960.000000</ele>
        <time>2021-07-11T09:50:51.000Z</time>
      </trkpt>
      <trkpt lat="49.144905" lon="8.928292">
        <ele>960.000000</ele>
        <time>2021-07-11T09:50:56.000Z</time>
      </trkpt>
      <trkpt lat="49.145090" lon="8.928468">
        <ele>960.000000</ele>
        <time>2021-07-11T09:51:01.000Z</time>
      </trkpt>
      <trkpt lat="49.145297" lon="8.928623">
        <ele>960.000000</ele>
        <time>2021-07-11T09:51:06.000Z</time>
      </trkpt>
      <trkpt lat="49.145507" lon="8.928778">
        <ele>960.000000</ele>
        <time>2021-07-11T09:51:11.000Z</time>
      </trkpt>
      <trkpt lat="49.145750" lon="8.928943">
        <ele>960.000000</ele>
        <time>2021-07-11T09:51:16.000Z</time>
      </trkpt>
      <trkpt lat="49.146007" lon="8.929135">
        <ele>960.000000</ele>
        <time>2021-07-11T09:51:21.000Z</time>
      </trkpt>
      <trkpt lat="49.146242" lon="8.929338">
        <ele>960.000000</ele>
        <time>2021-07-11T09:51:26.000Z</time>
      </trkpt>
      <trkpt lat="49.146438" lon="8.929502">
        <ele>960.000000</ele>
        <time>2021-07-11T09:51:31.000Z</time>
      </trkpt>
      <trkpt lat="49.146620" lon="8.929715">
        <ele>960.000000</ele>
        <time>2021-07-11T09:51:36.000Z</time>
      </trkpt>
      <trkpt lat="49.146815" lon="8.929968">
        <ele>960.000000</ele>
        <time>2021-07-11T09:51:41.000Z</time>
      </trkpt>
      <trkpt lat="49.147002" lon="8.930283">
        <ele>960.000000</ele>
        <time>2021-07-11T09:51:46.000Z</time>
      </trkpt>
      <trkpt lat="49.147170" lon="8.930575">
        <ele>960.000000</ele>
        <time>2021-07-11T09:51:51.000Z</time>
      </trkpt>
      <trkpt lat="49.147367" lon="8.930902">
        <ele>960.000000</ele>
        <time>2021-07-11T09:51:56.000Z</time>
      </trkpt>
      <trkpt lat="49.147565" lon="8.931215">
        <ele>960.000000</ele>
        <time>2021-07-11T09:52:01.000Z</time>
      </trkpt>
      <trkpt lat="49.147757" lon="8.931518">
        <ele>960.000000</ele>
        <time>2021-07-11T09:52:06.000Z</time>
      </trkpt>
      <trkpt lat="49.147942" lon="8.931817">
        <ele>960.000000</ele>
        <time>2021-07-11T09:52:11.000Z</time>
      </trkpt>
      <trkpt lat="49.148128" lon="8.932125">
        <ele>960.000000</ele>
        <time>2021-07-11T09:52:16.000Z</time>
      </trkpt>
      <trkpt lat="49.148333" lon="8.932450">
        <ele>960.000000</ele>
        <time>2021-07-11T09:52:21.000Z</time>
      </trkpt>
      <trkpt lat="49.148530" lon="8.932750">
        <ele>960.000000</ele>
        <time>2021-07-11T09:52:26.000Z</time>
      </trkpt>
      <trkpt lat="49.148718" lon="8.933055">
        <ele>960.000000</ele>
        <time>2021-07-11T09:52:31.000Z</time>
      </trkpt>
      <trkpt lat="49.148898" lon="8.933377">
        <ele>960.000000</ele>
        <time>2021-07-11T09:52:36.000Z</time>
      </trkpt>
      <trkpt lat="49.149092" lon="8.933700">
        <ele>960.000000</ele>
        <time>2021-07-11T09:52:41.000Z</time>
      </trkpt>
      <trkpt lat="49.149283" lon="8.934012">
        <ele>960.000000</ele>
        <time>2021-07-11T09:52:46.000Z</time>
      </trkpt>
      <trkpt lat="49.149498" lon="8.934310">
        <ele>960.000000</ele>
        <time>2021-07-11T09:52:51.000Z</time>
      </trkpt>
      <trkpt lat="49.149737" lon="8.934562">
        <ele>960.000000</ele>
        <time>2021-07-11T09:52:56.000Z</time>
      </trkpt>
      <trkpt lat="49.149987" lon="8.934778">
        <ele>960.000000</ele>
        <time>2021-07-11T09:53:01.000Z</time>
      </trkpt>
      <trkpt lat="49.150222" lon="8.934970">
        <ele>960.000000</ele>
        <time>2021-07-11T09:53:06.000Z</time>
      </trkpt>
      <trkpt lat="49.150488" lon="8.935038">
        <ele>960.000000</ele>
        <time>2021-07-11T09:53:11.000Z</time>
      </trkpt>
      <trkpt lat="49.150712" lon="8.935120">
        <ele>960.000000</ele>
        <time>2021-07-11T09:53:16.000Z</time>
      </trkpt>
      <trkpt lat="49.150965" lon="8.935195">
        <ele>960.000000</ele>
        <time>2021-07-11T09:53:21.000Z</time>
      </trkpt>
      <trkpt lat="49.151235" lon="8.935297">
        <ele>960.000000</ele>
        <time>2021-07-11T09:53:26.000Z</time>
      </trkpt>
      <trkpt lat="49.151510" lon="8.935412">
        <ele>960.000000</ele>
        <time>2021-07-11T09:53:31.000Z</time>
      </trkpt>
      <trkpt lat="49.151760" lon="8.935593">
        <ele>960.000000</ele>
        <time>2021-07-11T09:53:36.000Z</time>
      </trkpt>
      <trkpt lat="49.151932" lon="8.935905">
        <ele>960.000000</ele>
        <time>2021-07-11T09:53:41.000Z</time>
      </trkpt>
      <trkpt lat="49.152113" lon="8.936277">
        <ele>960.000000</ele>
        <time>2021-07-11T09:53:46.000Z</time>
      </trkpt>
      <trkpt lat="49.152287" lon="8.936590">
        <ele>960.000000</ele>
        <time>2021-07-11T09:53:51.000Z</time>
      </trkpt>
      <trkpt lat="49.152480" lon="8.936950">
        <ele>960.000000</ele>
        <time>2021-07-11T09:53:56.000Z</time>
      </trkpt>
      <trkpt lat="49.152643" lon="8.937335">
        <ele>960.000000</ele>
        <time>2021-07-11T09:54:01.000Z</time>
      </trkpt>
      <trkpt lat="49.152883" lon="8.937612">
        <ele>960.000000</ele>
        <time>2021-07-11T09:54:06.000Z</time>
      </trkpt>
      <trkpt lat="49.153155" lon="8.937820">
        <ele>960.000000</ele>
        <time>2021-07-11T09:54:11.000Z</time>
      </trkpt>
      <trkpt lat="49.153410" lon="8.938002">
        <ele>960.000000</ele>
        <time>2021-07-11T09:54:16.000Z</time>
      </trkpt>
      <trkpt lat="49.153662" lon="8.938147">
        <ele>960.000000</ele>
        <time>2021-07-11T09:54:21.000Z</time>
      </trkpt>
      <trkpt lat="49.153923" lon="8.938290">
        <ele>960.000000</ele>
        <time>2021-07-11T09:54:26.000Z</time>
      </trkpt>
      <trkpt lat="49.154192" lon="8.938455">
        <ele>960.000000</ele>
        <time>2021-07-11T09:54:31.000Z</time>
      </trkpt>
      <trkpt lat="49.154468" lon="8.938562">
        <ele>960.000000</ele>
        <time>2021-07-11T09:54:36.000Z</time>
      </trkpt>
      <trkpt lat="49.154760" lon="8.938627">
        <ele>960.000000</ele>
        <time>2021-07-11T09:54:41.000Z</time>
      </trkpt>
      <trkpt lat="49.155047" lon="8.938645">
        <ele>960.000000</ele>
        <time>2021-07-11T09:54:46.000Z</time>
      </trkpt>
      <trkpt lat="49.155347" lon="8.938633">
        <ele>960.000000</ele>
        <time>2021-07-11T09:54:51.000Z</time>
      </trkpt>
      <trkpt lat="49.155652" lon="8.938632">
        <ele>960.000000</ele>
        <time>2021-07-11T09:54:56.000Z</time>
      </trkpt>
      <trkpt lat="49.155942" lon="8.938590">
        <ele>960.000000</ele>
        <time>2021-07-11T09:55:01.000Z</time>
      </trkpt>
      <trkpt lat="49.156205" lon="8.938513">
        <ele>960.000000</ele>
        <time>2021-07-11T09:55:06.000Z</time>
      </trkpt>
      <trkpt lat="49.156427" lon="8.938387">
        <ele>960.000000</ele>
        <time>2021-07-11T09:55:11.000Z</time>
      </trkpt>
      <trkpt lat="49.156583" lon="8.938187">
        <ele>960.000000</ele>
        <time>2021-07-11T09:55:16.000Z</time>
      </trkpt>
      <trkpt lat="49.156692" lon="8.937965">
        <ele>960.000000</ele>
        <time>2021-07-11T09:55:21.000Z</time>
      </trkpt>
      <trkpt lat="49.156807" lon="8.937828">
        <ele>960.000000</ele>
        <time>2021-07-11T09:55:26.000Z</time>
      </trkpt>
      <trkpt lat="49.156945" lon="8.937945">
        <ele>960.000000</ele>
        <time>2021-07-11T09:55:31.000Z</time>
      </trkpt>
      <trkpt lat="49.157028" lon="8.938277">
        <ele>960.000000</ele>
        <time>2021-07-11T09:55:36.000Z</time>
      </trkpt>
      <trkpt lat="49.157142" lon="8.938658">
        <ele>960.000000</ele>
        <time>2021-07-11T09:55:41.000Z</time>
      </trkpt>
      <trkpt lat="49.157253" lon="8.938992">
        <ele>960.000000</ele>
        <time>2021-07-11T09:55:46.000Z</time>
      </trkpt>
      <trkpt lat="49.157322" lon="8.939238">
        <ele>960.000000</ele>
        <time>2021-07-11T09:55:51.000Z</time>
      </trkpt>
      <trkpt lat="49.157417" lon="8.939323">
        <ele>960.029599</ele>
        <time>2021-07-11T09:55:56.000Z</time>
      </trkpt>
      <trkpt lat="49.157442" lon="8.939347">
        <ele>960.044864</ele>
        <time>2021-07-11T09:55:58.000Z</time>
      </trkpt>
      <trkpt lat="49.157520" lon="8.939610">
        <ele>960.142532</ele>
        <time>2021-07-11T09:56:01.000Z</time>
      </trkpt>
      <trkpt lat="49.157637" lon="8.939832">
        <ele>960.238960</ele>
        <time>2021-07-11T09:56:06.000Z</time>
      </trkpt>
      <trkpt lat="49.157707" lon="8.940135">
        <ele>960.347643</ele>
        <time>2021-07-11T09:56:11.000Z</time>
      </trkpt>
      <trkpt lat="49.157808" lon="8.940467">
        <ele>960.471481</ele>
        <time>2021-07-11T09:56:16.000Z</time>
      </trkpt>
      <trkpt lat="49.157898" lon="8.940717">
        <ele>960.567997</ele>
        <time>2021-07-11T09:56:21.000Z</time>
      </trkpt>
      <trkpt lat="49.158002" lon="8.941020">
        <ele>960.683729</ele>
        <time>2021-07-11T09:56:26.000Z</time>
      </trkpt>
      <trkpt lat="49.158073" lon="8.941317">
        <ele>960.790677</ele>
        <time>2021-07-11T09:56:31.000Z</time>
      </trkpt>
      <trkpt lat="49.158107" lon="8.941567">
        <ele>960.877036</ele>
        <time>2021-07-11T09:56:36.000Z</time>
      </trkpt>
      <trkpt lat="49.157995" lon="8.941720">
        <ele>960.987541</ele>
        <time>2021-07-11T09:56:41.000Z</time>
      </trkpt>
      <trkpt lat="49.157817" lon="8.941895">
        <ele>961.243448</ele>
        <time>2021-07-11T09:56:46.000Z</time>
      </trkpt>
      <trkpt lat="49.157785" lon="8.942227">
        <ele>961.508846</ele>
        <time>2021-07-11T09:56:51.000Z</time>
      </trkpt>
      <trkpt lat="49.157848" lon="8.942578">
        <ele>961.796699</ele>
        <time>2021-07-11T09:56:56.000Z</time>
      </trkpt>
      <trkpt lat="49.157893" lon="8.942943">
        <ele>962.090443</ele>
        <time>2021-07-11T09:57:01.000Z</time>
      </trkpt>
      <trkpt lat="49.157932" lon="8.943307">
        <ele>962.382150</ele>
        <time>2021-07-11T09:57:06.000Z</time>
      </trkpt>
      <trkpt lat="49.157978" lon="8.943683">
        <ele>962.684667</ele>
        <time>2021-07-11T09:57:11.000Z</time>
      </trkpt>
      <trkpt lat="49.158050" lon="8.944013">
        <ele>962.959787</ele>
        <time>2021-07-11T09:57:16.000Z</time>
      </trkpt>
      <trkpt lat="49.158130" lon="8.944313">
        <ele>963.365923</ele>
        <time>2021-07-11T09:57:21.000Z</time>
      </trkpt>
      <trkpt lat="49.158243" lon="8.944593">
        <ele>963.978346</ele>
        <time>2021-07-11T09:57:26.000Z</time>
      </trkpt>
      <trkpt lat="49.158320" lon="8.944872">
        <ele>964.542009</ele>
        <time>2021-07-11T09:57:31.000Z</time>
      </trkpt>
      <trkpt lat="49.158440" lon="8.945120">
        <ele>965.116235</ele>
        <time>2021-07-11T09:57:36.000Z</time>
      </trkpt>
      <trkpt lat="49.158578" lon="8.945403">
        <ele>965.773307</ele>
        <time>2021-07-11T09:57:41.000Z</time>
      </trkpt>
      <trkpt lat="49.158603" lon="8.945617">
        <ele>966.177936</ele>
        <time>2021-07-11T09:57:46.000Z</time>
      </trkpt>
      <trkpt lat="49.158705" lon="8.945883">
        <ele>966.751884</ele>
        <time>2021-07-11T09:57:51.000Z</time>
      </trkpt>
      <trkpt lat="49.158793" lon="8.946172">
        <ele>967.345257</ele>
        <time>2021-07-11T09:57:56.000Z</time>
      </trkpt>
      <trkpt lat="49.158847" lon="8.946468">
        <ele>967.917242</ele>
        <time>2021-07-11T09:58:01.000Z</time>
      </trkpt>
      <trkpt lat="49.158908" lon="8.946758">
        <ele>968.346617</ele>
        <time>2021-07-11T09:58:06.000Z</time>
      </trkpt>
      <trkpt lat="49.158972" lon="8.947063">
        <ele>968.626843</ele>
        <time>2021-07-11T09:58:11.000Z</time>
      </trkpt>
      <trkpt lat="49.159030" lon="8.947387">
        <ele>968.920719</ele>
        <time>2021-07-11T09:58:16.000Z</time>
      </trkpt>
      <trkpt lat="49.159077" lon="8.947723">
        <ele>969.221315</ele>
        <time>2021-07-11T09:58:21.000Z</time>
      </trkpt>
      <trkpt lat="49.159113" lon="8.948073">
        <ele>969.531272</ele>
        <time>2021-07-11T09:58:26.000Z</time>
      </trkpt>
      <trkpt lat="49.159140" lon="8.948425">
        <ele>969.841326</ele>
        <time>2021-07-11T09:58:31.000Z</time>
      </trkpt>
      <trkpt lat="49.159162" lon="8.948785">
        <ele>970.157640</ele>
        <time>2021-07-11T09:58:36.000Z</time>
      </trkpt>
      <trkpt lat="49.159175" lon="8.949147">
        <ele>970.474809</ele>
        <time>2021-07-11T09:58:41.000Z</time>
      </trkpt>
      <trkpt lat="49.159195" lon="8.949517">
        <ele>970.706014</ele>
        <time>2021-07-11T09:58:46.000Z</time>
      </trkpt>
      <trkpt lat="49.159215" lon="8.949895">
        <ele>970.853957</ele>
        <time>2021-07-11T09:58:51.000Z</time>
      </trkpt>
      <trkpt lat="49.159233" lon="8.950283">
        <ele>971.005700</ele>
        <time>2021-07-11T09:58:56.000Z</time>
      </trkpt>
      <trkpt lat="49.159252" lon="8.950680">
        <ele>971.160987</ele>
        <time>2021-07-11T09:59:01.000Z</time>
      </trkpt>
      <trkpt lat="49.159260" lon="8.951067">
        <ele>971.312035</ele>
        <time>2021-07-11T09:59:06.000Z</time>
      </trkpt>
      <trkpt lat="49.159262" lon="8.951468">
        <ele>971.468473</ele>
        <time>2021-07-11T09:59:11.000Z</time>
      </trkpt>
      <trkpt lat="49.159287" lon="8.951863">
        <ele>971.623286</ele>
        <time>2021-07-11T09:59:16.000Z</time>
      </trkpt>
      <trkpt lat="49.159327" lon="8.952293">
        <ele>971.875264</ele>
        <time>2021-07-11T09:59:21.000Z</time>
      </trkpt>
      <trkpt lat="49.159338" lon="8.952695">
        <ele>972.177675</ele>
        <time>2021-07-11T09:59:26.000Z</time>
      </trkpt>
      <trkpt lat="49.159378" lon="8.953083">
        <ele>972.472902</ele>
        <time>2021-07-11T09:59:31.000Z</time>
      </trkpt>
      <trkpt lat="49.159388" lon="8.953480">
        <ele>972.771512</ele>
        <time>2021-07-11T09:59:36.000Z</time>
      </trkpt>
      <trkpt lat="49.159397" lon="8.953860">
        <ele>973.057311</ele>
        <time>2021-07-11T09:59:41.000Z</time>
      </trkpt>
      <trkpt lat="49.159445" lon="8.954250">
        <ele>973.355585</ele>
        <time>2021-07-11T09:59:46.000Z</time>
      </trkpt>
      <trkpt lat="49.159457" lon="8.954625">
        <ele>973.637775</ele>
        <time>2021-07-11T09:59:51.000Z</time>
      </trkpt>
      <trkpt lat="49.159483" lon="8.955028">
        <ele>974.139890</ele>
        <time>2021-07-11T09:59:56.000Z</time>
      </trkpt>
      <trkpt lat="49.159518" lon="8.955413">
        <ele>974.769357</ele>
        <time>2021-07-11T10:00:01.000Z</time>
      </trkpt>
      <trkpt lat="49.159522" lon="8.955775">
        <ele>975.355666</ele>
        <time>2021-07-11T10:00:06.000Z</time>
      </trkpt>
      <trkpt lat="49.159565" lon="8.956172">
        <ele>976.007328</ele>
        <time>2021-07-11T10:00:11.000Z</time>
      </trkpt>
      <trkpt lat="49.159583" lon="8.956523">
        <ele>976.577484</ele>
        <time>2021-07-11T10:00:16.000Z</time>
      </trkpt>
      <trkpt lat="49.159548" lon="8.956827">
        <ele>977.077354</ele>
        <time>2021-07-11T10:00:21.000Z</time>
      </trkpt>
      <trkpt lat="49.159532" lon="8.957132">
        <ele>977.572859</ele>
        <time>2021-07-11T10:00:26.000Z</time>
      </trkpt>
      <trkpt lat="49.159577" lon="8.957440">
        <ele>978.083933</ele>
        <time>2021-07-11T10:00:31.000Z</time>
      </trkpt>
      <trkpt lat="49.159582" lon="8.957803">
        <ele>978.155703</ele>
        <time>2021-07-11T10:00:36.000Z</time>
      </trkpt>
      <trkpt lat="49.159572" lon="8.958210">
        <ele>978.053603</ele>
        <time>2021-07-11T10:00:41.000Z</time>
      </trkpt>
      <trkpt lat="49.159562" lon="8.958677">
        <ele>977.936472</ele>
        <time>2021-07-11T10:00:46.000Z</time>
      </trkpt>
      <trkpt lat="49.159522" lon="8.959132">
        <ele>977.821385</ele>
        <time>2021-07-11T10:00:51.000Z</time>
      </trkpt>
      <trkpt lat="49.159488" lon="8.959580">
        <ele>977.708325</ele>
        <time>2021-07-11T10:00:56.000Z</time>
      </trkpt>
      <trkpt lat="49.159472" lon="8.960008">
        <ele>977.600858</ele>
        <time>2021-07-11T10:01:01.000Z</time>
      </trkpt>
      <trkpt lat="49.159495" lon="8.960362">
        <ele>977.452221</ele>
        <time>2021-07-11T10:01:06.000Z</time>
      </trkpt>
      <trkpt lat="49.159535" lon="8.960537">
        <ele>977.289359</ele>
        <time>2021-07-11T10:01:11.000Z</time>
      </trkpt>
      <trkpt lat="49.159550" lon="8.960552">
        <ele>977.265281</ele>
        <time>2021-07-11T10:01:12.000Z</time>
      </trkpt>
      <trkpt lat="49.159462" lon="8.960443">
        <ele>977.113144</ele>
        <time>2021-07-11T10:01:16.000Z</time>
      </trkpt>
      <trkpt lat="49.159330" lon="8.960255">
        <ele>976.870813</ele>
        <time>2021-07-11T10:01:21.000Z</time>
      </trkpt>
      <trkpt lat="49.159273" lon="8.960005">
        <ele>976.638215</ele>
        <time>2021-07-11T10:01:26.000Z</time>
      </trkpt>
      <trkpt lat="49.159283" lon="8.959695">
        <ele>976.365540</ele>
        <time>2021-07-11T10:01:31.000Z</time>
      </trkpt>
      <trkpt lat="49.159303" lon="8.959183">
        <ele>975.914932</ele>
        <time>2021-07-11T10:01:36.000Z</time>
      </trkpt>
      <trkpt lat="49.159263" lon="8.958803">
        <ele>975.576794</ele>
        <time>2021-07-11T10:01:41.000Z</time>
      </trkpt>
      <trkpt lat="49.159135" lon="8.958398">
        <ele>975.181615</ele>
        <time>2021-07-11T10:01:46.000Z</time>
      </trkpt>
      <trkpt lat="49.158988" lon="8.958012">
        <ele>974.530526</ele>
        <time>2021-07-11T10:01:51.000Z</time>
      </trkpt>
      <trkpt lat="49.158788" lon="8.957740">
        <ele>973.889048</ele>
        <time>2021-07-11T10:01:56.000Z</time>
      </trkpt>
      <trkpt lat="49.158537" lon="8.957573">
        <ele>973.233016</ele>
        <time>2021-07-11T10:02:01.000Z</time>
      </trkpt>
      <trkpt lat="49.158277" lon="8.957702">
        <ele>972.577909</ele>
        <time>2021-07-11T10:02:06.000Z</time>
      </trkpt>
      <trkpt lat="49.158087" lon="8.957872">
        <ele>972.050322</ele>
        <time>2021-07-11T10:02:11.000Z</time>
      </trkpt>
      <trkpt lat="49.157822" lon="8.957947">
        <ele>971.404427</ele>
        <time>2021-07-11T10:02:16.000Z</time>
      </trkpt>
      <trkpt lat="49.157682" lon="8.957915">
        <ele>971.065170</ele>
        <time>2021-07-11T10:02:21.000Z</time>
      </trkpt>
      <trkpt lat="49.157497" lon="8.957750">
        <ele>970.947944</ele>
        <time>2021-07-11T10:02:26.000Z</time>
      </trkpt>
      <trkpt lat="49.157317" lon="8.957703">
        <ele>971.185952</ele>
        <time>2021-07-11T10:02:31.000Z</time>
      </trkpt>
      <trkpt lat="49.157283" lon="8.957723">
        <ele>971.233433</ele>
        <time>2021-07-11T10:02:34.000Z</time>
      </trkpt>
      <trkpt lat="49.157217" lon="8.957765">
        <ele>971.326610</ele>
        <time>2021-07-11T10:02:36.000Z</time>
      </trkpt>
      <trkpt lat="49.157162" lon="8.957843">
        <ele>971.424383</ele>
        <time>2021-07-11T10:02:41.000Z</time>
      </trkpt>
      <trkpt lat="49.157103" lon="8.957970">
        <ele>971.557172</ele>
        <time>2021-07-11T10:02:46.000Z</time>
      </trkpt>
      <trkpt lat="49.157035" lon="8.958100">
        <ele>971.699070</ele>
        <time>2021-07-11T10:02:51.000Z</time>
      </trkpt>
      <trkpt lat="49.156967" lon="8.958267">
        <ele>971.866758</ele>
        <time>2021-07-11T10:02:56.000Z</time>
      </trkpt>
      <trkpt lat="49.156918" lon="8.958402">
        <ele>971.998368</ele>
        <time>2021-07-11T10:03:01.000Z</time>
      </trkpt>
      <trkpt lat="49.156840" lon="8.958527">
        <ele>972.145640</ele>
        <time>2021-07-11T10:03:06.000Z</time>
      </trkpt>
      <trkpt lat="49.156832" lon="8.958642">
        <ele>972.244220</ele>
        <time>2021-07-11T10:03:09.000Z</time>
      </trkpt>
      <trkpt lat="49.156840" lon="8.958583">
        <ele>972.295582</ele>
        <time>2021-07-11T10:03:11.000Z</time>
      </trkpt>
      <trkpt lat="49.156895" lon="8.958443">
        <ele>972.434796</ele>
        <time>2021-07-11T10:03:16.000Z</time>
      </trkpt>
      <trkpt lat="49.156990" lon="8.958282">
        <ele>972.619637</ele>
        <time>2021-07-11T10:03:21.000Z</time>
      </trkpt>
      <trkpt lat="49.157072" lon="8.958072">
        <ele>972.828122</ele>
        <time>2021-07-11T10:03:26.000Z</time>
      </trkpt>
      <trkpt lat="49.157223" lon="8.957902">
        <ele>973.072527</ele>
        <time>2021-07-11T10:03:31.000Z</time>
      </trkpt>
      <trkpt lat="49.157283" lon="8.957858">
        <ele>973.150190</ele>
        <time>2021-07-11T10:03:33.000Z</time>
      </trkpt>
      <trkpt lat="49.157350" lon="8.957742">
        <ele>973.097685</ele>
        <time>2021-07-11T10:03:36.000Z</time>
      </trkpt>
      <trkpt lat="49.157312" lon="8.957722">
        <ele>973.076837</ele>
        <time>2021-07-11T10:03:37.000Z</time>
      </trkpt>
      <trkpt lat="49.157400" lon="8.957733">
        <ele>973.031034</ele>
        <time>2021-07-11T10:03:41.000Z</time>
      </trkpt>
      <trkpt lat="49.157547" lon="8.957792">
        <ele>972.952193</ele>
        <time>2021-07-11T10:03:46.000Z</time>
      </trkpt>
      <trkpt lat="49.157652" lon="8.957900">
        <ele>972.886547</ele>
        <time>2021-07-11T10:03:51.000Z</time>
      </trkpt>
      <trkpt lat="49.157805" lon="8.958012">
        <ele>972.798551</ele>
        <time>2021-07-11T10:03:56.000Z</time>
      </trkpt>
      <trkpt lat="49.157947" lon="8.957997">
        <ele>972.724712</ele>
        <time>2021-07-11T10:04:01.000Z</time>
      </trkpt>
      <trkpt lat="49.158092" lon="8.957985">
        <ele>972.649382</ele>
        <time>2021-07-11T10:04:06.000Z</time>
      </trkpt>
      <trkpt lat="49.158203" lon="8.957815">
        <ele>972.567884</ele>
        <time>2021-07-11T10:04:11.000Z</time>
      </trkpt>
      <trkpt lat="49.158383" lon="8.957675">
        <ele>972.463122</ele>
        <time>2021-07-11T10:04:16.000Z</time>
      </trkpt>
      <trkpt lat="49.158528" lon="8.957677">
        <ele>972.387899</ele>
        <time>2021-07-11T10:04:21.000Z</time>
      </trkpt>
      <trkpt lat="49.158660" lon="8.957717">
        <ele>972.318091</ele>
        <time>2021-07-11T10:04:26.000Z</time>
      </trkpt>
      <trkpt lat="49.158770" lon="8.957803">
        <ele>972.254002</ele>
        <time>2021-07-11T10:04:31.000Z</time>
      </trkpt>
      <trkpt lat="49.158890" lon="8.957953">
        <ele>972.370910</ele>
        <time>2021-07-11T10:04:36.000Z</time>
      </trkpt>
      <trkpt lat="49.159000" lon="8.958143">
        <ele>972.653183</ele>
        <time>2021-07-11T10:04:41.000Z</time>
      </trkpt>
      <trkpt lat="49.159097" lon="8.958377">
        <ele>972.961364</ele>
        <time>2021-07-11T10:04:46.000Z</time>
      </trkpt>
      <trkpt lat="49.159197" lon="8.958628">
        <ele>973.288301</ele>
        <time>2021-07-11T10:04:51.000Z</time>
      </trkpt>
      <trkpt lat="49.159250" lon="8.958928">
        <ele>973.633973</ele>
        <time>2021-07-11T10:04:56.000Z</time>
      </trkpt>
      <trkpt lat="49.159273" lon="8.959260">
        <ele>974.005344</ele>
        <time>2021-07-11T10:05:01.000Z</time>
      </trkpt>
      <trkpt lat="49.159232" lon="8.959590">
        <ele>974.378990</ele>
        <time>2021-07-11T10:05:06.000Z</time>
      </trkpt>
      <trkpt lat="49.159208" lon="8.959937">
        <ele>974.767134</ele>
        <time>2021-07-11T10:05:11.000Z</time>
      </trkpt>
      <trkpt lat="49.159292" lon="8.960220">
        <ele>975.112841</ele>
        <time>2021-07-11T10:05:16.000Z</time>
      </trkpt>
      <trkpt lat="49.159477" lon="8.960425">
        <ele>975.330407</ele>
        <time>2021-07-11T10:05:21.000Z</time>
      </trkpt>
      <trkpt lat="49.159567" lon="8.960650">
        <ele>975.398056</ele>
        <time>2021-07-11T10:05:26.000Z</time>
      </trkpt>
      <trkpt lat="49.159637" lon="8.960917">
        <ele>975.471836</ele>
        <time>2021-07-11T10:05:31.000Z</time>
      </trkpt>
      <trkpt lat="49.159698" lon="8.961222">
        <ele>975.553641</ele>
        <time>2021-07-11T10:05:36.000Z</time>
      </trkpt>
      <trkpt lat="49.159745" lon="8.961552">
        <ele>975.640265</ele>
        <time>2021-07-11T10:05:41.000Z</time>
      </trkpt>
      <trkpt lat="49.159717" lon="8.961722">
        <ele>975.685229</ele>
        <time>2021-07-11T10:05:46.000Z</time>
      </trkpt>
      <trkpt lat="49.159748" lon="8.961652">
        <ele>975.706912</ele>
        <time>2021-07-11T10:05:51.000Z</time>
      </trkpt>
      <trkpt lat="49.159740" lon="8.961363">
        <ele>975.781103</ele>
        <time>2021-07-11T10:05:56.000Z</time>
      </trkpt>
      <trkpt lat="49.159695" lon="8.960997">
        <ele>975.876621</ele>
        <time>2021-07-11T10:06:01.000Z</time>
      </trkpt>
      <trkpt lat="49.159598" lon="8.960805">
        <ele>975.938850</ele>
        <time>2021-07-11T10:06:06.000Z</time>
      </trkpt>
      <trkpt lat="49.159508" lon="8.960915">
        <ele>975.984039</ele>
        <time>2021-07-11T10:06:11.000Z</time>
      </trkpt>
      <trkpt lat="49.159528" lon="8.961125">
        <ele>975.967600</ele>
        <time>2021-07-11T10:06:16.000Z</time>
      </trkpt>
      <trkpt lat="49.159378" lon="8.961405">
        <ele>975.938328</ele>
        <time>2021-07-11T10:06:21.000Z</time>
      </trkpt>
      <trkpt lat="49.159220" lon="8.961772">
        <ele>975.902795</ele>
        <time>2021-07-11T10:06:26.000Z</time>
      </trkpt>
      <trkpt lat="49.159170" lon="8.962198">
        <ele>975.867793</ele>
        <time>2021-07-11T10:06:31.000Z</time>
      </trkpt>
      <trkpt lat="49.159092" lon="8.962550">
        <ele>975.837737</ele>
        <time>2021-07-11T10:06:36.000Z</time>
      </trkpt>
      <trkpt lat="49.158998" lon="8.962952">
        <ele>975.803211</ele>
        <time>2021-07-11T10:06:41.000Z</time>
      </trkpt>
      <trkpt lat="49.158965" lon="8.963335">
        <ele>975.771969</ele>
        <time>2021-07-11T10:06:46.000Z</time>
      </trkpt>
      <trkpt lat="49.158883" lon="8.963718">
        <ele>975.817115</ele>
        <time>2021-07-11T10:06:51.000Z</time>
      </trkpt>
      <trkpt lat="49.158800" lon="8.964010">
        <ele>975.879218</ele>
        <time>2021-07-11T10:06:56.000Z</time>
      </trkpt>
      <trkpt lat="49.158898" lon="8.964468">
        <ele>975.973214</ele>
        <time>2021-07-11T10:07:01.000Z</time>
      </trkpt>
      <trkpt lat="49.159003" lon="8.964900">
        <ele>976.063109</ele>
        <time>2021-07-11T10:07:06.000Z</time>
      </trkpt>
      <trkpt lat="49.159085" lon="8.965263">
        <ele>976.138018</ele>
        <time>2021-07-11T10:07:11.000Z</time>
      </trkpt>
      <trkpt lat="49.159048" lon="8.965583">
        <ele>976.201404</ele>
        <time>2021-07-11T10:07:16.000Z</time>
      </trkpt>
      <trkpt lat="49.159007" lon="8.965833">
        <ele>976.251677</ele>
        <time>2021-07-11T10:07:21.000Z</time>
      </trkpt>
      <trkpt lat="49.158967" lon="8.966078">
        <ele>976.304871</ele>
        <time>2021-07-11T10:07:26.000Z</time>
      </trkpt>
      <trkpt lat="49.158972" lon="8.966382">
        <ele>976.465862</ele>
        <time>2021-07-11T10:07:31.000Z</time>
      </trkpt>
      <trkpt lat="49.158855" lon="8.966823">
        <ele>976.717812</ele>
        <time>2021-07-11T10:07:36.000Z</time>
      </trkpt>
      <trkpt lat="49.158768" lon="8.967198">
        <ele>976.928463</ele>
        <time>2021-07-11T10:07:41.000Z</time>
      </trkpt>
      <trkpt lat="49.158648" lon="8.967552">
        <ele>977.139555</ele>
        <time>2021-07-11T10:07:46.000Z</time>
      </trkpt>
      <trkpt lat="49.158527" lon="8.967887">
        <ele>977.342161</ele>
        <time>2021-07-11T10:07:51.000Z</time>
      </trkpt>
      <trkpt lat="49.158415" lon="8.968207">
        <ele>977.534310</ele>
        <time>2021-07-11T10:07:56.000Z</time>
      </trkpt>
      <trkpt lat="49.158303" lon="8.968525">
        <ele>977.725526</ele>
        <time>2021-07-11T10:08:01.000Z</time>
      </trkpt>
      <trkpt lat="49.158237" lon="8.968903">
        <ele>977.967975</ele>
        <time>2021-07-11T10:08:06.000Z</time>
      </trkpt>
      <trkpt lat="49.158183" lon="8.969282">
        <ele>978.214089</ele>
        <time>2021-07-11T10:08:11.000Z</time>
      </trkpt>
      <trkpt lat="49.158120" lon="8.969642">
        <ele>978.450545</ele>
        <time>2021-07-11T10:08:16.000Z</time>
      </trkpt>
      <trkpt lat="49.158030" lon="8.969982">
        <ele>978.683275</ele>
        <time>2021-07-11T10:08:21.000Z</time>
      </trkpt>
      <trkpt lat="49.157970" lon="8.970323">
        <ele>978.907333</ele>
        <time>2021-07-11T10:08:26.000Z</time>
      </trkpt>
      <trkpt lat="49.157955" lon="8.970682">
        <ele>979.135583</ele>
        <time>2021-07-11T10:08:31.000Z</time>
      </trkpt>
      <trkpt lat="49.157932" lon="8.970990">
        <ele>979.332278</ele>
        <time>2021-07-11T10:08:36.000Z</time>
      </trkpt>
      <trkpt lat="49.157887" lon="8.971172">
        <ele>979.455734</ele>
        <time>2021-07-11T10:08:41.000Z</time>
      </trkpt>
      <trkpt lat="49.157797" lon="8.971198">
        <ele>979.530201</ele>
        <time>2021-07-11T10:08:46.000Z</time>
      </trkpt>
      <trkpt lat="49.157762" lon="8.971375">
        <ele>979.609843</ele>
        <time>2021-07-11T10:08:51.000Z</time>
      </trkpt>
      <trkpt lat="49.157743" lon="8.971587">
        <ele>979.702003</ele>
        <time>2021-07-11T10:08:56.000Z</time>
      </trkpt>
      <trkpt lat="49.157715" lon="8.971988">
        <ele>979.875693</ele>
        <time>2021-07-11T10:09:01.000Z</time>
      </trkpt>
      <trkpt lat="49.157637" lon="8.972370">
        <ele>980.048051</ele>
        <time>2021-07-11T10:09:06.000Z</time>
      </trkpt>
      <trkpt lat="49.157532" lon="8.972717">
        <ele>980.212725</ele>
        <time>2021-07-11T10:09:11.000Z</time>
      </trkpt>
      <trkpt lat="49.157432" lon="8.973078">
        <ele>980.381579</ele>
        <time>2021-07-11T10:09:16.000Z</time>
      </trkpt>
      <trkpt lat="49.157342" lon="8.973445">
        <ele>980.550392</ele>
        <time>2021-07-11T10:09:21.000Z</time>
      </trkpt>
      <trkpt lat="49.157235" lon="8.973788">
        <ele>980.692246</ele>
        <time>2021-07-11T10:09:26.000Z</time>
      </trkpt>
      <trkpt lat="49.157155" lon="8.974125">
        <ele>980.733397</ele>
        <time>2021-07-11T10:09:31.000Z</time>
      </trkpt>
      <trkpt lat="49.157118" lon="8.974445">
        <ele>980.770697</ele>
        <time>2021-07-11T10:09:36.000Z</time>
      </trkpt>
      <trkpt lat="49.157082" lon="8.974738">
        <ele>980.804917</ele>
        <time>2021-07-11T10:09:41.000Z</time>
      </trkpt>
      <trkpt lat="49.157035" lon="8.975058">
        <ele>980.842562</ele>
        <time>2021-07-11T10:09:46.000Z</time>
      </trkpt>
      <trkpt lat="49.157063" lon="8.975413">
        <ele>980.883605</ele>
        <time>2021-07-11T10:09:51.000Z</time>
      </trkpt>
      <trkpt lat="49.157017" lon="8.975803">
        <ele>980.929092</ele>
        <time>2021-07-11T10:09:56.000Z</time>
      </trkpt>
      <trkpt lat="49.156958" lon="8.976252">
        <ele>980.981660</ele>
        <time>2021-07-11T10:10:01.000Z</time>
      </trkpt>
      <trkpt lat="49.156950" lon="8.976632">
        <ele>981.055253</ele>
        <time>2021-07-11T10:10:06.000Z</time>
      </trkpt>
      <trkpt lat="49.156927" lon="8.976985">
        <ele>981.144181</ele>
        <time>2021-07-11T10:10:11.000Z</time>
      </trkpt>
      <trkpt lat="49.156920" lon="8.977397">
        <ele>981.247496</ele>
        <time>2021-07-11T10:10:16.000Z</time>
      </trkpt>
      <trkpt lat="49.156862" lon="8.977763">
        <ele>981.341899</ele>
        <time>2021-07-11T10:10:21.000Z</time>
      </trkpt>
      <trkpt lat="49.156848" lon="8.978140">
        <ele>981.436558</ele>
        <time>2021-07-11T10:10:26.000Z</time>
      </trkpt>
      <trkpt lat="49.156870" lon="8.978485">
        <ele>981.523453</ele>
        <time>2021-07-11T10:10:31.000Z</time>
      </trkpt>
      <trkpt lat="49.156878" lon="8.978767">
        <ele>981.594211</ele>
        <time>2021-07-11T10:10:36.000Z</time>
      </trkpt>
      <trkpt lat="49.156867" lon="8.978970">
        <ele>981.645273</ele>
        <time>2021-07-11T10:10:41.000Z</time>
      </trkpt>
      <trkpt lat="49.156830" lon="8.979128">
        <ele>981.687343</ele>
        <time>2021-07-11T10:10:46.000Z</time>
      </trkpt>
      <trkpt lat="49.156813" lon="8.979278">
        <ele>981.736190</ele>
        <time>2021-07-11T10:10:51.000Z</time>
      </trkpt>
      <trkpt lat="49.156703" lon="8.979318">
        <ele>981.792366</ele>
        <time>2021-07-11T10:10:56.000Z</time>
      </trkpt>
      <trkpt lat="49.156590" lon="8.979343">
        <ele>981.849093</ele>
        <time>2021-07-11T10:11:01.000Z</time>
      </trkpt>
      <trkpt lat="49.156515" lon="8.979547">
        <ele>981.925135</ele>
        <time>2021-07-11T10:11:06.000Z</time>
      </trkpt>
      <trkpt lat="49.156462" lon="8.979783">
        <ele>982.006213</ele>
        <time>2021-07-11T10:11:11.000Z</time>
      </trkpt>
      <trkpt lat="49.156382" lon="8.980023">
        <ele>982.093742</ele>
        <time>2021-07-11T10:11:16.000Z</time>
      </trkpt>
      <trkpt lat="49.156337" lon="8.980208">
        <ele>982.157877</ele>
        <time>2021-07-11T10:11:21.000Z</time>
      </trkpt>
      <trkpt lat="49.156230" lon="8.980395">
        <ele>982.238612</ele>
        <time>2021-07-11T10:11:26.000Z</time>
      </trkpt>
      <trkpt lat="49.156127" lon="8.980542">
        <ele>982.308615</ele>
        <time>2021-07-11T10:11:31.000Z</time>
      </trkpt>
      <trkpt lat="49.156037" lon="8.980567">
        <ele>982.354062</ele>
        <time>2021-07-11T10:11:36.000Z</time>
      </trkpt>
      <trkpt lat="49.155995" lon="8.980530">
        <ele>982.378145</ele>
        <time>2021-07-11T10:11:41.000Z</time>
      </trkpt>
      <trkpt lat="49.155983" lon="8.980540">
        <ele>982.384935</ele>
        <time>2021-07-11T10:11:46.000Z</time>
      </trkpt>
      <trkpt lat="49.155973" lon="8.980558">
        <ele>982.392609</ele>
        <time>2021-07-11T10:11:46.000Z</time>
      </trkpt>
      <trkpt lat="49.156037" lon="8.980665">
        <ele>982.439725</ele>
        <time>2021-07-11T10:11:51.000Z</time>
      </trkpt>
      <trkpt lat="49.156065" lon="8.980778">
        <ele>982.478989</ele>
        <time>2021-07-11T10:11:56.000Z</time>
      </trkpt>
      <trkpt lat="49.155995" lon="8.980990">
        <ele>982.556156</ele>
        <time>2021-07-11T10:12:01.000Z</time>
      </trkpt>
      <trkpt lat="49.155897" lon="8.981117">
        <ele>982.641597</ele>
        <time>2021-07-11T10:12:06.000Z</time>
      </trkpt>
      <trkpt lat="49.155823" lon="8.981258">
        <ele>982.734740</ele>
        <time>2021-07-11T10:12:11.000Z</time>
      </trkpt>
      <trkpt lat="49.155710" lon="8.981357">
        <ele>982.837336</ele>
        <time>2021-07-11T10:12:16.000Z</time>
      </trkpt>
      <trkpt lat="49.155638" lon="8.981542">
        <ele>982.948250</ele>
        <time>2021-07-11T10:12:21.000Z</time>
      </trkpt>
      <trkpt lat="49.155548" lon="8.981785">
        <ele>983.092128</ele>
        <time>2021-07-11T10:12:26.000Z</time>
      </trkpt>
      <trkpt lat="49.155503" lon="8.982063">
        <ele>983.239679</ele>
        <time>2021-07-11T10:12:31.000Z</time>
      </trkpt>
      <trkpt lat="49.155497" lon="8.982213">
        <ele>983.317106</ele>
        <time>2021-07-11T10:12:36.000Z</time>
      </trkpt>
      <trkpt lat="49.155487" lon="8.982360">
        <ele>983.393251</ele>
        <time>2021-07-11T10:12:41.000Z</time>
      </trkpt>
      <trkpt lat="49.155460" lon="8.982460">
        <ele>983.448990</ele>
        <time>2021-07-11T10:12:46.000Z</time>
      </trkpt>
      <trkpt lat="49.155468" lon="8.982400">
        <ele>983.480538</ele>
        <time>2021-07-11T10:12:50.000Z</time>
      </trkpt>
      <trkpt lat="49.155537" lon="8.982275">
        <ele>983.564813</ele>
        <time>2021-07-11T10:12:51.000Z</time>
      </trkpt>
      <trkpt lat="49.155658" lon="8.982373">
        <ele>983.672681</ele>
        <time>2021-07-11T10:12:56.000Z</time>
      </trkpt>
      <trkpt lat="49.155802" lon="8.982447">
        <ele>983.792356</ele>
        <time>2021-07-11T10:13:01.000Z</time>
      </trkpt>
      <trkpt lat="49.155898" lon="8.982510">
        <ele>983.874654</ele>
        <time>2021-07-11T10:13:05.000Z</time>
      </trkpt>
      <trkpt lat="49.155955" lon="8.982468">
        <ele>983.924499</ele>
        <time>2021-07-11T10:13:06.000Z</time>
      </trkpt>
      <trkpt lat="49.155902" lon="8.982402">
        <ele>983.978346</ele>
        <time>2021-07-11T10:13:11.000Z</time>
      </trkpt>
      <trkpt lat="49.155793" lon="8.982357">
        <ele>984.003131</ele>
        <time>2021-07-11T10:13:14.000Z</time>
      </trkpt>
      <trkpt lat="49.155738" lon="8.982345">
        <ele>984.005168</ele>
        <time>2021-07-11T10:13:16.000Z</time>
      </trkpt>
      <trkpt lat="49.155585" lon="8.982290">
        <ele>984.010930</ele>
        <time>2021-07-11T10:13:21.000Z</time>
      </trkpt>
      <trkpt lat="49.155538" lon="8.982263">
        <ele>984.012771</ele>
        <time>2021-07-11T10:13:23.000Z</time>
      </trkpt>
      <trkpt lat="49.155455" lon="8.982310">
        <ele>984.016016</ele>
        <time>2021-07-11T10:13:26.000Z</time>
      </trkpt>
      <trkpt lat="49.155412" lon="8.982518">
        <ele>984.021246</ele>
        <time>2021-07-11T10:13:31.000Z</time>
      </trkpt>
      <trkpt lat="49.155458" lon="8.982732">
        <ele>984.026647</ele>
        <time>2021-07-11T10:13:36.000Z</time>
      </trkpt>
      <trkpt lat="49.155483" lon="8.982967">
        <ele>984.032356</ele>
        <time>2021-07-11T10:13:41.000Z</time>
      </trkpt>
      <trkpt lat="49.155508" lon="8.983222">
        <ele>984.038538</ele>
        <time>2021-07-11T10:13:46.000Z</time>
      </trkpt>
      <trkpt lat="49.155530" lon="8.983457">
        <ele>984.044230</ele>
        <time>2021-07-11T10:13:51.000Z</time>
      </trkpt>
      <trkpt lat="49.155525" lon="8.983652">
        <ele>984.048909</ele>
        <time>2021-07-11T10:13:56.000Z</time>
      </trkpt>
      <trkpt lat="49.155490" lon="8.983887">
        <ele>984.054687</ele>
        <time>2021-07-11T10:14:01.000Z</time>
      </trkpt>
      <trkpt lat="49.155438" lon="8.984127">
        <ele>984.060749</ele>
        <time>2021-07-11T10:14:06.000Z</time>
      </trkpt>
      <trkpt lat="49.155338" lon="8.984335">
        <ele>984.092512</ele>
        <time>2021-07-11T10:14:11.000Z</time>
      </trkpt>
      <trkpt lat="49.155153" lon="8.984503">
        <ele>984.302264</ele>
        <time>2021-07-11T10:14:16.000Z</time>
      </trkpt>
      <trkpt lat="49.154983" lon="8.984697">
        <ele>984.509053</ele>
        <time>2021-07-11T10:14:21.000Z</time>
      </trkpt>
      <trkpt lat="49.154832" lon="8.984878">
        <ele>984.696093</ele>
        <time>2021-07-11T10:14:26.000Z</time>
      </trkpt>
      <trkpt lat="49.154645" lon="8.985175">
        <ele>984.958935</ele>
        <time>2021-07-11T10:14:31.000Z</time>
      </trkpt>
      <trkpt lat="49.154532" lon="8.985408">
        <ele>985.143872</ele>
        <time>2021-07-11T10:14:36.000Z</time>
      </trkpt>
      <trkpt lat="49.154340" lon="8.985618">
        <ele>985.373997</ele>
        <time>2021-07-11T10:14:41.000Z</time>
      </trkpt>
      <trkpt lat="49.154157" lon="8.985867">
        <ele>985.612800</ele>
        <time>2021-07-11T10:14:46.000Z</time>
      </trkpt>
      <trkpt lat="49.153977" lon="8.986062">
        <ele>985.825396</ele>
        <time>2021-07-11T10:14:51.000Z</time>
      </trkpt>
      <trkpt lat="49.153832" lon="8.986302">
        <ele>985.973852</ele>
        <time>2021-07-11T10:14:56.000Z</time>
      </trkpt>
      <trkpt lat="49.153640" lon="8.986558">
        <ele>986.150833</ele>
        <time>2021-07-11T10:15:01.000Z</time>
      </trkpt>
      <trkpt lat="49.153488" lon="8.986740">
        <ele>986.284958</ele>
        <time>2021-07-11T10:15:06.000Z</time>
      </trkpt>
      <trkpt lat="49.153370" lon="8.986917">
        <ele>986.399799</ele>
        <time>2021-07-11T10:15:11.000Z</time>
      </trkpt>
      <trkpt lat="49.153353" lon="8.986970">
        <ele>986.426621</ele>
        <time>2021-07-11T10:15:16.000Z</time>
      </trkpt>
      <trkpt lat="49.153352" lon="8.986932">
        <ele>986.443901</ele>
        <time>2021-07-11T10:15:19.000Z</time>
      </trkpt>
      <trkpt lat="49.153293" lon="8.986930">
        <ele>986.484900</ele>
        <time>2021-07-11T10:15:21.000Z</time>
      </trkpt>
      <trkpt lat="49.153245" lon="8.986880">
        <ele>986.525251</ele>
        <time>2021-07-11T10:15:26.000Z</time>
      </trkpt>
      <trkpt lat="49.153227" lon="8.986882">
        <ele>986.537789</ele>
        <time>2021-07-11T10:15:29.000Z</time>
      </trkpt>
      <trkpt lat="49.153187" lon="8.986738">
        <ele>986.608875</ele>
        <time>2021-07-11T10:15:31.000Z</time>
      </trkpt>
      <trkpt lat="49.153187" lon="8.986738">
        <ele>986.608875</ele>
        <time>2021-07-11T10:15:31.000Z</time>
      </trkpt>
      <trkpt lat="49.153303" lon="8.986975">
        <ele>986.743378</ele>
        <time>2021-07-11T10:15:36.000Z</time>
      </trkpt>
      <trkpt lat="49.153317" lon="8.986998">
        <ele>986.757654</ele>
        <time>2021-07-11T10:15:39.000Z</time>
      </trkpt>
      <trkpt lat="49.153262" lon="8.987073">
        <ele>986.808853</ele>
        <time>2021-07-11T10:15:41.000Z</time>
      </trkpt>
      <trkpt lat="49.153213" lon="8.987112">
        <ele>986.847231</ele>
        <time>2021-07-11T10:15:43.000Z</time>
      </trkpt>
      <trkpt lat="49.153130" lon="8.987257">
        <ele>986.934785</ele>
        <time>2021-07-11T10:15:46.000Z</time>
      </trkpt>
      <trkpt lat="49.153060" lon="8.987408">
        <ele>987.018883</ele>
        <time>2021-07-11T10:15:51.000Z</time>
      </trkpt>
      <trkpt lat="49.152962" lon="8.987578">
        <ele>987.142558</ele>
        <time>2021-07-11T10:15:56.000Z</time>
      </trkpt>
      <trkpt lat="49.152842" lon="8.987797">
        <ele>987.323120</ele>
        <time>2021-07-11T10:16:01.000Z</time>
      </trkpt>
      <trkpt lat="49.152747" lon="8.988022">
        <ele>987.492377</ele>
        <time>2021-07-11T10:16:06.000Z</time>
      </trkpt>
      <trkpt lat="49.152657" lon="8.988295">
        <ele>987.685593</ele>
        <time>2021-07-11T10:16:11.000Z</time>
      </trkpt>
      <trkpt lat="49.152555" lon="8.988562">
        <ele>987.881014</ele>
        <time>2021-07-11T10:16:16.000Z</time>
      </trkpt>
      <trkpt lat="49.152438" lon="8.988817">
        <ele>988.077877</ele>
        <time>2021-07-11T10:16:21.000Z</time>
      </trkpt>
      <trkpt lat="49.152320" lon="8.988978">
        <ele>988.230701</ele>
        <time>2021-07-11T10:16:26.000Z</time>
      </trkpt>
      <trkpt lat="49.152187" lon="8.989238">
        <ele>988.439312</ele>
        <time>2021-07-11T10:16:31.000Z</time>
      </trkpt>
      <trkpt lat="49.152118" lon="8.989580">
        <ele>988.665510</ele>
        <time>2021-07-11T10:16:36.000Z</time>
      </trkpt>
      <trkpt lat="49.152038" lon="8.989882">
        <ele>988.887091</ele>
        <time>2021-07-11T10:16:41.000Z</time>
      </trkpt>
      <trkpt lat="49.151938" lon="8.990183">
        <ele>989.152214</ele>
        <time>2021-07-11T10:16:46.000Z</time>
      </trkpt>
      <trkpt lat="49.151845" lon="8.990482">
        <ele>989.412219</ele>
        <time>2021-07-11T10:16:51.000Z</time>
      </trkpt>
      <trkpt lat="49.151742" lon="8.990788">
        <ele>989.682478</ele>
        <time>2021-07-11T10:16:56.000Z</time>
      </trkpt>
      <trkpt lat="49.151652" lon="8.991107">
        <ele>989.955304</ele>
        <time>2021-07-11T10:17:01.000Z</time>
      </trkpt>
      <trkpt lat="49.151565" lon="8.991407">
        <ele>990.213016</ele>
        <time>2021-07-11T10:17:06.000Z</time>
      </trkpt>
      <trkpt lat="49.151460" lon="8.991722">
        <ele>990.490662</ele>
        <time>2021-07-11T10:17:11.000Z</time>
      </trkpt>
      <trkpt lat="49.151338" lon="8.992053">
        <ele>990.789033</ele>
        <time>2021-07-11T10:17:16.000Z</time>
      </trkpt>
      <trkpt lat="49.151243" lon="8.992355">
        <ele>991.047198</ele>
        <time>2021-07-11T10:17:21.000Z</time>
      </trkpt>
      <trkpt lat="49.151152" lon="8.992652">
        <ele>991.289726</ele>
        <time>2021-07-11T10:17:26.000Z</time>
      </trkpt>
      <trkpt lat="49.151088" lon="8.992835">
        <ele>991.443181</ele>
        <time>2021-07-11T10:17:31.000Z</time>
      </trkpt>
      <trkpt lat="49.151188" lon="8.992928">
        <ele>991.575513</ele>
        <time>2021-07-11T10:17:36.000Z</time>
      </trkpt>
      <trkpt lat="49.151362" lon="8.993067">
        <ele>991.797469</ele>
        <time>2021-07-11T10:17:41.000Z</time>
      </trkpt>
      <trkpt lat="49.151547" lon="8.993228">
        <ele>992.038138</ele>
        <time>2021-07-11T10:17:46.000Z</time>
      </trkpt>
      <trkpt lat="49.151518" lon="8.993498">
        <ele>992.240470</ele>
        <time>2021-07-11T10:17:51.000Z</time>
      </trkpt>
      <trkpt lat="49.151405" lon="8.993822">
        <ele>992.511993</ele>
        <time>2021-07-11T10:17:56.000Z</time>
      </trkpt>
      <trkpt lat="49.151268" lon="8.994123">
        <ele>992.783164</ele>
        <time>2021-07-11T10:18:01.000Z</time>
      </trkpt>
      <trkpt lat="49.151160" lon="8.994390">
        <ele>993.007337</ele>
        <time>2021-07-11T10:18:06.000Z</time>
      </trkpt>
      <trkpt lat="49.151013" lon="8.994662">
        <ele>993.132385</ele>
        <time>2021-07-11T10:18:11.000Z</time>
      </trkpt>
      <trkpt lat="49.150787" lon="8.994827">
        <ele>993.268088</ele>
        <time>2021-07-11T10:18:16.000Z</time>
      </trkpt>
      <trkpt lat="49.150733" lon="8.995010">
        <ele>993.339239</ele>
        <time>2021-07-11T10:18:21.000Z</time>
      </trkpt>
      <trkpt lat="49.150778" lon="8.995237">
        <ele>993.423303</ele>
        <time>2021-07-11T10:18:26.000Z</time>
      </trkpt>
      <trkpt lat="49.150778" lon="8.995535">
        <ele>993.528916</ele>
        <time>2021-07-11T10:18:31.000Z</time>
      </trkpt>
      <trkpt lat="49.150803" lon="8.995873">
        <ele>993.649468</ele>
        <time>2021-07-11T10:18:36.000Z</time>
      </trkpt>
      <trkpt lat="49.150817" lon="8.996210">
        <ele>993.769143</ele>
        <time>2021-07-11T10:18:41.000Z</time>
      </trkpt>
      <trkpt lat="49.150823" lon="8.996537">
        <ele>993.885080</ele>
        <time>2021-07-11T10:18:46.000Z</time>
      </trkpt>
      <trkpt lat="49.150775" lon="8.996872">
        <ele>994.095553</ele>
        <time>2021-07-11T10:18:51.000Z</time>
      </trkpt>
      <trkpt lat="49.150670" lon="8.997178">
        <ele>994.558017</ele>
        <time>2021-07-11T10:18:56.000Z</time>
      </trkpt>
      <trkpt lat="49.150532" lon="8.997437">
        <ele>995.005100</ele>
        <time>2021-07-11T10:19:01.000Z</time>
      </trkpt>
      <trkpt lat="49.150387" lon="8.997697">
        <ele>995.462383</ele>
        <time>2021-07-11T10:19:06.000Z</time>
      </trkpt>
      <trkpt lat="49.150323" lon="8.997990">
        <ele>995.875805</ele>
        <time>2021-07-11T10:19:11.000Z</time>
      </trkpt>
      <trkpt lat="49.150440" lon="8.998293">
        <ele>996.346715</ele>
        <time>2021-07-11T10:19:16.000Z</time>
      </trkpt>
      <trkpt lat="49.150590" lon="8.998582">
        <ele>996.840476</ele>
        <time>2021-07-11T10:19:21.000Z</time>
      </trkpt>
      <trkpt lat="49.150737" lon="8.998855">
        <ele>997.313722</ele>
        <time>2021-07-11T10:19:26.000Z</time>
      </trkpt>
      <trkpt lat="49.150875" lon="8.999103">
        <ele>997.834453</ele>
        <time>2021-07-11T10:19:31.000Z</time>
      </trkpt>
      <trkpt lat="49.151002" lon="8.999380">
        <ele>998.693763</ele>
        <time>2021-07-11T10:19:36.000Z</time>
      </trkpt>
      <trkpt lat="49.151118" lon="8.999617">
        <ele>999.445708</ele>
        <time>2021-07-11T10:19:41.000Z</time>
      </trkpt>
      <trkpt lat="49.151235" lon="8.999810">
        <ele>1000.114173</ele>
        <time>2021-07-11T10:19:46.000Z</time>
      </trkpt>
      <trkpt lat="49.151327" lon="9.000077">
        <ele>1000.880780</ele>
        <time>2021-07-11T10:19:51.000Z</time>
      </trkpt>
      <trkpt lat="49.151417" lon="9.000302">
        <ele>1001.550745</ele>
        <time>2021-07-11T10:19:56.000Z</time>
      </trkpt>
      <trkpt lat="49.151505" lon="9.000512">
        <ele>1002.184289</ele>
        <time>2021-07-11T10:20:01.000Z</time>
      </trkpt>
      <trkpt lat="49.151587" lon="9.000702">
        <ele>1002.762535</ele>
        <time>2021-07-11T10:20:06.000Z</time>
      </trkpt>
      <trkpt lat="49.151633" lon="9.000875">
        <ele>1003.236921</ele>
        <time>2021-07-11T10:20:11.000Z</time>
      </trkpt>
      <trkpt lat="49.151635" lon="9.000918">
        <ele>1003.346426</ele>
        <time>2021-07-11T10:20:14.000Z</time>
      </trkpt>
      <trkpt lat="49.151630" lon="9.000928">
        <ele>1003.378401</ele>
        <time>2021-07-11T10:20:16.000Z</time>
      </trkpt>
      <trkpt lat="49.151638" lon="9.000917">
        <ele>1003.420188</ele>
        <time>2021-07-11T10:20:18.000Z</time>
      </trkpt>
      <trkpt lat="49.151672" lon="9.000952">
        <ele>1003.579378</ele>
        <time>2021-07-11T10:20:21.000Z</time>
      </trkpt>
      <trkpt lat="49.151738" lon="9.001152">
        <ele>1004.148425</ele>
        <time>2021-07-11T10:20:26.000Z</time>
      </trkpt>
      <trkpt lat="49.151767" lon="9.001437">
        <ele>1004.862964</ele>
        <time>2021-07-11T10:20:31.000Z</time>
      </trkpt>
      <trkpt lat="49.151842" lon="9.001740">
        <ele>1005.623919</ele>
        <time>2021-07-11T10:20:36.000Z</time>
      </trkpt>
      <trkpt lat="49.151903" lon="9.002085">
        <ele>1006.463351</ele>
        <time>2021-07-11T10:20:41.000Z</time>
      </trkpt>
      <trkpt lat="49.151943" lon="9.002377">
        <ele>1007.164088</ele>
        <time>2021-07-11T10:20:46.000Z</time>
      </trkpt>
      <trkpt lat="49.152013" lon="9.002633">
        <ele>1007.815818</ele>
        <time>2021-07-11T10:20:51.000Z</time>
      </trkpt>
      <trkpt lat="49.152075" lon="9.002922">
        <ele>1008.530209</ele>
        <time>2021-07-11T10:20:56.000Z</time>
      </trkpt>
      <trkpt lat="49.152137" lon="9.003210">
        <ele>1009.242368</ele>
        <time>2021-07-11T10:21:01.000Z</time>
      </trkpt>
      <trkpt lat="49.152197" lon="9.003475">
        <ele>1009.901043</ele>
        <time>2021-07-11T10:21:06.000Z</time>
      </trkpt>
      <trkpt lat="49.152242" lon="9.003742">
        <ele>1010.548661</ele>
        <time>2021-07-11T10:21:11.000Z</time>
      </trkpt>
      <trkpt lat="49.152290" lon="9.003990">
        <ele>1011.156415</ele>
        <time>2021-07-11T10:21:16.000Z</time>
      </trkpt>
      <trkpt lat="49.152338" lon="9.004225">
        <ele>1011.737545</ele>
        <time>2021-07-11T10:21:21.000Z</time>
      </trkpt>
      <trkpt lat="49.152387" lon="9.004470">
        <ele>1012.342293</ele>
        <time>2021-07-11T10:21:26.000Z</time>
      </trkpt>
      <trkpt lat="49.152440" lon="9.004707">
        <ele>1012.933519</ele>
        <time>2021-07-11T10:21:31.000Z</time>
      </trkpt>
      <trkpt lat="49.152485" lon="9.004948">
        <ele>1013.525118</ele>
        <time>2021-07-11T10:21:36.000Z</time>
      </trkpt>
      <trkpt lat="49.152538" lon="9.005210">
        <ele>1014.172462</ele>
        <time>2021-07-11T10:21:41.000Z</time>
      </trkpt>
      <trkpt lat="49.152560" lon="9.005482">
        <ele>1014.819397</ele>
        <time>2021-07-11T10:21:46.000Z</time>
      </trkpt>
      <trkpt lat="49.152642" lon="9.005692">
        <ele>1015.396713</ele>
        <time>2021-07-11T10:21:51.000Z</time>
      </trkpt>
      <trkpt lat="49.152643" lon="9.005982">
        <ele>1016.081253</ele>
        <time>2021-07-11T10:21:56.000Z</time>
      </trkpt>
      <trkpt lat="49.152690" lon="9.006217">
        <ele>1016.661314</ele>
        <time>2021-07-11T10:22:01.000Z</time>
      </trkpt>
      <trkpt lat="49.152730" lon="9.006447">
        <ele>1017.223082</ele>
        <time>2021-07-11T10:22:06.000Z</time>
      </trkpt>
      <trkpt lat="49.152798" lon="9.006655">
        <ele>1017.680074</ele>
        <time>2021-07-11T10:22:11.000Z</time>
      </trkpt>
      <trkpt lat="49.152872" lon="9.006873">
        <ele>1017.965491</ele>
        <time>2021-07-11T10:22:16.000Z</time>
      </trkpt>
      <trkpt lat="49.152963" lon="9.007142">
        <ele>1018.317423</ele>
        <time>2021-07-11T10:22:21.000Z</time>
      </trkpt>
      <trkpt lat="49.153027" lon="9.007425">
        <ele>1018.665390</ele>
        <time>2021-07-11T10:22:26.000Z</time>
      </trkpt>
      <trkpt lat="49.153072" lon="9.007697">
        <ele>1018.991424</ele>
        <time>2021-07-11T10:22:31.000Z</time>
      </trkpt>
      <trkpt lat="49.153135" lon="9.007942">
        <ele>1019.297342</ele>
        <time>2021-07-11T10:22:36.000Z</time>
      </trkpt>
      <trkpt lat="49.153160" lon="9.008260">
        <ele>1019.669535</ele>
        <time>2021-07-11T10:22:41.000Z</time>
      </trkpt>
      <trkpt lat="49.153218" lon="9.008560">
        <ele>1020.033063</ele>
        <time>2021-07-11T10:22:46.000Z</time>
      </trkpt>
      <trkpt lat="49.153258" lon="9.008837">
        <ele>1020.362704</ele>
        <time>2021-07-11T10:22:51.000Z</time>
      </trkpt>
      <trkpt lat="49.153327" lon="9.009178">
        <ele>1020.777494</ele>
        <time>2021-07-11T10:22:56.000Z</time>
      </trkpt>
      <trkpt lat="49.153408" lon="9.009485">
        <ele>1020.537687</ele>
        <time>2021-07-11T10:23:01.000Z</time>
      </trkpt>
      <trkpt lat="49.153477" lon="9.009803">
        <ele>1020.279530</ele>
        <time>2021-07-11T10:23:06.000Z</time>
      </trkpt>
      <trkpt lat="49.153522" lon="9.010137">
        <ele>1020.016773</ele>
        <time>2021-07-11T10:23:11.000Z</time>
      </trkpt>
      <trkpt lat="49.153560" lon="9.010532">
        <ele>1019.709144</ele>
        <time>2021-07-11T10:23:16.000Z</time>
      </trkpt>
      <trkpt lat="49.153605" lon="9.011005">
        <ele>1019.340854</ele>
        <time>2021-07-11T10:23:21.000Z</time>
      </trkpt>
      <trkpt lat="49.153658" lon="9.011518">
        <ele>1018.940678</ele>
        <time>2021-07-11T10:23:26.000Z</time>
      </trkpt>
      <trkpt lat="49.153718" lon="9.012035">
        <ele>1018.380166</ele>
        <time>2021-07-11T10:23:31.000Z</time>
      </trkpt>
      <trkpt lat="49.153767" lon="9.012565">
        <ele>1017.479020</ele>
        <time>2021-07-11T10:23:36.000Z</time>
      </trkpt>
      <trkpt lat="49.153820" lon="9.013098">
        <ele>1016.571384</ele>
        <time>2021-07-11T10:23:41.000Z</time>
      </trkpt>
      <trkpt lat="49.153858" lon="9.013612">
        <ele>1015.700536</ele>
        <time>2021-07-11T10:23:46.000Z</time>
      </trkpt>
      <trkpt lat="49.153895" lon="9.014148">
        <ele>1014.793149</ele>
        <time>2021-07-11T10:23:51.000Z</time>
      </trkpt>
      <trkpt lat="49.153948" lon="9.014677">
        <ele>1013.888439</ele>
        <time>2021-07-11T10:23:56.000Z</time>
      </trkpt>
      <trkpt lat="49.153977" lon="9.015287">
        <ele>1012.832383</ele>
        <time>2021-07-11T10:24:01.000Z</time>
      </trkpt>
      <trkpt lat="49.153995" lon="9.015862">
        <ele>1011.838404</ele>
        <time>2021-07-11T10:24:06.000Z</time>
      </trkpt>
      <trkpt lat="49.153825" lon="9.016423">
        <ele>1010.770811</ele>
        <time>2021-07-11T10:24:11.000Z</time>
      </trkpt>
      <trkpt lat="49.153785" lon="9.017002">
        <ele>1009.765497</ele>
        <time>2021-07-11T10:24:16.000Z</time>
      </trkpt>
      <trkpt lat="49.153795" lon="9.017538">
        <ele>1008.804132</ele>
        <time>2021-07-11T10:24:21.000Z</time>
      </trkpt>
      <trkpt lat="49.153858" lon="9.018133">
        <ele>1007.681248</ele>
        <time>2021-07-11T10:24:26.000Z</time>
      </trkpt>
      <trkpt lat="49.153957" lon="9.018728">
        <ele>1006.537491</ele>
        <time>2021-07-11T10:24:31.000Z</time>
      </trkpt>
      <trkpt lat="49.154115" lon="9.019287">
        <ele>1005.403023</ele>
        <time>2021-07-11T10:24:36.000Z</time>
      </trkpt>
      <trkpt lat="49.154200" lon="9.019845">
        <ele>1004.335683</ele>
        <time>2021-07-11T10:24:41.000Z</time>
      </trkpt>
      <trkpt lat="49.154290" lon="9.020408">
        <ele>1003.052908</ele>
        <time>2021-07-11T10:24:46.000Z</time>
      </trkpt>
      <trkpt lat="49.154385" lon="9.020948">
        <ele>1001.778706</ele>
        <time>2021-07-11T10:24:51.000Z</time>
      </trkpt>
      <trkpt lat="49.154512" lon="9.021547">
        <ele>1000.343877</ele>
        <time>2021-07-11T10:24:56.000Z</time>
      </trkpt>
      <trkpt lat="49.154583" lon="9.022140">
        <ele>998.970196</ele>
        <time>2021-07-11T10:25:01.000Z</time>
      </trkpt>
      <trkpt lat="49.154682" lon="9.022770">
        <ele>997.587909</ele>
        <time>2021-07-11T10:25:06.000Z</time>
      </trkpt>
      <trkpt lat="49.154705" lon="9.023413">
        <ele>996.460938</ele>
        <time>2021-07-11T10:25:11.000Z</time>
      </trkpt>
      <trkpt lat="49.154883" lon="9.023955">
        <ele>995.399534</ele>
        <time>2021-07-11T10:25:16.000Z</time>
      </trkpt>
      <trkpt lat="49.154943" lon="9.024303">
        <ele>994.769709</ele>
        <time>2021-07-11T10:25:21.000Z</time>
      </trkpt>
      <trkpt lat="49.154775" lon="9.024467">
        <ele>994.236357</ele>
        <time>2021-07-11T10:25:26.000Z</time>
      </trkpt>
      <trkpt lat="49.154590" lon="9.024650">
        <ele>993.646759</ele>
        <time>2021-07-11T10:25:31.000Z</time>
      </trkpt>
      <trkpt lat="49.154380" lon="9.024927">
        <ele>993.097885</ele>
        <time>2021-07-11T10:25:36.000Z</time>
      </trkpt>
      <trkpt lat="49.154113" lon="9.025235">
        <ele>993.153562</ele>
        <time>2021-07-11T10:25:41.000Z</time>
      </trkpt>
      <trkpt lat="49.153865" lon="9.025530">
        <ele>993.205867</ele>
        <time>2021-07-11T10:25:46.000Z</time>
      </trkpt>
      <trkpt lat="49.153633" lon="9.025810">
        <ele>993.255069</ele>
        <time>2021-07-11T10:25:51.000Z</time>
      </trkpt>
      <trkpt lat="49.153415" lon="9.026083">
        <ele>993.301977</ele>
        <time>2021-07-11T10:25:56.000Z</time>
      </trkpt>
      <trkpt lat="49.153213" lon="9.026360">
        <ele>993.347145</ele>
        <time>2021-07-11T10:26:01.000Z</time>
      </trkpt>
      <trkpt lat="49.152977" lon="9.026592">
        <ele>993.387502</ele>
        <time>2021-07-11T10:26:06.000Z</time>
      </trkpt>
      <trkpt lat="49.152685" lon="9.026775">
        <ele>993.397675</ele>
        <time>2021-07-11T10:26:11.000Z</time>
      </trkpt>
      <trkpt lat="49.152393" lon="9.026970">
        <ele>993.407947</ele>
        <time>2021-07-11T10:26:16.000Z</time>
      </trkpt>
      <trkpt lat="49.152130" lon="9.027213">
        <ele>993.417853</ele>
        <time>2021-07-11T10:26:21.000Z</time>
      </trkpt>
      <trkpt lat="49.151898" lon="9.027493">
        <ele>993.427381</ele>
        <time>2021-07-11T10:26:26.000Z</time>
      </trkpt>
      <trkpt lat="49.151705" lon="9.027867">
        <ele>993.437425</ele>
        <time>2021-07-11T10:26:31.000Z</time>
      </trkpt>
      <trkpt lat="49.151542" lon="9.028238">
        <ele>993.186359</ele>
        <time>2021-07-11T10:26:36.000Z</time>
      </trkpt>
      <trkpt lat="49.151407" lon="9.028685">
        <ele>992.260963</ele>
        <time>2021-07-11T10:26:41.000Z</time>
      </trkpt>
      <trkpt lat="49.151213" lon="9.029150">
        <ele>991.224310</ele>
        <time>2021-07-11T10:26:46.000Z</time>
      </trkpt>
      <trkpt lat="49.151012" lon="9.029615">
        <ele>990.176700</ele>
        <time>2021-07-11T10:26:51.000Z</time>
      </trkpt>
      <trkpt lat="49.150798" lon="9.030117">
        <ele>989.050448</ele>
        <time>2021-07-11T10:26:56.000Z</time>
      </trkpt>
      <trkpt lat="49.150627" lon="9.030602">
        <ele>988.052535</ele>
        <time>2021-07-11T10:27:01.000Z</time>
      </trkpt>
      <trkpt lat="49.150467" lon="9.031107">
        <ele>987.150462</ele>
        <time>2021-07-11T10:27:06.000Z</time>
      </trkpt>
      <trkpt lat="49.150272" lon="9.031563">
        <ele>986.274619</ele>
        <time>2021-07-11T10:27:11.000Z</time>
      </trkpt>
      <trkpt lat="49.150063" lon="9.031997">
        <ele>985.408207</ele>
        <time>2021-07-11T10:27:16.000Z</time>
      </trkpt>
      <trkpt lat="49.149818" lon="9.032460">
        <ele>984.450795</ele>
        <time>2021-07-11T10:27:21.000Z</time>
      </trkpt>
      <trkpt lat="49.149603" lon="9.032983">
        <ele>983.448788</ele>
        <time>2021-07-11T10:27:26.000Z</time>
      </trkpt>
      <trkpt lat="49.149407" lon="9.033550">
        <ele>982.394551</ele>
        <time>2021-07-11T10:27:31.000Z</time>
      </trkpt>
      <trkpt lat="49.149145" lon="9.034097">
        <ele>981.280035</ele>
        <time>2021-07-11T10:27:36.000Z</time>
      </trkpt>
      <trkpt lat="49.149020" lon="9.034638">
        <ele>980.336836</ele>
        <time>2021-07-11T10:27:41.000Z</time>
      </trkpt>
      <trkpt lat="49.148963" lon="9.035203">
        <ele>979.397054</ele>
        <time>2021-07-11T10:27:46.000Z</time>
      </trkpt>
      <trkpt lat="49.148932" lon="9.035777">
        <ele>978.856095</ele>
        <time>2021-07-11T10:27:51.000Z</time>
      </trkpt>
      <trkpt lat="49.148898" lon="9.036343">
        <ele>978.350767</ele>
        <time>2021-07-11T10:27:56.000Z</time>
      </trkpt>
      <trkpt lat="49.148868" lon="9.036903">
        <ele>977.851223</ele>
        <time>2021-07-11T10:28:01.000Z</time>
      </trkpt>
      <trkpt lat="49.148837" lon="9.037463">
        <ele>977.351566</ele>
        <time>2021-07-11T10:28:06.000Z</time>
      </trkpt>
      <trkpt lat="49.148735" lon="9.038010">
        <ele>976.855748</ele>
        <time>2021-07-11T10:28:11.000Z</time>
      </trkpt>
      <trkpt lat="49.148610" lon="9.038543">
        <ele>976.466705</ele>
        <time>2021-07-11T10:28:16.000Z</time>
      </trkpt>
      <trkpt lat="49.148477" lon="9.039070">
        <ele>976.078593</ele>
        <time>2021-07-11T10:28:21.000Z</time>
      </trkpt>
      <trkpt lat="49.148367" lon="9.039512">
        <ele>975.753662</ele>
        <time>2021-07-11T10:28:26.000Z</time>
      </trkpt>
      <trkpt lat="49.148282" lon="9.039953">
        <ele>975.437774</ele>
        <time>2021-07-11T10:28:31.000Z</time>
      </trkpt>
      <trkpt lat="49.148270" lon="9.040425">
        <ele>975.113222</ele>
        <time>2021-07-11T10:28:36.000Z</time>
      </trkpt>
      <trkpt lat="49.148280" lon="9.040882">
        <ele>974.915255</ele>
        <time>2021-07-11T10:28:41.000Z</time>
      </trkpt>
      <trkpt lat="49.148272" lon="9.041278">
        <ele>974.800458</ele>
        <time>2021-07-11T10:28:46.000Z</time>
      </trkpt>
      <trkpt lat="49.148158" lon="9.041607">
        <ele>974.692578</ele>
        <time>2021-07-11T10:28:51.000Z</time>
      </trkpt>
      <trkpt lat="49.147962" lon="9.041840">
        <ele>974.582594</ele>
        <time>2021-07-11T10:28:56.000Z</time>
      </trkpt>
      <trkpt lat="49.147777" lon="9.042052">
        <ele>974.480176</ele>
        <time>2021-07-11T10:29:01.000Z</time>
      </trkpt>
      <trkpt lat="49.147583" lon="9.042265">
        <ele>974.374372</ele>
        <time>2021-07-11T10:29:06.000Z</time>
      </trkpt>
      <trkpt lat="49.147343" lon="9.042490">
        <ele>974.249658</ele>
        <time>2021-07-11T10:29:11.000Z</time>
      </trkpt>
      <trkpt lat="49.147102" lon="9.042737">
        <ele>974.079242</ele>
        <time>2021-07-11T10:29:16.000Z</time>
      </trkpt>
      <trkpt lat="49.146862" lon="9.042517">
        <ele>973.892039</ele>
        <time>2021-07-11T10:29:21.000Z</time>
      </trkpt>
      <trkpt lat="49.146732" lon="9.042215">
        <ele>973.733839</ele>
        <time>2021-07-11T10:29:26.000Z</time>
      </trkpt>
      <trkpt lat="49.146575" lon="9.041875">
        <ele>973.551723</ele>
        <time>2021-07-11T10:29:31.000Z</time>
      </trkpt>
      <trkpt lat="49.146378" lon="9.041593">
        <ele>973.371180</ele>
        <time>2021-07-11T10:29:36.000Z</time>
      </trkpt>
      <trkpt lat="49.146085" lon="9.041703">
        <ele>973.169348</ele>
        <time>2021-07-11T10:29:41.000Z</time>
      </trkpt>
      <trkpt lat="49.145867" lon="9.041933">
        <ele>973.000000</ele>
        <time>2021-07-11T10:29:46.000Z</time>
      </trkpt>
      <trkpt lat="49.145777" lon="9.042243">
        <ele>973.000000</ele>
        <time>2021-07-11T10:29:51.000Z</time>
      </trkpt>
      <trkpt lat="49.145768" lon="9.042600">
        <ele>973.000000</ele>
        <time>2021-07-11T10:29:56.000Z</time>
      </trkpt>
      <trkpt lat="49.145843" lon="9.042965">
        <ele>973.000000</ele>
        <time>2021-07-11T10:30:01.000Z</time>
      </trkpt>
      <trkpt lat="49.145915" lon="9.043347">
        <ele>973.000000</ele>
        <time>2021-07-11T10:30:06.000Z</time>
      </trkpt>
      <trkpt lat="49.145953" lon="9.043725">
        <ele>973.000000</ele>
        <time>2021-07-11T10:30:11.000Z</time>
      </trkpt>
      <trkpt lat="49.145958" lon="9.044130">
        <ele>973.000000</ele>
        <time>2021-07-11T10:30:16.000Z</time>
      </trkpt>
      <trkpt lat="49.145923" lon="9.044508">
        <ele>973.000000</ele>
        <time>2021-07-11T10:30:21.000Z</time>
      </trkpt>
      <trkpt lat="49.145865" lon="9.044887">
        <ele>973.000000</ele>
        <time>2021-07-11T10:30:26.000Z</time>
      </trkpt>
      <trkpt lat="49.145817" lon="9.045232">
        <ele>973.000000</ele>
        <time>2021-07-11T10:30:31.000Z</time>
      </trkpt>
      <trkpt lat="49.145753" lon="9.045562">
        <ele>973.000000</ele>
        <time>2021-07-11T10:30:36.000Z</time>
      </trkpt>
      <trkpt lat="49.145727" lon="9.045773">
        <ele>973.000000</ele>
        <time>2021-07-11T10:30:41.000Z</time>
      </trkpt>
      <trkpt lat="49.145713" lon="9.046085">
        <ele>973.000000</ele>
        <time>2021-07-11T10:30:46.000Z</time>
      </trkpt>
      <trkpt lat="49.145718" lon="9.046443">
        <ele>973.000000</ele>
        <time>2021-07-11T10:30:51.000Z</time>
      </trkpt>
      <trkpt lat="49.145750" lon="9.046845">
        <ele>973.000000</ele>
        <time>2021-07-11T10:30:56.000Z</time>
      </trkpt>
      <trkpt lat="49.145773" lon="9.047230">
        <ele>973.000000</ele>
        <time>2021-07-11T10:31:01.000Z</time>
      </trkpt>
      <trkpt lat="49.145778" lon="9.047613">
        <ele>973.000000</ele>
        <time>2021-07-11T10:31:06.000Z</time>
      </trkpt>
      <trkpt lat="49.145717" lon="9.048017">
        <ele>973.000000</ele>
        <time>2021-07-11T10:31:11.000Z</time>
      </trkpt>
      <trkpt lat="49.145603" lon="9.048347">
        <ele>973.000000</ele>
        <time>2021-07-11T10:31:16.000Z</time>
      </trkpt>
      <trkpt lat="49.145468" lon="9.048673">
        <ele>973.000000</ele>
        <time>2021-07-11T10:31:21.000Z</time>
      </trkpt>
      <trkpt lat="49.145310" lon="9.048932">
        <ele>973.000000</ele>
        <time>2021-07-11T10:31:26.000Z</time>
      </trkpt>
      <trkpt lat="49.145148" lon="9.049273">
        <ele>973.000000</ele>
        <time>2021-07-11T10:31:31.000Z</time>
      </trkpt>
      <trkpt lat="49.145025" lon="9.049615">
        <ele>973.000000</ele>
        <time>2021-07-11T10:31:36.000Z</time>
      </trkpt>
      <trkpt lat="49.144957" lon="9.049983">
        <ele>972.965240</ele>
        <time>2021-07-11T10:31:41.000Z</time>
      </trkpt>
      <trkpt lat="49.144872" lon="9.050342">
        <ele>972.918358</ele>
        <time>2021-07-11T10:31:46.000Z</time>
      </trkpt>
      <trkpt lat="49.144785" lon="9.050700">
        <ele>972.871462</ele>
        <time>2021-07-11T10:31:51.000Z</time>
      </trkpt>
      <trkpt lat="49.144643" lon="9.051020">
        <ele>972.823980</ele>
        <time>2021-07-11T10:31:56.000Z</time>
      </trkpt>
      <trkpt lat="49.144475" lon="9.051310">
        <ele>972.776412</ele>
        <time>2021-07-11T10:32:01.000Z</time>
      </trkpt>
      <trkpt lat="49.144297" lon="9.051587">
        <ele>972.728732</ele>
        <time>2021-07-11T10:32:06.000Z</time>
      </trkpt>
      <trkpt lat="49.144163" lon="9.051907">
        <ele>972.682076</ele>
        <time>2021-07-11T10:32:11.000Z</time>
      </trkpt>
      <trkpt lat="49.144003" lon="9.052220">
        <ele>972.408300</ele>
        <time>2021-07-11T10:32:16.000Z</time>
      </trkpt>
      <trkpt lat="49.143832" lon="9.052548">
        <ele>971.958142</ele>
        <time>2021-07-11T10:32:21.000Z</time>
      </trkpt>
      <trkpt lat="49.143660" lon="9.052908">
        <ele>971.479678</ele>
        <time>2021-07-11T10:32:26.000Z</time>
      </trkpt>
      <trkpt lat="49.143512" lon="9.053293">
        <ele>971.000398</ele>
        <time>2021-07-11T10:32:31.000Z</time>
      </trkpt>
      <trkpt lat="49.143387" lon="9.053670">
        <ele>970.546762</ele>
        <time>2021-07-11T10:32:36.000Z</time>
      </trkpt>
      <trkpt lat="49.143157" lon="9.054010">
        <ele>970.021817</ele>
        <time>2021-07-11T10:32:41.000Z</time>
      </trkpt>
      <trkpt lat="49.142955" lon="9.054323">
        <ele>969.524351</ele>
        <time>2021-07-11T10:32:46.000Z</time>
      </trkpt>
      <trkpt lat="49.142705" lon="9.054518">
        <ele>968.990960</ele>
        <time>2021-07-11T10:32:51.000Z</time>
      </trkpt>
      <trkpt lat="49.142543" lon="9.054760">
        <ele>968.560489</ele>
        <time>2021-07-11T10:32:56.000Z</time>
      </trkpt>
      <trkpt lat="49.142357" lon="9.054828">
        <ele>968.197036</ele>
        <time>2021-07-11T10:33:01.000Z</time>
      </trkpt>
      <trkpt lat="49.142135" lon="9.054703">
        <ele>967.747423</ele>
        <time>2021-07-11T10:33:06.000Z</time>
      </trkpt>
      <trkpt lat="49.141927" lon="9.054467">
        <ele>967.255136</ele>
        <time>2021-07-11T10:33:11.000Z</time>
      </trkpt>
      <trkpt lat="49.141680" lon="9.054277">
        <ele>966.729638</ele>
        <time>2021-07-11T10:33:16.000Z</time>
      </trkpt>
      <trkpt lat="49.141400" lon="9.054160">
        <ele>966.283228</ele>
        <time>2021-07-11T10:33:21.000Z</time>
      </trkpt>
      <trkpt lat="49.141115" lon="9.054157">
        <ele>966.236785</ele>
        <time>2021-07-11T10:33:26.000Z</time>
      </trkpt>
      <trkpt lat="49.140868" lon="9.054158">
        <ele>966.196535</ele>
        <time>2021-07-11T10:33:31.000Z</time>
      </trkpt>
      <trkpt lat="49.140685" lon="9.054323">
        <ele>966.161913</ele>
        <time>2021-07-11T10:33:36.000Z</time>
      </trkpt>
      <trkpt lat="49.140428" lon="9.054460">
        <ele>966.117559</ele>
        <time>2021-07-11T10:33:41.000Z</time>
      </trkpt>
      <trkpt lat="49.140257" lon="9.054513">
        <ele>966.089127</ele>
        <time>2021-07-11T10:33:46.000Z</time>
      </trkpt>
      <trkpt lat="49.140098" lon="9.054540">
        <ele>966.063058</ele>
        <time>2021-07-11T10:33:51.000Z</time>
      </trkpt>
      <trkpt lat="49.139918" lon="9.054593">
        <ele>966.033187</ele>
        <time>2021-07-11T10:33:56.000Z</time>
      </trkpt>
      <trkpt lat="49.139713" lon="9.054623">
        <ele>966.000000</ele>
        <time>2021-07-11T10:34:01.000Z</time>
      </trkpt>
      <trkpt lat="49.139485" lon="9.054690">
        <ele>966.000000</ele>
        <time>2021-07-11T10:34:06.000Z</time>
      </trkpt>
      <trkpt lat="49.139252" lon="9.054752">
        <ele>966.000000</ele>
        <time>2021-07-11T10:34:11.000Z</time>
      </trkpt>
      <trkpt lat="49.139045" lon="9.054788">
        <ele>966.000000</ele>
        <time>2021-07-11T10:34:16.000Z</time>
      </trkpt>
      <trkpt lat="49.138827" lon="9.054835">
        <ele>966.000000</ele>
        <time>2021-07-11T10:34:21.000Z</time>
      </trkpt>
      <trkpt lat="49.138662" lon="9.054855">
        <ele>966.000000</ele>
        <time>2021-07-11T10:34:26.000Z</time>
      </trkpt>
      <trkpt lat="49.138612" lon="9.055025">
        <ele>966.000000</ele>
        <time>2021-07-11T10:34:31.000Z</time>
      </trkpt>
      <trkpt lat="49.138608" lon="9.055377">
        <ele>966.000000</ele>
        <time>2021-07-11T10:34:36.000Z</time>
      </trkpt>
      <trkpt lat="49.138647" lon="9.055683">
        <ele>966.000000</ele>
        <time>2021-07-11T10:34:41.000Z</time>
      </trkpt>
      <trkpt lat="49.138672" lon="9.056053">
        <ele>966.000000</ele>
        <time>2021-07-11T10:34:46.000Z</time>
      </trkpt>
      <trkpt lat="49.138703" lon="9.056493">
        <ele>966.000000</ele>
        <time>2021-07-11T10:34:51.000Z</time>
      </trkpt>
      <trkpt lat="49.138723" lon="9.056885">
        <ele>966.000000</ele>
        <time>2021-07-11T10:34:56.000Z</time>
      </trkpt>
      <trkpt lat="49.138800" lon="9.057263">
        <ele>966.000000</ele>
        <time>2021-07-11T10:35:01.000Z</time>
      </trkpt>
      <trkpt lat="49.138832" lon="9.057633">
        <ele>966.000000</ele>
        <time>2021-07-11T10:35:06.000Z</time>
      </trkpt>
      <trkpt lat="49.138898" lon="9.058002">
        <ele>966.000000</ele>
        <time>2021-07-11T10:35:11.000Z</time>
      </trkpt>
      <trkpt lat="49.138967" lon="9.058420">
        <ele>966.000000</ele>
        <time>2021-07-11T10:35:16.000Z</time>
      </trkpt>
      <trkpt lat="49.138982" lon="9.058740">
        <ele>966.003455</ele>
        <time>2021-07-11T10:35:21.000Z</time>
      </trkpt>
      <trkpt lat="49.139027" lon="9.059147">
        <ele>966.019161</ele>
        <time>2021-07-11T10:35:26.000Z</time>
      </trkpt>
      <trkpt lat="49.139053" lon="9.059533">
        <ele>966.033926</ele>
        <time>2021-07-11T10:35:31.000Z</time>
      </trkpt>
      <trkpt lat="49.139082" lon="9.059963">
        <ele>966.050375</ele>
        <time>2021-07-11T10:35:36.000Z</time>
      </trkpt>
      <trkpt lat="49.139100" lon="9.060353">
        <ele>966.065252</ele>
        <time>2021-07-11T10:35:41.000Z</time>
      </trkpt>
      <trkpt lat="49.139122" lon="9.060743">
        <ele>966.080147</ele>
        <time>2021-07-11T10:35:46.000Z</time>
      </trkpt>
      <trkpt lat="49.139143" lon="9.061137">
        <ele>966.095188</ele>
        <time>2021-07-11T10:35:51.000Z</time>
      </trkpt>
      <trkpt lat="49.139168" lon="9.061502">
        <ele>966.241797</ele>
        <time>2021-07-11T10:35:56.000Z</time>
      </trkpt>
      <trkpt lat="49.139075" lon="9.061763">
        <ele>966.583461</ele>
        <time>2021-07-11T10:36:01.000Z</time>
      </trkpt>
      <trkpt lat="49.138898" lon="9.061882">
        <ele>966.923243</ele>
        <time>2021-07-11T10:36:06.000Z</time>
      </trkpt>
      <trkpt lat="49.138728" lon="9.061897">
        <ele>967.222465</ele>
        <time>2021-07-11T10:36:11.000Z</time>
      </trkpt>
      <trkpt lat="49.138542" lon="9.061862">
        <ele>967.551773</ele>
        <time>2021-07-11T10:36:16.000Z</time>
      </trkpt>
      <trkpt lat="49.138482" lon="9.062078">
        <ele>967.821546</ele>
        <time>2021-07-11T10:36:21.000Z</time>
      </trkpt>
      <trkpt lat="49.138590" lon="9.062308">
        <ele>968.147015</ele>
        <time>2021-07-11T10:36:26.000Z</time>
      </trkpt>
      <trkpt lat="49.138692" lon="9.062623">
        <ele>968.551073</ele>
        <time>2021-07-11T10:36:31.000Z</time>
      </trkpt>
      <trkpt lat="49.138778" lon="9.062907">
        <ele>968.910841</ele>
        <time>2021-07-11T10:36:36.000Z</time>
      </trkpt>
      <trkpt lat="49.138845" lon="9.063200">
        <ele>969.271497</ele>
        <time>2021-07-11T10:36:41.000Z</time>
      </trkpt>
      <trkpt lat="49.138890" lon="9.063462">
        <ele>970.067665</ele>
        <time>2021-07-11T10:36:46.000Z</time>
      </trkpt>
      <trkpt lat="49.138928" lon="9.063712">
        <ele>970.822037</ele>
        <time>2021-07-11T10:36:51.000Z</time>
      </trkpt>
      <trkpt lat="49.138893" lon="9.063967">
        <ele>971.587850</ele>
        <time>2021-07-11T10:36:56.000Z</time>
      </trkpt>
      <trkpt lat="49.138865" lon="9.064265">
        <ele>972.472720</ele>
        <time>2021-07-11T10:37:01.000Z</time>
      </trkpt>
      <trkpt lat="49.138833" lon="9.064528">
        <ele>973.258986</ele>
        <time>2021-07-11T10:37:06.000Z</time>
      </trkpt>
      <trkpt lat="49.138792" lon="9.064780">
        <ele>974.022227</ele>
        <time>2021-07-11T10:37:11.000Z</time>
      </trkpt>
      <trkpt lat="49.138733" lon="9.064985">
        <ele>974.680492</ele>
        <time>2021-07-11T10:37:16.000Z</time>
      </trkpt>
      <trkpt lat="49.138767" lon="9.065215">
        <ele>975.373553</ele>
        <time>2021-07-11T10:37:21.000Z</time>
      </trkpt>
      <trkpt lat="49.138703" lon="9.065377">
        <ele>975.929785</ele>
        <time>2021-07-11T10:37:26.000Z</time>
      </trkpt>
      <trkpt lat="49.138675" lon="9.065575">
        <ele>976.525190</ele>
        <time>2021-07-11T10:37:31.000Z</time>
      </trkpt>
      <trkpt lat="49.138665" lon="9.065747">
        <ele>977.032727</ele>
        <time>2021-07-11T10:37:36.000Z</time>
      </trkpt>
      <trkpt lat="49.138585" lon="9.065890">
        <ele>977.544939</ele>
        <time>2021-07-11T10:37:41.000Z</time>
      </trkpt>
      <trkpt lat="49.138500" lon="9.066033">
        <ele>978.016217</ele>
        <time>2021-07-11T10:37:46.000Z</time>
      </trkpt>
      <trkpt lat="49.138375" lon="9.066150">
        <ele>978.562706</ele>
        <time>2021-07-11T10:37:51.000Z</time>
      </trkpt>
      <trkpt lat="49.138247" lon="9.066278">
        <ele>979.133001</ele>
        <time>2021-07-11T10:37:56.000Z</time>
      </trkpt>
      <trkpt lat="49.138125" lon="9.066402">
        <ele>979.679249</ele>
        <time>2021-07-11T10:38:01.000Z</time>
      </trkpt>
      <trkpt lat="49.137997" lon="9.066535">
        <ele>980.256312</ele>
        <time>2021-07-11T10:38:06.000Z</time>
      </trkpt>
      <trkpt lat="49.137867" lon="9.066682">
        <ele>980.859221</ele>
        <time>2021-07-11T10:38:11.000Z</time>
      </trkpt>
      <trkpt lat="49.137732" lon="9.066835">
        <ele>981.485822</ele>
        <time>2021-07-11T10:38:16.000Z</time>
      </trkpt>
      <trkpt lat="49.137570" lon="9.066960">
        <ele>982.162420</ele>
        <time>2021-07-11T10:38:21.000Z</time>
      </trkpt>
      <trkpt lat="49.137418" lon="9.067057">
        <ele>982.776547</ele>
        <time>2021-07-11T10:38:26.000Z</time>
      </trkpt>
      <trkpt lat="49.137362" lon="9.067242">
        <ele>983.273776</ele>
        <time>2021-07-11T10:38:31.000Z</time>
      </trkpt>
      <trkpt lat="49.137298" lon="9.067477">
        <ele>983.894691</ele>
        <time>2021-07-11T10:38:36.000Z</time>
      </trkpt>
      <trkpt lat="49.137332" lon="9.067720">
        <ele>984.303235</ele>
        <time>2021-07-11T10:38:41.000Z</time>
      </trkpt>
      <trkpt lat="49.137353" lon="9.067972">
        <ele>984.650157</ele>
        <time>2021-07-11T10:38:46.000Z</time>
      </trkpt>
      <trkpt lat="49.137348" lon="9.068218">
        <ele>984.986267</ele>
        <time>2021-07-11T10:38:51.000Z</time>
      </trkpt>
      <trkpt lat="49.137377" lon="9.068478">
        <ele>985.346457</ele>
        <time>2021-07-11T10:38:56.000Z</time>
      </trkpt>
      <trkpt lat="49.137358" lon="9.068758">
        <ele>985.730887</ele>
        <time>2021-07-11T10:39:01.000Z</time>
      </trkpt>
      <trkpt lat="49.137328" lon="9.069032">
        <ele>986.110277</ele>
        <time>2021-07-11T10:39:06.000Z</time>
      </trkpt>
      <trkpt lat="49.137353" lon="9.069287">
        <ele>986.462404</ele>
        <time>2021-07-11T10:39:11.000Z</time>
      </trkpt>
      <trkpt lat="49.137348" lon="9.069585">
        <ele>986.869499</ele>
        <time>2021-07-11T10:39:16.000Z</time>
      </trkpt>
      <trkpt lat="49.137307" lon="9.069915">
        <ele>987.328214</ele>
        <time>2021-07-11T10:39:21.000Z</time>
      </trkpt>
      <trkpt lat="49.137260" lon="9.070335">
        <ele>987.683804</ele>
        <time>2021-07-11T10:39:26.000Z</time>
      </trkpt>
      <trkpt lat="49.137213" lon="9.070855">
        <ele>986.838293</ele>
        <time>2021-07-11T10:39:31.000Z</time>
      </trkpt>
      <trkpt lat="49.137215" lon="9.071500">
        <ele>985.799389</ele>
        <time>2021-07-11T10:39:36.000Z</time>
      </trkpt>
      <trkpt lat="49.137185" lon="9.072085">
        <ele>984.854248</ele>
        <time>2021-07-11T10:39:41.000Z</time>
      </trkpt>
      <trkpt lat="49.137147" lon="9.072595">
        <ele>984.027487</ele>
        <time>2021-07-11T10:39:46.000Z</time>
      </trkpt>
      <trkpt lat="49.137108" lon="9.073088">
        <ele>983.219090</ele>
        <time>2021-07-11T10:39:51.000Z</time>
      </trkpt>
      <trkpt lat="49.137072" lon="9.073627">
        <ele>982.296903</ele>
        <time>2021-07-11T10:39:56.000Z</time>
      </trkpt>
      <trkpt lat="49.137022" lon="9.074235">
        <ele>981.253898</ele>
        <time>2021-07-11T10:40:01.000Z</time>
      </trkpt>
      <trkpt lat="49.136970" lon="9.074882">
        <ele>980.144375</ele>
        <time>2021-07-11T10:40:06.000Z</time>
      </trkpt>
      <trkpt lat="49.136867" lon="9.075522">
        <ele>979.022570</ele>
        <time>2021-07-11T10:40:11.000Z</time>
      </trkpt>
      <trkpt lat="49.136660" lon="9.075907">
        <ele>978.663269</ele>
        <time>2021-07-11T10:40:16.000Z</time>
      </trkpt>
      <trkpt lat="49.136478" lon="9.076288">
        <ele>978.608655</ele>
        <time>2021-07-11T10:40:21.000Z</time>
      </trkpt>
      <trkpt lat="49.136305" lon="9.076665">
        <ele>978.555345</ele>
        <time>2021-07-11T10:40:26.000Z</time>
      </trkpt>
      <trkpt lat="49.136140" lon="9.077027">
        <ele>978.504269</ele>
        <time>2021-07-11T10:40:31.000Z</time>
      </trkpt>
      <trkpt lat="49.135990" lon="9.077368">
        <ele>978.456698</ele>
        <time>2021-07-11T10:40:36.000Z</time>
      </trkpt>
      <trkpt lat="49.135850" lon="9.077705">
        <ele>978.410483</ele>
        <time>2021-07-11T10:40:41.000Z</time>
      </trkpt>
      <trkpt lat="49.135732" lon="9.078047">
        <ele>978.477848</ele>
        <time>2021-07-11T10:40:46.000Z</time>
      </trkpt>
      <trkpt lat="49.135642" lon="9.078420">
        <ele>978.776752</ele>
        <time>2021-07-11T10:40:51.000Z</time>
      </trkpt>
      <trkpt lat="49.135605" lon="9.078818">
        <ele>979.078995</ele>
        <time>2021-07-11T10:40:56.000Z</time>
      </trkpt>
      <trkpt lat="49.135575" lon="9.079195">
        <ele>979.364533</ele>
        <time>2021-07-11T10:41:01.000Z</time>
      </trkpt>
      <trkpt lat="49.135555" lon="9.079568">
        <ele>979.645915</ele>
        <time>2021-07-11T10:41:06.000Z</time>
      </trkpt>
      <trkpt lat="49.135607" lon="9.079988">
        <ele>979.967298</ele>
        <time>2021-07-11T10:41:11.000Z</time>
      </trkpt>
      <trkpt lat="49.135627" lon="9.080360">
        <ele>980.247930</ele>
        <time>2021-07-11T10:41:16.000Z</time>
      </trkpt>
      <trkpt lat="49.135625" lon="9.080742">
        <ele>980.542640</ele>
        <time>2021-07-11T10:41:21.000Z</time>
      </trkpt>
      <trkpt lat="49.135643" lon="9.081125">
        <ele>980.856047</ele>
        <time>2021-07-11T10:41:26.000Z</time>
      </trkpt>
      <trkpt lat="49.135652" lon="9.081493">
        <ele>981.156615</ele>
        <time>2021-07-11T10:41:31.000Z</time>
      </trkpt>
      <trkpt lat="49.135670" lon="9.081897">
        <ele>981.487119</ele>
        <time>2021-07-11T10:41:36.000Z</time>
      </trkpt>
      <trkpt lat="49.135588" lon="9.082263">
        <ele>981.802874</ele>
        <time>2021-07-11T10:41:41.000Z</time>
      </trkpt>
      <trkpt lat="49.135517" lon="9.082617">
        <ele>982.105077</ele>
        <time>2021-07-11T10:41:46.000Z</time>
      </trkpt>
      <trkpt lat="49.135423" lon="9.082998">
        <ele>982.437422</ele>
        <time>2021-07-11T10:41:51.000Z</time>
      </trkpt>
      <trkpt lat="49.135325" lon="9.083330">
        <ele>982.769068</ele>
        <time>2021-07-11T10:41:56.000Z</time>
      </trkpt>
      <trkpt lat="49.135253" lon="9.083665">
        <ele>983.285117</ele>
        <time>2021-07-11T10:42:01.000Z</time>
      </trkpt>
      <trkpt lat="49.135215" lon="9.084067">
        <ele>983.879556</ele>
        <time>2021-07-11T10:42:06.000Z</time>
      </trkpt>
      <trkpt lat="49.135185" lon="9.084395">
        <ele>984.364255</ele>
        <time>2021-07-11T10:42:11.000Z</time>
      </trkpt>
      <trkpt lat="49.135212" lon="9.084708">
        <ele>984.826297</ele>
        <time>2021-07-11T10:42:16.000Z</time>
      </trkpt>
      <trkpt lat="49.135263" lon="9.085040">
        <ele>985.325394</ele>
        <time>2021-07-11T10:42:21.000Z</time>
      </trkpt>
      <trkpt lat="49.135312" lon="9.085357">
        <ele>985.802097</ele>
        <time>2021-07-11T10:42:26.000Z</time>
      </trkpt>
      <trkpt lat="49.135362" lon="9.085647">
        <ele>986.241002</ele>
        <time>2021-07-11T10:42:31.000Z</time>
      </trkpt>
      <trkpt lat="49.135413" lon="9.085932">
        <ele>986.673420</ele>
        <time>2021-07-11T10:42:36.000Z</time>
      </trkpt>
      <trkpt lat="49.135452" lon="9.086187">
        <ele>986.925949</ele>
        <time>2021-07-11T10:42:41.000Z</time>
      </trkpt>
      <trkpt lat="49.135482" lon="9.086407">
        <ele>987.129138</ele>
        <time>2021-07-11T10:42:46.000Z</time>
      </trkpt>
      <trkpt lat="49.135495" lon="9.086598">
        <ele>987.302764</ele>
        <time>2021-07-11T10:42:51.000Z</time>
      </trkpt>
      <trkpt lat="49.135537" lon="9.086572">
        <ele>987.365386</ele>
        <time>2021-07-11T10:42:56.000Z</time>
      </trkpt>
      <trkpt lat="49.135543" lon="9.086567">
        <ele>987.374830</ele>
        <time>2021-07-11T10:42:56.000Z</time>
      </trkpt>
      <trkpt lat="49.135602" lon="9.086785">
        <ele>987.588134</ele>
        <time>2021-07-11T10:43:01.000Z</time>
      </trkpt>
      <trkpt lat="49.135640" lon="9.087072">
        <ele>987.852887</ele>
        <time>2021-07-11T10:43:06.000Z</time>
      </trkpt>
      <trkpt lat="49.135682" lon="9.087370">
        <ele>988.128506</ele>
        <time>2021-07-11T10:43:11.000Z</time>
      </trkpt>
      <trkpt lat="49.135730" lon="9.087705">
        <ele>988.438577</ele>
        <time>2021-07-11T10:43:16.000Z</time>
      </trkpt>
      <trkpt lat="49.135777" lon="9.088070">
        <ele>988.774924</ele>
        <time>2021-07-11T10:43:21.000Z</time>
      </trkpt>
      <trkpt lat="49.135830" lon="9.088463">
        <ele>989.137726</ele>
        <time>2021-07-11T10:43:26.000Z</time>
      </trkpt>
      <trkpt lat="49.135905" lon="9.088900">
        <ele>988.535074</ele>
        <time>2021-07-11T10:43:31.000Z</time>
      </trkpt>
      <trkpt lat="49.135983" lon="9.089410">
        <ele>987.624636</ele>
        <time>2021-07-11T10:43:36.000Z</time>
      </trkpt>
      <trkpt lat="49.136053" lon="9.089980">
        <ele>986.616498</ele>
        <time>2021-07-11T10:43:41.000Z</time>
      </trkpt>
      <trkpt lat="49.136143" lon="9.090550">
        <ele>985.597219</ele>
        <time>2021-07-11T10:43:46.000Z</time>
      </trkpt>
      <trkpt lat="49.136243" lon="9.091117">
        <ele>984.576421</ele>
        <time>2021-07-11T10:43:51.000Z</time>
      </trkpt>
      <trkpt lat="49.136328" lon="9.091675">
        <ele>984.248203</ele>
        <time>2021-07-11T10:43:56.000Z</time>
      </trkpt>
      <trkpt lat="49.136415" lon="9.092188">
        <ele>984.058417</ele>
        <time>2021-07-11T10:44:01.000Z</time>
      </trkpt>
      <trkpt lat="49.136478" lon="9.092680">
        <ele>983.878879</ele>
        <time>2021-07-11T10:44:06.000Z</time>
      </trkpt>
      <trkpt lat="49.136558" lon="9.093092">
        <ele>983.724974</ele>
        <time>2021-07-11T10:44:11.000Z</time>
      </trkpt>
      <trkpt lat="49.136548" lon="9.093362">
        <ele>983.628127</ele>
        <time>2021-07-11T10:44:16.000Z</time>
      </trkpt>
      <trkpt lat="49.136443" lon="9.093453">
        <ele>983.562058</ele>
        <time>2021-07-11T10:44:21.000Z</time>
      </trkpt>
      <trkpt lat="49.136300" lon="9.093512">
        <ele>983.480983</ele>
        <time>2021-07-11T10:44:26.000Z</time>
      </trkpt>
      <trkpt lat="49.136138" lon="9.093572">
        <ele>983.593422</ele>
        <time>2021-07-11T10:44:31.000Z</time>
      </trkpt>
      <trkpt lat="49.136040" lon="9.093743">
        <ele>983.863347</ele>
        <time>2021-07-11T10:44:36.000Z</time>
      </trkpt>
      <trkpt lat="49.136010" lon="9.093900">
        <ele>984.057555</ele>
        <time>2021-07-11T10:44:41.000Z</time>
      </trkpt>
      <trkpt lat="49.136065" lon="9.094152">
        <ele>984.372988</ele>
        <time>2021-07-11T10:44:46.000Z</time>
      </trkpt>
      <trkpt lat="49.136130" lon="9.094422">
        <ele>984.714597</ele>
        <time>2021-07-11T10:44:51.000Z</time>
      </trkpt>
      <trkpt lat="49.136200" lon="9.094705">
        <ele>985.073841</ele>
        <time>2021-07-11T10:44:56.000Z</time>
      </trkpt>
      <trkpt lat="49.136275" lon="9.095005">
        <ele>985.455176</ele>
        <time>2021-07-11T10:45:01.000Z</time>
      </trkpt>
      <trkpt lat="49.136357" lon="9.095308">
        <ele>985.844518</ele>
        <time>2021-07-11T10:45:06.000Z</time>
      </trkpt>
      <trkpt lat="49.136443" lon="9.095618">
        <ele>986.244329</ele>
        <time>2021-07-11T10:45:11.000Z</time>
      </trkpt>
      <trkpt lat="49.136523" lon="9.095943">
        <ele>986.656637</ele>
        <time>2021-07-11T10:45:16.000Z</time>
      </trkpt>
      <trkpt lat="49.136623" lon="9.096300">
        <ele>986.740370</ele>
        <time>2021-07-11T10:45:21.000Z</time>
      </trkpt>
      <trkpt lat="49.136727" lon="9.096715">
        <ele>986.789985</ele>
        <time>2021-07-11T10:45:26.000Z</time>
      </trkpt>
      <trkpt lat="49.136857" lon="9.097132">
        <ele>986.841557</ele>
        <time>2021-07-11T10:45:31.000Z</time>
      </trkpt>
      <trkpt lat="49.136970" lon="9.097565">
        <ele>986.893603</ele>
        <time>2021-07-11T10:45:36.000Z</time>
      </trkpt>
      <trkpt lat="49.137082" lon="9.097998">
        <ele>986.945587</ele>
        <time>2021-07-11T10:45:41.000Z</time>
      </trkpt>
      <trkpt lat="49.137193" lon="9.098415">
        <ele>986.995848</ele>
        <time>2021-07-11T10:45:46.000Z</time>
      </trkpt>
      <trkpt lat="49.137305" lon="9.098855">
        <ele>987.397698</ele>
        <time>2021-07-11T10:45:51.000Z</time>
      </trkpt>
      <trkpt lat="49.137403" lon="9.099255">
        <ele>987.857232</ele>
        <time>2021-07-11T10:45:56.000Z</time>
      </trkpt>
      <trkpt lat="49.137523" lon="9.099665">
        <ele>988.340467</ele>
        <time>2021-07-11T10:46:01.000Z</time>
      </trkpt>
      <trkpt lat="49.137610" lon="9.100058">
        <ele>988.786832</ele>
        <time>2021-07-11T10:46:06.000Z</time>
      </trkpt>
      <trkpt lat="49.137747" lon="9.100450">
        <ele>989.264973</ele>
        <time>2021-07-11T10:46:11.000Z</time>
      </trkpt>
      <trkpt lat="49.137867" lon="9.100798">
        <ele>989.688194</ele>
        <time>2021-07-11T10:46:16.000Z</time>
      </trkpt>
      <trkpt lat="49.137988" lon="9.101180">
        <ele>990.013557</ele>
        <time>2021-07-11T10:46:21.000Z</time>
      </trkpt>
      <trkpt lat="49.138093" lon="9.101587">
        <ele>990.138940</ele>
        <time>2021-07-11T10:46:26.000Z</time>
      </trkpt>
      <trkpt lat="49.138223" lon="9.101937">
        <ele>990.254283</ele>
        <time>2021-07-11T10:46:31.000Z</time>
      </trkpt>
      <trkpt lat="49.138342" lon="9.102310">
        <ele>990.373213</ele>
        <time>2021-07-11T10:46:36.000Z</time>
      </trkpt>
      <trkpt lat="49.138457" lon="9.102680">
        <ele>990.490607</ele>
        <time>2021-07-11T10:46:41.000Z</time>
      </trkpt>
      <trkpt lat="49.138575" lon="9.103070">
        <ele>990.613749</ele>
        <time>2021-07-11T10:46:46.000Z</time>
      </trkpt>
      <trkpt lat="49.138707" lon="9.103483">
        <ele>990.745478</ele>
        <time>2021-07-11T10:46:51.000Z</time>
      </trkpt>
      <trkpt lat="49.138845" lon="9.103910">
        <ele>990.270632</ele>
        <time>2021-07-11T10:46:56.000Z</time>
      </trkpt>
      <trkpt lat="49.138993" lon="9.104357">
        <ele>989.729423</ele>
        <time>2021-07-11T10:47:01.000Z</time>
      </trkpt>
      <trkpt lat="49.139145" lon="9.104822">
        <ele>989.167875</ele>
        <time>2021-07-11T10:47:06.000Z</time>
      </trkpt>
      <trkpt lat="49.139302" lon="9.105258">
        <ele>988.630237</ele>
        <time>2021-07-11T10:47:11.000Z</time>
      </trkpt>
      <trkpt lat="49.139253" lon="9.105550">
        <ele>988.304582</ele>
        <time>2021-07-11T10:47:16.000Z</time>
      </trkpt>
      <trkpt lat="49.139085" lon="9.105588">
        <ele>988.024152</ele>
        <time>2021-07-11T10:47:21.000Z</time>
      </trkpt>
      <trkpt lat="49.138855" lon="9.105568">
        <ele>987.943696</ele>
        <time>2021-07-11T10:47:26.000Z</time>
      </trkpt>
      <trkpt lat="49.138638" lon="9.105568">
        <ele>988.352892</ele>
        <time>2021-07-11T10:47:31.000Z</time>
      </trkpt>
      <trkpt lat="49.138400" lon="9.105558">
        <ele>988.801857</ele>
        <time>2021-07-11T10:47:36.000Z</time>
      </trkpt>
      <trkpt lat="49.138158" lon="9.105550">
        <ele>989.258302</ele>
        <time>2021-07-11T10:47:41.000Z</time>
      </trkpt>
      <trkpt lat="49.137910" lon="9.105547">
        <ele>989.725969</ele>
        <time>2021-07-11T10:47:46.000Z</time>
      </trkpt>
      <trkpt lat="49.137657" lon="9.105528">
        <ele>990.203625</ele>
        <time>2021-07-11T10:47:51.000Z</time>
      </trkpt>
      <trkpt lat="49.137413" lon="9.105515">
        <ele>990.664014</ele>
        <time>2021-07-11T10:47:56.000Z</time>
      </trkpt>
      <trkpt lat="49.137180" lon="9.105517">
        <ele>991.103388</ele>
        <time>2021-07-11T10:48:01.000Z</time>
      </trkpt>
      <trkpt lat="49.137007" lon="9.105492">
        <ele>991.227271</ele>
        <time>2021-07-11T10:48:06.000Z</time>
      </trkpt>
      <trkpt lat="49.136808" lon="9.105503">
        <ele>991.303367</ele>
        <time>2021-07-11T10:48:11.000Z</time>
      </trkpt>
      <trkpt lat="49.136613" lon="9.105527">
        <ele>991.378125</ele>
        <time>2021-07-11T10:48:16.000Z</time>
      </trkpt>
      <trkpt lat="49.136387" lon="9.105607">
        <ele>991.466774</ele>
        <time>2021-07-11T10:48:21.000Z</time>
      </trkpt>
      <trkpt lat="49.136115" lon="9.105725">
        <ele>991.574822</ele>
        <time>2021-07-11T10:48:26.000Z</time>
      </trkpt>
      <trkpt lat="49.135840" lon="9.105845">
        <ele>991.684110</ele>
        <time>2021-07-11T10:48:31.000Z</time>
      </trkpt>
      <trkpt lat="49.135633" lon="9.105940">
        <ele>991.766702</ele>
        <time>2021-07-11T10:48:36.000Z</time>
      </trkpt>
      <trkpt lat="49.135455" lon="9.106018">
        <ele>991.837463</ele>
        <time>2021-07-11T10:48:41.000Z</time>
      </trkpt>
      <trkpt lat="49.135282" lon="9.106113">
        <ele>991.478513</ele>
        <time>2021-07-11T10:48:46.000Z</time>
      </trkpt>
      <trkpt lat="49.135037" lon="9.106212">
        <ele>990.649714</ele>
        <time>2021-07-11T10:48:51.000Z</time>
      </trkpt>
      <trkpt lat="49.134743" lon="9.106322">
        <ele>989.659800</ele>
        <time>2021-07-11T10:48:56.000Z</time>
      </trkpt>
      <trkpt lat="49.134328" lon="9.106500">
        <ele>988.250116</ele>
        <time>2021-07-11T10:49:01.000Z</time>
      </trkpt>
      <trkpt lat="49.133965" lon="9.106657">
        <ele>987.016310</ele>
        <time>2021-07-11T10:49:06.000Z</time>
      </trkpt>
      <trkpt lat="49.133722" lon="9.106945">
        <ele>986.010629</ele>
        <time>2021-07-11T10:49:11.000Z</time>
      </trkpt>
      <trkpt lat="49.133700" lon="9.107375">
        <ele>986.199957</ele>
        <time>2021-07-11T10:49:16.000Z</time>
      </trkpt>
      <trkpt lat="49.133682" lon="9.107753">
        <ele>986.399451</ele>
        <time>2021-07-11T10:49:21.000Z</time>
      </trkpt>
      <trkpt lat="49.133663" lon="9.108118">
        <ele>986.592182</ele>
        <time>2021-07-11T10:49:26.000Z</time>
      </trkpt>
      <trkpt lat="49.133655" lon="9.108478">
        <ele>986.781784</ele>
        <time>2021-07-11T10:49:31.000Z</time>
      </trkpt>
      <trkpt lat="49.133682" lon="9.108898">
        <ele>987.003923</ele>
        <time>2021-07-11T10:49:36.000Z</time>
      </trkpt>
      <trkpt lat="49.133753" lon="9.109307">
        <ele>987.226656</ele>
        <time>2021-07-11T10:49:41.000Z</time>
      </trkpt>
      <trkpt lat="49.133810" lon="9.109680">
        <ele>987.427712</ele>
        <time>2021-07-11T10:49:46.000Z</time>
      </trkpt>
      <trkpt lat="49.133870" lon="9.110037">
        <ele>987.504495</ele>
        <time>2021-07-11T10:49:51.000Z</time>
      </trkpt>
      <trkpt lat="49.133915" lon="9.110357">
        <ele>987.572678</ele>
        <time>2021-07-11T10:49:56.000Z</time>
      </trkpt>
      <trkpt lat="49.134020" lon="9.110800">
        <ele>987.670830</ele>
        <time>2021-07-11T10:50:01.000Z</time>
      </trkpt>
      <trkpt lat="49.134110" lon="9.111260">
        <ele>987.770848</ele>
        <time>2021-07-11T10:50:06.000Z</time>
      </trkpt>
      <trkpt lat="49.134120" lon="9.111658">
        <ele>987.853818</ele>
        <time>2021-07-11T10:50:11.000Z</time>
      </trkpt>
      <trkpt lat="49.134177" lon="9.112123">
        <ele>987.952370</ele>
        <time>2021-07-11T10:50:16.000Z</time>
      </trkpt>
      <trkpt lat="49.134172" lon="9.112517">
        <ele>988.021610</ele>
        <time>2021-07-11T10:50:21.000Z</time>
      </trkpt>
      <trkpt lat="49.134195" lon="9.112997">
        <ele>988.084480</ele>
        <time>2021-07-11T10:50:26.000Z</time>
      </trkpt>
      <trkpt lat="49.134198" lon="9.113482">
        <ele>988.147839</ele>
        <time>2021-07-11T10:50:31.000Z</time>
      </trkpt>
      <trkpt lat="49.134188" lon="9.113912">
        <ele>988.204045</ele>
        <time>2021-07-11T10:50:36.000Z</time>
      </trkpt>
      <trkpt lat="49.134178" lon="9.114358">
        <ele>988.262340</ele>
        <time>2021-07-11T10:50:41.000Z</time>
      </trkpt>
      <trkpt lat="49.134162" lon="9.114770">
        <ele>988.316255</ele>
        <time>2021-07-11T10:50:46.000Z</time>
      </trkpt>
      <trkpt lat="49.134175" lon="9.115193">
        <ele>988.437453</ele>
        <time>2021-07-11T10:50:51.000Z</time>
      </trkpt>
      <trkpt lat="49.134210" lon="9.115622">
        <ele>988.792288</ele>
        <time>2021-07-11T10:50:56.000Z</time>
      </trkpt>
      <trkpt lat="49.134217" lon="9.115988">
        <ele>989.092817</ele>
        <time>2021-07-11T10:51:01.000Z</time>
      </trkpt>
      <trkpt lat="49.134213" lon="9.116302">
        <ele>989.350587</ele>
        <time>2021-07-11T10:51:06.000Z</time>
      </trkpt>
      <trkpt lat="49.134245" lon="9.116662">
        <ele>989.648777</ele>
        <time>2021-07-11T10:51:11.000Z</time>
      </trkpt>
      <trkpt lat="49.134298" lon="9.116943">
        <ele>989.888803</ele>
        <time>2021-07-11T10:51:16.000Z</time>
      </trkpt>
      <trkpt lat="49.134315" lon="9.117173">
        <ele>990.078780</ele>
        <time>2021-07-11T10:51:21.000Z</time>
      </trkpt>
      <trkpt lat="49.134248" lon="9.117248">
        <ele>990.182959</ele>
        <time>2021-07-11T10:51:26.000Z</time>
      </trkpt>
      <trkpt lat="49.134152" lon="9.117238">
        <ele>990.303664</ele>
        <time>2021-07-11T10:51:31.000Z</time>
      </trkpt>
      <trkpt lat="49.134085" lon="9.117310">
        <ele>990.406408</ele>
        <time>2021-07-11T10:51:36.000Z</time>
      </trkpt>
      <trkpt lat="49.134080" lon="9.117357">
        <ele>990.445491</ele>
        <time>2021-07-11T10:51:37.000Z</time>
      </trkpt>
      <trkpt lat="49.134122" lon="9.117567">
        <ele>990.617577</ele>
        <time>2021-07-11T10:51:41.000Z</time>
      </trkpt>
      <trkpt lat="49.134183" lon="9.117817">
        <ele>990.663905</ele>
        <time>2021-07-11T10:51:46.000Z</time>
      </trkpt>
      <trkpt lat="49.134275" lon="9.118108">
        <ele>990.720022</ele>
        <time>2021-07-11T10:51:51.000Z</time>
      </trkpt>
      <trkpt lat="49.134368" lon="9.118487">
        <ele>990.790305</ele>
        <time>2021-07-11T10:51:56.000Z</time>
      </trkpt>
      <trkpt lat="49.134512" lon="9.118840">
        <ele>990.862535</ele>
        <time>2021-07-11T10:52:01.000Z</time>
      </trkpt>
      <trkpt lat="49.134665" lon="9.119193">
        <ele>990.936056</ele>
        <time>2021-07-11T10:52:06.000Z</time>
      </trkpt>
      <trkpt lat="49.134812" lon="9.119563">
        <ele>991.011216</ele>
        <time>2021-07-11T10:52:11.000Z</time>
      </trkpt>
      <trkpt lat="49.134915" lon="9.119900">
        <ele>991.075800</ele>
        <time>2021-07-11T10:52:16.000Z</time>
      </trkpt>
      <trkpt lat="49.135007" lon="9.120248">
        <ele>991.499169</ele>
        <time>2021-07-11T10:52:21.000Z</time>
      </trkpt>
      <trkpt lat="49.135073" lon="9.120608">
        <ele>992.045912</ele>
        <time>2021-07-11T10:52:26.000Z</time>
      </trkpt>
      <trkpt lat="49.135093" lon="9.120908">
        <ele>992.486904</ele>
        <time>2021-07-11T10:52:31.000Z</time>
      </trkpt>
      <trkpt lat="49.135147" lon="9.121248">
        <ele>992.998560</ele>
        <time>2021-07-11T10:52:36.000Z</time>
      </trkpt>
      <trkpt lat="49.135212" lon="9.121525">
        <ele>993.428910</ele>
        <time>2021-07-11T10:52:41.000Z</time>
      </trkpt>
      <trkpt lat="49.135250" lon="9.121827">
        <ele>993.878647</ele>
        <time>2021-07-11T10:52:46.000Z</time>
      </trkpt>
      <trkpt lat="49.135298" lon="9.122067">
        <ele>994.245654</ele>
        <time>2021-07-11T10:52:51.000Z</time>
      </trkpt>
      <trkpt lat="49.135253" lon="9.122195">
        <ele>994.458152</ele>
        <time>2021-07-11T10:52:56.000Z</time>
      </trkpt>
      <trkpt lat="49.135245" lon="9.122205">
        <ele>994.481251</ele>
        <time>2021-07-11T10:52:59.000Z</time>
      </trkpt>
      <trkpt lat="49.135192" lon="9.122183">
        <ele>994.604005</ele>
        <time>2021-07-11T10:53:01.000Z</time>
      </trkpt>
      <trkpt lat="49.135057" lon="9.122192">
        <ele>994.906036</ele>
        <time>2021-07-11T10:53:06.000Z</time>
      </trkpt>
      <trkpt lat="49.134885" lon="9.122258">
        <ele>995.520122</ele>
        <time>2021-07-11T10:53:11.000Z</time>
      </trkpt>
      <trkpt lat="49.134732" lon="9.122280">
        <ele>996.258269</ele>
        <time>2021-07-11T10:53:16.000Z</time>
      </trkpt>
      <trkpt lat="49.134585" lon="9.122298">
        <ele>996.966613</ele>
        <time>2021-07-11T10:53:21.000Z</time>
      </trkpt>
      <trkpt lat="49.134440" lon="9.122318">
        <ele>997.665918</ele>
        <time>2021-07-11T10:53:26.000Z</time>
      </trkpt>
      <trkpt lat="49.134292" lon="9.122330">
        <ele>998.377802</ele>
        <time>2021-07-11T10:53:31.000Z</time>
      </trkpt>
      <trkpt lat="49.134198" lon="9.122335">
        <ele>998.829584</ele>
        <time>2021-07-11T10:53:36.000Z</time>
      </trkpt>
      <trkpt lat="49.134100" lon="9.122363">
        <ele>999.308459</ele>
        <time>2021-07-11T10:53:41.000Z</time>
      </trkpt>
      <trkpt lat="49.133995" lon="9.122377">
        <ele>999.814718</ele>
        <time>2021-07-11T10:53:46.000Z</time>
      </trkpt>
      <trkpt lat="49.133865" lon="9.122388">
        <ele>1000.440101</ele>
        <time>2021-07-11T10:53:51.000Z</time>
      </trkpt>
      <trkpt lat="49.133763" lon="9.122393">
        <ele>1000.930287</ele>
        <time>2021-07-11T10:53:56.000Z</time>
      </trkpt>
      <trkpt lat="49.133657" lon="9.122397">
        <ele>1001.439589</ele>
        <time>2021-07-11T10:54:01.000Z</time>
      </trkpt>
      <trkpt lat="49.133537" lon="9.122405">
        <ele>1002.016530</ele>
        <time>2021-07-11T10:54:06.000Z</time>
      </trkpt>
      <trkpt lat="49.133433" lon="9.122423">
        <ele>1002.519264</ele>
        <time>2021-07-11T10:54:11.000Z</time>
      </trkpt>
      <trkpt lat="49.133290" lon="9.122393">
        <ele>1003.212573</ele>
        <time>2021-07-11T10:54:16.000Z</time>
      </trkpt>
      <trkpt lat="49.133157" lon="9.122407">
        <ele>1003.684037</ele>
        <time>2021-07-11T10:54:21.000Z</time>
      </trkpt>
      <trkpt lat="49.133007" lon="9.122457">
        <ele>1003.183671</ele>
        <time>2021-07-11T10:54:26.000Z</time>
      </trkpt>
      <trkpt lat="49.132820" lon="9.122517">
        <ele>1002.560922</ele>
        <time>2021-07-11T10:54:31.000Z</time>
      </trkpt>
      <trkpt lat="49.132645" lon="9.122523">
        <ele>1001.990426</ele>
        <time>2021-07-11T10:54:36.000Z</time>
      </trkpt>
      <trkpt lat="49.132440" lon="9.122548">
        <ele>1001.320175</ele>
        <time>2021-07-11T10:54:41.000Z</time>
      </trkpt>
      <trkpt lat="49.132190" lon="9.122532">
        <ele>1000.504671</ele>
        <time>2021-07-11T10:54:46.000Z</time>
      </trkpt>
      <trkpt lat="49.131920" lon="9.122585">
        <ele>999.617470</ele>
        <time>2021-07-11T10:54:51.000Z</time>
      </trkpt>
      <trkpt lat="49.131625" lon="9.122623">
        <ele>998.652609</ele>
        <time>2021-07-11T10:54:56.000Z</time>
      </trkpt>
      <trkpt lat="49.131340" lon="9.122680">
        <ele>997.664136</ele>
        <time>2021-07-11T10:55:01.000Z</time>
      </trkpt>
      <trkpt lat="49.131270" lon="9.122662">
        <ele>997.364222</ele>
        <time>2021-07-11T10:55:06.000Z</time>
      </trkpt>
      <trkpt lat="49.131255" lon="9.122658">
        <ele>997.299888</ele>
        <time>2021-07-11T10:55:06.000Z</time>
      </trkpt>
      <trkpt lat="49.131180" lon="9.122840">
        <ele>996.705260</ele>
        <time>2021-07-11T10:55:11.000Z</time>
      </trkpt>
      <trkpt lat="49.131207" lon="9.123202">
        <ele>995.697992</ele>
        <time>2021-07-11T10:55:16.000Z</time>
      </trkpt>
      <trkpt lat="49.131207" lon="9.123648">
        <ele>994.464978</ele>
        <time>2021-07-11T10:55:21.000Z</time>
      </trkpt>
      <trkpt lat="49.131195" lon="9.124143">
        <ele>993.095559</ele>
        <time>2021-07-11T10:55:26.000Z</time>
      </trkpt>
      <trkpt lat="49.131178" lon="9.124667">
        <ele>991.645126</ele>
        <time>2021-07-11T10:55:31.000Z</time>
      </trkpt>
      <trkpt lat="49.131160" lon="9.125190">
        <ele>990.235722</ele>
        <time>2021-07-11T10:55:36.000Z</time>
      </trkpt>
      <trkpt lat="49.131153" lon="9.125768">
        <ele>989.294913</ele>
        <time>2021-07-11T10:55:41.000Z</time>
      </trkpt>
      <trkpt lat="49.131145" lon="9.126308">
        <ele>988.415881</ele>
        <time>2021-07-11T10:55:46.000Z</time>
      </trkpt>
      <trkpt lat="49.131125" lon="9.126827">
        <ele>987.569787</ele>
        <time>2021-07-11T10:55:51.000Z</time>
      </trkpt>
      <trkpt lat="49.131115" lon="9.127342">
        <ele>986.731297</ele>
        <time>2021-07-11T10:55:56.000Z</time>
      </trkpt>
      <trkpt lat="49.131135" lon="9.127877">
        <ele>985.859208</ele>
        <time>2021-07-11T10:56:01.000Z</time>
      </trkpt>
      <trkpt lat="49.131202" lon="9.128385">
        <ele>985.473736</ele>
        <time>2021-07-11T10:56:06.000Z</time>
      </trkpt>
      <trkpt lat="49.131257" lon="9.128863">
        <ele>985.135152</ele>
        <time>2021-07-11T10:56:11.000Z</time>
      </trkpt>
      <trkpt lat="49.131307" lon="9.129302">
        <ele>984.824287</ele>
        <time>2021-07-11T10:56:16.000Z</time>
      </trkpt>
      <trkpt lat="49.131355" lon="9.129655">
        <ele>984.572762</ele>
        <time>2021-07-11T10:56:21.000Z</time>
      </trkpt>
      <trkpt lat="49.131280" lon="9.129832">
        <ele>984.425651</ele>
        <time>2021-07-11T10:56:26.000Z</time>
      </trkpt>
      <trkpt lat="49.131093" lon="9.129877">
        <ele>984.223819</ele>
        <time>2021-07-11T10:56:31.000Z</time>
      </trkpt>
      <trkpt lat="49.130887" lon="9.129942">
        <ele>983.999554</ele>
        <time>2021-07-11T10:56:36.000Z</time>
      </trkpt>
      <trkpt lat="49.130657" lon="9.130028">
        <ele>983.623730</ele>
        <time>2021-07-11T10:56:41.000Z</time>
      </trkpt>
      <trkpt lat="49.130532" lon="9.130315">
        <ele>983.188653</ele>
        <time>2021-07-11T10:56:46.000Z</time>
      </trkpt>
      <trkpt lat="49.130555" lon="9.130878">
        <ele>982.476790</ele>
        <time>2021-07-11T10:56:51.000Z</time>
      </trkpt>
      <trkpt lat="49.130637" lon="9.131487">
        <ele>981.692159</ele>
        <time>2021-07-11T10:56:56.000Z</time>
      </trkpt>
      <trkpt lat="49.130687" lon="9.132030">
        <ele>981.000168</ele>
        <time>2021-07-11T10:57:01.000Z</time>
      </trkpt>
      <trkpt lat="49.130728" lon="9.132548">
        <ele>980.414674</ele>
        <time>2021-07-11T10:57:06.000Z</time>
      </trkpt>
      <trkpt lat="49.130742" lon="9.133015">
        <ele>980.308096</ele>
        <time>2021-07-11T10:57:11.000Z</time>
      </trkpt>
      <trkpt lat="49.130773" lon="9.133528">
        <ele>980.190645</ele>
        <time>2021-07-11T10:57:16.000Z</time>
      </trkpt>
      <trkpt lat="49.130823" lon="9.134037">
        <ele>980.073304</ele>
        <time>2021-07-11T10:57:21.000Z</time>
      </trkpt>
      <trkpt lat="49.130843" lon="9.134573">
        <ele>979.950909</ele>
        <time>2021-07-11T10:57:26.000Z</time>
      </trkpt>
      <trkpt lat="49.130858" lon="9.135085">
        <ele>979.834067</ele>
        <time>2021-07-11T10:57:31.000Z</time>
      </trkpt>
      <trkpt lat="49.130895" lon="9.135570">
        <ele>979.569920</ele>
        <time>2021-07-11T10:57:36.000Z</time>
      </trkpt>
      <trkpt lat="49.130903" lon="9.136057">
        <ele>979.250194</ele>
        <time>2021-07-11T10:57:41.000Z</time>
      </trkpt>
      <trkpt lat="49.130928" lon="9.136578">
        <ele>978.907336</ele>
        <time>2021-07-11T10:57:46.000Z</time>
      </trkpt>
      <trkpt lat="49.130937" lon="9.137058">
        <ele>978.592175</ele>
        <time>2021-07-11T10:57:51.000Z</time>
      </trkpt>
      <trkpt lat="49.130972" lon="9.137572">
        <ele>978.253008</ele>
        <time>2021-07-11T10:57:56.000Z</time>
      </trkpt>
      <trkpt lat="49.131013" lon="9.138055">
        <ele>978.000000</ele>
        <time>2021-07-11T10:58:01.000Z</time>
      </trkpt>
      <trkpt lat="49.131038" lon="9.138517">
        <ele>978.000000</ele>
        <time>2021-07-11T10:58:06.000Z</time>
      </trkpt>
      <trkpt lat="49.131043" lon="9.139018">
        <ele>978.000000</ele>
        <time>2021-07-11T10:58:11.000Z</time>
      </trkpt>
      <trkpt lat="49.131080" lon="9.139475">
        <ele>978.000000</ele>
        <time>2021-07-11T10:58:16.000Z</time>
      </trkpt>
      <trkpt lat="49.131182" lon="9.139920">
        <ele>978.000000</ele>
        <time>2021-07-11T10:58:21.000Z</time>
      </trkpt>
      <trkpt lat="49.131300" lon="9.140343">
        <ele>978.000000</ele>
        <time>2021-07-11T10:58:26.000Z</time>
      </trkpt>
      <trkpt lat="49.131420" lon="9.140733">
        <ele>977.916446</ele>
        <time>2021-07-11T10:58:31.000Z</time>
      </trkpt>
      <trkpt lat="49.131542" lon="9.141117">
        <ele>977.661969</ele>
        <time>2021-07-11T10:58:36.000Z</time>
      </trkpt>
      <trkpt lat="49.131622" lon="9.141498">
        <ele>977.423431</ele>
        <time>2021-07-11T10:58:41.000Z</time>
      </trkpt>
      <trkpt lat="49.131702" lon="9.141905">
        <ele>977.170090</ele>
        <time>2021-07-11T10:58:46.000Z</time>
      </trkpt>
      <trkpt lat="49.131830" lon="9.142332">
        <ele>976.890096</ele>
        <time>2021-07-11T10:58:51.000Z</time>
      </trkpt>
      <trkpt lat="49.131982" lon="9.142782">
        <ele>976.588198</ele>
        <time>2021-07-11T10:58:56.000Z</time>
      </trkpt>
      <trkpt lat="49.132130" lon="9.143243">
        <ele>976.285165</ele>
        <time>2021-07-11T10:59:01.000Z</time>
      </trkpt>
      <trkpt lat="49.132243" lon="9.143698">
        <ele>976.006337</ele>
        <time>2021-07-11T10:59:06.000Z</time>
      </trkpt>
      <trkpt lat="49.132385" lon="9.144078">
        <ele>975.755621</ele>
        <time>2021-07-11T10:59:11.000Z</time>
      </trkpt>
      <trkpt lat="49.132560" lon="9.144417">
        <ele>975.508230</ele>
        <time>2021-07-11T10:59:16.000Z</time>
      </trkpt>
      <trkpt lat="49.132635" lon="9.144555">
        <ele>975.405450</ele>
        <time>2021-07-11T10:59:21.000Z</time>
      </trkpt>
      <trkpt lat="49.132692" lon="9.144553">
        <ele>975.355527</ele>
        <time>2021-07-11T10:59:26.000Z</time>
      </trkpt>
      <trkpt lat="49.132672" lon="9.144545">
        <ele>975.337425</ele>
        <time>2021-07-11T10:59:26.000Z</time>
      </trkpt>
      <trkpt lat="49.132580" lon="9.144693">
        <ele>975.220467</ele>
        <time>2021-07-11T10:59:31.000Z</time>
      </trkpt>
      <trkpt lat="49.132608" lon="9.145028">
        <ele>975.026978</ele>
        <time>2021-07-11T10:59:36.000Z</time>
      </trkpt>
      <trkpt lat="49.132632" lon="9.145402">
        <ele>974.811676</ele>
        <time>2021-07-11T10:59:41.000Z</time>
      </trkpt>
      <trkpt lat="49.132648" lon="9.145762">
        <ele>975.358242</ele>
        <time>2021-07-11T10:59:46.000Z</time>
      </trkpt>
      <trkpt lat="49.132667" lon="9.146087">
        <ele>975.947503</ele>
        <time>2021-07-11T10:59:51.000Z</time>
      </trkpt>
      <trkpt lat="49.132677" lon="9.146402">
        <ele>976.517036</ele>
        <time>2021-07-11T10:59:56.000Z</time>
      </trkpt>
      <trkpt lat="49.132687" lon="9.146710">
        <ele>977.073942</ele>
        <time>2021-07-11T11:00:01.000Z</time>
      </trkpt>
      <trkpt lat="49.132700" lon="9.147027">
        <ele>977.647540</ele>
        <time>2021-07-11T11:00:06.000Z</time>
      </trkpt>
      <trkpt lat="49.132713" lon="9.147347">
        <ele>978.226546</ele>
        <time>2021-07-11T11:00:11.000Z</time>
      </trkpt>
      <trkpt lat="49.132722" lon="9.147667">
        <ele>978.804972</ele>
        <time>2021-07-11T11:00:16.000Z</time>
      </trkpt>
      <trkpt lat="49.132738" lon="9.147955">
        <ele>979.326947</ele>
        <time>2021-07-11T11:00:21.000Z</time>
      </trkpt>
      <trkpt lat="49.132750" lon="9.148182">
        <ele>979.738225</ele>
        <time>2021-07-11T11:00:26.000Z</time>
      </trkpt>
      <trkpt lat="49.132775" lon="9.148445">
        <ele>980.054062</ele>
        <time>2021-07-11T11:00:31.000Z</time>
      </trkpt>
      <trkpt lat="49.132782" lon="9.148705">
        <ele>980.359030</ele>
        <time>2021-07-11T11:00:36.000Z</time>
      </trkpt>
      <trkpt lat="49.132777" lon="9.148925">
        <ele>980.617017</ele>
        <time>2021-07-11T11:00:41.000Z</time>
      </trkpt>
      <trkpt lat="49.132777" lon="9.149205">
        <ele>980.945167</ele>
        <time>2021-07-11T11:00:46.000Z</time>
      </trkpt>
      <trkpt lat="49.132812" lon="9.149483">
        <ele>981.276949</ele>
        <time>2021-07-11T11:00:51.000Z</time>
      </trkpt>
      <trkpt lat="49.132825" lon="9.149760">
        <ele>981.602417</ele>
        <time>2021-07-11T11:00:56.000Z</time>
      </trkpt>
      <trkpt lat="49.132833" lon="9.150063">
        <ele>981.957811</ele>
        <time>2021-07-11T11:01:01.000Z</time>
      </trkpt>
      <trkpt lat="49.132833" lon="9.150392">
        <ele>982.343386</ele>
        <time>2021-07-11T11:01:06.000Z</time>
      </trkpt>
      <trkpt lat="49.132868" lon="9.150727">
        <ele>982.740967</ele>
        <time>2021-07-11T11:01:11.000Z</time>
      </trkpt>
      <trkpt lat="49.132892" lon="9.151083">
        <ele>982.973940</ele>
        <time>2021-07-11T11:01:16.000Z</time>
      </trkpt>
      <trkpt lat="49.132902" lon="9.151473">
        <ele>982.977869</ele>
        <time>2021-07-11T11:01:21.000Z</time>
      </trkpt>
      <trkpt lat="49.132933" lon="9.151852">
        <ele>982.981715</ele>
        <time>2021-07-11T11:01:26.000Z</time>
      </trkpt>
      <trkpt lat="49.132930" lon="9.152250">
        <ele>982.985722</ele>
        <time>2021-07-11T11:01:31.000Z</time>
      </trkpt>
      <trkpt lat="49.132953" lon="9.152655">
        <ele>982.989815</ele>
        <time>2021-07-11T11:01:36.000Z</time>
      </trkpt>
      <trkpt lat="49.132948" lon="9.153050">
        <ele>982.993792</ele>
        <time>2021-07-11T11:01:41.000Z</time>
      </trkpt>
      <trkpt lat="49.132960" lon="9.153470">
        <ele>982.998025</ele>
        <time>2021-07-11T11:01:46.000Z</time>
      </trkpt>
      <trkpt lat="49.132975" lon="9.153883">
        <ele>982.984716</ele>
        <time>2021-07-11T11:01:51.000Z</time>
      </trkpt>
      <trkpt lat="49.132990" lon="9.154305">
        <ele>982.955012</ele>
        <time>2021-07-11T11:01:56.000Z</time>
      </trkpt>
      <trkpt lat="49.133007" lon="9.154713">
        <ele>982.926277</ele>
        <time>2021-07-11T11:02:01.000Z</time>
      </trkpt>
      <trkpt lat="49.133025" lon="9.155138">
        <ele>982.896343</ele>
        <time>2021-07-11T11:02:06.000Z</time>
      </trkpt>
      <trkpt lat="49.133032" lon="9.155553">
        <ele>982.867164</ele>
        <time>2021-07-11T11:02:11.000Z</time>
      </trkpt>
      <trkpt lat="49.133045" lon="9.155963">
        <ele>982.838313</ele>
        <time>2021-07-11T11:02:16.000Z</time>
      </trkpt>
      <trkpt lat="49.133070" lon="9.156368">
        <ele>982.809721</ele>
        <time>2021-07-11T11:02:21.000Z</time>
      </trkpt>
      <trkpt lat="49.133107" lon="9.156767">
        <ele>982.488264</ele>
        <time>2021-07-11T11:02:26.000Z</time>
      </trkpt>
      <trkpt lat="49.133123" lon="9.157165">
        <ele>982.136681</ele>
        <time>2021-07-11T11:02:31.000Z</time>
      </trkpt>
      <trkpt lat="49.133143" lon="9.157552">
        <ele>981.794396</ele>
        <time>2021-07-11T11:02:36.000Z</time>
      </trkpt>
      <trkpt lat="49.133147" lon="9.157783">
        <ele>981.590650</ele>
        <time>2021-07-11T11:02:41.000Z</time>
      </trkpt>
      <trkpt lat="49.133153" lon="9.157785">
        <ele>981.582375</ele>
        <time>2021-07-11T11:02:41.000Z</time>
      </trkpt>
      <trkpt lat="49.133160" lon="9.157917">
        <ele>981.465607</ele>
        <time>2021-07-11T11:02:46.000Z</time>
      </trkpt>
      <trkpt lat="49.133197" lon="9.158238">
        <ele>981.178220</ele>
        <time>2021-07-11T11:02:51.000Z</time>
      </trkpt>
      <trkpt lat="49.133203" lon="9.158597">
        <ele>980.861583</ele>
        <time>2021-07-11T11:02:56.000Z</time>
      </trkpt>
      <trkpt lat="49.133225" lon="9.159038">
        <ele>980.471621</ele>
        <time>2021-07-11T11:03:01.000Z</time>
      </trkpt>
      <trkpt lat="49.133250" lon="9.159495">
        <ele>980.094680</ele>
        <time>2021-07-11T11:03:06.000Z</time>
      </trkpt>
      <trkpt lat="49.133278" lon="9.159960">
        <ele>979.718690</ele>
        <time>2021-07-11T11:03:11.000Z</time>
      </trkpt>
      <trkpt lat="49.133278" lon="9.160348">
        <ele>979.406281</ele>
        <time>2021-07-11T11:03:16.000Z</time>
      </trkpt>
      <trkpt lat="49.133320" lon="9.160842">
        <ele>979.005180</ele>
        <time>2021-07-11T11:03:21.000Z</time>
      </trkpt>
      <trkpt lat="49.133328" lon="9.161320">
        <ele>978.620180</ele>
        <time>2021-07-11T11:03:26.000Z</time>
      </trkpt>
      <trkpt lat="49.133352" lon="9.161753">
        <ele>978.270290</ele>
        <time>2021-07-11T11:03:31.000Z</time>
      </trkpt>
      <trkpt lat="49.133395" lon="9.162183">
        <ele>977.834216</ele>
        <time>2021-07-11T11:03:36.000Z</time>
      </trkpt>
      <trkpt lat="49.133425" lon="9.162647">
        <ele>977.329692</ele>
        <time>2021-07-11T11:03:41.000Z</time>
      </trkpt>
      <trkpt lat="49.133462" lon="9.163155">
        <ele>976.776608</ele>
        <time>2021-07-11T11:03:46.000Z</time>
      </trkpt>
      <trkpt lat="49.133492" lon="9.163655">
        <ele>976.233306</ele>
        <time>2021-07-11T11:03:51.000Z</time>
      </trkpt>
      <trkpt lat="49.133520" lon="9.164128">
        <ele>975.719399</ele>
        <time>2021-07-11T11:03:56.000Z</time>
      </trkpt>
      <trkpt lat="49.133552" lon="9.164623">
        <ele>975.184097</ele>
        <time>2021-07-11T11:04:01.000Z</time>
      </trkpt>
      <trkpt lat="49.133578" lon="9.165132">
        <ele>974.748003</ele>
        <time>2021-07-11T11:04:06.000Z</time>
      </trkpt>
      <trkpt lat="49.133608" lon="9.165633">
        <ele>974.318276</ele>
        <time>2021-07-11T11:04:11.000Z</time>
      </trkpt>
      <trkpt lat="49.133630" lon="9.166122">
        <ele>973.899602</ele>
        <time>2021-07-11T11:04:16.000Z</time>
      </trkpt>
      <trkpt lat="49.133657" lon="9.166625">
        <ele>973.468513</ele>
        <time>2021-07-11T11:04:21.000Z</time>
      </trkpt>
      <trkpt lat="49.133697" lon="9.167128">
        <ele>973.035705</ele>
        <time>2021-07-11T11:04:26.000Z</time>
      </trkpt>
      <trkpt lat="49.133755" lon="9.167670">
        <ele>972.567924</ele>
        <time>2021-07-11T11:04:31.000Z</time>
      </trkpt>
      <trkpt lat="49.133772" lon="9.168132">
        <ele>972.174548</ele>
        <time>2021-07-11T11:04:36.000Z</time>
      </trkpt>
      <trkpt lat="49.133835" lon="9.168685">
        <ele>971.697358</ele>
        <time>2021-07-11T11:04:41.000Z</time>
      </trkpt>
      <trkpt lat="49.133843" lon="9.169150">
        <ele>971.301916</ele>
        <time>2021-07-11T11:04:46.000Z</time>
      </trkpt>
      <trkpt lat="49.133878" lon="9.169627">
        <ele>970.893867</ele>
        <time>2021-07-11T11:04:51.000Z</time>
      </trkpt>
      <trkpt lat="49.133928" lon="9.170172">
        <ele>970.411803</ele>
        <time>2021-07-11T11:04:56.000Z</time>
      </trkpt>
      <trkpt lat="49.133942" lon="9.170693">
        <ele>969.893495</ele>
        <time>2021-07-11T11:05:01.000Z</time>
      </trkpt>
      <trkpt lat="49.134007" lon="9.171175">
        <ele>969.404319</ele>
        <time>2021-07-11T11:05:06.000Z</time>
      </trkpt>
      <trkpt lat="49.134045" lon="9.171680">
        <ele>968.899043</ele>
        <time>2021-07-11T11:05:11.000Z</time>
      </trkpt>
      <trkpt lat="49.134103" lon="9.172212">
        <ele>968.362948</ele>
        <time>2021-07-11T11:05:16.000Z</time>
      </trkpt>
      <trkpt lat="49.134183" lon="9.172765">
        <ele>967.799996</ele>
        <time>2021-07-11T11:05:21.000Z</time>
      </trkpt>
      <trkpt lat="49.134222" lon="9.173272">
        <ele>967.369171</ele>
        <time>2021-07-11T11:05:26.000Z</time>
      </trkpt>
      <trkpt lat="49.134272" lon="9.173780">
        <ele>966.939193</ele>
        <time>2021-07-11T11:05:31.000Z</time>
      </trkpt>
      <trkpt lat="49.134307" lon="9.174302">
        <ele>966.499995</ele>
        <time>2021-07-11T11:05:36.000Z</time>
      </trkpt>
      <trkpt lat="49.134342" lon="9.174793">
        <ele>966.086599</ele>
        <time>2021-07-11T11:05:41.000Z</time>
      </trkpt>
      <trkpt lat="49.134387" lon="9.175320">
        <ele>965.641764</ele>
        <time>2021-07-11T11:05:46.000Z</time>
      </trkpt>
      <trkpt lat="49.134438" lon="9.175838">
        <ele>965.267557</ele>
        <time>2021-07-11T11:05:51.000Z</time>
      </trkpt>
      <trkpt lat="49.134492" lon="9.176310">
        <ele>964.960758</ele>
        <time>2021-07-11T11:05:56.000Z</time>
      </trkpt>
      <trkpt lat="49.134545" lon="9.176813">
        <ele>964.634546</ele>
        <time>2021-07-11T11:06:01.000Z</time>
      </trkpt>
      <trkpt lat="49.134602" lon="9.177332">
        <ele>964.297591</ele>
        <time>2021-07-11T11:06:06.000Z</time>
      </trkpt>
      <trkpt lat="49.134660" lon="9.177843">
        <ele>963.965521</ele>
        <time>2021-07-11T11:06:11.000Z</time>
      </trkpt>
      <trkpt lat="49.134700" lon="9.178355">
        <ele>963.682614</ele>
        <time>2021-07-11T11:06:16.000Z</time>
      </trkpt>
      <trkpt lat="49.134730" lon="9.178842">
        <ele>963.551811</ele>
        <time>2021-07-11T11:06:21.000Z</time>
      </trkpt>
      <trkpt lat="49.134790" lon="9.179325">
        <ele>963.420347</ele>
        <time>2021-07-11T11:06:26.000Z</time>
      </trkpt>
      <trkpt lat="49.134830" lon="9.179780">
        <ele>963.297585</ele>
        <time>2021-07-11T11:06:31.000Z</time>
      </trkpt>
      <trkpt lat="49.134878" lon="9.180253">
        <ele>963.169590</ele>
        <time>2021-07-11T11:06:36.000Z</time>
      </trkpt>
      <trkpt lat="49.134963" lon="9.180755">
        <ele>963.030931</ele>
        <time>2021-07-11T11:06:41.000Z</time>
      </trkpt>
      <trkpt lat="49.134998" lon="9.181197">
        <ele>962.790291</ele>
        <time>2021-07-11T11:06:46.000Z</time>
      </trkpt>
      <trkpt lat="49.135020" lon="9.181617">
        <ele>962.480556</ele>
        <time>2021-07-11T11:06:51.000Z</time>
      </trkpt>
      <trkpt lat="49.135067" lon="9.182092">
        <ele>962.127408</ele>
        <time>2021-07-11T11:06:56.000Z</time>
      </trkpt>
      <trkpt lat="49.135133" lon="9.182523">
        <ele>961.802013</ele>
        <time>2021-07-11T11:07:01.000Z</time>
      </trkpt>
      <trkpt lat="49.135208" lon="9.182952">
        <ele>961.475587</ele>
        <time>2021-07-11T11:07:06.000Z</time>
      </trkpt>
      <trkpt lat="49.135265" lon="9.183407">
        <ele>961.135036</ele>
        <time>2021-07-11T11:07:11.000Z</time>
      </trkpt>
      <trkpt lat="49.135350" lon="9.183925">
        <ele>960.492501</ele>
        <time>2021-07-11T11:07:16.000Z</time>
      </trkpt>
      <trkpt lat="49.135417" lon="9.184487">
        <ele>959.591243</ele>
        <time>2021-07-11T11:07:21.000Z</time>
      </trkpt>
      <trkpt lat="49.135505" lon="9.185035">
        <ele>958.701014</ele>
        <time>2021-07-11T11:07:26.000Z</time>
      </trkpt>
      <trkpt lat="49.135607" lon="9.185568">
        <ele>957.824879</ele>
        <time>2021-07-11T11:07:31.000Z</time>
      </trkpt>
      <trkpt lat="49.135750" lon="9.186088">
        <ele>956.934967</ele>
        <time>2021-07-11T11:07:36.000Z</time>
      </trkpt>
      <trkpt lat="49.135875" lon="9.186595">
        <ele>956.076322</ele>
        <time>2021-07-11T11:07:41.000Z</time>
      </trkpt>
      <trkpt lat="49.136010" lon="9.187105">
        <ele>955.202187</ele>
        <time>2021-07-11T11:07:46.000Z</time>
      </trkpt>
      <trkpt lat="49.136145" lon="9.187607">
        <ele>954.339825</ele>
        <time>2021-07-11T11:07:51.000Z</time>
      </trkpt>
      <trkpt lat="49.136278" lon="9.188088">
        <ele>953.510131</ele>
        <time>2021-07-11T11:07:56.000Z</time>
      </trkpt>
      <trkpt lat="49.136398" lon="9.188545">
        <ele>952.727724</ele>
        <time>2021-07-11T11:08:01.000Z</time>
      </trkpt>
      <trkpt lat="49.136507" lon="9.188990">
        <ele>952.017472</ele>
        <time>2021-07-11T11:08:06.000Z</time>
      </trkpt>
      <trkpt lat="49.136613" lon="9.189427">
        <ele>951.394115</ele>
        <time>2021-07-11T11:08:11.000Z</time>
      </trkpt>
      <trkpt lat="49.136725" lon="9.189830">
        <ele>950.808496</ele>
        <time>2021-07-11T11:08:16.000Z</time>
      </trkpt>
      <trkpt lat="49.136790" lon="9.190238">
        <ele>950.246859</ele>
        <time>2021-07-11T11:08:21.000Z</time>
      </trkpt>
      <trkpt lat="49.136847" lon="9.190690">
        <ele>949.631191</ele>
        <time>2021-07-11T11:08:26.000Z</time>
      </trkpt>
      <trkpt lat="49.136870" lon="9.190905">
        <ele>949.339815</ele>
        <time>2021-07-11T11:08:30.000Z</time>
      </trkpt>
      <trkpt lat="49.136847" lon="9.190975">
        <ele>949.235048</ele>
        <time>2021-07-11T11:08:31.000Z</time>
      </trkpt>
      <trkpt lat="49.136845" lon="9.190993">
        <ele>949.210629</ele>
        <time>2021-07-11T11:08:31.000Z</time>
      </trkpt>
      <trkpt lat="49.136865" lon="9.191088">
        <ele>949.077153</ele>
        <time>2021-07-11T11:08:36.000Z</time>
      </trkpt>
      <trkpt lat="49.136880" lon="9.191387">
        <ele>948.676073</ele>
        <time>2021-07-11T11:08:41.000Z</time>
      </trkpt>
      <trkpt lat="49.136820" lon="9.191730">
        <ele>948.321218</ele>
        <time>2021-07-11T11:08:46.000Z</time>
      </trkpt>
      <trkpt lat="49.136770" lon="9.192020">
        <ele>948.047705</ele>
        <time>2021-07-11T11:08:51.000Z</time>
      </trkpt>
      <trkpt lat="49.136730" lon="9.192210">
        <ele>947.865673</ele>
        <time>2021-07-11T11:08:56.000Z</time>
      </trkpt>
      <trkpt lat="49.136730" lon="9.192387">
        <ele>947.704247</ele>
        <time>2021-07-11T11:09:01.000Z</time>
      </trkpt>
      <trkpt lat="49.136725" lon="9.192647">
        <ele>947.467022</ele>
        <time>2021-07-11T11:09:06.000Z</time>
      </trkpt>
      <trkpt lat="49.136725" lon="9.193013">
        <ele>947.133226</ele>
        <time>2021-07-11T11:09:11.000Z</time>
      </trkpt>
      <trkpt lat="49.136677" lon="9.193340">
        <ele>946.827584</ele>
        <time>2021-07-11T11:09:16.000Z</time>
      </trkpt>
      <trkpt lat="49.136607" lon="9.193507">
        <ele>946.646701</ele>
        <time>2021-07-11T11:09:21.000Z</time>
      </trkpt>
      <trkpt lat="49.136443" lon="9.193615">
        <ele>946.397774</ele>
        <time>2021-07-11T11:09:26.000Z</time>
      </trkpt>
      <trkpt lat="49.136255" lon="9.193592">
        <ele>946.134870</ele>
        <time>2021-07-11T11:09:31.000Z</time>
      </trkpt>
      <trkpt lat="49.136040" lon="9.193525">
        <ele>946.017187</ele>
        <time>2021-07-11T11:09:36.000Z</time>
      </trkpt>
      <trkpt lat="49.135763" lon="9.193492">
        <ele>945.930786</ele>
        <time>2021-07-11T11:09:41.000Z</time>
      </trkpt>
      <trkpt lat="49.135472" lon="9.193365">
        <ele>945.836675</ele>
        <time>2021-07-11T11:09:46.000Z</time>
      </trkpt>
      <trkpt lat="49.135218" lon="9.193273">
        <ele>945.755500</ele>
        <time>2021-07-11T11:09:51.000Z</time>
      </trkpt>
      <trkpt lat="49.134968" lon="9.193207">
        <ele>945.676605</ele>
        <time>2021-07-11T11:09:56.000Z</time>
      </trkpt>
      <trkpt lat="49.134812" lon="9.193190">
        <ele>945.627969</ele>
        <time>2021-07-11T11:10:01.000Z</time>
      </trkpt>
      <trkpt lat="49.134593" lon="9.193158">
        <ele>945.559555</ele>
        <time>2021-07-11T11:10:06.000Z</time>
      </trkpt>
      <trkpt lat="49.134333" lon="9.193090">
        <ele>945.424041</ele>
        <time>2021-07-11T11:10:11.000Z</time>
      </trkpt>
      <trkpt lat="49.134122" lon="9.193058">
        <ele>945.255473</ele>
        <time>2021-07-11T11:10:16.000Z</time>
      </trkpt>
      <trkpt lat="49.133895" lon="9.193005">
        <ele>945.072916</ele>
        <time>2021-07-11T11:10:21.000Z</time>
      </trkpt>
      <trkpt lat="49.133772" lon="9.193040">
        <ele>944.973451</ele>
        <time>2021-07-11T11:10:26.000Z</time>
      </trkpt>
      <trkpt lat="49.133712" lon="9.193417">
        <ele>944.771633</ele>
        <time>2021-07-11T11:10:31.000Z</time>
      </trkpt>
      <trkpt lat="49.133742" lon="9.193707">
        <ele>944.618912</ele>
        <time>2021-07-11T11:10:36.000Z</time>
      </trkpt>
      <trkpt lat="49.133762" lon="9.193830">
        <ele>944.552986</ele>
        <time>2021-07-11T11:10:41.000Z</time>
      </trkpt>
      <trkpt lat="49.133808" lon="9.193858">
        <ele>944.513623</ele>
        <time>2021-07-11T11:10:44.000Z</time>
      </trkpt>
      <trkpt lat="49.133735" lon="9.193932">
        <ele>944.443983</ele>
        <time>2021-07-11T11:10:46.000Z</time>
      </trkpt>
      <trkpt lat="49.133640" lon="9.194145">
        <ele>944.309896</ele>
        <time>2021-07-11T11:10:51.000Z</time>
      </trkpt>
      <trkpt lat="49.133507" lon="9.194243">
        <ele>944.192515</ele>
        <time>2021-07-11T11:10:56.000Z</time>
      </trkpt>
      <trkpt lat="49.133347" lon="9.194298">
        <ele>944.018170</ele>
        <time>2021-07-11T11:11:01.000Z</time>
      </trkpt>
      <trkpt lat="49.133130" lon="9.194213">
        <ele>943.445414</ele>
        <time>2021-07-11T11:11:06.000Z</time>
      </trkpt>
      <trkpt lat="49.132802" lon="9.194135">
        <ele>942.596695</ele>
        <time>2021-07-11T11:11:11.000Z</time>
      </trkpt>
      <trkpt lat="49.132582" lon="9.194157">
        <ele>942.032999</ele>
        <time>2021-07-11T11:11:16.000Z</time>
      </trkpt>
      <trkpt lat="49.132500" lon="9.194375">
        <ele>941.612330</ele>
        <time>2021-07-11T11:11:21.000Z</time>
      </trkpt>
      <trkpt lat="49.132482" lon="9.194713">
        <ele>941.045006</ele>
        <time>2021-07-11T11:11:26.000Z</time>
      </trkpt>
      <trkpt lat="49.132525" lon="9.195072">
        <ele>940.434441</ele>
        <time>2021-07-11T11:11:31.000Z</time>
      </trkpt>
      <trkpt lat="49.132538" lon="9.195398">
        <ele>939.888052</ele>
        <time>2021-07-11T11:11:36.000Z</time>
      </trkpt>
      <trkpt lat="49.132547" lon="9.195528">
        <ele>939.669356</ele>
        <time>2021-07-11T11:11:38.000Z</time>
      </trkpt>
      <trkpt lat="49.132920" lon="9.196852">
        <ele>941.964934</ele>
        <time>2021-07-11T11:11:41.000Z</time>
      </trkpt>
      <trkpt lat="49.132972" lon="9.196903">
        <ele>942.141102</ele>
        <time>2021-07-11T11:11:44.000Z</time>
      </trkpt>
      <trkpt lat="49.132973" lon="9.196955">
        <ele>942.238154</ele>
        <time>2021-07-11T11:11:46.000Z</time>
      </trkpt>
      <trkpt lat="49.132868" lon="9.197057">
        <ele>942.592893</ele>
        <time>2021-07-11T11:11:51.000Z</time>
      </trkpt>
      <trkpt lat="49.132732" lon="9.197115">
        <ele>942.995476</ele>
        <time>2021-07-11T11:11:56.000Z</time>
      </trkpt>
      <trkpt lat="49.132715" lon="9.197285">
        <ele>943.316310</ele>
        <time>2021-07-11T11:12:01.000Z</time>
      </trkpt>
      <trkpt lat="49.132750" lon="9.197502">
        <ele>943.733263</ele>
        <time>2021-07-11T11:12:06.000Z</time>
      </trkpt>
      <trkpt lat="49.132780" lon="9.197718">
        <ele>944.145210</ele>
        <time>2021-07-11T11:12:11.000Z</time>
      </trkpt>
      <trkpt lat="49.132743" lon="9.197947">
        <ele>944.585265</ele>
        <time>2021-07-11T11:12:16.000Z</time>
      </trkpt>
      <trkpt lat="49.132738" lon="9.198190">
        <ele>944.723161</ele>
        <time>2021-07-11T11:12:21.000Z</time>
      </trkpt>
      <trkpt lat="49.132728" lon="9.198417">
        <ele>944.833995</ele>
        <time>2021-07-11T11:12:26.000Z</time>
      </trkpt>
      <trkpt lat="49.132710" lon="9.198647">
        <ele>944.946838</ele>
        <time>2021-07-11T11:12:31.000Z</time>
      </trkpt>
      <trkpt lat="49.132678" lon="9.198860">
        <ele>945.053301</ele>
        <time>2021-07-11T11:12:36.000Z</time>
      </trkpt>
      <trkpt lat="49.132707" lon="9.198892">
        <ele>945.079932</ele>
        <time>2021-07-11T11:12:38.000Z</time>
      </trkpt>
      <trkpt lat="49.132692" lon="9.199052">
        <ele>945.158672</ele>
        <time>2021-07-11T11:12:41.000Z</time>
      </trkpt>
      <trkpt lat="49.132667" lon="9.199328">
        <ele>945.294408</ele>
        <time>2021-07-11T11:12:46.000Z</time>
      </trkpt>
      <trkpt lat="49.132635" lon="9.199640">
        <ele>945.448256</ele>
        <time>2021-07-11T11:12:51.000Z</time>
      </trkpt>
      <trkpt lat="49.132608" lon="9.199968">
        <ele>945.609301</ele>
        <time>2021-07-11T11:12:56.000Z</time>
      </trkpt>
      <trkpt lat="49.132597" lon="9.200325">
        <ele>945.783407</ele>
        <time>2021-07-11T11:13:01.000Z</time>
      </trkpt>
      <trkpt lat="49.132602" lon="9.200617">
        <ele>945.925705</ele>
        <time>2021-07-11T11:13:06.000Z</time>
      </trkpt>
      <trkpt lat="49.132642" lon="9.200768">
        <ele>945.711590</ele>
        <time>2021-07-11T11:13:09.000Z</time>
      </trkpt>
      <trkpt lat="49.132703" lon="9.200855">
        <ele>945.438111</ele>
        <time>2021-07-11T11:13:11.000Z</time>
      </trkpt>
      <trkpt lat="49.132752" lon="9.201102">
        <ele>944.884569</ele>
        <time>2021-07-11T11:13:16.000Z</time>
      </trkpt>
      <trkpt lat="49.132833" lon="9.201417">
        <ele>944.158707</ele>
        <time>2021-07-11T11:13:21.000Z</time>
      </trkpt>
      <trkpt lat="49.132910" lon="9.201795">
        <ele>943.309652</ele>
        <time>2021-07-11T11:13:26.000Z</time>
      </trkpt>
      <trkpt lat="49.132915" lon="9.202253">
        <ele>942.327268</ele>
        <time>2021-07-11T11:13:31.000Z</time>
      </trkpt>
      <trkpt lat="49.132968" lon="9.202683">
        <ele>941.388851</ele>
        <time>2021-07-11T11:13:36.000Z</time>
      </trkpt>
      <trkpt lat="49.133017" lon="9.203103">
        <ele>940.473895</ele>
        <time>2021-07-11T11:13:41.000Z</time>
      </trkpt>
      <trkpt lat="49.133148" lon="9.203488">
        <ele>939.987923</ele>
        <time>2021-07-11T11:13:46.000Z</time>
      </trkpt>
      <trkpt lat="49.133265" lon="9.203917">
        <ele>939.856834</ele>
        <time>2021-07-11T11:13:51.000Z</time>
      </trkpt>
      <trkpt lat="49.133380" lon="9.204280">
        <ele>939.743081</ele>
        <time>2021-07-11T11:13:56.000Z</time>
      </trkpt>
      <trkpt lat="49.133470" lon="9.204642">
        <ele>939.633857</ele>
        <time>2021-07-11T11:14:01.000Z</time>
      </trkpt>
      <trkpt lat="49.133513" lon="9.204962">
        <ele>939.541718</ele>
        <time>2021-07-11T11:14:06.000Z</time>
      </trkpt>
      <trkpt lat="49.133577" lon="9.205198">
        <ele>939.469664</ele>
        <time>2021-07-11T11:14:11.000Z</time>
      </trkpt>
      <trkpt lat="49.133653" lon="9.205452">
        <ele>939.390889</ele>
        <time>2021-07-11T11:14:16.000Z</time>
      </trkpt>
      <trkpt lat="49.133712" lon="9.205557">
        <ele>939.351852</ele>
        <time>2021-07-11T11:14:21.000Z</time>
      </trkpt>
      <trkpt lat="49.133812" lon="9.205830">
        <ele>939.315166</ele>
        <time>2021-07-11T11:14:26.000Z</time>
      </trkpt>
      <trkpt lat="49.133905" lon="9.206145">
        <ele>939.525692</ele>
        <time>2021-07-11T11:14:31.000Z</time>
      </trkpt>
      <trkpt lat="49.133993" lon="9.206525">
        <ele>939.771256</ele>
        <time>2021-07-11T11:14:36.000Z</time>
      </trkpt>
      <trkpt lat="49.134082" lon="9.206830">
        <ele>939.974699</ele>
        <time>2021-07-11T11:14:41.000Z</time>
      </trkpt>
      <trkpt lat="49.134155" lon="9.207057">
        <ele>940.128785</ele>
        <time>2021-07-11T11:14:46.000Z</time>
      </trkpt>
      <trkpt lat="49.134215" lon="9.207248">
        <ele>940.257855</ele>
        <time>2021-07-11T11:14:51.000Z</time>
      </trkpt>
      <trkpt lat="49.134292" lon="9.207455">
        <ele>940.402911</ele>
        <time>2021-07-11T11:14:56.000Z</time>
      </trkpt>
      <trkpt lat="49.134443" lon="9.207703">
        <ele>940.609284</ele>
        <time>2021-07-11T11:15:01.000Z</time>
      </trkpt>
      <trkpt lat="49.134723" lon="9.207962">
        <ele>940.914009</ele>
        <time>2021-07-11T11:15:06.000Z</time>
      </trkpt>
      <trkpt lat="49.135015" lon="9.208380">
        <ele>940.963579</ele>
        <time>2021-07-11T11:15:11.000Z</time>
      </trkpt>
      <trkpt lat="49.135313" lon="9.208787">
        <ele>940.973672</ele>
        <time>2021-07-11T11:15:16.000Z</time>
      </trkpt>
      <trkpt lat="49.135603" lon="9.209033">
        <ele>940.982048</ele>
        <time>2021-07-11T11:15:21.000Z</time>
      </trkpt>
      <trkpt lat="49.135875" lon="9.209233">
        <ele>940.989671</ele>
        <time>2021-07-11T11:15:26.000Z</time>
      </trkpt>
      <trkpt lat="49.136100" lon="9.209455">
        <ele>940.996435</ele>
        <time>2021-07-11T11:15:31.000Z</time>
      </trkpt>
      <trkpt lat="49.136255" lon="9.209698">
        <ele>941.000000</ele>
        <time>2021-07-11T11:15:36.000Z</time>
      </trkpt>
      <trkpt lat="49.136478" lon="9.209943">
        <ele>941.000000</ele>
        <time>2021-07-11T11:15:41.000Z</time>
      </trkpt>
      <trkpt lat="49.136795" lon="9.210082">
        <ele>941.000000</ele>
        <time>2021-07-11T11:15:46.000Z</time>
      </trkpt>
      <trkpt lat="49.137143" lon="9.210345">
        <ele>941.000000</ele>
        <time>2021-07-11T11:15:51.000Z</time>
      </trkpt>
      <trkpt lat="49.137402" lon="9.210648">
        <ele>941.000000</ele>
        <time>2021-07-11T11:15:56.000Z</time>
      </trkpt>
      <trkpt lat="49.137657" lon="9.211025">
        <ele>941.000000</ele>
        <time>2021-07-11T11:16:01.000Z</time>
      </trkpt>
      <trkpt lat="49.137905" lon="9.211318">
        <ele>941.000000</ele>
        <time>2021-07-11T11:16:06.000Z</time>
      </trkpt>
      <trkpt lat="49.138102" lon="9.211565">
        <ele>941.000000</ele>
        <time>2021-07-11T11:16:11.000Z</time>
      </trkpt>
      <trkpt lat="49.138263" lon="9.211798">
        <ele>941.000000</ele>
        <time>2021-07-11T11:16:16.000Z</time>
      </trkpt>
      <trkpt lat="49.138445" lon="9.212015">
        <ele>941.000000</ele>
        <time>2021-07-11T11:16:21.000Z</time>
      </trkpt>
      <trkpt lat="49.138638" lon="9.212213">
        <ele>941.000000</ele>
        <time>2021-07-11T11:16:26.000Z</time>
      </trkpt>
      <trkpt lat="49.138805" lon="9.212420">
        <ele>941.000000</ele>
        <time>2021-07-11T11:16:31.000Z</time>
      </trkpt>
      <trkpt lat="49.138987" lon="9.212667">
        <ele>941.000000</ele>
        <time>2021-07-11T11:16:36.000Z</time>
      </trkpt>
      <trkpt lat="49.139182" lon="9.212892">
        <ele>941.000000</ele>
        <time>2021-07-11T11:16:41.000Z</time>
      </trkpt>
      <trkpt lat="49.139433" lon="9.213130">
        <ele>941.000000</ele>
        <time>2021-07-11T11:16:46.000Z</time>
      </trkpt>
      <trkpt lat="49.139657" lon="9.213323">
        <ele>941.000000</ele>
        <time>2021-07-11T11:16:51.000Z</time>
      </trkpt>
      <trkpt lat="49.139782" lon="9.213462">
        <ele>941.000000</ele>
        <time>2021-07-11T11:16:55.000Z</time>
      </trkpt>
      <trkpt lat="49.139817" lon="9.213482">
        <ele>941.000000</ele>
        <time>2021-07-11T11:16:56.000Z</time>
      </trkpt>
      <trkpt lat="49.139935" lon="9.213455">
        <ele>941.000000</ele>
        <time>2021-07-11T11:17:01.000Z</time>
      </trkpt>
      <trkpt lat="49.140065" lon="9.213312">
        <ele>941.000000</ele>
        <time>2021-07-11T11:17:06.000Z</time>
      </trkpt>
      <trkpt lat="49.140185" lon="9.213057">
        <ele>941.000000</ele>
        <time>2021-07-11T11:17:11.000Z</time>
      </trkpt>
      <trkpt lat="49.140328" lon="9.212727">
        <ele>941.000000</ele>
        <time>2021-07-11T11:17:16.000Z</time>
      </trkpt>
      <trkpt lat="49.140438" lon="9.212420">
        <ele>941.000000</ele>
        <time>2021-07-11T11:17:21.000Z</time>
      </trkpt>
      <trkpt lat="49.140500" lon="9.212093">
        <ele>941.000000</ele>
        <time>2021-07-11T11:17:26.000Z</time>
      </trkpt>
      <trkpt lat="49.140490" lon="9.211848">
        <ele>941.000000</ele>
        <time>2021-07-11T11:17:31.000Z</time>
      </trkpt>
      <trkpt lat="49.140495" lon="9.211585">
        <ele>941.000000</ele>
        <time>2021-07-11T11:17:36.000Z</time>
      </trkpt>
      <trkpt lat="49.140642" lon="9.211537">
        <ele>941.000000</ele>
        <time>2021-07-11T11:17:41.000Z</time>
      </trkpt>
      <trkpt lat="49.140810" lon="9.211540">
        <ele>941.000000</ele>
        <time>2021-07-11T11:17:46.000Z</time>
      </trkpt>
      <trkpt lat="49.140892" lon="9.211525">
        <ele>941.000000</ele>
        <time>2021-07-11T11:17:51.000Z</time>
      </trkpt>
      <trkpt lat="49.140937" lon="9.211497">
        <ele>941.000000</ele>
        <time>2021-07-11T11:17:54.000Z</time>
      </trkpt>
      <trkpt lat="49.141145" lon="9.211463">
        <ele>941.000000</ele>
        <time>2021-07-11T11:17:56.000Z</time>
      </trkpt>
      <trkpt lat="49.141157" lon="9.211335">
        <ele>941.000000</ele>
        <time>2021-07-11T11:18:01.000Z</time>
      </trkpt>
      <trkpt lat="49.141143" lon="9.211073">
        <ele>941.000000</ele>
        <time>2021-07-11T11:18:06.000Z</time>
      </trkpt>
      <trkpt lat="49.141135" lon="9.210753">
        <ele>941.000000</ele>
        <time>2021-07-11T11:18:11.000Z</time>
      </trkpt>
      <trkpt lat="49.141120" lon="9.210377">
        <ele>941.000000</ele>
        <time>2021-07-11T11:18:16.000Z</time>
      </trkpt>
      <trkpt lat="49.141125" lon="9.210018">
        <ele>941.000000</ele>
        <time>2021-07-11T11:18:21.000Z</time>
      </trkpt>
      <trkpt lat="49.141143" lon="9.209720">
        <ele>941.000000</ele>
        <time>2021-07-11T11:18:26.000Z</time>
      </trkpt>
      <trkpt lat="49.141130" lon="9.209378">
        <ele>941.000000</ele>
        <time>2021-07-11T11:18:31.000Z</time>
      </trkpt>
      <trkpt lat="49.141080" lon="9.209085">
        <ele>941.000000</ele>
        <time>2021-07-11T11:18:36.000Z</time>
      </trkpt>
      <trkpt lat="49.141067" lon="9.208863">
        <ele>941.000000</ele>
        <time>2021-07-11T11:18:40.000Z</time>
      </trkpt>
      <trkpt lat="49.141067" lon="9.208775">
        <ele>941.000000</ele>
        <time>2021-07-11T11:18:41.000Z</time>
      </trkpt>
      <trkpt lat="49.141063" lon="9.208752">
        <ele>941.000000</ele>
        <time>2021-07-11T11:18:41.000Z</time>
      </trkpt>
      <trkpt lat="49.141053" lon="9.208305">
        <ele>941.000000</ele>
        <time>2021-07-11T11:18:46.000Z</time>
      </trkpt>
      <trkpt lat="49.141082" lon="9.207987">
        <ele>941.000000</ele>
        <time>2021-07-11T11:18:51.000Z</time>
      </trkpt>
      <trkpt lat="49.141090" lon="9.207693">
        <ele>941.000000</ele>
        <time>2021-07-11T11:18:56.000Z</time>
      </trkpt>
      <trkpt lat="49.141155" lon="9.207440">
        <ele>941.000000</ele>
        <time>2021-07-11T11:19:01.000Z</time>
      </trkpt>
      <trkpt lat="49.141185" lon="9.207322">
        <ele>941.000000</ele>
        <time>2021-07-11T11:19:06.000Z</time>
      </trkpt>
      <trkpt lat="49.141348" lon="9.207160">
        <ele>941.000000</ele>
        <time>2021-07-11T11:19:11.000Z</time>
      </trkpt>
      <trkpt lat="49.141548" lon="9.207118">
        <ele>941.000000</ele>
        <time>2021-07-11T11:19:16.000Z</time>
      </trkpt>
      <trkpt lat="49.141780" lon="9.207102">
        <ele>941.000000</ele>
        <time>2021-07-11T11:19:21.000Z</time>
      </trkpt>
      <trkpt lat="49.141948" lon="9.207092">
        <ele>941.000000</ele>
        <time>2021-07-11T11:19:26.000Z</time>
      </trkpt>
      <trkpt lat="49.141995" lon="9.207115">
        <ele>941.000000</ele>
        <time>2021-07-11T11:19:27.000Z</time>
      </trkpt>
      <trkpt lat="49.142043" lon="9.207248">
        <ele>941.000000</ele>
        <time>2021-07-11T11:19:31.000Z</time>
      </trkpt>
      <trkpt lat="49.142060" lon="9.207312">
        <ele>941.000000</ele>
        <time>2021-07-11T11:19:33.000Z</time>
      </trkpt>
      <trkpt lat="49.142110" lon="9.207427">
        <ele>941.000000</ele>
        <time>2021-07-11T11:19:36.000Z</time>
      </trkpt>
      <trkpt lat="49.142208" lon="9.207655">
        <ele>941.000000</ele>
        <time>2021-07-11T11:19:41.000Z</time>
      </trkpt>
      <trkpt lat="49.142278" lon="9.207893">
        <ele>941.000000</ele>
        <time>2021-07-11T11:19:46.000Z</time>
      </trkpt>
      <trkpt lat="49.142362" lon="9.208068">
        <ele>941.000000</ele>
        <time>2021-07-11T11:19:51.000Z</time>
      </trkpt>
      <trkpt lat="49.142462" lon="9.208048">
        <ele>941.000000</ele>
        <time>2021-07-11T11:19:56.000Z</time>
      </trkpt>
      <trkpt lat="49.142543" lon="9.208052">
        <ele>941.000000</ele>
        <time>2021-07-11T11:20:01.000Z</time>
      </trkpt>
      <trkpt lat="49.142627" lon="9.208113">
        <ele>941.000000</ele>
        <time>2021-07-11T11:20:06.000Z</time>
      </trkpt>
      <trkpt lat="49.142630" lon="9.208123">
        <ele>941.000000</ele>
        <time>2021-07-11T11:20:08.000Z</time>
      </trkpt>
    </trkseg>
  </trk>
</gpx>